<?xml version="1.0" encoding="utf-8"?><gpx version="1.1" creator="Strava GPX downloader (https://chrome.google.com/webstore/detail/strava-gpx-downloader/pnglhfabfkchkadgnkfacoakincdpeeg)" xmlns="http://www.topografix.com/GPX/1/1" xmlns:xsi="http://www.w3.org/2001/XMLSchema-instance" xsi:schemaLocation="http://www.topografix.com/GPX/1/1 http://www.topografix.com/GPX/1/1/gpx.xsd" xmlns:gpxtpx="http://www.garmin.com/xmlschemas/TrackPointExtension/v1"><metadata><time>1970-01-01T00:00:00.000Z</time><link href="https://www.strava.com/activities/2268966886/"><text>Strava</text></link></metadata><trk><name>Весенний бор</name><type>Велосипед</type><trkseg><trkpt lat="51.682353" lon="39.267463"><ele>113</ele><time>1970-01-01T00:00:00.000Z</time></trkpt><trkpt lat="51.682352" lon="39.267462"><ele>113</ele><time>1970-01-01T00:00:01.000Z</time></trkpt><trkpt lat="51.682296" lon="39.267418"><ele>113</ele><time>1970-01-01T00:00:11.000Z</time></trkpt><trkpt lat="51.682294" lon="39.267433"><ele>113</ele><time>1970-01-01T00:00:12.000Z</time></trkpt><trkpt lat="51.682301" lon="39.267465"><ele>113</ele><time>1970-01-01T00:00:13.000Z</time></trkpt><trkpt lat="51.682306" lon="39.267501"><ele>113</ele><time>1970-01-01T00:00:14.000Z</time></trkpt><trkpt lat="51.682306" lon="39.26754"><ele>113</ele><time>1970-01-01T00:00:15.000Z</time></trkpt><trkpt lat="51.68228" lon="39.267936"><ele>113.3</ele><time>1970-01-01T00:00:22.000Z</time></trkpt><trkpt lat="51.682282" lon="39.268071"><ele>113.4</ele><time>1970-01-01T00:00:24.000Z</time></trkpt><trkpt lat="51.682183" lon="39.268711"><ele>113.5</ele><time>1970-01-01T00:00:34.000Z</time></trkpt><trkpt lat="51.682116" lon="39.268976"><ele>113.6</ele><time>1970-01-01T00:00:39.000Z</time></trkpt><trkpt lat="51.682098" lon="39.268984"><ele>113.7</ele><time>1970-01-01T00:00:40.000Z</time></trkpt><trkpt lat="51.68207" lon="39.268974"><ele>113.9</ele><time>1970-01-01T00:00:41.000Z</time></trkpt><trkpt lat="51.682044" lon="39.26896"><ele>114</ele><time>1970-01-01T00:00:42.000Z</time></trkpt><trkpt lat="51.682016" lon="39.26894"><ele>114</ele><time>1970-01-01T00:00:43.000Z</time></trkpt><trkpt lat="51.681986" lon="39.268917"><ele>114</ele><time>1970-01-01T00:00:44.000Z</time></trkpt><trkpt lat="51.681745" lon="39.268819"><ele>115</ele><time>1970-01-01T00:00:52.000Z</time></trkpt><trkpt lat="51.681438" lon="39.26874"><ele>116</ele><time>1970-01-01T00:01:00.000Z</time></trkpt><trkpt lat="51.681034" lon="39.268579"><ele>116</ele><time>1970-01-01T00:01:10.000Z</time></trkpt><trkpt lat="51.681001" lon="39.268606"><ele>116</ele><time>1970-01-01T00:01:11.000Z</time></trkpt><trkpt lat="51.680982" lon="39.268655"><ele>115.9</ele><time>1970-01-01T00:01:12.000Z</time></trkpt><trkpt lat="51.680971" lon="39.268711"><ele>115.9</ele><time>1970-01-01T00:01:13.000Z</time></trkpt><trkpt lat="51.680965" lon="39.268773"><ele>115.8</ele><time>1970-01-01T00:01:14.000Z</time></trkpt><trkpt lat="51.680958" lon="39.268836"><ele>115.7</ele><time>1970-01-01T00:01:15.000Z</time></trkpt><trkpt lat="51.680951" lon="39.268909"><ele>115.5</ele><time>1970-01-01T00:01:16.000Z</time></trkpt><trkpt lat="51.680946" lon="39.268987"><ele>115.2</ele><time>1970-01-01T00:01:17.000Z</time></trkpt><trkpt lat="51.680939" lon="39.269061"><ele>115.1</ele><time>1970-01-01T00:01:18.000Z</time></trkpt><trkpt lat="51.680932" lon="39.269136"><ele>114.8</ele><time>1970-01-01T00:01:19.000Z</time></trkpt><trkpt lat="51.680817" lon="39.269635"><ele>114.7</ele><time>1970-01-01T00:01:27.000Z</time></trkpt><trkpt lat="51.68071" lon="39.269645"><ele>114.6</ele><time>1970-01-01T00:01:32.000Z</time></trkpt><trkpt lat="51.680299" lon="39.269657"><ele>113.6</ele><time>1970-01-01T00:01:44.000Z</time></trkpt><trkpt lat="51.680109" lon="39.269624"><ele>114.2</ele><time>1970-01-01T00:01:51.000Z</time></trkpt><trkpt lat="51.679919" lon="39.269848"><ele>113.5</ele><time>1970-01-01T00:01:57.000Z</time></trkpt><trkpt lat="51.679871" lon="39.269855"><ele>113.4</ele><time>1970-01-01T00:01:58.000Z</time></trkpt><trkpt lat="51.679829" lon="39.269854"><ele>113.3</ele><time>1970-01-01T00:01:59.000Z</time></trkpt><trkpt lat="51.679652" lon="39.269867"><ele>112.9</ele><time>1970-01-01T00:02:04.000Z</time></trkpt><trkpt lat="51.679639" lon="39.2699"><ele>112.9</ele><time>1970-01-01T00:02:05.000Z</time></trkpt><trkpt lat="51.67964" lon="39.269946"><ele>112.9</ele><time>1970-01-01T00:02:06.000Z</time></trkpt><trkpt lat="51.679645" lon="39.269997"><ele>112.9</ele><time>1970-01-01T00:02:07.000Z</time></trkpt><trkpt lat="51.679655" lon="39.270049"><ele>112.9</ele><time>1970-01-01T00:02:08.000Z</time></trkpt><trkpt lat="51.679643" lon="39.270609"><ele>110.9</ele><time>1970-01-01T00:02:19.000Z</time></trkpt><trkpt lat="51.679624" lon="39.271241"><ele>110.5</ele><time>1970-01-01T00:02:31.000Z</time></trkpt><trkpt lat="51.679667" lon="39.271871"><ele>108.6</ele><time>1970-01-01T00:02:44.000Z</time></trkpt><trkpt lat="51.67972" lon="39.272119"><ele>107.8</ele><time>1970-01-01T00:02:49.000Z</time></trkpt><trkpt lat="51.679751" lon="39.272135"><ele>107.7</ele><time>1970-01-01T00:02:50.000Z</time></trkpt><trkpt lat="51.679787" lon="39.272143"><ele>107.6</ele><time>1970-01-01T00:02:51.000Z</time></trkpt><trkpt lat="51.679824" lon="39.272154"><ele>107.5</ele><time>1970-01-01T00:02:52.000Z</time></trkpt><trkpt lat="51.679858" lon="39.27217"><ele>107.5</ele><time>1970-01-01T00:02:53.000Z</time></trkpt><trkpt lat="51.679892" lon="39.272185"><ele>107.4</ele><time>1970-01-01T00:02:54.000Z</time></trkpt><trkpt lat="51.679923" lon="39.272198"><ele>107.4</ele><time>1970-01-01T00:02:55.000Z</time></trkpt><trkpt lat="51.679956" lon="39.272209"><ele>107.4</ele><time>1970-01-01T00:02:56.000Z</time></trkpt><trkpt lat="51.680031" lon="39.27225"><ele>107.3</ele><time>1970-01-01T00:02:59.000Z</time></trkpt><trkpt lat="51.680042" lon="39.272267"><ele>107.2</ele><time>1970-01-01T00:03:03.000Z</time></trkpt><trkpt lat="51.680025" lon="39.272461"><ele>107</ele><time>1970-01-01T00:03:25.000Z</time></trkpt><trkpt lat="51.680019" lon="39.272596"><ele>107</ele><time>1970-01-01T00:03:31.000Z</time></trkpt><trkpt lat="51.680012" lon="39.272689"><ele>107</ele><time>1970-01-01T00:03:35.000Z</time></trkpt><trkpt lat="51.680124" lon="39.272712"><ele>107.5</ele><time>1970-01-01T00:03:49.000Z</time></trkpt><trkpt lat="51.680197" lon="39.272882"><ele>108.1</ele><time>1970-01-01T00:04:07.000Z</time></trkpt><trkpt lat="51.680419" lon="39.273"><ele>109.3</ele><time>1970-01-01T00:04:16.000Z</time></trkpt><trkpt lat="51.680428" lon="39.27303"><ele>109.4</ele><time>1970-01-01T00:04:17.000Z</time></trkpt><trkpt lat="51.680441" lon="39.273096"><ele>109.6</ele><time>1970-01-01T00:04:19.000Z</time></trkpt><trkpt lat="51.680464" lon="39.273238"><ele>110.1</ele><time>1970-01-01T00:04:23.000Z</time></trkpt><trkpt lat="51.680454" lon="39.273274"><ele>110.2</ele><time>1970-01-01T00:04:24.000Z</time></trkpt><trkpt lat="51.68044" lon="39.273311"><ele>110.4</ele><time>1970-01-01T00:04:25.000Z</time></trkpt><trkpt lat="51.680579" lon="39.273616"><ele>111.5</ele><time>1970-01-01T00:04:34.000Z</time></trkpt><trkpt lat="51.680603" lon="39.273637"><ele>111.6</ele><time>1970-01-01T00:04:35.000Z</time></trkpt><trkpt lat="51.680863" lon="39.273847"><ele>112.4</ele><time>1970-01-01T00:04:44.000Z</time></trkpt><trkpt lat="51.681027" lon="39.273922"><ele>112.7</ele><time>1970-01-01T00:04:48.000Z</time></trkpt><trkpt lat="51.6812" lon="39.273989"><ele>112.8</ele><time>1970-01-01T00:04:52.000Z</time></trkpt><trkpt lat="51.681334" lon="39.274015"><ele>112.9</ele><time>1970-01-01T00:04:55.000Z</time></trkpt><trkpt lat="51.682032" lon="39.274191"><ele>114.4</ele><time>1970-01-01T00:05:09.000Z</time></trkpt><trkpt lat="51.682326" lon="39.274278"><ele>114.7</ele><time>1970-01-01T00:05:19.000Z</time></trkpt><trkpt lat="51.682327" lon="39.274278"><ele>114.7</ele><time>1970-01-01T00:05:21.000Z</time></trkpt><trkpt lat="51.682402" lon="39.27428"><ele>114.7</ele><time>1970-01-01T00:06:49.000Z</time></trkpt><trkpt lat="51.682585" lon="39.274297"><ele>115</ele><time>1970-01-01T00:06:54.000Z</time></trkpt><trkpt lat="51.682761" lon="39.274355"><ele>115.2</ele><time>1970-01-01T00:06:58.000Z</time></trkpt><trkpt lat="51.683229" lon="39.274391"><ele>115.4</ele><time>1970-01-01T00:07:07.000Z</time></trkpt><trkpt lat="51.683323" lon="39.274392"><ele>115.3</ele><time>1970-01-01T00:07:09.000Z</time></trkpt><trkpt lat="51.683514" lon="39.274465"><ele>115.6</ele><time>1970-01-01T00:07:13.000Z</time></trkpt><trkpt lat="51.68407" lon="39.27455"><ele>116.4</ele><time>1970-01-01T00:07:23.000Z</time></trkpt><trkpt lat="51.684182" lon="39.274544"><ele>116.4</ele><time>1970-01-01T00:07:25.000Z</time></trkpt><trkpt lat="51.684285" lon="39.274576"><ele>116.6</ele><time>1970-01-01T00:07:27.000Z</time></trkpt><trkpt lat="51.684384" lon="39.274636"><ele>116.8</ele><time>1970-01-01T00:07:29.000Z</time></trkpt><trkpt lat="51.684648" lon="39.274756"><ele>117.4</ele><time>1970-01-01T00:07:34.000Z</time></trkpt><trkpt lat="51.684871" lon="39.274805"><ele>117.8</ele><time>1970-01-01T00:07:38.000Z</time></trkpt><trkpt lat="51.685378" lon="39.2749"><ele>118.1</ele><time>1970-01-01T00:07:47.000Z</time></trkpt><trkpt lat="51.68622" lon="39.275105"><ele>117.5</ele><time>1970-01-01T00:08:01.000Z</time></trkpt><trkpt lat="51.686574" lon="39.275185"><ele>117.5</ele><time>1970-01-01T00:08:08.000Z</time></trkpt><trkpt lat="51.686727" lon="39.275227"><ele>117.2</ele><time>1970-01-01T00:08:11.000Z</time></trkpt><trkpt lat="51.686991" lon="39.275379"><ele>117</ele><time>1970-01-01T00:08:16.000Z</time></trkpt><trkpt lat="51.687208" lon="39.275416"><ele>117.1</ele><time>1970-01-01T00:08:21.000Z</time></trkpt><trkpt lat="51.687411" lon="39.27536"><ele>116.8</ele><time>1970-01-01T00:08:25.000Z</time></trkpt><trkpt lat="51.687595" lon="39.275314"><ele>116.3</ele><time>1970-01-01T00:08:29.000Z</time></trkpt><trkpt lat="51.688141" lon="39.275389"><ele>115.6</ele><time>1970-01-01T00:08:40.000Z</time></trkpt><trkpt lat="51.688864" lon="39.275593"><ele>115.3</ele><time>1970-01-01T00:08:53.000Z</time></trkpt><trkpt lat="51.688922" lon="39.27561"><ele>115.2</ele><time>1970-01-01T00:08:54.000Z</time></trkpt><trkpt lat="51.689141" lon="39.275643"><ele>115.2</ele><time>1970-01-01T00:08:58.000Z</time></trkpt><trkpt lat="51.689407" lon="39.275757"><ele>114.9</ele><time>1970-01-01T00:09:03.000Z</time></trkpt><trkpt lat="51.689818" lon="39.275857"><ele>115.2</ele><time>1970-01-01T00:09:10.000Z</time></trkpt><trkpt lat="51.690244" lon="39.275946"><ele>115.2</ele><time>1970-01-01T00:09:17.000Z</time></trkpt><trkpt lat="51.690733" lon="39.276042"><ele>115.4</ele><time>1970-01-01T00:09:25.000Z</time></trkpt><trkpt lat="51.691236" lon="39.27617"><ele>115.2</ele><time>1970-01-01T00:09:34.000Z</time></trkpt><trkpt lat="51.691359" lon="39.276194"><ele>115.1</ele><time>1970-01-01T00:09:36.000Z</time></trkpt><trkpt lat="51.69206" lon="39.276362"><ele>113.8</ele><time>1970-01-01T00:09:48.000Z</time></trkpt><trkpt lat="51.692709" lon="39.27652"><ele>114.4</ele><time>1970-01-01T00:09:59.000Z</time></trkpt><trkpt lat="51.692833" lon="39.276538"><ele>114.4</ele><time>1970-01-01T00:10:01.000Z</time></trkpt><trkpt lat="51.693019" lon="39.276594"><ele>114.4</ele><time>1970-01-01T00:10:04.000Z</time></trkpt><trkpt lat="51.693469" lon="39.276671"><ele>114.3</ele><time>1970-01-01T00:10:11.000Z</time></trkpt><trkpt lat="51.693705" lon="39.276785"><ele>114.3</ele><time>1970-01-01T00:10:15.000Z</time></trkpt><trkpt lat="51.694017" lon="39.276807"><ele>114.7</ele><time>1970-01-01T00:10:21.000Z</time></trkpt><trkpt lat="51.694482" lon="39.276966"><ele>115.8</ele><time>1970-01-01T00:10:30.000Z</time></trkpt><trkpt lat="51.694527" lon="39.27701"><ele>115.9</ele><time>1970-01-01T00:10:31.000Z</time></trkpt><trkpt lat="51.694882" lon="39.277413"><ele>115.8</ele><time>1970-01-01T00:10:40.000Z</time></trkpt><trkpt lat="51.695001" lon="39.277536"><ele>115.9</ele><time>1970-01-01T00:10:43.000Z</time></trkpt><trkpt lat="51.695078" lon="39.277623"><ele>116</ele><time>1970-01-01T00:10:45.000Z</time></trkpt><trkpt lat="51.695127" lon="39.277657"><ele>116.1</ele><time>1970-01-01T00:10:46.000Z</time></trkpt><trkpt lat="51.695175" lon="39.27769"><ele>116.3</ele><time>1970-01-01T00:10:47.000Z</time></trkpt><trkpt lat="51.69527" lon="39.277773"><ele>116.8</ele><time>1970-01-01T00:10:49.000Z</time></trkpt><trkpt lat="51.695312" lon="39.277819"><ele>116.9</ele><time>1970-01-01T00:10:50.000Z</time></trkpt><trkpt lat="51.695349" lon="39.277867"><ele>117.2</ele><time>1970-01-01T00:10:51.000Z</time></trkpt><trkpt lat="51.695392" lon="39.277913"><ele>117.5</ele><time>1970-01-01T00:10:52.000Z</time></trkpt><trkpt lat="51.695441" lon="39.277957"><ele>117.6</ele><time>1970-01-01T00:10:53.000Z</time></trkpt><trkpt lat="51.695758" lon="39.278207"><ele>117.8</ele><time>1970-01-01T00:10:59.000Z</time></trkpt><trkpt lat="51.695865" lon="39.278277"><ele>117.7</ele><time>1970-01-01T00:11:01.000Z</time></trkpt><trkpt lat="51.696166" lon="39.278568"><ele>117</ele><time>1970-01-01T00:11:08.000Z</time></trkpt><trkpt lat="51.696204" lon="39.278615"><ele>117</ele><time>1970-01-01T00:11:09.000Z</time></trkpt><trkpt lat="51.696244" lon="39.278662"><ele>117</ele><time>1970-01-01T00:11:10.000Z</time></trkpt><trkpt lat="51.696288" lon="39.278705"><ele>117</ele><time>1970-01-01T00:11:11.000Z</time></trkpt><trkpt lat="51.696331" lon="39.278743"><ele>116.9</ele><time>1970-01-01T00:11:12.000Z</time></trkpt><trkpt lat="51.696375" lon="39.278783"><ele>116.6</ele><time>1970-01-01T00:11:13.000Z</time></trkpt><trkpt lat="51.696422" lon="39.278826"><ele>116.3</ele><time>1970-01-01T00:11:14.000Z</time></trkpt><trkpt lat="51.696467" lon="39.278869"><ele>116</ele><time>1970-01-01T00:11:15.000Z</time></trkpt><trkpt lat="51.696512" lon="39.278907"><ele>116</ele><time>1970-01-01T00:11:16.000Z</time></trkpt><trkpt lat="51.696561" lon="39.278943"><ele>116</ele><time>1970-01-01T00:11:17.000Z</time></trkpt><trkpt lat="51.696681" lon="39.279054"><ele>116.2</ele><time>1970-01-01T00:11:20.000Z</time></trkpt><trkpt lat="51.696725" lon="39.279096"><ele>116.6</ele><time>1970-01-01T00:11:21.000Z</time></trkpt><trkpt lat="51.696908" lon="39.279274"><ele>117.4</ele><time>1970-01-01T00:11:25.000Z</time></trkpt><trkpt lat="51.697306" lon="39.279604"><ele>119.6</ele><time>1970-01-01T00:11:33.000Z</time></trkpt><trkpt lat="51.69752" lon="39.279812"><ele>119.8</ele><time>1970-01-01T00:11:38.000Z</time></trkpt><trkpt lat="51.698127" lon="39.280378"><ele>119.5</ele><time>1970-01-01T00:11:50.000Z</time></trkpt><trkpt lat="51.698266" lon="39.280501"><ele>119.1</ele><time>1970-01-01T00:11:53.000Z</time></trkpt><trkpt lat="51.6984" lon="39.280853"><ele>119.5</ele><time>1970-01-01T00:12:01.000Z</time></trkpt><trkpt lat="51.698354" lon="39.280968"><ele>119.5</ele><time>1970-01-01T00:12:04.000Z</time></trkpt><trkpt lat="51.698335" lon="39.280989"><ele>119.5</ele><time>1970-01-01T00:12:05.000Z</time></trkpt><trkpt lat="51.698319" lon="39.281015"><ele>119.5</ele><time>1970-01-01T00:12:06.000Z</time></trkpt><trkpt lat="51.698219" lon="39.281474"><ele>119.6</ele><time>1970-01-01T00:12:15.000Z</time></trkpt><trkpt lat="51.6982" lon="39.282053"><ele>119.7</ele><time>1970-01-01T00:12:25.000Z</time></trkpt><trkpt lat="51.698193" lon="39.282126"><ele>119.7</ele><time>1970-01-01T00:12:26.000Z</time></trkpt><trkpt lat="51.698182" lon="39.282282"><ele>120.2</ele><time>1970-01-01T00:12:28.000Z</time></trkpt><trkpt lat="51.69817" lon="39.282359"><ele>120.6</ele><time>1970-01-01T00:12:29.000Z</time></trkpt><trkpt lat="51.69816" lon="39.282436"><ele>120.6</ele><time>1970-01-01T00:12:30.000Z</time></trkpt><trkpt lat="51.698154" lon="39.282515"><ele>120.8</ele><time>1970-01-01T00:12:31.000Z</time></trkpt><trkpt lat="51.698149" lon="39.282588"><ele>121.1</ele><time>1970-01-01T00:12:32.000Z</time></trkpt><trkpt lat="51.698141" lon="39.282665"><ele>121.4</ele><time>1970-01-01T00:12:33.000Z</time></trkpt><trkpt lat="51.698097" lon="39.282995"><ele>121.8</ele><time>1970-01-01T00:12:37.000Z</time></trkpt><trkpt lat="51.698064" lon="39.283292"><ele>122.7</ele><time>1970-01-01T00:12:41.000Z</time></trkpt><trkpt lat="51.698034" lon="39.283506"><ele>122.8</ele><time>1970-01-01T00:12:44.000Z</time></trkpt><trkpt lat="51.698031" lon="39.283588"><ele>122.8</ele><time>1970-01-01T00:12:45.000Z</time></trkpt><trkpt lat="51.698023" lon="39.283672"><ele>122.8</ele><time>1970-01-01T00:12:46.000Z</time></trkpt><trkpt lat="51.697984" lon="39.283903"><ele>122</ele><time>1970-01-01T00:12:49.000Z</time></trkpt><trkpt lat="51.697968" lon="39.283986"><ele>121.9</ele><time>1970-01-01T00:12:50.000Z</time></trkpt><trkpt lat="51.697954" lon="39.284069"><ele>121.9</ele><time>1970-01-01T00:12:51.000Z</time></trkpt><trkpt lat="51.697938" lon="39.284154"><ele>121.9</ele><time>1970-01-01T00:12:52.000Z</time></trkpt><trkpt lat="51.697929" lon="39.284238"><ele>121.9</ele><time>1970-01-01T00:12:53.000Z</time></trkpt><trkpt lat="51.697924" lon="39.284322"><ele>121.9</ele><time>1970-01-01T00:12:54.000Z</time></trkpt><trkpt lat="51.69792" lon="39.284407"><ele>121.9</ele><time>1970-01-01T00:12:55.000Z</time></trkpt><trkpt lat="51.69791" lon="39.284484"><ele>121.8</ele><time>1970-01-01T00:12:56.000Z</time></trkpt><trkpt lat="51.697894" lon="39.284559"><ele>121.6</ele><time>1970-01-01T00:12:57.000Z</time></trkpt><trkpt lat="51.697856" lon="39.284709"><ele>121.6</ele><time>1970-01-01T00:12:59.000Z</time></trkpt><trkpt lat="51.697841" lon="39.28479"><ele>121.5</ele><time>1970-01-01T00:13:00.000Z</time></trkpt><trkpt lat="51.697815" lon="39.285092"><ele>121</ele><time>1970-01-01T00:13:04.000Z</time></trkpt><trkpt lat="51.697822" lon="39.285156"><ele>120.9</ele><time>1970-01-01T00:13:05.000Z</time></trkpt><trkpt lat="51.697837" lon="39.285197"><ele>120.5</ele><time>1970-01-01T00:13:06.000Z</time></trkpt><trkpt lat="51.697864" lon="39.285221"><ele>120.4</ele><time>1970-01-01T00:13:07.000Z</time></trkpt><trkpt lat="51.697973" lon="39.285295"><ele>119.8</ele><time>1970-01-01T00:13:10.000Z</time></trkpt><trkpt lat="51.698299" lon="39.285429"><ele>119.3</ele><time>1970-01-01T00:13:17.000Z</time></trkpt><trkpt lat="51.698944" lon="39.285598"><ele>117.8</ele><time>1970-01-01T00:13:29.000Z</time></trkpt><trkpt lat="51.699229" lon="39.285666"><ele>118.1</ele><time>1970-01-01T00:13:34.000Z</time></trkpt><trkpt lat="51.699391" lon="39.285741"><ele>118.3</ele><time>1970-01-01T00:13:37.000Z</time></trkpt><trkpt lat="51.699996" lon="39.285912"><ele>119.4</ele><time>1970-01-01T00:13:48.000Z</time></trkpt><trkpt lat="51.70067" lon="39.286065"><ele>117.8</ele><time>1970-01-01T00:13:59.000Z</time></trkpt><trkpt lat="51.700961" lon="39.286136"><ele>118.2</ele><time>1970-01-01T00:14:04.000Z</time></trkpt><trkpt lat="51.701069" lon="39.286173"><ele>118.5</ele><time>1970-01-01T00:14:06.000Z</time></trkpt><trkpt lat="51.70141" lon="39.286268"><ele>118.7</ele><time>1970-01-01T00:14:12.000Z</time></trkpt><trkpt lat="51.701577" lon="39.286324"><ele>118.3</ele><time>1970-01-01T00:14:15.000Z</time></trkpt><trkpt lat="51.70174" lon="39.286352"><ele>117.4</ele><time>1970-01-01T00:14:18.000Z</time></trkpt><trkpt lat="51.702102" lon="39.286684"><ele>113.8</ele><time>1970-01-01T00:14:29.000Z</time></trkpt><trkpt lat="51.702105" lon="39.287305"><ele>114</ele><time>1970-01-01T00:14:40.000Z</time></trkpt><trkpt lat="51.702091" lon="39.288651"><ele>114.8</ele><time>1970-01-01T00:14:57.000Z</time></trkpt><trkpt lat="51.702421" lon="39.289827"><ele>114.7</ele><time>1970-01-01T00:15:12.000Z</time></trkpt><trkpt lat="51.703116" lon="39.290509"><ele>114.6</ele><time>1970-01-01T00:15:27.000Z</time></trkpt><trkpt lat="51.704176" lon="39.2908"><ele>116.2</ele><time>1970-01-01T00:15:45.000Z</time></trkpt><trkpt lat="51.705582" lon="39.291147"><ele>114.4</ele><time>1970-01-01T00:16:07.000Z</time></trkpt><trkpt lat="51.706864" lon="39.291471"><ele>114.3</ele><time>1970-01-01T00:16:27.000Z</time></trkpt><trkpt lat="51.708128" lon="39.291799"><ele>113.1</ele><time>1970-01-01T00:16:47.000Z</time></trkpt><trkpt lat="51.709459" lon="39.292122"><ele>113.5</ele><time>1970-01-01T00:17:08.000Z</time></trkpt><trkpt lat="51.711221" lon="39.292576"><ele>110.7</ele><time>1970-01-01T00:17:34.000Z</time></trkpt><trkpt lat="51.71267" lon="39.292955"><ele>110</ele><time>1970-01-01T00:17:54.000Z</time></trkpt><trkpt lat="51.714144" lon="39.29333"><ele>108.2</ele><time>1970-01-01T00:18:15.000Z</time></trkpt><trkpt lat="51.715591" lon="39.293691"><ele>110.3</ele><time>1970-01-01T00:18:38.000Z</time></trkpt><trkpt lat="51.717049" lon="39.294053"><ele>108.7</ele><time>1970-01-01T00:19:01.000Z</time></trkpt><trkpt lat="51.718268" lon="39.294371"><ele>110.1</ele><time>1970-01-01T00:19:20.000Z</time></trkpt><trkpt lat="51.719635" lon="39.294676"><ele>107.7</ele><time>1970-01-01T00:19:42.000Z</time></trkpt><trkpt lat="51.721219" lon="39.29513"><ele>106.8</ele><time>1970-01-01T00:20:07.000Z</time></trkpt><trkpt lat="51.722905" lon="39.295581"><ele>110.8</ele><time>1970-01-01T00:20:34.000Z</time></trkpt><trkpt lat="51.724306" lon="39.295958"><ele>108.1</ele><time>1970-01-01T00:20:57.000Z</time></trkpt><trkpt lat="51.725488" lon="39.296276"><ele>109.2</ele><time>1970-01-01T00:21:17.000Z</time></trkpt><trkpt lat="51.726874" lon="39.296645"><ele>111</ele><time>1970-01-01T00:21:41.000Z</time></trkpt><trkpt lat="51.727682" lon="39.296892"><ele>113</ele><time>1970-01-01T00:21:56.000Z</time></trkpt><trkpt lat="51.727728" lon="39.296934"><ele>113</ele><time>1970-01-01T00:21:57.000Z</time></trkpt><trkpt lat="51.727766" lon="39.296995"><ele>113</ele><time>1970-01-01T00:21:58.000Z</time></trkpt><trkpt lat="51.727788" lon="39.297072"><ele>113</ele><time>1970-01-01T00:21:59.000Z</time></trkpt><trkpt lat="51.7278" lon="39.29716"><ele>113</ele><time>1970-01-01T00:22:00.000Z</time></trkpt><trkpt lat="51.727805" lon="39.297251"><ele>113.6</ele><time>1970-01-01T00:22:01.000Z</time></trkpt><trkpt lat="51.727848" lon="39.299454"><ele>113.7</ele><time>1970-01-01T00:22:25.000Z</time></trkpt><trkpt lat="51.727665" lon="39.30175"><ele>113</ele><time>1970-01-01T00:22:50.000Z</time></trkpt><trkpt lat="51.72751" lon="39.303404"><ele>115.1</ele><time>1970-01-01T00:23:09.000Z</time></trkpt><trkpt lat="51.727344" lon="39.305144"><ele>115.5</ele><time>1970-01-01T00:23:31.000Z</time></trkpt><trkpt lat="51.727173" lon="39.306999"><ele>115.8</ele><time>1970-01-01T00:23:55.000Z</time></trkpt><trkpt lat="51.726949" lon="39.3093"><ele>112.9</ele><time>1970-01-01T00:24:24.000Z</time></trkpt><trkpt lat="51.726756" lon="39.311285"><ele>110.7</ele><time>1970-01-01T00:24:47.000Z</time></trkpt><trkpt lat="51.726536" lon="39.313563"><ele>112.3</ele><time>1970-01-01T00:25:10.000Z</time></trkpt><trkpt lat="51.726379" lon="39.3152"><ele>113.6</ele><time>1970-01-01T00:25:24.000Z</time></trkpt><trkpt lat="51.726263" lon="39.316427"><ele>112.2</ele><time>1970-01-01T00:25:34.000Z</time></trkpt><trkpt lat="51.726116" lon="39.318022"><ele>110.5</ele><time>1970-01-01T00:25:50.000Z</time></trkpt><trkpt lat="51.726123" lon="39.318207"><ele>110</ele><time>1970-01-01T00:25:53.000Z</time></trkpt><trkpt lat="51.726137" lon="39.318271"><ele>110</ele><time>1970-01-01T00:25:54.000Z</time></trkpt><trkpt lat="51.726161" lon="39.318333"><ele>110</ele><time>1970-01-01T00:25:55.000Z</time></trkpt><trkpt lat="51.726195" lon="39.318382"><ele>110</ele><time>1970-01-01T00:25:56.000Z</time></trkpt><trkpt lat="51.726238" lon="39.31841"><ele>110</ele><time>1970-01-01T00:25:57.000Z</time></trkpt><trkpt lat="51.726285" lon="39.318423"><ele>110</ele><time>1970-01-01T00:25:58.000Z</time></trkpt><trkpt lat="51.726337" lon="39.31843"><ele>110</ele><time>1970-01-01T00:25:59.000Z</time></trkpt><trkpt lat="51.727274" lon="39.318612"><ele>110.1</ele><time>1970-01-01T00:26:15.000Z</time></trkpt><trkpt lat="51.728236" lon="39.318809"><ele>110.1</ele><time>1970-01-01T00:26:30.000Z</time></trkpt><trkpt lat="51.729705" lon="39.319118"><ele>109.2</ele><time>1970-01-01T00:26:51.000Z</time></trkpt><trkpt lat="51.73112" lon="39.319543"><ele>107.7</ele><time>1970-01-01T00:27:12.000Z</time></trkpt><trkpt lat="51.731527" lon="39.320018"><ele>105.5</ele><time>1970-01-01T00:27:20.000Z</time></trkpt><trkpt lat="51.731888" lon="39.321156"><ele>101.8</ele><time>1970-01-01T00:27:33.000Z</time></trkpt><trkpt lat="51.731889" lon="39.321255"><ele>101.5</ele><time>1970-01-01T00:27:34.000Z</time></trkpt><trkpt lat="51.731885" lon="39.321355"><ele>101.4</ele><time>1970-01-01T00:27:35.000Z</time></trkpt><trkpt lat="51.731878" lon="39.321454"><ele>101.4</ele><time>1970-01-01T00:27:36.000Z</time></trkpt><trkpt lat="51.731869" lon="39.321553"><ele>101.4</ele><time>1970-01-01T00:27:37.000Z</time></trkpt><trkpt lat="51.731677" lon="39.323962"><ele>100</ele><time>1970-01-01T00:28:02.000Z</time></trkpt><trkpt lat="51.731513" lon="39.326099"><ele>99.6</ele><time>1970-01-01T00:28:24.000Z</time></trkpt><trkpt lat="51.731337" lon="39.327956"><ele>101.6</ele><time>1970-01-01T00:28:43.000Z</time></trkpt><trkpt lat="51.731224" lon="39.328432"><ele>102.5</ele><time>1970-01-01T00:28:48.000Z</time></trkpt><trkpt lat="51.730612" lon="39.329508"><ele>105.6</ele><time>1970-01-01T00:29:02.000Z</time></trkpt><trkpt lat="51.730055" lon="39.330663"><ele>105</ele><time>1970-01-01T00:29:17.000Z</time></trkpt><trkpt lat="51.729688" lon="39.332399"><ele>104</ele><time>1970-01-01T00:29:35.000Z</time></trkpt><trkpt lat="51.729767" lon="39.333994"><ele>108.7</ele><time>1970-01-01T00:29:50.000Z</time></trkpt><trkpt lat="51.729704" lon="39.335667"><ele>107.1</ele><time>1970-01-01T00:30:06.000Z</time></trkpt><trkpt lat="51.729321" lon="39.336715"><ele>106.3</ele><time>1970-01-01T00:30:19.000Z</time></trkpt><trkpt lat="51.729069" lon="39.337503"><ele>106.4</ele><time>1970-01-01T00:30:28.000Z</time></trkpt><trkpt lat="51.729051" lon="39.337603"><ele>106.5</ele><time>1970-01-01T00:30:29.000Z</time></trkpt><trkpt lat="51.72904" lon="39.337707"><ele>106.5</ele><time>1970-01-01T00:30:30.000Z</time></trkpt><trkpt lat="51.729037" lon="39.337813"><ele>106.5</ele><time>1970-01-01T00:30:31.000Z</time></trkpt><trkpt lat="51.729038" lon="39.337919"><ele>106.5</ele><time>1970-01-01T00:30:32.000Z</time></trkpt><trkpt lat="51.729138" lon="39.339888"><ele>106.7</ele><time>1970-01-01T00:30:51.000Z</time></trkpt><trkpt lat="51.729231" lon="39.341446"><ele>106.3</ele><time>1970-01-01T00:31:07.000Z</time></trkpt><trkpt lat="51.729322" lon="39.342381"><ele>107.1</ele><time>1970-01-01T00:31:17.000Z</time></trkpt><trkpt lat="51.729389" lon="39.343271"><ele>107.6</ele><time>1970-01-01T00:31:26.000Z</time></trkpt><trkpt lat="51.729456" lon="39.343945"><ele>108.1</ele><time>1970-01-01T00:31:33.000Z</time></trkpt><trkpt lat="51.72947" lon="39.344341"><ele>107.9</ele><time>1970-01-01T00:31:37.000Z</time></trkpt><trkpt lat="51.729469" lon="39.344436"><ele>107.9</ele><time>1970-01-01T00:31:38.000Z</time></trkpt><trkpt lat="51.729471" lon="39.344531"><ele>107.9</ele><time>1970-01-01T00:31:39.000Z</time></trkpt><trkpt lat="51.729509" lon="39.345023"><ele>107.7</ele><time>1970-01-01T00:31:44.000Z</time></trkpt><trkpt lat="51.72952" lon="39.345118"><ele>107.7</ele><time>1970-01-01T00:31:45.000Z</time></trkpt><trkpt lat="51.729621" lon="39.34673"><ele>107</ele><time>1970-01-01T00:32:01.000Z</time></trkpt><trkpt lat="51.729752" lon="39.348126"><ele>106.5</ele><time>1970-01-01T00:32:15.000Z</time></trkpt><trkpt lat="51.729777" lon="39.348221"><ele>106.5</ele><time>1970-01-01T00:32:16.000Z</time></trkpt><trkpt lat="51.729836" lon="39.348401"><ele>106.4</ele><time>1970-01-01T00:32:18.000Z</time></trkpt><trkpt lat="51.729874" lon="39.348486"><ele>106.4</ele><time>1970-01-01T00:32:19.000Z</time></trkpt><trkpt lat="51.729992" lon="39.348731"><ele>106.2</ele><time>1970-01-01T00:32:22.000Z</time></trkpt><trkpt lat="51.730605" lon="39.349662"><ele>105.7</ele><time>1970-01-01T00:32:36.000Z</time></trkpt><trkpt lat="51.73128" lon="39.35009"><ele>105.3</ele><time>1970-01-01T00:32:49.000Z</time></trkpt><trkpt lat="51.732132" lon="39.350129"><ele>104.8</ele><time>1970-01-01T00:33:02.000Z</time></trkpt><trkpt lat="51.733288" lon="39.350153"><ele>103.1</ele><time>1970-01-01T00:33:20.000Z</time></trkpt><trkpt lat="51.733346" lon="39.35016"><ele>103.1</ele><time>1970-01-01T00:33:21.000Z</time></trkpt><trkpt lat="51.734033" lon="39.350224"><ele>101.7</ele><time>1970-01-01T00:33:32.000Z</time></trkpt><trkpt lat="51.734955" lon="39.350352"><ele>102</ele><time>1970-01-01T00:33:47.000Z</time></trkpt><trkpt lat="51.735009" lon="39.350393"><ele>102</ele><time>1970-01-01T00:33:48.000Z</time></trkpt><trkpt lat="51.735059" lon="39.35045"><ele>102</ele><time>1970-01-01T00:33:49.000Z</time></trkpt><trkpt lat="51.735108" lon="39.350518"><ele>102</ele><time>1970-01-01T00:33:50.000Z</time></trkpt><trkpt lat="51.73515" lon="39.350592"><ele>102.2</ele><time>1970-01-01T00:33:51.000Z</time></trkpt><trkpt lat="51.735193" lon="39.350669"><ele>102.8</ele><time>1970-01-01T00:33:52.000Z</time></trkpt><trkpt lat="51.735435" lon="39.35111"><ele>103</ele><time>1970-01-01T00:33:58.000Z</time></trkpt><trkpt lat="51.735485" lon="39.351165"><ele>103</ele><time>1970-01-01T00:33:59.000Z</time></trkpt><trkpt lat="51.735534" lon="39.35121"><ele>102.9</ele><time>1970-01-01T00:34:00.000Z</time></trkpt><trkpt lat="51.73558" lon="39.351234"><ele>102.9</ele><time>1970-01-01T00:34:01.000Z</time></trkpt><trkpt lat="51.735631" lon="39.351231"><ele>102.9</ele><time>1970-01-01T00:34:02.000Z</time></trkpt><trkpt lat="51.735685" lon="39.351205"><ele>102.9</ele><time>1970-01-01T00:34:03.000Z</time></trkpt><trkpt lat="51.735741" lon="39.351164"><ele>102.9</ele><time>1970-01-01T00:34:04.000Z</time></trkpt><trkpt lat="51.735797" lon="39.351117"><ele>102.8</ele><time>1970-01-01T00:34:05.000Z</time></trkpt><trkpt lat="51.736013" lon="39.350927"><ele>102.8</ele><time>1970-01-01T00:34:09.000Z</time></trkpt><trkpt lat="51.73667" lon="39.350371"><ele>99.9</ele><time>1970-01-01T00:34:21.000Z</time></trkpt><trkpt lat="51.736728" lon="39.350355"><ele>100</ele><time>1970-01-01T00:34:22.000Z</time></trkpt><trkpt lat="51.736784" lon="39.350367"><ele>100</ele><time>1970-01-01T00:34:23.000Z</time></trkpt><trkpt lat="51.736833" lon="39.350405"><ele>100</ele><time>1970-01-01T00:34:24.000Z</time></trkpt><trkpt lat="51.73688" lon="39.350459"><ele>100</ele><time>1970-01-01T00:34:25.000Z</time></trkpt><trkpt lat="51.736924" lon="39.350521"><ele>100</ele><time>1970-01-01T00:34:26.000Z</time></trkpt><trkpt lat="51.737461" lon="39.351677"><ele>101.5</ele><time>1970-01-01T00:34:42.000Z</time></trkpt><trkpt lat="51.737983" lon="39.353383"><ele>100.9</ele><time>1970-01-01T00:35:02.000Z</time></trkpt><trkpt lat="51.738494" lon="39.355119"><ele>102.3</ele><time>1970-01-01T00:35:23.000Z</time></trkpt><trkpt lat="51.739109" lon="39.35731"><ele>103.2</ele><time>1970-01-01T00:35:50.000Z</time></trkpt><trkpt lat="51.739584" lon="39.359096"><ele>103.8</ele><time>1970-01-01T00:36:12.000Z</time></trkpt><trkpt lat="51.739968" lon="39.360458"><ele>106</ele><time>1970-01-01T00:36:29.000Z</time></trkpt><trkpt lat="51.740329" lon="39.361734"><ele>108.3</ele><time>1970-01-01T00:36:46.000Z</time></trkpt><trkpt lat="51.740732" lon="39.36311"><ele>108.1</ele><time>1970-01-01T00:37:04.000Z</time></trkpt><trkpt lat="51.741136" lon="39.364532"><ele>108.5</ele><time>1970-01-01T00:37:23.000Z</time></trkpt><trkpt lat="51.741464" lon="39.366041"><ele>108.6</ele><time>1970-01-01T00:37:43.000Z</time></trkpt><trkpt lat="51.741742" lon="39.367659"><ele>110.9</ele><time>1970-01-01T00:38:02.000Z</time></trkpt><trkpt lat="51.742094" lon="39.368818"><ele>111.9</ele><time>1970-01-01T00:38:17.000Z</time></trkpt><trkpt lat="51.742663" lon="39.370618"><ele>113</ele><time>1970-01-01T00:38:38.000Z</time></trkpt><trkpt lat="51.742946" lon="39.371461"><ele>112.9</ele><time>1970-01-01T00:38:48.000Z</time></trkpt><trkpt lat="51.742965" lon="39.371539"><ele>113.2</ele><time>1970-01-01T00:38:49.000Z</time></trkpt><trkpt lat="51.742983" lon="39.371616"><ele>113.6</ele><time>1970-01-01T00:38:50.000Z</time></trkpt><trkpt lat="51.743006" lon="39.37169"><ele>113.9</ele><time>1970-01-01T00:38:51.000Z</time></trkpt><trkpt lat="51.743031" lon="39.371765"><ele>114.1</ele><time>1970-01-01T00:38:52.000Z</time></trkpt><trkpt lat="51.743393" lon="39.372876"><ele>116</ele><time>1970-01-01T00:39:06.000Z</time></trkpt><trkpt lat="51.743939" lon="39.374443"><ele>113.9</ele><time>1970-01-01T00:39:25.000Z</time></trkpt><trkpt lat="51.744465" lon="39.37604"><ele>114.6</ele><time>1970-01-01T00:39:45.000Z</time></trkpt><trkpt lat="51.744909" lon="39.377358"><ele>117</ele><time>1970-01-01T00:40:02.000Z</time></trkpt><trkpt lat="51.744984" lon="39.377591"><ele>116.8</ele><time>1970-01-01T00:40:05.000Z</time></trkpt><trkpt lat="51.745303" lon="39.378577"><ele>118.5</ele><time>1970-01-01T00:40:19.000Z</time></trkpt><trkpt lat="51.745742" lon="39.379921"><ele>119</ele><time>1970-01-01T00:40:37.000Z</time></trkpt><trkpt lat="51.746137" lon="39.381067"><ele>118.4</ele><time>1970-01-01T00:40:53.000Z</time></trkpt><trkpt lat="51.74625" lon="39.381371"><ele>118.3</ele><time>1970-01-01T00:40:57.000Z</time></trkpt><trkpt lat="51.746285" lon="39.381429"><ele>118.2</ele><time>1970-01-01T00:40:58.000Z</time></trkpt><trkpt lat="51.746326" lon="39.381471"><ele>118.1</ele><time>1970-01-01T00:40:59.000Z</time></trkpt><trkpt lat="51.746371" lon="39.38149"><ele>117.6</ele><time>1970-01-01T00:41:00.000Z</time></trkpt><trkpt lat="51.746416" lon="39.381485"><ele>117.1</ele><time>1970-01-01T00:41:01.000Z</time></trkpt><trkpt lat="51.746462" lon="39.381458"><ele>117.1</ele><time>1970-01-01T00:41:02.000Z</time></trkpt><trkpt lat="51.746502" lon="39.381424"><ele>117.1</ele><time>1970-01-01T00:41:03.000Z</time></trkpt><trkpt lat="51.746542" lon="39.381388"><ele>116.8</ele><time>1970-01-01T00:41:04.000Z</time></trkpt><trkpt lat="51.74713" lon="39.380912"><ele>116.6</ele><time>1970-01-01T00:41:20.000Z</time></trkpt><trkpt lat="51.747206" lon="39.380891"><ele>116.9</ele><time>1970-01-01T00:41:22.000Z</time></trkpt><trkpt lat="51.747243" lon="39.380918"><ele>117.1</ele><time>1970-01-01T00:41:23.000Z</time></trkpt><trkpt lat="51.747273" lon="39.380966"><ele>117.1</ele><time>1970-01-01T00:41:24.000Z</time></trkpt><trkpt lat="51.747301" lon="39.381024"><ele>117.2</ele><time>1970-01-01T00:41:25.000Z</time></trkpt><trkpt lat="51.747326" lon="39.381085"><ele>117.2</ele><time>1970-01-01T00:41:26.000Z</time></trkpt><trkpt lat="51.747349" lon="39.381146"><ele>117.2</ele><time>1970-01-01T00:41:27.000Z</time></trkpt><trkpt lat="51.747721" lon="39.382178"><ele>119.8</ele><time>1970-01-01T00:41:43.000Z</time></trkpt><trkpt lat="51.74803" lon="39.383167"><ele>119.9</ele><time>1970-01-01T00:41:57.000Z</time></trkpt><trkpt lat="51.748057" lon="39.383232"><ele>119.9</ele><time>1970-01-01T00:41:58.000Z</time></trkpt><trkpt lat="51.748106" lon="39.383367"><ele>119.9</ele><time>1970-01-01T00:42:00.000Z</time></trkpt><trkpt lat="51.748133" lon="39.383426"><ele>120</ele><time>1970-01-01T00:42:01.000Z</time></trkpt><trkpt lat="51.748224" lon="39.383601"><ele>120.6</ele><time>1970-01-01T00:42:04.000Z</time></trkpt><trkpt lat="51.748245" lon="39.383671"><ele>121</ele><time>1970-01-01T00:42:05.000Z</time></trkpt><trkpt lat="51.748268" lon="39.383738"><ele>121.3</ele><time>1970-01-01T00:42:06.000Z</time></trkpt><trkpt lat="51.748293" lon="39.383796"><ele>121.6</ele><time>1970-01-01T00:42:07.000Z</time></trkpt><trkpt lat="51.748316" lon="39.383858"><ele>122</ele><time>1970-01-01T00:42:08.000Z</time></trkpt><trkpt lat="51.748392" lon="39.384053"><ele>122.9</ele><time>1970-01-01T00:42:11.000Z</time></trkpt><trkpt lat="51.748481" lon="39.384338"><ele>123.8</ele><time>1970-01-01T00:42:15.000Z</time></trkpt><trkpt lat="51.748506" lon="39.384404"><ele>124</ele><time>1970-01-01T00:42:16.000Z</time></trkpt><trkpt lat="51.74855" lon="39.38455"><ele>124</ele><time>1970-01-01T00:42:18.000Z</time></trkpt><trkpt lat="51.748574" lon="39.384629"><ele>123.9</ele><time>1970-01-01T00:42:19.000Z</time></trkpt><trkpt lat="51.748627" lon="39.384785"><ele>124.2</ele><time>1970-01-01T00:42:21.000Z</time></trkpt><trkpt lat="51.748655" lon="39.38486"><ele>124.4</ele><time>1970-01-01T00:42:22.000Z</time></trkpt><trkpt lat="51.748684" lon="39.384931"><ele>124.6</ele><time>1970-01-01T00:42:23.000Z</time></trkpt><trkpt lat="51.748918" lon="39.385538"><ele>124.1</ele><time>1970-01-01T00:42:31.000Z</time></trkpt><trkpt lat="51.749051" lon="39.386261"><ele>121.9</ele><time>1970-01-01T00:42:39.000Z</time></trkpt><trkpt lat="51.749057" lon="39.386435"><ele>121.9</ele><time>1970-01-01T00:42:41.000Z</time></trkpt><trkpt lat="51.749053" lon="39.386612"><ele>122.1</ele><time>1970-01-01T00:42:43.000Z</time></trkpt><trkpt lat="51.749061" lon="39.386699"><ele>122.5</ele><time>1970-01-01T00:42:44.000Z</time></trkpt><trkpt lat="51.749076" lon="39.38678"><ele>122.6</ele><time>1970-01-01T00:42:45.000Z</time></trkpt><trkpt lat="51.749098" lon="39.386857"><ele>122.6</ele><time>1970-01-01T00:42:46.000Z</time></trkpt><trkpt lat="51.749123" lon="39.386927"><ele>122.8</ele><time>1970-01-01T00:42:47.000Z</time></trkpt><trkpt lat="51.749222" lon="39.387223"><ele>123</ele><time>1970-01-01T00:42:51.000Z</time></trkpt><trkpt lat="51.749279" lon="39.387459"><ele>122.8</ele><time>1970-01-01T00:42:54.000Z</time></trkpt><trkpt lat="51.749303" lon="39.387527"><ele>122.9</ele><time>1970-01-01T00:42:55.000Z</time></trkpt><trkpt lat="51.74942" lon="39.387892"><ele>123.8</ele><time>1970-01-01T00:43:00.000Z</time></trkpt><trkpt lat="51.749485" lon="39.388133"><ele>124.3</ele><time>1970-01-01T00:43:03.000Z</time></trkpt><trkpt lat="51.749543" lon="39.388282"><ele>124.4</ele><time>1970-01-01T00:43:05.000Z</time></trkpt><trkpt lat="51.749678" lon="39.388565"><ele>124.8</ele><time>1970-01-01T00:43:09.000Z</time></trkpt><trkpt lat="51.749707" lon="39.388637"><ele>125</ele><time>1970-01-01T00:43:10.000Z</time></trkpt><trkpt lat="51.74974" lon="39.388706"><ele>125</ele><time>1970-01-01T00:43:11.000Z</time></trkpt><trkpt lat="51.749961" lon="39.389199"><ele>126.9</ele><time>1970-01-01T00:43:18.000Z</time></trkpt><trkpt lat="51.749991" lon="39.389274"><ele>127.3</ele><time>1970-01-01T00:43:19.000Z</time></trkpt><trkpt lat="51.750024" lon="39.389345"><ele>127.6</ele><time>1970-01-01T00:43:20.000Z</time></trkpt><trkpt lat="51.750205" lon="39.389646"><ele>129.3</ele><time>1970-01-01T00:43:25.000Z</time></trkpt><trkpt lat="51.750325" lon="39.389815"><ele>130.3</ele><time>1970-01-01T00:43:28.000Z</time></trkpt><trkpt lat="51.750401" lon="39.389928"><ele>130.5</ele><time>1970-01-01T00:43:30.000Z</time></trkpt><trkpt lat="51.750433" lon="39.389984"><ele>130.5</ele><time>1970-01-01T00:43:31.000Z</time></trkpt><trkpt lat="51.75047" lon="39.390044"><ele>130.5</ele><time>1970-01-01T00:43:32.000Z</time></trkpt><trkpt lat="51.750542" lon="39.390174"><ele>130.2</ele><time>1970-01-01T00:43:34.000Z</time></trkpt><trkpt lat="51.750585" lon="39.390236"><ele>130.7</ele><time>1970-01-01T00:43:35.000Z</time></trkpt><trkpt lat="51.750828" lon="39.390665"><ele>131</ele><time>1970-01-01T00:43:41.000Z</time></trkpt><trkpt lat="51.750977" lon="39.390949"><ele>130.8</ele><time>1970-01-01T00:43:45.000Z</time></trkpt><trkpt lat="51.751011" lon="39.391032"><ele>130.9</ele><time>1970-01-01T00:43:46.000Z</time></trkpt><trkpt lat="51.751042" lon="39.391118"><ele>130.9</ele><time>1970-01-01T00:43:47.000Z</time></trkpt><trkpt lat="51.75113" lon="39.391374"><ele>130.9</ele><time>1970-01-01T00:43:50.000Z</time></trkpt><trkpt lat="51.751191" lon="39.391513"><ele>130</ele><time>1970-01-01T00:43:52.000Z</time></trkpt><trkpt lat="51.751214" lon="39.391587"><ele>129.8</ele><time>1970-01-01T00:43:53.000Z</time></trkpt><trkpt lat="51.751227" lon="39.391665"><ele>129.9</ele><time>1970-01-01T00:43:54.000Z</time></trkpt><trkpt lat="51.751233" lon="39.391749"><ele>129.9</ele><time>1970-01-01T00:43:55.000Z</time></trkpt><trkpt lat="51.751235" lon="39.391838"><ele>129.9</ele><time>1970-01-01T00:43:56.000Z</time></trkpt><trkpt lat="51.751244" lon="39.391929"><ele>130.1</ele><time>1970-01-01T00:43:57.000Z</time></trkpt><trkpt lat="51.751263" lon="39.392019"><ele>130.8</ele><time>1970-01-01T00:43:58.000Z</time></trkpt><trkpt lat="51.75129" lon="39.392103"><ele>131</ele><time>1970-01-01T00:43:59.000Z</time></trkpt><trkpt lat="51.751324" lon="39.392182"><ele>131</ele><time>1970-01-01T00:44:00.000Z</time></trkpt><trkpt lat="51.75136" lon="39.392259"><ele>131</ele><time>1970-01-01T00:44:01.000Z</time></trkpt><trkpt lat="51.751515" lon="39.392648"><ele>132.3</ele><time>1970-01-01T00:44:06.000Z</time></trkpt><trkpt lat="51.751535" lon="39.392727"><ele>132.6</ele><time>1970-01-01T00:44:07.000Z</time></trkpt><trkpt lat="51.751693" lon="39.393576"><ele>133.3</ele><time>1970-01-01T00:44:17.000Z</time></trkpt><trkpt lat="51.75206" lon="39.394664"><ele>132.9</ele><time>1970-01-01T00:44:31.000Z</time></trkpt><trkpt lat="51.75214" lon="39.394902"><ele>132.2</ele><time>1970-01-01T00:44:34.000Z</time></trkpt><trkpt lat="51.752168" lon="39.394979"><ele>132</ele><time>1970-01-01T00:44:35.000Z</time></trkpt><trkpt lat="51.752321" lon="39.395416"><ele>131.9</ele><time>1970-01-01T00:44:41.000Z</time></trkpt><trkpt lat="51.752328" lon="39.39551"><ele>132</ele><time>1970-01-01T00:44:42.000Z</time></trkpt><trkpt lat="51.752331" lon="39.395802"><ele>131.9</ele><time>1970-01-01T00:44:45.000Z</time></trkpt><trkpt lat="51.752377" lon="39.39618"><ele>131.8</ele><time>1970-01-01T00:44:49.000Z</time></trkpt><trkpt lat="51.752404" lon="39.396265"><ele>131.3</ele><time>1970-01-01T00:44:50.000Z</time></trkpt><trkpt lat="51.752471" lon="39.396444"><ele>130</ele><time>1970-01-01T00:44:52.000Z</time></trkpt><trkpt lat="51.752506" lon="39.396536"><ele>129.5</ele><time>1970-01-01T00:44:53.000Z</time></trkpt><trkpt lat="51.752706" lon="39.397174"><ele>127.9</ele><time>1970-01-01T00:45:00.000Z</time></trkpt><trkpt lat="51.752723" lon="39.397272"><ele>127.3</ele><time>1970-01-01T00:45:01.000Z</time></trkpt><trkpt lat="51.752732" lon="39.397366"><ele>126.9</ele><time>1970-01-01T00:45:02.000Z</time></trkpt><trkpt lat="51.752748" lon="39.397461"><ele>126.9</ele><time>1970-01-01T00:45:03.000Z</time></trkpt><trkpt lat="51.752767" lon="39.397552"><ele>126.5</ele><time>1970-01-01T00:45:04.000Z</time></trkpt><trkpt lat="51.752781" lon="39.397641"><ele>126.1</ele><time>1970-01-01T00:45:05.000Z</time></trkpt><trkpt lat="51.752787" lon="39.397724"><ele>125.8</ele><time>1970-01-01T00:45:06.000Z</time></trkpt><trkpt lat="51.752789" lon="39.397808"><ele>125.8</ele><time>1970-01-01T00:45:07.000Z</time></trkpt><trkpt lat="51.752797" lon="39.397902"><ele>125.9</ele><time>1970-01-01T00:45:08.000Z</time></trkpt><trkpt lat="51.752812" lon="39.397997"><ele>125.8</ele><time>1970-01-01T00:45:09.000Z</time></trkpt><trkpt lat="51.752836" lon="39.398085"><ele>125.6</ele><time>1970-01-01T00:45:10.000Z</time></trkpt><trkpt lat="51.753052" lon="39.398901"><ele>127.7</ele><time>1970-01-01T00:45:20.000Z</time></trkpt><trkpt lat="51.753098" lon="39.399138"><ele>128.7</ele><time>1970-01-01T00:45:23.000Z</time></trkpt><trkpt lat="51.753111" lon="39.399227"><ele>128.1</ele><time>1970-01-01T00:45:24.000Z</time></trkpt><trkpt lat="51.753125" lon="39.399323"><ele>127.6</ele><time>1970-01-01T00:45:25.000Z</time></trkpt><trkpt lat="51.753176" lon="39.399786"><ele>127.5</ele><time>1970-01-01T00:45:30.000Z</time></trkpt><trkpt lat="51.753266" lon="39.400112"><ele>127.4</ele><time>1970-01-01T00:45:34.000Z</time></trkpt><trkpt lat="51.753294" lon="39.400195"><ele>127</ele><time>1970-01-01T00:45:35.000Z</time></trkpt><trkpt lat="51.753545" lon="39.401092"><ele>125.5</ele><time>1970-01-01T00:45:45.000Z</time></trkpt><trkpt lat="51.753559" lon="39.401188"><ele>125.1</ele><time>1970-01-01T00:45:46.000Z</time></trkpt><trkpt lat="51.753595" lon="39.40138"><ele>124.7</ele><time>1970-01-01T00:45:48.000Z</time></trkpt><trkpt lat="51.75362" lon="39.401472"><ele>124.6</ele><time>1970-01-01T00:45:49.000Z</time></trkpt><trkpt lat="51.753647" lon="39.401561"><ele>124.7</ele><time>1970-01-01T00:45:50.000Z</time></trkpt><trkpt lat="51.753831" lon="39.402226"><ele>124.6</ele><time>1970-01-01T00:45:58.000Z</time></trkpt><trkpt lat="51.753888" lon="39.402386"><ele>124.7</ele><time>1970-01-01T00:46:00.000Z</time></trkpt><trkpt lat="51.753909" lon="39.402472"><ele>124.7</ele><time>1970-01-01T00:46:01.000Z</time></trkpt><trkpt lat="51.753923" lon="39.402558"><ele>124.7</ele><time>1970-01-01T00:46:02.000Z</time></trkpt><trkpt lat="51.753931" lon="39.402642"><ele>124.7</ele><time>1970-01-01T00:46:03.000Z</time></trkpt><trkpt lat="51.753937" lon="39.402726"><ele>124.7</ele><time>1970-01-01T00:46:04.000Z</time></trkpt><trkpt lat="51.753946" lon="39.402801"><ele>124.7</ele><time>1970-01-01T00:46:05.000Z</time></trkpt><trkpt lat="51.753964" lon="39.402859"><ele>124.7</ele><time>1970-01-01T00:46:06.000Z</time></trkpt><trkpt lat="51.753993" lon="39.40291"><ele>124.7</ele><time>1970-01-01T00:46:07.000Z</time></trkpt><trkpt lat="51.754178" lon="39.403162"><ele>124.8</ele><time>1970-01-01T00:46:12.000Z</time></trkpt><trkpt lat="51.754222" lon="39.403192"><ele>124.8</ele><time>1970-01-01T00:46:13.000Z</time></trkpt><trkpt lat="51.754411" lon="39.403279"><ele>127.7</ele><time>1970-01-01T00:46:17.000Z</time></trkpt><trkpt lat="51.754666" lon="39.403365"><ele>129</ele><time>1970-01-01T00:46:22.000Z</time></trkpt><trkpt lat="51.754714" lon="39.403377"><ele>129</ele><time>1970-01-01T00:46:23.000Z</time></trkpt><trkpt lat="51.754757" lon="39.403385"><ele>128.9</ele><time>1970-01-01T00:46:24.000Z</time></trkpt><trkpt lat="51.754803" lon="39.403391"><ele>129</ele><time>1970-01-01T00:46:25.000Z</time></trkpt><trkpt lat="51.754849" lon="39.403399"><ele>129.1</ele><time>1970-01-01T00:46:26.000Z</time></trkpt><trkpt lat="51.754895" lon="39.403404"><ele>129.6</ele><time>1970-01-01T00:46:27.000Z</time></trkpt><trkpt lat="51.754947" lon="39.403411"><ele>130.1</ele><time>1970-01-01T00:46:28.000Z</time></trkpt><trkpt lat="51.755007" lon="39.403421"><ele>130</ele><time>1970-01-01T00:46:29.000Z</time></trkpt><trkpt lat="51.755057" lon="39.403436"><ele>129.9</ele><time>1970-01-01T00:46:30.000Z</time></trkpt><trkpt lat="51.755111" lon="39.40345"><ele>129.8</ele><time>1970-01-01T00:46:31.000Z</time></trkpt><trkpt lat="51.755172" lon="39.403455"><ele>130</ele><time>1970-01-01T00:46:32.000Z</time></trkpt><trkpt lat="51.755232" lon="39.403452"><ele>130.2</ele><time>1970-01-01T00:46:33.000Z</time></trkpt><trkpt lat="51.755285" lon="39.403445"><ele>130.3</ele><time>1970-01-01T00:46:34.000Z</time></trkpt><trkpt lat="51.755717" lon="39.403441"><ele>132.1</ele><time>1970-01-01T00:46:42.000Z</time></trkpt><trkpt lat="51.756013" lon="39.403478"><ele>134.1</ele><time>1970-01-01T00:46:48.000Z</time></trkpt><trkpt lat="51.756057" lon="39.403478"><ele>134.1</ele><time>1970-01-01T00:46:49.000Z</time></trkpt><trkpt lat="51.756092" lon="39.403469"><ele>134</ele><time>1970-01-01T00:46:50.000Z</time></trkpt><trkpt lat="51.75642" lon="39.403482"><ele>134.2</ele><time>1970-01-01T00:46:58.000Z</time></trkpt><trkpt lat="51.756641" lon="39.403533"><ele>134.2</ele><time>1970-01-01T00:47:03.000Z</time></trkpt><trkpt lat="51.756785" lon="39.403529"><ele>134.1</ele><time>1970-01-01T00:47:06.000Z</time></trkpt><trkpt lat="51.756938" lon="39.403481"><ele>134</ele><time>1970-01-01T00:47:09.000Z</time></trkpt><trkpt lat="51.756986" lon="39.403466"><ele>134.2</ele><time>1970-01-01T00:47:10.000Z</time></trkpt><trkpt lat="51.757034" lon="39.403467"><ele>134.7</ele><time>1970-01-01T00:47:11.000Z</time></trkpt><trkpt lat="51.757538" lon="39.403507"><ele>138.1</ele><time>1970-01-01T00:47:21.000Z</time></trkpt><trkpt lat="51.757596" lon="39.403507"><ele>138</ele><time>1970-01-01T00:47:22.000Z</time></trkpt><trkpt lat="51.757651" lon="39.403505"><ele>138</ele><time>1970-01-01T00:47:23.000Z</time></trkpt><trkpt lat="51.757701" lon="39.40352"><ele>138</ele><time>1970-01-01T00:47:24.000Z</time></trkpt><trkpt lat="51.75775" lon="39.40354"><ele>138</ele><time>1970-01-01T00:47:25.000Z</time></trkpt><trkpt lat="51.757799" lon="39.403552"><ele>138</ele><time>1970-01-01T00:47:26.000Z</time></trkpt><trkpt lat="51.757846" lon="39.403548"><ele>138.1</ele><time>1970-01-01T00:47:27.000Z</time></trkpt><trkpt lat="51.757895" lon="39.403547"><ele>137.9</ele><time>1970-01-01T00:47:28.000Z</time></trkpt><trkpt lat="51.758147" lon="39.403554"><ele>137.3</ele><time>1970-01-01T00:47:33.000Z</time></trkpt><trkpt lat="51.7582" lon="39.403575"><ele>137.7</ele><time>1970-01-01T00:47:34.000Z</time></trkpt><trkpt lat="51.758256" lon="39.403596"><ele>138</ele><time>1970-01-01T00:47:35.000Z</time></trkpt><trkpt lat="51.758371" lon="39.403603"><ele>138</ele><time>1970-01-01T00:47:37.000Z</time></trkpt><trkpt lat="51.758431" lon="39.403607"><ele>138.1</ele><time>1970-01-01T00:47:38.000Z</time></trkpt><trkpt lat="51.758641" lon="39.403624"><ele>139.1</ele><time>1970-01-01T00:47:42.000Z</time></trkpt><trkpt lat="51.759089" lon="39.403563"><ele>140.8</ele><time>1970-01-01T00:47:51.000Z</time></trkpt><trkpt lat="51.759243" lon="39.403584"><ele>141.4</ele><time>1970-01-01T00:47:54.000Z</time></trkpt><trkpt lat="51.759847" lon="39.403609"><ele>143</ele><time>1970-01-01T00:48:06.000Z</time></trkpt><trkpt lat="51.760135" lon="39.403622"><ele>142.4</ele><time>1970-01-01T00:48:12.000Z</time></trkpt><trkpt lat="51.760584" lon="39.403595"><ele>143.1</ele><time>1970-01-01T00:48:22.000Z</time></trkpt><trkpt lat="51.760791" lon="39.403597"><ele>143.1</ele><time>1970-01-01T00:48:29.000Z</time></trkpt><trkpt lat="51.760812" lon="39.403616"><ele>143.1</ele><time>1970-01-01T00:48:30.000Z</time></trkpt><trkpt lat="51.760829" lon="39.403641"><ele>143</ele><time>1970-01-01T00:48:31.000Z</time></trkpt><trkpt lat="51.760967" lon="39.403752"><ele>143.3</ele><time>1970-01-01T00:48:38.000Z</time></trkpt><trkpt lat="51.760985" lon="39.403768"><ele>143.3</ele><time>1970-01-01T00:48:39.000Z</time></trkpt><trkpt lat="51.761007" lon="39.403782"><ele>143.3</ele><time>1970-01-01T00:48:40.000Z</time></trkpt><trkpt lat="51.761024" lon="39.403784"><ele>143.3</ele><time>1970-01-01T00:48:41.000Z</time></trkpt><trkpt lat="51.761061" lon="39.403748"><ele>143.5</ele><time>1970-01-01T00:48:43.000Z</time></trkpt><trkpt lat="51.761072" lon="39.403721"><ele>143.6</ele><time>1970-01-01T00:48:44.000Z</time></trkpt><trkpt lat="51.76108" lon="39.403696"><ele>143.7</ele><time>1970-01-01T00:48:45.000Z</time></trkpt><trkpt lat="51.761095" lon="39.403671"><ele>143.8</ele><time>1970-01-01T00:48:46.000Z</time></trkpt><trkpt lat="51.761108" lon="39.403647"><ele>143.9</ele><time>1970-01-01T00:48:47.000Z</time></trkpt><trkpt lat="51.761126" lon="39.403622"><ele>143.9</ele><time>1970-01-01T00:48:48.000Z</time></trkpt><trkpt lat="51.761144" lon="39.403604"><ele>144</ele><time>1970-01-01T00:48:49.000Z</time></trkpt><trkpt lat="51.761163" lon="39.403586"><ele>144</ele><time>1970-01-01T00:48:50.000Z</time></trkpt><trkpt lat="51.761193" lon="39.40358"><ele>144</ele><time>1970-01-01T00:48:51.000Z</time></trkpt><trkpt lat="51.761223" lon="39.403578"><ele>144</ele><time>1970-01-01T00:48:52.000Z</time></trkpt><trkpt lat="51.761628" lon="39.40363"><ele>144</ele><time>1970-01-01T00:49:02.000Z</time></trkpt><trkpt lat="51.761842" lon="39.403633"><ele>144</ele><time>1970-01-01T00:49:06.000Z</time></trkpt><trkpt lat="51.762426" lon="39.403642"><ele>142.8</ele><time>1970-01-01T00:49:17.000Z</time></trkpt><trkpt lat="51.762533" lon="39.403655"><ele>142</ele><time>1970-01-01T00:49:19.000Z</time></trkpt><trkpt lat="51.762578" lon="39.403665"><ele>142</ele><time>1970-01-01T00:49:20.000Z</time></trkpt><trkpt lat="51.76302" lon="39.403708"><ele>139.8</ele><time>1970-01-01T00:49:29.000Z</time></trkpt><trkpt lat="51.763296" lon="39.403718"><ele>139.8</ele><time>1970-01-01T00:49:34.000Z</time></trkpt><trkpt lat="51.763357" lon="39.403714"><ele>139.8</ele><time>1970-01-01T00:49:35.000Z</time></trkpt><trkpt lat="51.763873" lon="39.403753"><ele>140.5</ele><time>1970-01-01T00:49:45.000Z</time></trkpt><trkpt lat="51.764345" lon="39.403764"><ele>142.8</ele><time>1970-01-01T00:49:54.000Z</time></trkpt><trkpt lat="51.764973" lon="39.403757"><ele>143.7</ele><time>1970-01-01T00:50:06.000Z</time></trkpt><trkpt lat="51.765022" lon="39.403763"><ele>144.1</ele><time>1970-01-01T00:50:07.000Z</time></trkpt><trkpt lat="51.765073" lon="39.403759"><ele>144.5</ele><time>1970-01-01T00:50:08.000Z</time></trkpt><trkpt lat="51.765316" lon="39.403766"><ele>145.7</ele><time>1970-01-01T00:50:13.000Z</time></trkpt><trkpt lat="51.765368" lon="39.403773"><ele>145.9</ele><time>1970-01-01T00:50:14.000Z</time></trkpt><trkpt lat="51.765911" lon="39.403832"><ele>147.8</ele><time>1970-01-01T00:50:25.000Z</time></trkpt><trkpt lat="51.765959" lon="39.403825"><ele>147.9</ele><time>1970-01-01T00:50:26.000Z</time></trkpt><trkpt lat="51.766602" lon="39.403805"><ele>148.8</ele><time>1970-01-01T00:50:39.000Z</time></trkpt><trkpt lat="51.76684" lon="39.403819"><ele>148.2</ele><time>1970-01-01T00:50:44.000Z</time></trkpt><trkpt lat="51.766894" lon="39.403813"><ele>147.9</ele><time>1970-01-01T00:50:45.000Z</time></trkpt><trkpt lat="51.766942" lon="39.403803"><ele>147.9</ele><time>1970-01-01T00:50:46.000Z</time></trkpt><trkpt lat="51.767037" lon="39.403794"><ele>147.8</ele><time>1970-01-01T00:50:48.000Z</time></trkpt><trkpt lat="51.767495" lon="39.403847"><ele>146.8</ele><time>1970-01-01T00:50:57.000Z</time></trkpt><trkpt lat="51.767549" lon="39.403845"><ele>147</ele><time>1970-01-01T00:50:58.000Z</time></trkpt><trkpt lat="51.767607" lon="39.403844"><ele>147.4</ele><time>1970-01-01T00:50:59.000Z</time></trkpt><trkpt lat="51.76793" lon="39.403899"><ele>147.8</ele><time>1970-01-01T00:51:07.000Z</time></trkpt><trkpt lat="51.767958" lon="39.40394"><ele>147.7</ele><time>1970-01-01T00:51:08.000Z</time></trkpt><trkpt lat="51.767973" lon="39.403991"><ele>147.8</ele><time>1970-01-01T00:51:09.000Z</time></trkpt><trkpt lat="51.767986" lon="39.404045"><ele>147.7</ele><time>1970-01-01T00:51:10.000Z</time></trkpt><trkpt lat="51.767992" lon="39.40411"><ele>147.6</ele><time>1970-01-01T00:51:11.000Z</time></trkpt><trkpt lat="51.767999" lon="39.404177"><ele>147.5</ele><time>1970-01-01T00:51:12.000Z</time></trkpt><trkpt lat="51.768007" lon="39.404247"><ele>147.5</ele><time>1970-01-01T00:51:13.000Z</time></trkpt><trkpt lat="51.768017" lon="39.40432"><ele>147.4</ele><time>1970-01-01T00:51:14.000Z</time></trkpt><trkpt lat="51.768042" lon="39.405053"><ele>146.3</ele><time>1970-01-01T00:51:23.000Z</time></trkpt><trkpt lat="51.768045" lon="39.405133"><ele>146.1</ele><time>1970-01-01T00:51:24.000Z</time></trkpt><trkpt lat="51.768049" lon="39.405215"><ele>146</ele><time>1970-01-01T00:51:25.000Z</time></trkpt><trkpt lat="51.768054" lon="39.405854"><ele>146.6</ele><time>1970-01-01T00:51:33.000Z</time></trkpt><trkpt lat="51.768054" lon="39.405998"><ele>146.8</ele><time>1970-01-01T00:51:35.000Z</time></trkpt><trkpt lat="51.768053" lon="39.406071"><ele>146.8</ele><time>1970-01-01T00:51:36.000Z</time></trkpt><trkpt lat="51.768044" lon="39.406141"><ele>146.9</ele><time>1970-01-01T00:51:37.000Z</time></trkpt><trkpt lat="51.76804" lon="39.406212"><ele>146.9</ele><time>1970-01-01T00:51:38.000Z</time></trkpt><trkpt lat="51.768046" lon="39.406287"><ele>146.9</ele><time>1970-01-01T00:51:39.000Z</time></trkpt><trkpt lat="51.768054" lon="39.406364"><ele>146.9</ele><time>1970-01-01T00:51:40.000Z</time></trkpt><trkpt lat="51.768057" lon="39.406439"><ele>146.9</ele><time>1970-01-01T00:51:41.000Z</time></trkpt><trkpt lat="51.768056" lon="39.406516"><ele>146.9</ele><time>1970-01-01T00:51:42.000Z</time></trkpt><trkpt lat="51.768052" lon="39.406682"><ele>146.7</ele><time>1970-01-01T00:51:44.000Z</time></trkpt><trkpt lat="51.768036" lon="39.407017"><ele>146.5</ele><time>1970-01-01T00:51:48.000Z</time></trkpt><trkpt lat="51.768027" lon="39.407099"><ele>146.5</ele><time>1970-01-01T00:51:49.000Z</time></trkpt><trkpt lat="51.76802" lon="39.407182"><ele>146.5</ele><time>1970-01-01T00:51:50.000Z</time></trkpt><trkpt lat="51.76802" lon="39.407268"><ele>146.4</ele><time>1970-01-01T00:51:51.000Z</time></trkpt><trkpt lat="51.768023" lon="39.407352"><ele>146.4</ele><time>1970-01-01T00:51:52.000Z</time></trkpt><trkpt lat="51.768062" lon="39.40798"><ele>146.3</ele><time>1970-01-01T00:51:59.000Z</time></trkpt><trkpt lat="51.768061" lon="39.408058"><ele>146.3</ele><time>1970-01-01T00:52:00.000Z</time></trkpt><trkpt lat="51.768059" lon="39.408141"><ele>146.4</ele><time>1970-01-01T00:52:01.000Z</time></trkpt><trkpt lat="51.768057" lon="39.4083"><ele>146.6</ele><time>1970-01-01T00:52:03.000Z</time></trkpt><trkpt lat="51.768033" lon="39.408959"><ele>147.1</ele><time>1970-01-01T00:52:11.000Z</time></trkpt><trkpt lat="51.76803" lon="39.40913"><ele>147</ele><time>1970-01-01T00:52:13.000Z</time></trkpt><trkpt lat="51.768031" lon="39.409208"><ele>146.9</ele><time>1970-01-01T00:52:14.000Z</time></trkpt><trkpt lat="51.768025" lon="39.409282"><ele>146.9</ele><time>1970-01-01T00:52:15.000Z</time></trkpt><trkpt lat="51.768019" lon="39.409344"><ele>146.8</ele><time>1970-01-01T00:52:16.000Z</time></trkpt><trkpt lat="51.768014" lon="39.40939"><ele>146.7</ele><time>1970-01-01T00:52:17.000Z</time></trkpt><trkpt lat="51.768012" lon="39.409424"><ele>146.7</ele><time>1970-01-01T00:52:18.000Z</time></trkpt><trkpt lat="51.76801" lon="39.409448"><ele>146.7</ele><time>1970-01-01T00:52:19.000Z</time></trkpt><trkpt lat="51.768014" lon="39.409518"><ele>146.6</ele><time>1970-01-01T00:52:22.000Z</time></trkpt><trkpt lat="51.768011" lon="39.409559"><ele>146.5</ele><time>1970-01-01T00:52:23.000Z</time></trkpt><trkpt lat="51.767995" lon="39.409833"><ele>146.2</ele><time>1970-01-01T00:52:28.000Z</time></trkpt><trkpt lat="51.767977" lon="39.410632"><ele>146.1</ele><time>1970-01-01T00:52:39.000Z</time></trkpt><trkpt lat="51.767968" lon="39.410775"><ele>146.2</ele><time>1970-01-01T00:52:41.000Z</time></trkpt><trkpt lat="51.768006" lon="39.411348"><ele>146.8</ele><time>1970-01-01T00:52:51.000Z</time></trkpt><trkpt lat="51.768" lon="39.411508"><ele>146.8</ele><time>1970-01-01T00:52:58.000Z</time></trkpt><trkpt lat="51.768" lon="39.411707"><ele>146.9</ele><time>1970-01-01T00:53:09.000Z</time></trkpt><trkpt lat="51.76798" lon="39.411851"><ele>147</ele><time>1970-01-01T00:53:13.000Z</time></trkpt><trkpt lat="51.767981" lon="39.411892"><ele>147</ele><time>1970-01-01T00:53:14.000Z</time></trkpt><trkpt lat="51.76798" lon="39.411933"><ele>147</ele><time>1970-01-01T00:53:15.000Z</time></trkpt><trkpt lat="51.767979" lon="39.411977"><ele>147.1</ele><time>1970-01-01T00:53:16.000Z</time></trkpt><trkpt lat="51.767976" lon="39.412026"><ele>147.1</ele><time>1970-01-01T00:53:17.000Z</time></trkpt><trkpt lat="51.767962" lon="39.412178"><ele>147.2</ele><time>1970-01-01T00:53:21.000Z</time></trkpt><trkpt lat="51.767955" lon="39.4122"><ele>147.2</ele><time>1970-01-01T00:53:22.000Z</time></trkpt><trkpt lat="51.767954" lon="39.412328"><ele>147.3</ele><time>1970-01-01T00:53:31.000Z</time></trkpt><trkpt lat="51.767963" lon="39.412356"><ele>147.3</ele><time>1970-01-01T00:53:32.000Z</time></trkpt><trkpt lat="51.767969" lon="39.412392"><ele>147.3</ele><time>1970-01-01T00:53:33.000Z</time></trkpt><trkpt lat="51.767973" lon="39.412432"><ele>147.3</ele><time>1970-01-01T00:53:34.000Z</time></trkpt><trkpt lat="51.767974" lon="39.412477"><ele>147.4</ele><time>1970-01-01T00:53:35.000Z</time></trkpt><trkpt lat="51.76797" lon="39.412527"><ele>147.4</ele><time>1970-01-01T00:53:36.000Z</time></trkpt><trkpt lat="51.767964" lon="39.412578"><ele>147.7</ele><time>1970-01-01T00:53:37.000Z</time></trkpt><trkpt lat="51.767956" lon="39.412636"><ele>148</ele><time>1970-01-01T00:53:38.000Z</time></trkpt><trkpt lat="51.767964" lon="39.413076"><ele>147.3</ele><time>1970-01-01T00:53:45.000Z</time></trkpt><trkpt lat="51.767966" lon="39.41315"><ele>147.2</ele><time>1970-01-01T00:53:46.000Z</time></trkpt><trkpt lat="51.767968" lon="39.413543"><ele>146.8</ele><time>1970-01-01T00:53:51.000Z</time></trkpt><trkpt lat="51.767961" lon="39.413948"><ele>146.8</ele><time>1970-01-01T00:53:56.000Z</time></trkpt><trkpt lat="51.767964" lon="39.414019"><ele>146.9</ele><time>1970-01-01T00:53:57.000Z</time></trkpt><trkpt lat="51.767963" lon="39.414098"><ele>147</ele><time>1970-01-01T00:53:58.000Z</time></trkpt><trkpt lat="51.767964" lon="39.414247"><ele>147.2</ele><time>1970-01-01T00:54:00.000Z</time></trkpt><trkpt lat="51.767957" lon="39.414327"><ele>147.3</ele><time>1970-01-01T00:54:01.000Z</time></trkpt><trkpt lat="51.767948" lon="39.414405"><ele>147.4</ele><time>1970-01-01T00:54:02.000Z</time></trkpt><trkpt lat="51.767925" lon="39.414886"><ele>147.5</ele><time>1970-01-01T00:54:08.000Z</time></trkpt><trkpt lat="51.767928" lon="39.414973"><ele>147.5</ele><time>1970-01-01T00:54:09.000Z</time></trkpt><trkpt lat="51.767929" lon="39.415064"><ele>147.4</ele><time>1970-01-01T00:54:10.000Z</time></trkpt><trkpt lat="51.767932" lon="39.415323"><ele>147.3</ele><time>1970-01-01T00:54:13.000Z</time></trkpt><trkpt lat="51.76792" lon="39.416039"><ele>147.5</ele><time>1970-01-01T00:54:22.000Z</time></trkpt><trkpt lat="51.767918" lon="39.41611"><ele>147.5</ele><time>1970-01-01T00:54:23.000Z</time></trkpt><trkpt lat="51.767913" lon="39.416192"><ele>147.5</ele><time>1970-01-01T00:54:24.000Z</time></trkpt><trkpt lat="51.767909" lon="39.416371"><ele>147.3</ele><time>1970-01-01T00:54:26.000Z</time></trkpt><trkpt lat="51.767903" lon="39.416718"><ele>147</ele><time>1970-01-01T00:54:30.000Z</time></trkpt><trkpt lat="51.767906" lon="39.416801"><ele>147</ele><time>1970-01-01T00:54:31.000Z</time></trkpt><trkpt lat="51.767907" lon="39.416883"><ele>146.9</ele><time>1970-01-01T00:54:32.000Z</time></trkpt><trkpt lat="51.767881" lon="39.418013"><ele>147.2</ele><time>1970-01-01T00:54:45.000Z</time></trkpt><trkpt lat="51.767866" lon="39.418356"><ele>147.4</ele><time>1970-01-01T00:54:49.000Z</time></trkpt><trkpt lat="51.767864" lon="39.418445"><ele>147.4</ele><time>1970-01-01T00:54:50.000Z</time></trkpt><trkpt lat="51.767863" lon="39.418526"><ele>147.5</ele><time>1970-01-01T00:54:51.000Z</time></trkpt><trkpt lat="51.767866" lon="39.419194"><ele>148</ele><time>1970-01-01T00:54:59.000Z</time></trkpt><trkpt lat="51.767864" lon="39.419357"><ele>148.3</ele><time>1970-01-01T00:55:01.000Z</time></trkpt><trkpt lat="51.767866" lon="39.419439"><ele>148.3</ele><time>1970-01-01T00:55:02.000Z</time></trkpt><trkpt lat="51.767869" lon="39.419521"><ele>148.4</ele><time>1970-01-01T00:55:03.000Z</time></trkpt><trkpt lat="51.767866" lon="39.419686"><ele>148.4</ele><time>1970-01-01T00:55:05.000Z</time></trkpt><trkpt lat="51.76786" lon="39.419769"><ele>148.3</ele><time>1970-01-01T00:55:06.000Z</time></trkpt><trkpt lat="51.767846" lon="39.42041"><ele>147.7</ele><time>1970-01-01T00:55:14.000Z</time></trkpt><trkpt lat="51.767846" lon="39.420493"><ele>147.6</ele><time>1970-01-01T00:55:15.000Z</time></trkpt><trkpt lat="51.767846" lon="39.420584"><ele>147.5</ele><time>1970-01-01T00:55:16.000Z</time></trkpt><trkpt lat="51.767842" lon="39.420678"><ele>147.4</ele><time>1970-01-01T00:55:17.000Z</time></trkpt><trkpt lat="51.767835" lon="39.420767"><ele>147.3</ele><time>1970-01-01T00:55:18.000Z</time></trkpt><trkpt lat="51.767833" lon="39.420858"><ele>147.2</ele><time>1970-01-01T00:55:19.000Z</time></trkpt><trkpt lat="51.767834" lon="39.420948"><ele>147.1</ele><time>1970-01-01T00:55:20.000Z</time></trkpt><trkpt lat="51.767821" lon="39.421577"><ele>146.6</ele><time>1970-01-01T00:55:28.000Z</time></trkpt><trkpt lat="51.767816" lon="39.421653"><ele>146.6</ele><time>1970-01-01T00:55:29.000Z</time></trkpt><trkpt lat="51.767815" lon="39.42173"><ele>146.6</ele><time>1970-01-01T00:55:30.000Z</time></trkpt><trkpt lat="51.767818" lon="39.421807"><ele>146.7</ele><time>1970-01-01T00:55:31.000Z</time></trkpt><trkpt lat="51.767822" lon="39.421887"><ele>146.7</ele><time>1970-01-01T00:55:32.000Z</time></trkpt><trkpt lat="51.767799" lon="39.422958"><ele>147.1</ele><time>1970-01-01T00:55:45.000Z</time></trkpt><trkpt lat="51.76779" lon="39.423038"><ele>147.1</ele><time>1970-01-01T00:55:46.000Z</time></trkpt><trkpt lat="51.767785" lon="39.42312"><ele>147.1</ele><time>1970-01-01T00:55:47.000Z</time></trkpt><trkpt lat="51.767783" lon="39.423451"><ele>146.9</ele><time>1970-01-01T00:55:51.000Z</time></trkpt><trkpt lat="51.76778" lon="39.423538"><ele>146.9</ele><time>1970-01-01T00:55:52.000Z</time></trkpt><trkpt lat="51.767769" lon="39.423854"><ele>146.9</ele><time>1970-01-01T00:55:56.000Z</time></trkpt><trkpt lat="51.767755" lon="39.423906"><ele>146.9</ele><time>1970-01-01T00:55:57.000Z</time></trkpt><trkpt lat="51.767731" lon="39.423946"><ele>146.9</ele><time>1970-01-01T00:55:58.000Z</time></trkpt><trkpt lat="51.767709" lon="39.423983"><ele>146.9</ele><time>1970-01-01T00:55:59.000Z</time></trkpt><trkpt lat="51.767693" lon="39.424016"><ele>147</ele><time>1970-01-01T00:56:00.000Z</time></trkpt><trkpt lat="51.767687" lon="39.424044"><ele>147</ele><time>1970-01-01T00:56:01.000Z</time></trkpt><trkpt lat="51.767701" lon="39.424067"><ele>147</ele><time>1970-01-01T00:56:02.000Z</time></trkpt><trkpt lat="51.767725" lon="39.424094"><ele>147.1</ele><time>1970-01-01T00:56:03.000Z</time></trkpt><trkpt lat="51.767747" lon="39.424129"><ele>147.1</ele><time>1970-01-01T00:56:04.000Z</time></trkpt><trkpt lat="51.767759" lon="39.424173"><ele>147.2</ele><time>1970-01-01T00:56:05.000Z</time></trkpt><trkpt lat="51.767766" lon="39.424218"><ele>147.3</ele><time>1970-01-01T00:56:06.000Z</time></trkpt><trkpt lat="51.767772" lon="39.424255"><ele>147.3</ele><time>1970-01-01T00:56:07.000Z</time></trkpt><trkpt lat="51.767781" lon="39.424737"><ele>147.2</ele><time>1970-01-01T00:56:17.000Z</time></trkpt><trkpt lat="51.767778" lon="39.424819"><ele>147.1</ele><time>1970-01-01T00:56:18.000Z</time></trkpt><trkpt lat="51.767766" lon="39.425338"><ele>147.3</ele><time>1970-01-01T00:56:24.000Z</time></trkpt><trkpt lat="51.767768" lon="39.425585"><ele>147.3</ele><time>1970-01-01T00:56:27.000Z</time></trkpt><trkpt lat="51.767739" lon="39.426115"><ele>147.7</ele><time>1970-01-01T00:56:33.000Z</time></trkpt><trkpt lat="51.767744" lon="39.426348"><ele>147.5</ele><time>1970-01-01T00:56:36.000Z</time></trkpt><trkpt lat="51.767747" lon="39.426421"><ele>147.3</ele><time>1970-01-01T00:56:37.000Z</time></trkpt><trkpt lat="51.767747" lon="39.426493"><ele>147.2</ele><time>1970-01-01T00:56:38.000Z</time></trkpt><trkpt lat="51.767743" lon="39.426571"><ele>147.1</ele><time>1970-01-01T00:56:39.000Z</time></trkpt><trkpt lat="51.767734" lon="39.426652"><ele>146.9</ele><time>1970-01-01T00:56:40.000Z</time></trkpt><trkpt lat="51.767728" lon="39.426802"><ele>146.7</ele><time>1970-01-01T00:56:42.000Z</time></trkpt><trkpt lat="51.767738" lon="39.427711"><ele>146.5</ele><time>1970-01-01T00:56:53.000Z</time></trkpt><trkpt lat="51.767735" lon="39.427804"><ele>146.6</ele><time>1970-01-01T00:56:54.000Z</time></trkpt><trkpt lat="51.767732" lon="39.4279"><ele>146.5</ele><time>1970-01-01T00:56:55.000Z</time></trkpt><trkpt lat="51.767735" lon="39.427994"><ele>146.5</ele><time>1970-01-01T00:56:56.000Z</time></trkpt><trkpt lat="51.767735" lon="39.428084"><ele>146.4</ele><time>1970-01-01T00:56:57.000Z</time></trkpt><trkpt lat="51.76773" lon="39.428169"><ele>146.2</ele><time>1970-01-01T00:56:58.000Z</time></trkpt><trkpt lat="51.767722" lon="39.428252"><ele>146.1</ele><time>1970-01-01T00:56:59.000Z</time></trkpt><trkpt lat="51.76772" lon="39.428339"><ele>146</ele><time>1970-01-01T00:57:00.000Z</time></trkpt><trkpt lat="51.76772" lon="39.428851"><ele>145.2</ele><time>1970-01-01T00:57:07.000Z</time></trkpt><trkpt lat="51.76772" lon="39.428929"><ele>145.2</ele><time>1970-01-01T00:57:08.000Z</time></trkpt><trkpt lat="51.767714" lon="39.42909"><ele>145.4</ele><time>1970-01-01T00:57:10.000Z</time></trkpt><trkpt lat="51.767705" lon="39.42917"><ele>145.5</ele><time>1970-01-01T00:57:11.000Z</time></trkpt><trkpt lat="51.767687" lon="39.429351"><ele>145.7</ele><time>1970-01-01T00:57:13.000Z</time></trkpt><trkpt lat="51.767684" lon="39.430238"><ele>146.3</ele><time>1970-01-01T00:57:23.000Z</time></trkpt><trkpt lat="51.7677" lon="39.430527"><ele>146.2</ele><time>1970-01-01T00:57:27.000Z</time></trkpt><trkpt lat="51.767694" lon="39.430601"><ele>146.5</ele><time>1970-01-01T00:57:28.000Z</time></trkpt><trkpt lat="51.767687" lon="39.430677"><ele>146.9</ele><time>1970-01-01T00:57:29.000Z</time></trkpt><trkpt lat="51.767681" lon="39.430753"><ele>146.9</ele><time>1970-01-01T00:57:30.000Z</time></trkpt><trkpt lat="51.767673" lon="39.430831"><ele>146.5</ele><time>1970-01-01T00:57:31.000Z</time></trkpt><trkpt lat="51.76767" lon="39.430904"><ele>146.3</ele><time>1970-01-01T00:57:32.000Z</time></trkpt><trkpt lat="51.767666" lon="39.430971"><ele>146.2</ele><time>1970-01-01T00:57:33.000Z</time></trkpt><trkpt lat="51.767663" lon="39.431041"><ele>146.2</ele><time>1970-01-01T00:57:34.000Z</time></trkpt><trkpt lat="51.767669" lon="39.431196"><ele>146.4</ele><time>1970-01-01T00:57:36.000Z</time></trkpt><trkpt lat="51.767675" lon="39.431359"><ele>146.6</ele><time>1970-01-01T00:57:38.000Z</time></trkpt><trkpt lat="51.767677" lon="39.431526"><ele>146.9</ele><time>1970-01-01T00:57:40.000Z</time></trkpt><trkpt lat="51.767676" lon="39.431608"><ele>147</ele><time>1970-01-01T00:57:41.000Z</time></trkpt><trkpt lat="51.76768" lon="39.432558"><ele>147.4</ele><time>1970-01-01T00:57:53.000Z</time></trkpt><trkpt lat="51.767683" lon="39.432728"><ele>147.3</ele><time>1970-01-01T00:57:55.000Z</time></trkpt><trkpt lat="51.767671" lon="39.433542"><ele>147.7</ele><time>1970-01-01T00:58:06.000Z</time></trkpt><trkpt lat="51.767714" lon="39.434015"><ele>148.2</ele><time>1970-01-01T00:58:16.000Z</time></trkpt><trkpt lat="51.767713" lon="39.434037"><ele>148.2</ele><time>1970-01-01T00:58:17.000Z</time></trkpt><trkpt lat="51.767706" lon="39.434055"><ele>148.3</ele><time>1970-01-01T00:58:18.000Z</time></trkpt><trkpt lat="51.7677" lon="39.434071"><ele>148.3</ele><time>1970-01-01T00:58:19.000Z</time></trkpt><trkpt lat="51.76769" lon="39.434089"><ele>148.3</ele><time>1970-01-01T00:58:20.000Z</time></trkpt><trkpt lat="51.767684" lon="39.434121"><ele>148.4</ele><time>1970-01-01T00:58:21.000Z</time></trkpt><trkpt lat="51.767681" lon="39.434163"><ele>148.5</ele><time>1970-01-01T00:58:22.000Z</time></trkpt><trkpt lat="51.767677" lon="39.434212"><ele>148.6</ele><time>1970-01-01T00:58:23.000Z</time></trkpt><trkpt lat="51.767674" lon="39.434264"><ele>148.3</ele><time>1970-01-01T00:58:24.000Z</time></trkpt><trkpt lat="51.767673" lon="39.434316"><ele>148.1</ele><time>1970-01-01T00:58:25.000Z</time></trkpt><trkpt lat="51.767674" lon="39.43437"><ele>147.9</ele><time>1970-01-01T00:58:26.000Z</time></trkpt><trkpt lat="51.767668" lon="39.434722"><ele>148.1</ele><time>1970-01-01T00:58:32.000Z</time></trkpt><trkpt lat="51.767657" lon="39.435402"><ele>148</ele><time>1970-01-01T00:58:42.000Z</time></trkpt><trkpt lat="51.767652" lon="39.435483"><ele>148</ele><time>1970-01-01T00:58:43.000Z</time></trkpt><trkpt lat="51.767649" lon="39.435567"><ele>148.3</ele><time>1970-01-01T00:58:44.000Z</time></trkpt><trkpt lat="51.767646" lon="39.435655"><ele>148.9</ele><time>1970-01-01T00:58:45.000Z</time></trkpt><trkpt lat="51.767646" lon="39.435729"><ele>149</ele><time>1970-01-01T00:58:46.000Z</time></trkpt><trkpt lat="51.767644" lon="39.435804"><ele>149.1</ele><time>1970-01-01T00:58:47.000Z</time></trkpt><trkpt lat="51.767642" lon="39.435952"><ele>148.9</ele><time>1970-01-01T00:58:49.000Z</time></trkpt><trkpt lat="51.767641" lon="39.436033"><ele>148.9</ele><time>1970-01-01T00:58:50.000Z</time></trkpt><trkpt lat="51.767612" lon="39.436829"><ele>148.8</ele><time>1970-01-01T00:59:00.000Z</time></trkpt><trkpt lat="51.767612" lon="39.436912"><ele>148.7</ele><time>1970-01-01T00:59:01.000Z</time></trkpt><trkpt lat="51.767618" lon="39.437066"><ele>148.3</ele><time>1970-01-01T00:59:03.000Z</time></trkpt><trkpt lat="51.767628" lon="39.437219"><ele>148.2</ele><time>1970-01-01T00:59:05.000Z</time></trkpt><trkpt lat="51.767625" lon="39.437293"><ele>148.3</ele><time>1970-01-01T00:59:06.000Z</time></trkpt><trkpt lat="51.767613" lon="39.437449"><ele>148.3</ele><time>1970-01-01T00:59:08.000Z</time></trkpt><trkpt lat="51.767604" lon="39.437538"><ele>148.2</ele><time>1970-01-01T00:59:09.000Z</time></trkpt><trkpt lat="51.767588" lon="39.438335"><ele>146.4</ele><time>1970-01-01T00:59:20.000Z</time></trkpt><trkpt lat="51.767585" lon="39.438439"><ele>146.3</ele><time>1970-01-01T00:59:22.000Z</time></trkpt><trkpt lat="51.767587" lon="39.438698"><ele>145.6</ele><time>1970-01-01T00:59:26.000Z</time></trkpt><trkpt lat="51.767561" lon="39.439066"><ele>144.1</ele><time>1970-01-01T00:59:30.000Z</time></trkpt><trkpt lat="51.767554" lon="39.439339"><ele>142.6</ele><time>1970-01-01T00:59:33.000Z</time></trkpt><trkpt lat="51.767557" lon="39.439424"><ele>142.5</ele><time>1970-01-01T00:59:34.000Z</time></trkpt><trkpt lat="51.767556" lon="39.439505"><ele>142.3</ele><time>1970-01-01T00:59:35.000Z</time></trkpt><trkpt lat="51.767558" lon="39.439812"><ele>140.7</ele><time>1970-01-01T00:59:39.000Z</time></trkpt><trkpt lat="51.76756" lon="39.43988"><ele>140.3</ele><time>1970-01-01T00:59:40.000Z</time></trkpt><trkpt lat="51.767562" lon="39.439948"><ele>139.9</ele><time>1970-01-01T00:59:41.000Z</time></trkpt><trkpt lat="51.767559" lon="39.440014"><ele>139.6</ele><time>1970-01-01T00:59:42.000Z</time></trkpt><trkpt lat="51.767555" lon="39.440085"><ele>139.4</ele><time>1970-01-01T00:59:43.000Z</time></trkpt><trkpt lat="51.767555" lon="39.440159"><ele>139.4</ele><time>1970-01-01T00:59:44.000Z</time></trkpt><trkpt lat="51.767559" lon="39.440234"><ele>139.8</ele><time>1970-01-01T00:59:45.000Z</time></trkpt><trkpt lat="51.767564" lon="39.440394"><ele>140.6</ele><time>1970-01-01T00:59:47.000Z</time></trkpt><trkpt lat="51.767556" lon="39.441209"><ele>144.6</ele><time>1970-01-01T00:59:57.000Z</time></trkpt><trkpt lat="51.767542" lon="39.441642"><ele>143.8</ele><time>1970-01-01T01:00:02.000Z</time></trkpt><trkpt lat="51.767546" lon="39.441726"><ele>143.7</ele><time>1970-01-01T01:00:03.000Z</time></trkpt><trkpt lat="51.767547" lon="39.441895"><ele>143.3</ele><time>1970-01-01T01:00:05.000Z</time></trkpt><trkpt lat="51.767543" lon="39.441978"><ele>142.7</ele><time>1970-01-01T01:00:06.000Z</time></trkpt><trkpt lat="51.767531" lon="39.442299"><ele>141.8</ele><time>1970-01-01T01:00:10.000Z</time></trkpt><trkpt lat="51.767525" lon="39.442375"><ele>141.5</ele><time>1970-01-01T01:00:11.000Z</time></trkpt><trkpt lat="51.767515" lon="39.442688"><ele>141.5</ele><time>1970-01-01T01:00:15.000Z</time></trkpt><trkpt lat="51.767516" lon="39.442761"><ele>141.7</ele><time>1970-01-01T01:00:16.000Z</time></trkpt><trkpt lat="51.767507" lon="39.442914"><ele>141.9</ele><time>1970-01-01T01:00:18.000Z</time></trkpt><trkpt lat="51.767514" lon="39.443236"><ele>143.1</ele><time>1970-01-01T01:00:23.000Z</time></trkpt><trkpt lat="51.767533" lon="39.443271"><ele>143.1</ele><time>1970-01-01T01:00:24.000Z</time></trkpt><trkpt lat="51.767556" lon="39.443301"><ele>143.1</ele><time>1970-01-01T01:00:25.000Z</time></trkpt><trkpt lat="51.767586" lon="39.443321"><ele>143</ele><time>1970-01-01T01:00:26.000Z</time></trkpt><trkpt lat="51.767621" lon="39.443342"><ele>142.9</ele><time>1970-01-01T01:00:27.000Z</time></trkpt><trkpt lat="51.767955" lon="39.443498"><ele>142.6</ele><time>1970-01-01T01:00:39.000Z</time></trkpt><trkpt lat="51.767969" lon="39.443509"><ele>142.6</ele><time>1970-01-01T01:00:41.000Z</time></trkpt><trkpt lat="51.768086" lon="39.443494"><ele>142.7</ele><time>1970-01-01T01:00:53.000Z</time></trkpt><trkpt lat="51.768108" lon="39.443492"><ele>142.7</ele><time>1970-01-01T01:00:54.000Z</time></trkpt><trkpt lat="51.768141" lon="39.443489"><ele>142.8</ele><time>1970-01-01T01:00:55.000Z</time></trkpt><trkpt lat="51.7685" lon="39.443664"><ele>143.4</ele><time>1970-01-01T01:01:06.000Z</time></trkpt><trkpt lat="51.768857" lon="39.443847"><ele>143.6</ele><time>1970-01-01T01:01:16.000Z</time></trkpt><trkpt lat="51.769273" lon="39.443972"><ele>144.2</ele><time>1970-01-01T01:01:26.000Z</time></trkpt><trkpt lat="51.769604" lon="39.444095"><ele>144.3</ele><time>1970-01-01T01:01:35.000Z</time></trkpt><trkpt lat="51.769899" lon="39.444244"><ele>144.3</ele><time>1970-01-01T01:01:43.000Z</time></trkpt><trkpt lat="51.769984" lon="39.444279"><ele>144.5</ele><time>1970-01-01T01:01:49.000Z</time></trkpt><trkpt lat="51.770022" lon="39.44436"><ele>144.8</ele><time>1970-01-01T01:01:53.000Z</time></trkpt><trkpt lat="51.770031" lon="39.444381"><ele>144.9</ele><time>1970-01-01T01:01:54.000Z</time></trkpt><trkpt lat="51.77005" lon="39.444394"><ele>145.1</ele><time>1970-01-01T01:01:55.000Z</time></trkpt><trkpt lat="51.770065" lon="39.444409"><ele>145.3</ele><time>1970-01-01T01:01:56.000Z</time></trkpt><trkpt lat="51.770116" lon="39.44472"><ele>144.2</ele><time>1970-01-01T01:02:11.000Z</time></trkpt><trkpt lat="51.770125" lon="39.444749"><ele>144.6</ele><time>1970-01-01T01:02:14.000Z</time></trkpt><trkpt lat="51.770089" lon="39.444848"><ele>144</ele><time>1970-01-01T01:02:24.000Z</time></trkpt><trkpt lat="51.77009" lon="39.444962"><ele>143.2</ele><time>1970-01-01T01:02:36.000Z</time></trkpt><trkpt lat="51.770096" lon="39.445002"><ele>143</ele><time>1970-01-01T01:02:41.000Z</time></trkpt><trkpt lat="51.770052" lon="39.44513"><ele>141.9</ele><time>1970-01-01T01:02:50.000Z</time></trkpt><trkpt lat="51.769983" lon="39.445418"><ele>139.3</ele><time>1970-01-01T01:02:58.000Z</time></trkpt><trkpt lat="51.769881" lon="39.445916"><ele>136.7</ele><time>1970-01-01T01:03:07.000Z</time></trkpt><trkpt lat="51.769842" lon="39.446061"><ele>136.5</ele><time>1970-01-01T01:03:09.000Z</time></trkpt><trkpt lat="51.769674" lon="39.44683"><ele>135.8</ele><time>1970-01-01T01:03:20.000Z</time></trkpt><trkpt lat="51.769663" lon="39.446895"><ele>136</ele><time>1970-01-01T01:03:21.000Z</time></trkpt><trkpt lat="51.769602" lon="39.447222"><ele>136.1</ele><time>1970-01-01T01:03:25.000Z</time></trkpt><trkpt lat="51.769489" lon="39.447943"><ele>136.2</ele><time>1970-01-01T01:03:34.000Z</time></trkpt><trkpt lat="51.769411" lon="39.44846"><ele>137.4</ele><time>1970-01-01T01:03:40.000Z</time></trkpt><trkpt lat="51.769259" lon="39.449193"><ele>137.6</ele><time>1970-01-01T01:03:50.000Z</time></trkpt><trkpt lat="51.769224" lon="39.449337"><ele>137.8</ele><time>1970-01-01T01:03:52.000Z</time></trkpt><trkpt lat="51.769152" lon="39.449662"><ele>137.9</ele><time>1970-01-01T01:03:56.000Z</time></trkpt><trkpt lat="51.769124" lon="39.449806"><ele>137.5</ele><time>1970-01-01T01:03:58.000Z</time></trkpt><trkpt lat="51.769052" lon="39.450167"><ele>137.2</ele><time>1970-01-01T01:04:03.000Z</time></trkpt><trkpt lat="51.768953" lon="39.450663"><ele>136.4</ele><time>1970-01-01T01:04:09.000Z</time></trkpt><trkpt lat="51.768906" lon="39.450909"><ele>136.3</ele><time>1970-01-01T01:04:12.000Z</time></trkpt><trkpt lat="51.768873" lon="39.451096"><ele>136.8</ele><time>1970-01-01T01:04:14.000Z</time></trkpt><trkpt lat="51.768818" lon="39.451523"><ele>137</ele><time>1970-01-01T01:04:19.000Z</time></trkpt><trkpt lat="51.768748" lon="39.451818"><ele>137</ele><time>1970-01-01T01:04:23.000Z</time></trkpt><trkpt lat="51.768711" lon="39.452067"><ele>136.5</ele><time>1970-01-01T01:04:26.000Z</time></trkpt><trkpt lat="51.768436" lon="39.453243"><ele>136.3</ele><time>1970-01-01T01:04:40.000Z</time></trkpt><trkpt lat="51.768391" lon="39.453559"><ele>137.2</ele><time>1970-01-01T01:04:44.000Z</time></trkpt><trkpt lat="51.76838" lon="39.453622"><ele>137.2</ele><time>1970-01-01T01:04:45.000Z</time></trkpt><trkpt lat="51.768367" lon="39.453689"><ele>137.3</ele><time>1970-01-01T01:04:46.000Z</time></trkpt><trkpt lat="51.768224" lon="39.454425"><ele>138.4</ele><time>1970-01-01T01:04:55.000Z</time></trkpt><trkpt lat="51.768203" lon="39.454503"><ele>138.5</ele><time>1970-01-01T01:04:56.000Z</time></trkpt><trkpt lat="51.768155" lon="39.454732"><ele>138.5</ele><time>1970-01-01T01:04:59.000Z</time></trkpt><trkpt lat="51.768134" lon="39.45489"><ele>138.2</ele><time>1970-01-01T01:05:01.000Z</time></trkpt><trkpt lat="51.767954" lon="39.455883"><ele>138.6</ele><time>1970-01-01T01:05:14.000Z</time></trkpt><trkpt lat="51.767933" lon="39.455957"><ele>138.7</ele><time>1970-01-01T01:05:15.000Z</time></trkpt><trkpt lat="51.767915" lon="39.456031"><ele>138.8</ele><time>1970-01-01T01:05:16.000Z</time></trkpt><trkpt lat="51.767757" lon="39.4567"><ele>141.1</ele><time>1970-01-01T01:05:26.000Z</time></trkpt><trkpt lat="51.767598" lon="39.457074"><ele>143.5</ele><time>1970-01-01T01:05:36.000Z</time></trkpt><trkpt lat="51.7676" lon="39.457111"><ele>143.8</ele><time>1970-01-01T01:05:37.000Z</time></trkpt><trkpt lat="51.76761" lon="39.457143"><ele>144.1</ele><time>1970-01-01T01:05:38.000Z</time></trkpt><trkpt lat="51.767627" lon="39.457169"><ele>144.4</ele><time>1970-01-01T01:05:39.000Z</time></trkpt><trkpt lat="51.767651" lon="39.457191"><ele>144.4</ele><time>1970-01-01T01:05:40.000Z</time></trkpt><trkpt lat="51.76768" lon="39.457208"><ele>144.4</ele><time>1970-01-01T01:05:41.000Z</time></trkpt><trkpt lat="51.767712" lon="39.457221"><ele>144.4</ele><time>1970-01-01T01:05:42.000Z</time></trkpt><trkpt lat="51.767744" lon="39.457231"><ele>144.4</ele><time>1970-01-01T01:05:43.000Z</time></trkpt><trkpt lat="51.768245" lon="39.457485"><ele>144.6</ele><time>1970-01-01T01:05:55.000Z</time></trkpt><trkpt lat="51.768289" lon="39.457507"><ele>145</ele><time>1970-01-01T01:05:56.000Z</time></trkpt><trkpt lat="51.768339" lon="39.457525"><ele>145.4</ele><time>1970-01-01T01:05:57.000Z</time></trkpt><trkpt lat="51.768476" lon="39.457591"><ele>146.7</ele><time>1970-01-01T01:06:00.000Z</time></trkpt><trkpt lat="51.768619" lon="39.457651"><ele>147.8</ele><time>1970-01-01T01:06:03.000Z</time></trkpt><trkpt lat="51.768673" lon="39.457668"><ele>147.8</ele><time>1970-01-01T01:06:04.000Z</time></trkpt><trkpt lat="51.768725" lon="39.457687"><ele>147.6</ele><time>1970-01-01T01:06:05.000Z</time></trkpt><trkpt lat="51.768763" lon="39.457711"><ele>147.8</ele><time>1970-01-01T01:06:06.000Z</time></trkpt><trkpt lat="51.768801" lon="39.457737"><ele>148.1</ele><time>1970-01-01T01:06:07.000Z</time></trkpt><trkpt lat="51.768847" lon="39.457766"><ele>148</ele><time>1970-01-01T01:06:08.000Z</time></trkpt><trkpt lat="51.768895" lon="39.457798"><ele>147.9</ele><time>1970-01-01T01:06:09.000Z</time></trkpt><trkpt lat="51.768934" lon="39.457829"><ele>147.7</ele><time>1970-01-01T01:06:10.000Z</time></trkpt><trkpt lat="51.769021" lon="39.457877"><ele>147.8</ele><time>1970-01-01T01:06:12.000Z</time></trkpt><trkpt lat="51.76944" lon="39.458091"><ele>149.7</ele><time>1970-01-01T01:06:22.000Z</time></trkpt><trkpt lat="51.769943" lon="39.458281"><ele>151.8</ele><time>1970-01-01T01:06:34.000Z</time></trkpt><trkpt lat="51.769997" lon="39.458295"><ele>152</ele><time>1970-01-01T01:06:35.000Z</time></trkpt><trkpt lat="51.770272" lon="39.458406"><ele>152.1</ele><time>1970-01-01T01:06:41.000Z</time></trkpt><trkpt lat="51.770363" lon="39.458453"><ele>151.9</ele><time>1970-01-01T01:06:43.000Z</time></trkpt><trkpt lat="51.770411" lon="39.458481"><ele>151.4</ele><time>1970-01-01T01:06:44.000Z</time></trkpt><trkpt lat="51.770464" lon="39.458509"><ele>151.1</ele><time>1970-01-01T01:06:45.000Z</time></trkpt><trkpt lat="51.770518" lon="39.458532"><ele>151.1</ele><time>1970-01-01T01:06:46.000Z</time></trkpt><trkpt lat="51.770575" lon="39.458558"><ele>151.2</ele><time>1970-01-01T01:06:47.000Z</time></trkpt><trkpt lat="51.770624" lon="39.458585"><ele>151.2</ele><time>1970-01-01T01:06:48.000Z</time></trkpt><trkpt lat="51.770667" lon="39.458618"><ele>151.2</ele><time>1970-01-01T01:06:49.000Z</time></trkpt><trkpt lat="51.770713" lon="39.458655"><ele>151.1</ele><time>1970-01-01T01:06:50.000Z</time></trkpt><trkpt lat="51.770762" lon="39.458694"><ele>151.1</ele><time>1970-01-01T01:06:51.000Z</time></trkpt><trkpt lat="51.770807" lon="39.458731"><ele>151</ele><time>1970-01-01T01:06:52.000Z</time></trkpt><trkpt lat="51.770857" lon="39.458764"><ele>150.9</ele><time>1970-01-01T01:06:53.000Z</time></trkpt><trkpt lat="51.7709" lon="39.458794"><ele>150.7</ele><time>1970-01-01T01:06:54.000Z</time></trkpt><trkpt lat="51.770941" lon="39.458819"><ele>150.5</ele><time>1970-01-01T01:06:55.000Z</time></trkpt><trkpt lat="51.770985" lon="39.458839"><ele>150.3</ele><time>1970-01-01T01:06:56.000Z</time></trkpt><trkpt lat="51.77103" lon="39.458865"><ele>150.2</ele><time>1970-01-01T01:06:57.000Z</time></trkpt><trkpt lat="51.77108" lon="39.458893"><ele>150.1</ele><time>1970-01-01T01:06:58.000Z</time></trkpt><trkpt lat="51.771181" lon="39.458939"><ele>150.2</ele><time>1970-01-01T01:07:00.000Z</time></trkpt><trkpt lat="51.771234" lon="39.458957"><ele>150.2</ele><time>1970-01-01T01:07:01.000Z</time></trkpt><trkpt lat="51.771286" lon="39.458978"><ele>150.2</ele><time>1970-01-01T01:07:02.000Z</time></trkpt><trkpt lat="51.771339" lon="39.459001"><ele>150.2</ele><time>1970-01-01T01:07:03.000Z</time></trkpt><trkpt lat="51.771387" lon="39.459033"><ele>150.2</ele><time>1970-01-01T01:07:04.000Z</time></trkpt><trkpt lat="51.771428" lon="39.459069"><ele>150.3</ele><time>1970-01-01T01:07:05.000Z</time></trkpt><trkpt lat="51.771473" lon="39.459098"><ele>150.2</ele><time>1970-01-01T01:07:06.000Z</time></trkpt><trkpt lat="51.771525" lon="39.459119"><ele>150.1</ele><time>1970-01-01T01:07:07.000Z</time></trkpt><trkpt lat="51.771621" lon="39.459166"><ele>149.5</ele><time>1970-01-01T01:07:09.000Z</time></trkpt><trkpt lat="51.771674" lon="39.45919"><ele>149.2</ele><time>1970-01-01T01:07:10.000Z</time></trkpt><trkpt lat="51.771727" lon="39.459217"><ele>148.8</ele><time>1970-01-01T01:07:11.000Z</time></trkpt><trkpt lat="51.771778" lon="39.459238"><ele>148.5</ele><time>1970-01-01T01:07:12.000Z</time></trkpt><trkpt lat="51.771831" lon="39.459248"><ele>148.3</ele><time>1970-01-01T01:07:13.000Z</time></trkpt><trkpt lat="51.771879" lon="39.459259"><ele>148.1</ele><time>1970-01-01T01:07:14.000Z</time></trkpt><trkpt lat="51.771931" lon="39.459282"><ele>148.1</ele><time>1970-01-01T01:07:15.000Z</time></trkpt><trkpt lat="51.771982" lon="39.459307"><ele>148.3</ele><time>1970-01-01T01:07:16.000Z</time></trkpt><trkpt lat="51.772291" lon="39.459484"><ele>151.5</ele><time>1970-01-01T01:07:24.000Z</time></trkpt><trkpt lat="51.772683" lon="39.459659"><ele>153.3</ele><time>1970-01-01T01:07:33.000Z</time></trkpt><trkpt lat="51.772954" lon="39.459795"><ele>153.1</ele><time>1970-01-01T01:07:39.000Z</time></trkpt><trkpt lat="51.773058" lon="39.459844"><ele>153.3</ele><time>1970-01-01T01:07:41.000Z</time></trkpt><trkpt lat="51.773268" lon="39.459963"><ele>153.7</ele><time>1970-01-01T01:07:45.000Z</time></trkpt><trkpt lat="51.773316" lon="39.459994"><ele>154</ele><time>1970-01-01T01:07:46.000Z</time></trkpt><trkpt lat="51.773856" lon="39.460254"><ele>157.2</ele><time>1970-01-01T01:07:58.000Z</time></trkpt><trkpt lat="51.77427" lon="39.46047"><ele>157.5</ele><time>1970-01-01T01:08:08.000Z</time></trkpt><trkpt lat="51.774803" lon="39.460716"><ele>152.8</ele><time>1970-01-01T01:08:18.000Z</time></trkpt><trkpt lat="51.775042" lon="39.46085"><ele>150.6</ele><time>1970-01-01T01:08:23.000Z</time></trkpt><trkpt lat="51.775211" lon="39.460963"><ele>150.7</ele><time>1970-01-01T01:08:27.000Z</time></trkpt><trkpt lat="51.775253" lon="39.460978"><ele>150.6</ele><time>1970-01-01T01:08:28.000Z</time></trkpt><trkpt lat="51.775287" lon="39.460985"><ele>150.5</ele><time>1970-01-01T01:08:29.000Z</time></trkpt><trkpt lat="51.775317" lon="39.460983"><ele>150.4</ele><time>1970-01-01T01:08:30.000Z</time></trkpt><trkpt lat="51.775348" lon="39.460988"><ele>150.6</ele><time>1970-01-01T01:08:31.000Z</time></trkpt><trkpt lat="51.775385" lon="39.461"><ele>150.8</ele><time>1970-01-01T01:08:32.000Z</time></trkpt><trkpt lat="51.775511" lon="39.461064"><ele>151.8</ele><time>1970-01-01T01:08:37.000Z</time></trkpt><trkpt lat="51.77553" lon="39.461067"><ele>151.7</ele><time>1970-01-01T01:08:38.000Z</time></trkpt><trkpt lat="51.775544" lon="39.461077"><ele>151.7</ele><time>1970-01-01T01:08:39.000Z</time></trkpt><trkpt lat="51.775617" lon="39.461178"><ele>152.3</ele><time>1970-01-01T01:08:44.000Z</time></trkpt><trkpt lat="51.77565" lon="39.461194"><ele>152.7</ele><time>1970-01-01T01:08:45.000Z</time></trkpt><trkpt lat="51.775689" lon="39.461209"><ele>152.9</ele><time>1970-01-01T01:08:46.000Z</time></trkpt><trkpt lat="51.775725" lon="39.461232"><ele>153.1</ele><time>1970-01-01T01:08:47.000Z</time></trkpt><trkpt lat="51.775759" lon="39.461261"><ele>153.1</ele><time>1970-01-01T01:08:48.000Z</time></trkpt><trkpt lat="51.776221" lon="39.46147"><ele>154</ele><time>1970-01-01T01:09:00.000Z</time></trkpt><trkpt lat="51.776295" lon="39.461476"><ele>153.9</ele><time>1970-01-01T01:09:05.000Z</time></trkpt><trkpt lat="51.776312" lon="39.461485"><ele>153.8</ele><time>1970-01-01T01:09:06.000Z</time></trkpt><trkpt lat="51.776333" lon="39.461497"><ele>153.8</ele><time>1970-01-01T01:09:07.000Z</time></trkpt><trkpt lat="51.776672" lon="39.46163"><ele>151.7</ele><time>1970-01-01T01:09:17.000Z</time></trkpt><trkpt lat="51.776825" lon="39.461791"><ele>150.1</ele><time>1970-01-01T01:09:23.000Z</time></trkpt><trkpt lat="51.776832" lon="39.461835"><ele>149.8</ele><time>1970-01-01T01:09:24.000Z</time></trkpt><trkpt lat="51.776828" lon="39.461877"><ele>149.5</ele><time>1970-01-01T01:09:25.000Z</time></trkpt><trkpt lat="51.776748" lon="39.462469"><ele>149.8</ele><time>1970-01-01T01:09:35.000Z</time></trkpt><trkpt lat="51.776635" lon="39.463209"><ele>148.5</ele><time>1970-01-01T01:09:46.000Z</time></trkpt><trkpt lat="51.776526" lon="39.463804"><ele>149.9</ele><time>1970-01-01T01:09:55.000Z</time></trkpt><trkpt lat="51.776306" lon="39.464387"><ele>150</ele><time>1970-01-01T01:10:06.000Z</time></trkpt><trkpt lat="51.775859" lon="39.464334"><ele>147.8</ele><time>1970-01-01T01:10:17.000Z</time></trkpt><trkpt lat="51.775811" lon="39.464322"><ele>147.4</ele><time>1970-01-01T01:10:18.000Z</time></trkpt><trkpt lat="51.775713" lon="39.464311"><ele>146.7</ele><time>1970-01-01T01:10:20.000Z</time></trkpt><trkpt lat="51.775666" lon="39.464318"><ele>146.2</ele><time>1970-01-01T01:10:21.000Z</time></trkpt><trkpt lat="51.77523" lon="39.464408"><ele>142.5</ele><time>1970-01-01T01:10:29.000Z</time></trkpt><trkpt lat="51.775191" lon="39.46441"><ele>142.2</ele><time>1970-01-01T01:10:30.000Z</time></trkpt><trkpt lat="51.775149" lon="39.464416"><ele>142.2</ele><time>1970-01-01T01:10:31.000Z</time></trkpt><trkpt lat="51.775096" lon="39.464418"><ele>142.2</ele><time>1970-01-01T01:10:32.000Z</time></trkpt><trkpt lat="51.775044" lon="39.464406"><ele>142.5</ele><time>1970-01-01T01:10:33.000Z</time></trkpt><trkpt lat="51.774994" lon="39.464392"><ele>142.8</ele><time>1970-01-01T01:10:34.000Z</time></trkpt><trkpt lat="51.774943" lon="39.464378"><ele>143.1</ele><time>1970-01-01T01:10:35.000Z</time></trkpt><trkpt lat="51.774896" lon="39.46436"><ele>143.2</ele><time>1970-01-01T01:10:36.000Z</time></trkpt><trkpt lat="51.774848" lon="39.464348"><ele>143.3</ele><time>1970-01-01T01:10:37.000Z</time></trkpt><trkpt lat="51.774664" lon="39.464369"><ele>144.9</ele><time>1970-01-01T01:10:41.000Z</time></trkpt><trkpt lat="51.774566" lon="39.464437"><ele>145.1</ele><time>1970-01-01T01:10:43.000Z</time></trkpt><trkpt lat="51.774384" lon="39.464618"><ele>145.5</ele><time>1970-01-01T01:10:47.000Z</time></trkpt><trkpt lat="51.77417" lon="39.464896"><ele>144.9</ele><time>1970-01-01T01:10:52.000Z</time></trkpt><trkpt lat="51.77412" lon="39.464939"><ele>144.6</ele><time>1970-01-01T01:10:53.000Z</time></trkpt><trkpt lat="51.773795" lon="39.465247"><ele>146.8</ele><time>1970-01-01T01:11:00.000Z</time></trkpt><trkpt lat="51.773487" lon="39.465686"><ele>152.1</ele><time>1970-01-01T01:11:09.000Z</time></trkpt><trkpt lat="51.773432" lon="39.465831"><ele>153.5</ele><time>1970-01-01T01:11:11.000Z</time></trkpt><trkpt lat="51.773254" lon="39.4663"><ele>154.5</ele><time>1970-01-01T01:11:18.000Z</time></trkpt><trkpt lat="51.773185" lon="39.466512"><ele>153.3</ele><time>1970-01-01T01:11:21.000Z</time></trkpt><trkpt lat="51.773067" lon="39.466842"><ele>151.9</ele><time>1970-01-01T01:11:26.000Z</time></trkpt><trkpt lat="51.772956" lon="39.467051"><ele>151.1</ele><time>1970-01-01T01:11:30.000Z</time></trkpt><trkpt lat="51.7728" lon="39.467692"><ele>148.3</ele><time>1970-01-01T01:11:42.000Z</time></trkpt><trkpt lat="51.772763" lon="39.467836"><ele>148</ele><time>1970-01-01T01:11:46.000Z</time></trkpt><trkpt lat="51.772756" lon="39.467874"><ele>147.8</ele><time>1970-01-01T01:11:47.000Z</time></trkpt><trkpt lat="51.772696" lon="39.468394"><ele>147.1</ele><time>1970-01-01T01:11:57.000Z</time></trkpt><trkpt lat="51.772709" lon="39.468628"><ele>146.9</ele><time>1970-01-01T01:12:01.000Z</time></trkpt><trkpt lat="51.772709" lon="39.468695"><ele>146.9</ele><time>1970-01-01T01:12:02.000Z</time></trkpt><trkpt lat="51.772713" lon="39.468768"><ele>147</ele><time>1970-01-01T01:12:03.000Z</time></trkpt><trkpt lat="51.772763" lon="39.469193"><ele>148.5</ele><time>1970-01-01T01:12:09.000Z</time></trkpt><trkpt lat="51.772824" lon="39.469777"><ele>149</ele><time>1970-01-01T01:12:16.000Z</time></trkpt><trkpt lat="51.772828" lon="39.469849"><ele>149.1</ele><time>1970-01-01T01:12:17.000Z</time></trkpt><trkpt lat="51.772827" lon="39.470014"><ele>149.4</ele><time>1970-01-01T01:12:19.000Z</time></trkpt><trkpt lat="51.772836" lon="39.470089"><ele>149.7</ele><time>1970-01-01T01:12:20.000Z</time></trkpt><trkpt lat="51.772857" lon="39.470158"><ele>150</ele><time>1970-01-01T01:12:21.000Z</time></trkpt><trkpt lat="51.772872" lon="39.470229"><ele>150.3</ele><time>1970-01-01T01:12:22.000Z</time></trkpt><trkpt lat="51.772878" lon="39.470304"><ele>150.4</ele><time>1970-01-01T01:12:23.000Z</time></trkpt><trkpt lat="51.772881" lon="39.470375"><ele>150.4</ele><time>1970-01-01T01:12:24.000Z</time></trkpt><trkpt lat="51.772877" lon="39.470435"><ele>150.2</ele><time>1970-01-01T01:12:25.000Z</time></trkpt><trkpt lat="51.772872" lon="39.470491"><ele>150.1</ele><time>1970-01-01T01:12:26.000Z</time></trkpt><trkpt lat="51.772864" lon="39.470544"><ele>150.1</ele><time>1970-01-01T01:12:27.000Z</time></trkpt><trkpt lat="51.772816" lon="39.470613"><ele>150</ele><time>1970-01-01T01:12:29.000Z</time></trkpt><trkpt lat="51.772662" lon="39.471047"><ele>149</ele><time>1970-01-01T01:12:39.000Z</time></trkpt><trkpt lat="51.77267" lon="39.471239"><ele>148.9</ele><time>1970-01-01T01:12:43.000Z</time></trkpt><trkpt lat="51.772834" lon="39.471355"><ele>147.9</ele><time>1970-01-01T01:12:52.000Z</time></trkpt><trkpt lat="51.772906" lon="39.471383"><ele>148</ele><time>1970-01-01T01:12:56.000Z</time></trkpt><trkpt lat="51.773163" lon="39.471635"><ele>148.1</ele><time>1970-01-01T01:13:07.000Z</time></trkpt><trkpt lat="51.773275" lon="39.472199"><ele>149.3</ele><time>1970-01-01T01:13:17.000Z</time></trkpt><trkpt lat="51.773351" lon="39.472416"><ele>149.6</ele><time>1970-01-01T01:13:27.000Z</time></trkpt><trkpt lat="51.773361" lon="39.472444"><ele>149.6</ele><time>1970-01-01T01:13:28.000Z</time></trkpt><trkpt lat="51.773377" lon="39.472478"><ele>149.7</ele><time>1970-01-01T01:13:29.000Z</time></trkpt><trkpt lat="51.773394" lon="39.472518"><ele>149.8</ele><time>1970-01-01T01:13:30.000Z</time></trkpt><trkpt lat="51.773408" lon="39.47256"><ele>149.9</ele><time>1970-01-01T01:13:31.000Z</time></trkpt><trkpt lat="51.773472" lon="39.472781"><ele>150.1</ele><time>1970-01-01T01:13:38.000Z</time></trkpt><trkpt lat="51.773485" lon="39.472811"><ele>150.1</ele><time>1970-01-01T01:13:41.000Z</time></trkpt><trkpt lat="51.773495" lon="39.472816"><ele>150.2</ele><time>1970-01-01T01:13:42.000Z</time></trkpt><trkpt lat="51.77352" lon="39.472848"><ele>150.2</ele><time>1970-01-01T01:13:44.000Z</time></trkpt><trkpt lat="51.77354" lon="39.472881"><ele>150.3</ele><time>1970-01-01T01:13:45.000Z</time></trkpt><trkpt lat="51.77373" lon="39.473178"><ele>150.1</ele><time>1970-01-01T01:13:52.000Z</time></trkpt><trkpt lat="51.77393" lon="39.473449"><ele>149.3</ele><time>1970-01-01T01:14:00.000Z</time></trkpt><trkpt lat="51.773957" lon="39.473454"><ele>149.1</ele><time>1970-01-01T01:14:01.000Z</time></trkpt><trkpt lat="51.773987" lon="39.473467"><ele>148.9</ele><time>1970-01-01T01:14:02.000Z</time></trkpt><trkpt lat="51.774022" lon="39.473484"><ele>148.9</ele><time>1970-01-01T01:14:03.000Z</time></trkpt><trkpt lat="51.774053" lon="39.473502"><ele>148.9</ele><time>1970-01-01T01:14:04.000Z</time></trkpt><trkpt lat="51.774087" lon="39.473525"><ele>148.9</ele><time>1970-01-01T01:14:05.000Z</time></trkpt><trkpt lat="51.774123" lon="39.47355"><ele>149</ele><time>1970-01-01T01:14:06.000Z</time></trkpt><trkpt lat="51.774161" lon="39.473574"><ele>149</ele><time>1970-01-01T01:14:07.000Z</time></trkpt><trkpt lat="51.774436" lon="39.47363"><ele>149.1</ele><time>1970-01-01T01:14:17.000Z</time></trkpt><trkpt lat="51.774571" lon="39.473472"><ele>148.2</ele><time>1970-01-01T01:14:26.000Z</time></trkpt><trkpt lat="51.774578" lon="39.473436"><ele>148.1</ele><time>1970-01-01T01:14:31.000Z</time></trkpt><trkpt lat="51.774581" lon="39.473595"><ele>149</ele><time>1970-01-01T01:18:16.000Z</time></trkpt><trkpt lat="51.774577" lon="39.473635"><ele>149.1</ele><time>1970-01-01T01:18:17.000Z</time></trkpt><trkpt lat="51.774452" lon="39.474246"><ele>149.1</ele><time>1970-01-01T01:18:29.000Z</time></trkpt><trkpt lat="51.774359" lon="39.474783"><ele>148.5</ele><time>1970-01-01T01:18:38.000Z</time></trkpt><trkpt lat="51.774344" lon="39.474858"><ele>148.5</ele><time>1970-01-01T01:18:39.000Z</time></trkpt><trkpt lat="51.774285" lon="39.475219"><ele>147.1</ele><time>1970-01-01T01:18:44.000Z</time></trkpt><trkpt lat="51.774264" lon="39.475277"><ele>146.6</ele><time>1970-01-01T01:18:45.000Z</time></trkpt><trkpt lat="51.774236" lon="39.475326"><ele>146.5</ele><time>1970-01-01T01:18:46.000Z</time></trkpt><trkpt lat="51.774205" lon="39.475365"><ele>146.4</ele><time>1970-01-01T01:18:47.000Z</time></trkpt><trkpt lat="51.774173" lon="39.475393"><ele>146.3</ele><time>1970-01-01T01:18:48.000Z</time></trkpt><trkpt lat="51.774143" lon="39.475406"><ele>146.2</ele><time>1970-01-01T01:18:49.000Z</time></trkpt><trkpt lat="51.774108" lon="39.475406"><ele>146</ele><time>1970-01-01T01:18:50.000Z</time></trkpt><trkpt lat="51.774074" lon="39.475402"><ele>145.8</ele><time>1970-01-01T01:18:51.000Z</time></trkpt><trkpt lat="51.773861" lon="39.475566"><ele>145.2</ele><time>1970-01-01T01:18:58.000Z</time></trkpt><trkpt lat="51.773857" lon="39.475622"><ele>145.2</ele><time>1970-01-01T01:18:59.000Z</time></trkpt><trkpt lat="51.773856" lon="39.475683"><ele>145.2</ele><time>1970-01-01T01:19:00.000Z</time></trkpt><trkpt lat="51.773851" lon="39.475748"><ele>145.2</ele><time>1970-01-01T01:19:01.000Z</time></trkpt><trkpt lat="51.773843" lon="39.475808"><ele>145.2</ele><time>1970-01-01T01:19:02.000Z</time></trkpt><trkpt lat="51.773834" lon="39.475868"><ele>145.1</ele><time>1970-01-01T01:19:03.000Z</time></trkpt><trkpt lat="51.773827" lon="39.47593"><ele>145.1</ele><time>1970-01-01T01:19:04.000Z</time></trkpt><trkpt lat="51.773826" lon="39.475988"><ele>145.1</ele><time>1970-01-01T01:19:05.000Z</time></trkpt><trkpt lat="51.773834" lon="39.476045"><ele>145.3</ele><time>1970-01-01T01:19:06.000Z</time></trkpt><trkpt lat="51.773843" lon="39.476107"><ele>145.8</ele><time>1970-01-01T01:19:07.000Z</time></trkpt><trkpt lat="51.773852" lon="39.476174"><ele>146.2</ele><time>1970-01-01T01:19:08.000Z</time></trkpt><trkpt lat="51.773969" lon="39.476765"><ele>147.8</ele><time>1970-01-01T01:19:18.000Z</time></trkpt><trkpt lat="51.773969" lon="39.47683"><ele>148.3</ele><time>1970-01-01T01:19:19.000Z</time></trkpt><trkpt lat="51.773964" lon="39.476899"><ele>148.8</ele><time>1970-01-01T01:19:20.000Z</time></trkpt><trkpt lat="51.773956" lon="39.476969"><ele>149.1</ele><time>1970-01-01T01:19:21.000Z</time></trkpt><trkpt lat="51.773941" lon="39.477034"><ele>149.3</ele><time>1970-01-01T01:19:22.000Z</time></trkpt><trkpt lat="51.773926" lon="39.47709"><ele>149.6</ele><time>1970-01-01T01:19:23.000Z</time></trkpt><trkpt lat="51.773913" lon="39.477149"><ele>149.9</ele><time>1970-01-01T01:19:24.000Z</time></trkpt><trkpt lat="51.773898" lon="39.477214"><ele>150.7</ele><time>1970-01-01T01:19:25.000Z</time></trkpt><trkpt lat="51.773817" lon="39.47755"><ele>154.2</ele><time>1970-01-01T01:19:34.000Z</time></trkpt><trkpt lat="51.773819" lon="39.477598"><ele>154.5</ele><time>1970-01-01T01:19:37.000Z</time></trkpt><trkpt lat="51.773796" lon="39.477727"><ele>155.5</ele><time>1970-01-01T01:19:41.000Z</time></trkpt><trkpt lat="51.773789" lon="39.477771"><ele>155.9</ele><time>1970-01-01T01:19:42.000Z</time></trkpt><trkpt lat="51.773785" lon="39.47782"><ele>156.3</ele><time>1970-01-01T01:19:43.000Z</time></trkpt><trkpt lat="51.773708" lon="39.478301"><ele>156.4</ele><time>1970-01-01T01:19:51.000Z</time></trkpt><trkpt lat="51.773536" lon="39.47906"><ele>153.3</ele><time>1970-01-01T01:20:02.000Z</time></trkpt><trkpt lat="51.773476" lon="39.479328"><ele>152.9</ele><time>1970-01-01T01:20:06.000Z</time></trkpt><trkpt lat="51.773458" lon="39.479411"><ele>152.6</ele><time>1970-01-01T01:20:07.000Z</time></trkpt><trkpt lat="51.773443" lon="39.479495"><ele>152.4</ele><time>1970-01-01T01:20:08.000Z</time></trkpt><trkpt lat="51.773421" lon="39.479649"><ele>151.8</ele><time>1970-01-01T01:20:10.000Z</time></trkpt><trkpt lat="51.773413" lon="39.479726"><ele>151.5</ele><time>1970-01-01T01:20:11.000Z</time></trkpt><trkpt lat="51.773401" lon="39.479804"><ele>151.2</ele><time>1970-01-01T01:20:12.000Z</time></trkpt><trkpt lat="51.773324" lon="39.480206"><ele>151.1</ele><time>1970-01-01T01:20:17.000Z</time></trkpt><trkpt lat="51.773088" lon="39.481325"><ele>151.3</ele><time>1970-01-01T01:20:31.000Z</time></trkpt><trkpt lat="51.773073" lon="39.481391"><ele>151.5</ele><time>1970-01-01T01:20:32.000Z</time></trkpt><trkpt lat="51.773039" lon="39.481515"><ele>152</ele><time>1970-01-01T01:20:34.000Z</time></trkpt><trkpt lat="51.773017" lon="39.481583"><ele>152.2</ele><time>1970-01-01T01:20:35.000Z</time></trkpt><trkpt lat="51.772974" lon="39.481797"><ele>152.8</ele><time>1970-01-01T01:20:38.000Z</time></trkpt><trkpt lat="51.772878" lon="39.48231"><ele>153.4</ele><time>1970-01-01T01:20:45.000Z</time></trkpt><trkpt lat="51.772805" lon="39.482656"><ele>153.3</ele><time>1970-01-01T01:20:50.000Z</time></trkpt><trkpt lat="51.772745" lon="39.482864"><ele>153.3</ele><time>1970-01-01T01:20:53.000Z</time></trkpt><trkpt lat="51.772727" lon="39.482938"><ele>153.6</ele><time>1970-01-01T01:20:54.000Z</time></trkpt><trkpt lat="51.772683" lon="39.483161"><ele>154.8</ele><time>1970-01-01T01:20:57.000Z</time></trkpt><trkpt lat="51.772658" lon="39.483321"><ele>155.7</ele><time>1970-01-01T01:20:59.000Z</time></trkpt><trkpt lat="51.772652" lon="39.483392"><ele>155.8</ele><time>1970-01-01T01:21:00.000Z</time></trkpt><trkpt lat="51.77264" lon="39.483457"><ele>156.5</ele><time>1970-01-01T01:21:01.000Z</time></trkpt><trkpt lat="51.772621" lon="39.483517"><ele>157.2</ele><time>1970-01-01T01:21:02.000Z</time></trkpt><trkpt lat="51.772614" lon="39.483576"><ele>157.6</ele><time>1970-01-01T01:21:03.000Z</time></trkpt><trkpt lat="51.772606" lon="39.483639"><ele>157.9</ele><time>1970-01-01T01:21:04.000Z</time></trkpt><trkpt lat="51.772599" lon="39.48369"><ele>158.2</ele><time>1970-01-01T01:21:05.000Z</time></trkpt><trkpt lat="51.772588" lon="39.483742"><ele>158.3</ele><time>1970-01-01T01:21:06.000Z</time></trkpt><trkpt lat="51.772535" lon="39.484167"><ele>159.2</ele><time>1970-01-01T01:21:17.000Z</time></trkpt><trkpt lat="51.772412" lon="39.484863"><ele>159.7</ele><time>1970-01-01T01:21:27.000Z</time></trkpt><trkpt lat="51.7724" lon="39.484941"><ele>159.7</ele><time>1970-01-01T01:21:28.000Z</time></trkpt><trkpt lat="51.77235" lon="39.485184"><ele>159</ele><time>1970-01-01T01:21:31.000Z</time></trkpt><trkpt lat="51.772331" lon="39.485258"><ele>158.7</ele><time>1970-01-01T01:21:32.000Z</time></trkpt><trkpt lat="51.772296" lon="39.485401"><ele>157.8</ele><time>1970-01-01T01:21:34.000Z</time></trkpt><trkpt lat="51.77228" lon="39.48547"><ele>157.6</ele><time>1970-01-01T01:21:35.000Z</time></trkpt><trkpt lat="51.772264" lon="39.485542"><ele>157.3</ele><time>1970-01-01T01:21:36.000Z</time></trkpt><trkpt lat="51.772229" lon="39.485677"><ele>156.8</ele><time>1970-01-01T01:21:38.000Z</time></trkpt><trkpt lat="51.772197" lon="39.485811"><ele>156.3</ele><time>1970-01-01T01:21:40.000Z</time></trkpt><trkpt lat="51.772184" lon="39.48588"><ele>156.1</ele><time>1970-01-01T01:21:41.000Z</time></trkpt><trkpt lat="51.77217" lon="39.485953"><ele>155.9</ele><time>1970-01-01T01:21:42.000Z</time></trkpt><trkpt lat="51.772161" lon="39.486036"><ele>155.5</ele><time>1970-01-01T01:21:43.000Z</time></trkpt><trkpt lat="51.772149" lon="39.486121"><ele>155.3</ele><time>1970-01-01T01:21:44.000Z</time></trkpt><trkpt lat="51.772134" lon="39.486184"><ele>155.1</ele><time>1970-01-01T01:21:45.000Z</time></trkpt><trkpt lat="51.772115" lon="39.486235"><ele>155.2</ele><time>1970-01-01T01:21:46.000Z</time></trkpt><trkpt lat="51.772094" lon="39.486297"><ele>155.4</ele><time>1970-01-01T01:21:47.000Z</time></trkpt><trkpt lat="51.772077" lon="39.486364"><ele>155.6</ele><time>1970-01-01T01:21:48.000Z</time></trkpt><trkpt lat="51.772059" lon="39.486436"><ele>155.7</ele><time>1970-01-01T01:21:49.000Z</time></trkpt><trkpt lat="51.77204" lon="39.486505"><ele>155.8</ele><time>1970-01-01T01:21:50.000Z</time></trkpt><trkpt lat="51.772023" lon="39.486575"><ele>155.9</ele><time>1970-01-01T01:21:51.000Z</time></trkpt><trkpt lat="51.772012" lon="39.486655"><ele>156</ele><time>1970-01-01T01:21:52.000Z</time></trkpt><trkpt lat="51.772001" lon="39.486731"><ele>156.2</ele><time>1970-01-01T01:21:53.000Z</time></trkpt><trkpt lat="51.771986" lon="39.486803"><ele>156.3</ele><time>1970-01-01T01:21:54.000Z</time></trkpt><trkpt lat="51.77198" lon="39.486881"><ele>156.5</ele><time>1970-01-01T01:21:55.000Z</time></trkpt><trkpt lat="51.771877" lon="39.487492"><ele>156.4</ele><time>1970-01-01T01:22:04.000Z</time></trkpt><trkpt lat="51.771805" lon="39.487882"><ele>156.4</ele><time>1970-01-01T01:22:09.000Z</time></trkpt><trkpt lat="51.77179" lon="39.487962"><ele>156.3</ele><time>1970-01-01T01:22:10.000Z</time></trkpt><trkpt lat="51.77178" lon="39.48804"><ele>156.4</ele><time>1970-01-01T01:22:11.000Z</time></trkpt><trkpt lat="51.771769" lon="39.48811"><ele>156.8</ele><time>1970-01-01T01:22:12.000Z</time></trkpt><trkpt lat="51.771755" lon="39.488173"><ele>157.2</ele><time>1970-01-01T01:22:13.000Z</time></trkpt><trkpt lat="51.771665" lon="39.488603"><ele>157.6</ele><time>1970-01-01T01:22:20.000Z</time></trkpt><trkpt lat="51.771649" lon="39.488685"><ele>157.8</ele><time>1970-01-01T01:22:21.000Z</time></trkpt><trkpt lat="51.771544" lon="39.489158"><ele>157</ele><time>1970-01-01T01:22:27.000Z</time></trkpt><trkpt lat="51.77153" lon="39.489233"><ele>157</ele><time>1970-01-01T01:22:28.000Z</time></trkpt><trkpt lat="51.771452" lon="39.489639"><ele>155.9</ele><time>1970-01-01T01:22:34.000Z</time></trkpt><trkpt lat="51.771441" lon="39.48971"><ele>155.9</ele><time>1970-01-01T01:22:35.000Z</time></trkpt><trkpt lat="51.771433" lon="39.489778"><ele>155.9</ele><time>1970-01-01T01:22:36.000Z</time></trkpt><trkpt lat="51.771425" lon="39.489931"><ele>156.6</ele><time>1970-01-01T01:22:38.000Z</time></trkpt><trkpt lat="51.771413" lon="39.49001"><ele>156.9</ele><time>1970-01-01T01:22:39.000Z</time></trkpt><trkpt lat="51.771376" lon="39.490233"><ele>156.9</ele><time>1970-01-01T01:22:42.000Z</time></trkpt><trkpt lat="51.771288" lon="39.490649"><ele>156.9</ele><time>1970-01-01T01:22:50.000Z</time></trkpt><trkpt lat="51.771274" lon="39.490665"><ele>156.9</ele><time>1970-01-01T01:22:51.000Z</time></trkpt><trkpt lat="51.771262" lon="39.490672"><ele>157</ele><time>1970-01-01T01:22:52.000Z</time></trkpt><trkpt lat="51.771226" lon="39.490668"><ele>157.4</ele><time>1970-01-01T01:22:58.000Z</time></trkpt><trkpt lat="51.771257" lon="39.490893"><ele>158.7</ele><time>1970-01-01T01:23:14.000Z</time></trkpt><trkpt lat="51.771167" lon="39.491329"><ele>159.3</ele><time>1970-01-01T01:23:23.000Z</time></trkpt><trkpt lat="51.771139" lon="39.491339"><ele>159.2</ele><time>1970-01-01T01:23:24.000Z</time></trkpt><trkpt lat="51.77111" lon="39.491326"><ele>159.2</ele><time>1970-01-01T01:23:25.000Z</time></trkpt><trkpt lat="51.771081" lon="39.491301"><ele>159.3</ele><time>1970-01-01T01:23:26.000Z</time></trkpt><trkpt lat="51.771051" lon="39.491269"><ele>159.3</ele><time>1970-01-01T01:23:27.000Z</time></trkpt><trkpt lat="51.770905" lon="39.49111"><ele>158.4</ele><time>1970-01-01T01:23:31.000Z</time></trkpt><trkpt lat="51.770865" lon="39.491071"><ele>158.2</ele><time>1970-01-01T01:23:32.000Z</time></trkpt><trkpt lat="51.770822" lon="39.491034"><ele>158.3</ele><time>1970-01-01T01:23:33.000Z</time></trkpt><trkpt lat="51.770777" lon="39.491006"><ele>158.3</ele><time>1970-01-01T01:23:34.000Z</time></trkpt><trkpt lat="51.770734" lon="39.490991"><ele>158.3</ele><time>1970-01-01T01:23:35.000Z</time></trkpt><trkpt lat="51.770691" lon="39.490979"><ele>158.2</ele><time>1970-01-01T01:23:36.000Z</time></trkpt><trkpt lat="51.770273" lon="39.490861"><ele>158.1</ele><time>1970-01-01T01:23:46.000Z</time></trkpt><trkpt lat="51.770218" lon="39.49083"><ele>157.9</ele><time>1970-01-01T01:23:47.000Z</time></trkpt><trkpt lat="51.770044" lon="39.490732"><ele>156.6</ele><time>1970-01-01T01:23:50.000Z</time></trkpt><trkpt lat="51.769923" lon="39.490643"><ele>155.7</ele><time>1970-01-01T01:23:52.000Z</time></trkpt><trkpt lat="51.769647" lon="39.490495"><ele>154.4</ele><time>1970-01-01T01:23:57.000Z</time></trkpt><trkpt lat="51.769155" lon="39.490258"><ele>154.5</ele><time>1970-01-01T01:24:07.000Z</time></trkpt><trkpt lat="51.769117" lon="39.490238"><ele>154.8</ele><time>1970-01-01T01:24:08.000Z</time></trkpt><trkpt lat="51.769018" lon="39.490205"><ele>155</ele><time>1970-01-01T01:24:10.000Z</time></trkpt><trkpt lat="51.768963" lon="39.490191"><ele>154.9</ele><time>1970-01-01T01:24:11.000Z</time></trkpt><trkpt lat="51.768857" lon="39.490146"><ele>154.7</ele><time>1970-01-01T01:24:13.000Z</time></trkpt><trkpt lat="51.768802" lon="39.490123"><ele>154.8</ele><time>1970-01-01T01:24:14.000Z</time></trkpt><trkpt lat="51.768745" lon="39.490095"><ele>154.9</ele><time>1970-01-01T01:24:15.000Z</time></trkpt><trkpt lat="51.76869" lon="39.490061"><ele>155.1</ele><time>1970-01-01T01:24:16.000Z</time></trkpt><trkpt lat="51.76864" lon="39.490026"><ele>155.3</ele><time>1970-01-01T01:24:17.000Z</time></trkpt><trkpt lat="51.768592" lon="39.48999"><ele>155.4</ele><time>1970-01-01T01:24:18.000Z</time></trkpt><trkpt lat="51.76855" lon="39.489959"><ele>155.5</ele><time>1970-01-01T01:24:19.000Z</time></trkpt><trkpt lat="51.768053" lon="39.489754"><ele>154.7</ele><time>1970-01-01T01:24:31.000Z</time></trkpt><trkpt lat="51.767706" lon="39.489604"><ele>153.7</ele><time>1970-01-01T01:24:40.000Z</time></trkpt><trkpt lat="51.767483" lon="39.489525"><ele>154.3</ele><time>1970-01-01T01:24:51.000Z</time></trkpt><trkpt lat="51.767478" lon="39.48956"><ele>154.4</ele><time>1970-01-01T01:24:56.000Z</time></trkpt><trkpt lat="51.767093" lon="39.48936"><ele>155.8</ele><time>1970-01-01T01:28:01.000Z</time></trkpt><trkpt lat="51.767083" lon="39.489345"><ele>155.8</ele><time>1970-01-01T01:28:02.000Z</time></trkpt><trkpt lat="51.76707" lon="39.489326"><ele>155.9</ele><time>1970-01-01T01:28:03.000Z</time></trkpt><trkpt lat="51.767053" lon="39.489306"><ele>156</ele><time>1970-01-01T01:28:04.000Z</time></trkpt><trkpt lat="51.767033" lon="39.48928"><ele>156.1</ele><time>1970-01-01T01:28:05.000Z</time></trkpt><trkpt lat="51.767009" lon="39.489254"><ele>156.2</ele><time>1970-01-01T01:28:06.000Z</time></trkpt><trkpt lat="51.766983" lon="39.489229"><ele>156.3</ele><time>1970-01-01T01:28:07.000Z</time></trkpt><trkpt lat="51.766955" lon="39.489209"><ele>156.3</ele><time>1970-01-01T01:28:08.000Z</time></trkpt><trkpt lat="51.766928" lon="39.489197"><ele>156.3</ele><time>1970-01-01T01:28:09.000Z</time></trkpt><trkpt lat="51.766638" lon="39.48906"><ele>156.5</ele><time>1970-01-01T01:28:18.000Z</time></trkpt><trkpt lat="51.766618" lon="39.489095"><ele>156.6</ele><time>1970-01-01T01:28:19.000Z</time></trkpt><trkpt lat="51.766596" lon="39.489135"><ele>156.7</ele><time>1970-01-01T01:28:20.000Z</time></trkpt><trkpt lat="51.766458" lon="39.489636"><ele>156.5</ele><time>1970-01-01T01:28:30.000Z</time></trkpt><trkpt lat="51.766442" lon="39.489722"><ele>156.7</ele><time>1970-01-01T01:28:32.000Z</time></trkpt><trkpt lat="51.766433" lon="39.489767"><ele>156.7</ele><time>1970-01-01T01:28:33.000Z</time></trkpt><trkpt lat="51.76643" lon="39.489808"><ele>156.7</ele><time>1970-01-01T01:28:34.000Z</time></trkpt><trkpt lat="51.766419" lon="39.489856"><ele>156.5</ele><time>1970-01-01T01:28:35.000Z</time></trkpt><trkpt lat="51.766402" lon="39.489912"><ele>156.3</ele><time>1970-01-01T01:28:36.000Z</time></trkpt><trkpt lat="51.766385" lon="39.489975"><ele>156.3</ele><time>1970-01-01T01:28:37.000Z</time></trkpt><trkpt lat="51.766374" lon="39.49004"><ele>156.4</ele><time>1970-01-01T01:28:38.000Z</time></trkpt><trkpt lat="51.766359" lon="39.49011"><ele>156.5</ele><time>1970-01-01T01:28:39.000Z</time></trkpt><trkpt lat="51.766345" lon="39.490185"><ele>156.7</ele><time>1970-01-01T01:28:40.000Z</time></trkpt><trkpt lat="51.766333" lon="39.490256"><ele>156.6</ele><time>1970-01-01T01:28:41.000Z</time></trkpt><trkpt lat="51.766322" lon="39.490321"><ele>156.5</ele><time>1970-01-01T01:28:42.000Z</time></trkpt><trkpt lat="51.766306" lon="39.49039"><ele>156.3</ele><time>1970-01-01T01:28:43.000Z</time></trkpt><trkpt lat="51.76629" lon="39.490464"><ele>156</ele><time>1970-01-01T01:28:44.000Z</time></trkpt><trkpt lat="51.766274" lon="39.490531"><ele>156.2</ele><time>1970-01-01T01:28:45.000Z</time></trkpt><trkpt lat="51.766259" lon="39.490595"><ele>156.3</ele><time>1970-01-01T01:28:46.000Z</time></trkpt><trkpt lat="51.766243" lon="39.490663"><ele>156.4</ele><time>1970-01-01T01:28:47.000Z</time></trkpt><trkpt lat="51.76613" lon="39.491052"><ele>157.3</ele><time>1970-01-01T01:28:53.000Z</time></trkpt><trkpt lat="51.766108" lon="39.491128"><ele>157.4</ele><time>1970-01-01T01:28:54.000Z</time></trkpt><trkpt lat="51.766089" lon="39.491212"><ele>157.6</ele><time>1970-01-01T01:28:55.000Z</time></trkpt><trkpt lat="51.766076" lon="39.491295"><ele>157.8</ele><time>1970-01-01T01:28:56.000Z</time></trkpt><trkpt lat="51.766066" lon="39.491378"><ele>157.9</ele><time>1970-01-01T01:28:57.000Z</time></trkpt><trkpt lat="51.766052" lon="39.491466"><ele>157.8</ele><time>1970-01-01T01:28:58.000Z</time></trkpt><trkpt lat="51.766034" lon="39.49155"><ele>157.4</ele><time>1970-01-01T01:28:59.000Z</time></trkpt><trkpt lat="51.766022" lon="39.491628"><ele>157</ele><time>1970-01-01T01:29:00.000Z</time></trkpt><trkpt lat="51.765965" lon="39.491994"><ele>156</ele><time>1970-01-01T01:29:05.000Z</time></trkpt><trkpt lat="51.765952" lon="39.492071"><ele>155.4</ele><time>1970-01-01T01:29:06.000Z</time></trkpt><trkpt lat="51.765943" lon="39.492145"><ele>155.2</ele><time>1970-01-01T01:29:07.000Z</time></trkpt><trkpt lat="51.765836" lon="39.492762"><ele>155</ele><time>1970-01-01T01:29:16.000Z</time></trkpt><trkpt lat="51.765778" lon="39.493045"><ele>154.8</ele><time>1970-01-01T01:29:20.000Z</time></trkpt><trkpt lat="51.765764" lon="39.493111"><ele>154.5</ele><time>1970-01-01T01:29:21.000Z</time></trkpt><trkpt lat="51.765751" lon="39.493175"><ele>154.1</ele><time>1970-01-01T01:29:22.000Z</time></trkpt><trkpt lat="51.765739" lon="39.493243"><ele>153.9</ele><time>1970-01-01T01:29:23.000Z</time></trkpt><trkpt lat="51.765728" lon="39.493316"><ele>153.9</ele><time>1970-01-01T01:29:24.000Z</time></trkpt><trkpt lat="51.765698" lon="39.493554"><ele>154</ele><time>1970-01-01T01:29:27.000Z</time></trkpt><trkpt lat="51.765646" lon="39.493794"><ele>153.7</ele><time>1970-01-01T01:29:30.000Z</time></trkpt><trkpt lat="51.765625" lon="39.493884"><ele>153.4</ele><time>1970-01-01T01:29:31.000Z</time></trkpt><trkpt lat="51.765605" lon="39.493974"><ele>153.3</ele><time>1970-01-01T01:29:32.000Z</time></trkpt><trkpt lat="51.765531" lon="39.4944"><ele>153.3</ele><time>1970-01-01T01:29:37.000Z</time></trkpt><trkpt lat="51.765477" lon="39.494715"><ele>153.8</ele><time>1970-01-01T01:29:41.000Z</time></trkpt><trkpt lat="51.765458" lon="39.494795"><ele>153.7</ele><time>1970-01-01T01:29:42.000Z</time></trkpt><trkpt lat="51.76536" lon="39.495371"><ele>153</ele><time>1970-01-01T01:29:50.000Z</time></trkpt><trkpt lat="51.765349" lon="39.495447"><ele>153.1</ele><time>1970-01-01T01:29:51.000Z</time></trkpt><trkpt lat="51.765335" lon="39.495521"><ele>153.2</ele><time>1970-01-01T01:29:52.000Z</time></trkpt><trkpt lat="51.765228" lon="39.496131"><ele>156</ele><time>1970-01-01T01:30:01.000Z</time></trkpt><trkpt lat="51.765141" lon="39.496753"><ele>156.8</ele><time>1970-01-01T01:30:10.000Z</time></trkpt><trkpt lat="51.765127" lon="39.496807"><ele>156.9</ele><time>1970-01-01T01:30:11.000Z</time></trkpt><trkpt lat="51.76512" lon="39.496853"><ele>156.9</ele><time>1970-01-01T01:30:12.000Z</time></trkpt><trkpt lat="51.765089" lon="39.49704"><ele>157</ele><time>1970-01-01T01:30:18.000Z</time></trkpt><trkpt lat="51.765058" lon="39.497307"><ele>156.6</ele><time>1970-01-01T01:30:29.000Z</time></trkpt><trkpt lat="51.764934" lon="39.497854"><ele>155.6</ele><time>1970-01-01T01:30:39.000Z</time></trkpt><trkpt lat="51.764867" lon="39.498077"><ele>155.9</ele><time>1970-01-01T01:30:43.000Z</time></trkpt><trkpt lat="51.764737" lon="39.49857"><ele>155.7</ele><time>1970-01-01T01:30:52.000Z</time></trkpt><trkpt lat="51.764642" lon="39.499164"><ele>156.8</ele><time>1970-01-01T01:31:01.000Z</time></trkpt><trkpt lat="51.764631" lon="39.499222"><ele>156.9</ele><time>1970-01-01T01:31:02.000Z</time></trkpt><trkpt lat="51.764617" lon="39.499283"><ele>157</ele><time>1970-01-01T01:31:03.000Z</time></trkpt><trkpt lat="51.764608" lon="39.499347"><ele>157.1</ele><time>1970-01-01T01:31:04.000Z</time></trkpt><trkpt lat="51.764599" lon="39.499408"><ele>157.2</ele><time>1970-01-01T01:31:05.000Z</time></trkpt><trkpt lat="51.764582" lon="39.499476"><ele>157.4</ele><time>1970-01-01T01:31:06.000Z</time></trkpt><trkpt lat="51.764514" lon="39.499911"><ele>158.1</ele><time>1970-01-01T01:31:12.000Z</time></trkpt><trkpt lat="51.764477" lon="39.500061"><ele>158.1</ele><time>1970-01-01T01:31:14.000Z</time></trkpt><trkpt lat="51.764455" lon="39.500147"><ele>157.9</ele><time>1970-01-01T01:31:15.000Z</time></trkpt><trkpt lat="51.764446" lon="39.500218"><ele>157.9</ele><time>1970-01-01T01:31:16.000Z</time></trkpt><trkpt lat="51.764366" lon="39.500675"><ele>158.4</ele><time>1970-01-01T01:31:26.000Z</time></trkpt><trkpt lat="51.764343" lon="39.500785"><ele>158.6</ele><time>1970-01-01T01:31:30.000Z</time></trkpt><trkpt lat="51.764332" lon="39.500829"><ele>158.7</ele><time>1970-01-01T01:31:31.000Z</time></trkpt><trkpt lat="51.764217" lon="39.501506"><ele>159</ele><time>1970-01-01T01:31:42.000Z</time></trkpt><trkpt lat="51.764052" lon="39.502164"><ele>159.4</ele><time>1970-01-01T01:31:52.000Z</time></trkpt><trkpt lat="51.763957" lon="39.502584"><ele>159.1</ele><time>1970-01-01T01:31:58.000Z</time></trkpt><trkpt lat="51.763812" lon="39.50338"><ele>157.5</ele><time>1970-01-01T01:32:09.000Z</time></trkpt><trkpt lat="51.763795" lon="39.503727"><ele>157.3</ele><time>1970-01-01T01:32:15.000Z</time></trkpt><trkpt lat="51.763824" lon="39.50377"><ele>157.4</ele><time>1970-01-01T01:32:16.000Z</time></trkpt><trkpt lat="51.764234" lon="39.504091"><ele>156.2</ele><time>1970-01-01T01:32:26.000Z</time></trkpt><trkpt lat="51.764329" lon="39.50413"><ele>155.8</ele><time>1970-01-01T01:32:28.000Z</time></trkpt><trkpt lat="51.764371" lon="39.504155"><ele>155.4</ele><time>1970-01-01T01:32:29.000Z</time></trkpt><trkpt lat="51.764412" lon="39.50418"><ele>155.2</ele><time>1970-01-01T01:32:30.000Z</time></trkpt><trkpt lat="51.764743" lon="39.50435"><ele>155.2</ele><time>1970-01-01T01:32:37.000Z</time></trkpt><trkpt lat="51.765163" lon="39.504539"><ele>155.4</ele><time>1970-01-01T01:32:45.000Z</time></trkpt><trkpt lat="51.765408" lon="39.504687"><ele>155.2</ele><time>1970-01-01T01:32:51.000Z</time></trkpt><trkpt lat="51.765455" lon="39.504713"><ele>155.2</ele><time>1970-01-01T01:32:52.000Z</time></trkpt><trkpt lat="51.765503" lon="39.504747"><ele>155.1</ele><time>1970-01-01T01:32:53.000Z</time></trkpt><trkpt lat="51.765553" lon="39.504779"><ele>155.2</ele><time>1970-01-01T01:32:54.000Z</time></trkpt><trkpt lat="51.765606" lon="39.504809"><ele>155.2</ele><time>1970-01-01T01:32:55.000Z</time></trkpt><trkpt lat="51.765716" lon="39.504875"><ele>154.6</ele><time>1970-01-01T01:32:57.000Z</time></trkpt><trkpt lat="51.765766" lon="39.504907"><ele>154.3</ele><time>1970-01-01T01:32:58.000Z</time></trkpt><trkpt lat="51.765921" lon="39.505003"><ele>154.1</ele><time>1970-01-01T01:33:01.000Z</time></trkpt><trkpt lat="51.76597" lon="39.505036"><ele>154.3</ele><time>1970-01-01T01:33:02.000Z</time></trkpt><trkpt lat="51.766018" lon="39.505057"><ele>154.6</ele><time>1970-01-01T01:33:03.000Z</time></trkpt><trkpt lat="51.766068" lon="39.505077"><ele>155.1</ele><time>1970-01-01T01:33:04.000Z</time></trkpt><trkpt lat="51.766122" lon="39.505102"><ele>155.3</ele><time>1970-01-01T01:33:05.000Z</time></trkpt><trkpt lat="51.766499" lon="39.50529"><ele>154.6</ele><time>1970-01-01T01:33:14.000Z</time></trkpt><trkpt lat="51.766905" lon="39.505475"><ele>155.8</ele><time>1970-01-01T01:33:24.000Z</time></trkpt><trkpt lat="51.767095" lon="39.505592"><ele>156.2</ele><time>1970-01-01T01:33:29.000Z</time></trkpt><trkpt lat="51.767145" lon="39.505617"><ele>156.2</ele><time>1970-01-01T01:33:30.000Z</time></trkpt><trkpt lat="51.767191" lon="39.505648"><ele>156.2</ele><time>1970-01-01T01:33:31.000Z</time></trkpt><trkpt lat="51.767237" lon="39.505675"><ele>156.1</ele><time>1970-01-01T01:33:32.000Z</time></trkpt><trkpt lat="51.767283" lon="39.505697"><ele>156.1</ele><time>1970-01-01T01:33:33.000Z</time></trkpt><trkpt lat="51.767785" lon="39.505991"><ele>155</ele><time>1970-01-01T01:33:44.000Z</time></trkpt><trkpt lat="51.767955" lon="39.506076"><ele>153.9</ele><time>1970-01-01T01:33:47.000Z</time></trkpt><trkpt lat="51.768072" lon="39.506147"><ele>154</ele><time>1970-01-01T01:33:49.000Z</time></trkpt><trkpt lat="51.768171" lon="39.506189"><ele>154</ele><time>1970-01-01T01:33:51.000Z</time></trkpt><trkpt lat="51.768558" lon="39.506367"><ele>155.7</ele><time>1970-01-01T01:34:01.000Z</time></trkpt><trkpt lat="51.768833" lon="39.506504"><ele>156.4</ele><time>1970-01-01T01:34:06.000Z</time></trkpt><trkpt lat="51.768883" lon="39.506518"><ele>156.7</ele><time>1970-01-01T01:34:07.000Z</time></trkpt><trkpt lat="51.768927" lon="39.506533"><ele>156.7</ele><time>1970-01-01T01:34:08.000Z</time></trkpt><trkpt lat="51.768972" lon="39.50656"><ele>156.6</ele><time>1970-01-01T01:34:09.000Z</time></trkpt><trkpt lat="51.769021" lon="39.506586"><ele>156.6</ele><time>1970-01-01T01:34:10.000Z</time></trkpt><trkpt lat="51.769073" lon="39.506608"><ele>156.6</ele><time>1970-01-01T01:34:11.000Z</time></trkpt><trkpt lat="51.769265" lon="39.506686"><ele>155.6</ele><time>1970-01-01T01:34:15.000Z</time></trkpt><trkpt lat="51.76932" lon="39.506707"><ele>155.6</ele><time>1970-01-01T01:34:16.000Z</time></trkpt><trkpt lat="51.769379" lon="39.506732"><ele>155.6</ele><time>1970-01-01T01:34:17.000Z</time></trkpt><trkpt lat="51.769431" lon="39.506758"><ele>155.6</ele><time>1970-01-01T01:34:18.000Z</time></trkpt><trkpt lat="51.769478" lon="39.506777"><ele>155.6</ele><time>1970-01-01T01:34:19.000Z</time></trkpt><trkpt lat="51.769991" lon="39.50703"><ele>156.8</ele><time>1970-01-01T01:34:29.000Z</time></trkpt><trkpt lat="51.770682" lon="39.507367"><ele>159.3</ele><time>1970-01-01T01:34:43.000Z</time></trkpt><trkpt lat="51.771324" lon="39.507683"><ele>163.6</ele><time>1970-01-01T01:34:57.000Z</time></trkpt><trkpt lat="51.771692" lon="39.507858"><ele>164.1</ele><time>1970-01-01T01:35:05.000Z</time></trkpt><trkpt lat="51.772101" lon="39.508066"><ele>164.1</ele><time>1970-01-01T01:35:16.000Z</time></trkpt><trkpt lat="51.772503" lon="39.508288"><ele>163.4</ele><time>1970-01-01T01:35:27.000Z</time></trkpt><trkpt lat="51.77277" lon="39.508401"><ele>163.4</ele><time>1970-01-01T01:35:35.000Z</time></trkpt><trkpt lat="51.772792" lon="39.508437"><ele>163.3</ele><time>1970-01-01T01:35:36.000Z</time></trkpt><trkpt lat="51.772806" lon="39.508479"><ele>163.2</ele><time>1970-01-01T01:35:37.000Z</time></trkpt><trkpt lat="51.772813" lon="39.50853"><ele>163</ele><time>1970-01-01T01:35:38.000Z</time></trkpt><trkpt lat="51.772813" lon="39.508575"><ele>163</ele><time>1970-01-01T01:35:39.000Z</time></trkpt><trkpt lat="51.772809" lon="39.50862"><ele>163</ele><time>1970-01-01T01:35:40.000Z</time></trkpt><trkpt lat="51.77281" lon="39.508739"><ele>163.1</ele><time>1970-01-01T01:35:43.000Z</time></trkpt><trkpt lat="51.772809" lon="39.508769"><ele>163</ele><time>1970-01-01T01:35:44.000Z</time></trkpt><trkpt lat="51.772819" lon="39.508799"><ele>162.9</ele><time>1970-01-01T01:35:45.000Z</time></trkpt><trkpt lat="51.772836" lon="39.508829"><ele>162.7</ele><time>1970-01-01T01:35:46.000Z</time></trkpt><trkpt lat="51.772838" lon="39.508862"><ele>162.6</ele><time>1970-01-01T01:35:47.000Z</time></trkpt><trkpt lat="51.772839" lon="39.509255"><ele>159.8</ele><time>1970-01-01T01:35:58.000Z</time></trkpt><trkpt lat="51.772839" lon="39.509303"><ele>159.5</ele><time>1970-01-01T01:35:59.000Z</time></trkpt><trkpt lat="51.772831" lon="39.509356"><ele>159.3</ele><time>1970-01-01T01:36:00.000Z</time></trkpt><trkpt lat="51.77283" lon="39.509403"><ele>159.2</ele><time>1970-01-01T01:36:01.000Z</time></trkpt><trkpt lat="51.772834" lon="39.509449"><ele>159</ele><time>1970-01-01T01:36:02.000Z</time></trkpt><trkpt lat="51.77284" lon="39.509489"><ele>158.8</ele><time>1970-01-01T01:36:03.000Z</time></trkpt><trkpt lat="51.772839" lon="39.509524"><ele>158.6</ele><time>1970-01-01T01:36:04.000Z</time></trkpt><trkpt lat="51.772836" lon="39.509555"><ele>158.5</ele><time>1970-01-01T01:36:05.000Z</time></trkpt><trkpt lat="51.772701" lon="39.510046"><ele>157</ele><time>1970-01-01T01:36:16.000Z</time></trkpt><trkpt lat="51.772614" lon="39.5107"><ele>155.7</ele><time>1970-01-01T01:36:26.000Z</time></trkpt><trkpt lat="51.772607" lon="39.51078"><ele>155.9</ele><time>1970-01-01T01:36:27.000Z</time></trkpt><trkpt lat="51.772595" lon="39.510857"><ele>156.1</ele><time>1970-01-01T01:36:28.000Z</time></trkpt><trkpt lat="51.772418" lon="39.511594"><ele>156.9</ele><time>1970-01-01T01:36:38.000Z</time></trkpt><trkpt lat="51.772195" lon="39.512218"><ele>156</ele><time>1970-01-01T01:36:48.000Z</time></trkpt><trkpt lat="51.772182" lon="39.512256"><ele>156</ele><time>1970-01-01T01:36:49.000Z</time></trkpt><trkpt lat="51.77217" lon="39.512304"><ele>156</ele><time>1970-01-01T01:36:50.000Z</time></trkpt><trkpt lat="51.772091" lon="39.512652"><ele>156</ele><time>1970-01-01T01:36:56.000Z</time></trkpt><trkpt lat="51.772082" lon="39.512719"><ele>155.9</ele><time>1970-01-01T01:36:57.000Z</time></trkpt><trkpt lat="51.771991" lon="39.51326"><ele>154.1</ele><time>1970-01-01T01:37:05.000Z</time></trkpt><trkpt lat="51.77194" lon="39.513431"><ele>153.5</ele><time>1970-01-01T01:37:07.000Z</time></trkpt><trkpt lat="51.771916" lon="39.513508"><ele>153.3</ele><time>1970-01-01T01:37:08.000Z</time></trkpt><trkpt lat="51.771893" lon="39.513589"><ele>153</ele><time>1970-01-01T01:37:09.000Z</time></trkpt><trkpt lat="51.771749" lon="39.514247"><ele>151.4</ele><time>1970-01-01T01:37:18.000Z</time></trkpt><trkpt lat="51.771672" lon="39.514738"><ele>152.9</ele><time>1970-01-01T01:37:26.000Z</time></trkpt><trkpt lat="51.77157" lon="39.515379"><ele>156.4</ele><time>1970-01-01T01:37:38.000Z</time></trkpt><trkpt lat="51.771545" lon="39.515541"><ele>157.3</ele><time>1970-01-01T01:37:40.000Z</time></trkpt><trkpt lat="51.771536" lon="39.515623"><ele>157.3</ele><time>1970-01-01T01:37:41.000Z</time></trkpt><trkpt lat="51.771386" lon="39.516349"><ele>157.1</ele><time>1970-01-01T01:37:48.000Z</time></trkpt><trkpt lat="51.771362" lon="39.51646"><ele>157.1</ele><time>1970-01-01T01:37:49.000Z</time></trkpt><trkpt lat="51.771335" lon="39.516562"><ele>157.1</ele><time>1970-01-01T01:37:50.000Z</time></trkpt><trkpt lat="51.771306" lon="39.516652"><ele>157</ele><time>1970-01-01T01:37:51.000Z</time></trkpt><trkpt lat="51.771267" lon="39.516737"><ele>156.6</ele><time>1970-01-01T01:37:52.000Z</time></trkpt><trkpt lat="51.771221" lon="39.51682"><ele>156.1</ele><time>1970-01-01T01:37:53.000Z</time></trkpt><trkpt lat="51.771172" lon="39.516901"><ele>156</ele><time>1970-01-01T01:37:54.000Z</time></trkpt><trkpt lat="51.771053" lon="39.517055"><ele>156</ele><time>1970-01-01T01:37:56.000Z</time></trkpt><trkpt lat="51.77099" lon="39.517114"><ele>156</ele><time>1970-01-01T01:37:57.000Z</time></trkpt><trkpt lat="51.770769" lon="39.517423"><ele>156.1</ele><time>1970-01-01T01:38:02.000Z</time></trkpt><trkpt lat="51.770587" lon="39.517815"><ele>156.1</ele><time>1970-01-01T01:38:07.000Z</time></trkpt><trkpt lat="51.770472" lon="39.51806"><ele>156</ele><time>1970-01-01T01:38:10.000Z</time></trkpt><trkpt lat="51.770359" lon="39.518409"><ele>155.4</ele><time>1970-01-01T01:38:14.000Z</time></trkpt><trkpt lat="51.770254" lon="39.518706"><ele>153.6</ele><time>1970-01-01T01:38:18.000Z</time></trkpt><trkpt lat="51.770147" lon="39.519237"><ele>151.1</ele><time>1970-01-01T01:38:24.000Z</time></trkpt><trkpt lat="51.770121" lon="39.519507"><ele>150</ele><time>1970-01-01T01:38:27.000Z</time></trkpt><trkpt lat="51.77008" lon="39.519832"><ele>150</ele><time>1970-01-01T01:38:31.000Z</time></trkpt><trkpt lat="51.770045" lon="39.52"><ele>150.3</ele><time>1970-01-01T01:38:33.000Z</time></trkpt><trkpt lat="51.769989" lon="39.520408"><ele>151.7</ele><time>1970-01-01T01:38:38.000Z</time></trkpt><trkpt lat="51.769972" lon="39.520488"><ele>152</ele><time>1970-01-01T01:38:39.000Z</time></trkpt><trkpt lat="51.769951" lon="39.520584"><ele>152.1</ele><time>1970-01-01T01:38:40.000Z</time></trkpt><trkpt lat="51.769926" lon="39.520686"><ele>152</ele><time>1970-01-01T01:38:41.000Z</time></trkpt><trkpt lat="51.769899" lon="39.520794"><ele>152</ele><time>1970-01-01T01:38:42.000Z</time></trkpt><trkpt lat="51.769659" lon="39.52206"><ele>152.1</ele><time>1970-01-01T01:38:52.000Z</time></trkpt><trkpt lat="51.769578" lon="39.522426"><ele>152.9</ele><time>1970-01-01T01:38:55.000Z</time></trkpt><trkpt lat="51.769521" lon="39.522904"><ele>153.7</ele><time>1970-01-01T01:38:59.000Z</time></trkpt><trkpt lat="51.769488" lon="39.523282"><ele>154.3</ele><time>1970-01-01T01:39:02.000Z</time></trkpt><trkpt lat="51.769405" lon="39.524423"><ele>150.9</ele><time>1970-01-01T01:39:11.000Z</time></trkpt><trkpt lat="51.769494" lon="39.524743"><ele>150.2</ele><time>1970-01-01T01:39:18.000Z</time></trkpt><trkpt lat="51.769544" lon="39.52476"><ele>150.3</ele><time>1970-01-01T01:39:20.000Z</time></trkpt><trkpt lat="51.769753" lon="39.525251"><ele>151.4</ele><time>1970-01-01T01:39:32.000Z</time></trkpt><trkpt lat="51.769944" lon="39.525663"><ele>152.2</ele><time>1970-01-01T01:39:40.000Z</time></trkpt><trkpt lat="51.770039" lon="39.525715"><ele>152.5</ele><time>1970-01-01T01:39:42.000Z</time></trkpt><trkpt lat="51.770411" lon="39.526015"><ele>153.1</ele><time>1970-01-01T01:39:51.000Z</time></trkpt><trkpt lat="51.770439" lon="39.526078"><ele>153.1</ele><time>1970-01-01T01:39:52.000Z</time></trkpt><trkpt lat="51.770646" lon="39.526285"><ele>153.3</ele><time>1970-01-01T01:39:57.000Z</time></trkpt><trkpt lat="51.770788" lon="39.526309"><ele>153.5</ele><time>1970-01-01T01:40:00.000Z</time></trkpt><trkpt lat="51.771035" lon="39.526266"><ele>153.7</ele><time>1970-01-01T01:40:05.000Z</time></trkpt><trkpt lat="51.771198" lon="39.526234"><ele>153.9</ele><time>1970-01-01T01:40:08.000Z</time></trkpt><trkpt lat="51.771297" lon="39.526245"><ele>154</ele><time>1970-01-01T01:40:10.000Z</time></trkpt><trkpt lat="51.771492" lon="39.526384"><ele>154.2</ele><time>1970-01-01T01:40:14.000Z</time></trkpt><trkpt lat="51.771668" lon="39.526605"><ele>154.4</ele><time>1970-01-01T01:40:18.000Z</time></trkpt><trkpt lat="51.771874" lon="39.526777"><ele>154.6</ele><time>1970-01-01T01:40:22.000Z</time></trkpt><trkpt lat="51.772053" lon="39.52707"><ele>154.7</ele><time>1970-01-01T01:40:27.000Z</time></trkpt><trkpt lat="51.772401" lon="39.527473"><ele>154.6</ele><time>1970-01-01T01:40:35.000Z</time></trkpt><trkpt lat="51.772614" lon="39.527461"><ele>154.4</ele><time>1970-01-01T01:40:39.000Z</time></trkpt><trkpt lat="51.773039" lon="39.527324"><ele>154.5</ele><time>1970-01-01T01:40:47.000Z</time></trkpt><trkpt lat="51.773177" lon="39.527226"><ele>154.7</ele><time>1970-01-01T01:40:50.000Z</time></trkpt><trkpt lat="51.773333" lon="39.527162"><ele>154.8</ele><time>1970-01-01T01:40:53.000Z</time></trkpt><trkpt lat="51.773444" lon="39.52714"><ele>154.8</ele><time>1970-01-01T01:40:55.000Z</time></trkpt><trkpt lat="51.773733" lon="39.527124"><ele>154.9</ele><time>1970-01-01T01:41:00.000Z</time></trkpt><trkpt lat="51.77424" lon="39.527055"><ele>155.6</ele><time>1970-01-01T01:41:11.000Z</time></trkpt><trkpt lat="51.774495" lon="39.526849"><ele>156.1</ele><time>1970-01-01T01:41:20.000Z</time></trkpt><trkpt lat="51.774604" lon="39.526764"><ele>156</ele><time>1970-01-01T01:41:26.000Z</time></trkpt><trkpt lat="51.774624" lon="39.526762"><ele>156.1</ele><time>1970-01-01T01:41:27.000Z</time></trkpt><trkpt lat="51.774644" lon="39.526769"><ele>156.2</ele><time>1970-01-01T01:41:28.000Z</time></trkpt><trkpt lat="51.774658" lon="39.52678"><ele>156.3</ele><time>1970-01-01T01:41:29.000Z</time></trkpt><trkpt lat="51.774678" lon="39.526817"><ele>156.5</ele><time>1970-01-01T01:41:31.000Z</time></trkpt><trkpt lat="51.774702" lon="39.526829"><ele>156.6</ele><time>1970-01-01T01:41:32.000Z</time></trkpt><trkpt lat="51.774731" lon="39.526834"><ele>156.6</ele><time>1970-01-01T01:41:33.000Z</time></trkpt><trkpt lat="51.77477" lon="39.526838"><ele>156.6</ele><time>1970-01-01T01:41:34.000Z</time></trkpt><trkpt lat="51.77503" lon="39.526794"><ele>155.8</ele><time>1970-01-01T01:41:40.000Z</time></trkpt><trkpt lat="51.775077" lon="39.526778"><ele>155.3</ele><time>1970-01-01T01:41:41.000Z</time></trkpt><trkpt lat="51.775181" lon="39.52673"><ele>155</ele><time>1970-01-01T01:41:43.000Z</time></trkpt><trkpt lat="51.775229" lon="39.526708"><ele>154.7</ele><time>1970-01-01T01:41:44.000Z</time></trkpt><trkpt lat="51.775422" lon="39.526621"><ele>154</ele><time>1970-01-01T01:41:48.000Z</time></trkpt><trkpt lat="51.775721" lon="39.526658"><ele>153.9</ele><time>1970-01-01T01:41:54.000Z</time></trkpt><trkpt lat="51.775769" lon="39.526684"><ele>153.3</ele><time>1970-01-01T01:41:55.000Z</time></trkpt><trkpt lat="51.775915" lon="39.526756"><ele>153.5</ele><time>1970-01-01T01:41:58.000Z</time></trkpt><trkpt lat="51.776016" lon="39.526769"><ele>154.1</ele><time>1970-01-01T01:42:00.000Z</time></trkpt><trkpt lat="51.776066" lon="39.526762"><ele>154.1</ele><time>1970-01-01T01:42:01.000Z</time></trkpt><trkpt lat="51.776116" lon="39.526747"><ele>153.9</ele><time>1970-01-01T01:42:02.000Z</time></trkpt><trkpt lat="51.776289" lon="39.526672"><ele>155</ele><time>1970-01-01T01:42:06.000Z</time></trkpt><trkpt lat="51.776409" lon="39.526567"><ele>154.9</ele><time>1970-01-01T01:42:09.000Z</time></trkpt><trkpt lat="51.776501" lon="39.526507"><ele>155.1</ele><time>1970-01-01T01:42:11.000Z</time></trkpt><trkpt lat="51.776749" lon="39.526441"><ele>155.8</ele><time>1970-01-01T01:42:16.000Z</time></trkpt><trkpt lat="51.776844" lon="39.526433"><ele>156.1</ele><time>1970-01-01T01:42:18.000Z</time></trkpt><trkpt lat="51.776893" lon="39.526417"><ele>156</ele><time>1970-01-01T01:42:19.000Z</time></trkpt><trkpt lat="51.77694" lon="39.526384"><ele>156</ele><time>1970-01-01T01:42:20.000Z</time></trkpt><trkpt lat="51.776984" lon="39.526335"><ele>156</ele><time>1970-01-01T01:42:21.000Z</time></trkpt><trkpt lat="51.777023" lon="39.526277"><ele>156</ele><time>1970-01-01T01:42:22.000Z</time></trkpt><trkpt lat="51.777055" lon="39.526217"><ele>156</ele><time>1970-01-01T01:42:23.000Z</time></trkpt><trkpt lat="51.777087" lon="39.52616"><ele>156</ele><time>1970-01-01T01:42:24.000Z</time></trkpt><trkpt lat="51.777121" lon="39.526088"><ele>156</ele><time>1970-01-01T01:42:25.000Z</time></trkpt><trkpt lat="51.777157" lon="39.526021"><ele>156</ele><time>1970-01-01T01:42:26.000Z</time></trkpt><trkpt lat="51.777194" lon="39.525968"><ele>156.1</ele><time>1970-01-01T01:42:27.000Z</time></trkpt><trkpt lat="51.777236" lon="39.525924"><ele>155.9</ele><time>1970-01-01T01:42:28.000Z</time></trkpt><trkpt lat="51.777277" lon="39.525889"><ele>155.6</ele><time>1970-01-01T01:42:29.000Z</time></trkpt><trkpt lat="51.777322" lon="39.525846"><ele>155.3</ele><time>1970-01-01T01:42:30.000Z</time></trkpt><trkpt lat="51.777406" lon="39.525738"><ele>154.6</ele><time>1970-01-01T01:42:32.000Z</time></trkpt><trkpt lat="51.777448" lon="39.525681"><ele>154.2</ele><time>1970-01-01T01:42:33.000Z</time></trkpt><trkpt lat="51.777492" lon="39.52563"><ele>153.9</ele><time>1970-01-01T01:42:34.000Z</time></trkpt><trkpt lat="51.777788" lon="39.525502"><ele>153</ele><time>1970-01-01T01:42:43.000Z</time></trkpt><trkpt lat="51.777984" lon="39.525561"><ele>153</ele><time>1970-01-01T01:42:48.000Z</time></trkpt><trkpt lat="51.778028" lon="39.525547"><ele>153</ele><time>1970-01-01T01:42:49.000Z</time></trkpt><trkpt lat="51.77807" lon="39.525519"><ele>153.1</ele><time>1970-01-01T01:42:50.000Z</time></trkpt><trkpt lat="51.778113" lon="39.525487"><ele>153.4</ele><time>1970-01-01T01:42:51.000Z</time></trkpt><trkpt lat="51.778157" lon="39.52546"><ele>153.8</ele><time>1970-01-01T01:42:52.000Z</time></trkpt><trkpt lat="51.778558" lon="39.525369"><ele>155.1</ele><time>1970-01-01T01:43:01.000Z</time></trkpt><trkpt lat="51.778613" lon="39.525366"><ele>155</ele><time>1970-01-01T01:43:02.000Z</time></trkpt><trkpt lat="51.77903" lon="39.525457"><ele>155.9</ele><time>1970-01-01T01:43:11.000Z</time></trkpt><trkpt lat="51.779073" lon="39.5255"><ele>155.9</ele><time>1970-01-01T01:43:12.000Z</time></trkpt><trkpt lat="51.779472" lon="39.525909"><ele>157.9</ele><time>1970-01-01T01:43:22.000Z</time></trkpt><trkpt lat="51.779527" lon="39.526335"><ele>158.3</ele><time>1970-01-01T01:43:31.000Z</time></trkpt><trkpt lat="51.779467" lon="39.526872"><ele>157.4</ele><time>1970-01-01T01:43:40.000Z</time></trkpt><trkpt lat="51.779713" lon="39.527134"><ele>159.5</ele><time>1970-01-01T01:43:50.000Z</time></trkpt><trkpt lat="51.779787" lon="39.527139"><ele>159.5</ele><time>1970-01-01T01:43:52.000Z</time></trkpt><trkpt lat="51.780197" lon="39.527164"><ele>160.8</ele><time>1970-01-01T01:44:02.000Z</time></trkpt><trkpt lat="51.780418" lon="39.527093"><ele>161.1</ele><time>1970-01-01T01:44:07.000Z</time></trkpt><trkpt lat="51.780607" lon="39.526999"><ele>161.7</ele><time>1970-01-01T01:44:11.000Z</time></trkpt><trkpt lat="51.780651" lon="39.526966"><ele>161.7</ele><time>1970-01-01T01:44:12.000Z</time></trkpt><trkpt lat="51.780692" lon="39.526929"><ele>161.7</ele><time>1970-01-01T01:44:13.000Z</time></trkpt><trkpt lat="51.781139" lon="39.526605"><ele>161.8</ele><time>1970-01-01T01:44:23.000Z</time></trkpt><trkpt lat="51.781225" lon="39.52653"><ele>161.7</ele><time>1970-01-01T01:44:25.000Z</time></trkpt><trkpt lat="51.781271" lon="39.526494"><ele>161.8</ele><time>1970-01-01T01:44:26.000Z</time></trkpt><trkpt lat="51.781319" lon="39.526452"><ele>161.9</ele><time>1970-01-01T01:44:27.000Z</time></trkpt><trkpt lat="51.781361" lon="39.526407"><ele>161.9</ele><time>1970-01-01T01:44:28.000Z</time></trkpt><trkpt lat="51.781405" lon="39.526363"><ele>161.9</ele><time>1970-01-01T01:44:29.000Z</time></trkpt><trkpt lat="51.781519" lon="39.526239"><ele>161.7</ele><time>1970-01-01T01:44:32.000Z</time></trkpt><trkpt lat="51.78155" lon="39.526186"><ele>161.3</ele><time>1970-01-01T01:44:33.000Z</time></trkpt><trkpt lat="51.781748" lon="39.525825"><ele>159.9</ele><time>1970-01-01T01:44:40.000Z</time></trkpt><trkpt lat="51.781765" lon="39.525763"><ele>159.8</ele><time>1970-01-01T01:44:41.000Z</time></trkpt><trkpt lat="51.781774" lon="39.525695"><ele>159.8</ele><time>1970-01-01T01:44:42.000Z</time></trkpt><trkpt lat="51.781785" lon="39.525376"><ele>159.7</ele><time>1970-01-01T01:44:46.000Z</time></trkpt><trkpt lat="51.781788" lon="39.525299"><ele>159.4</ele><time>1970-01-01T01:44:47.000Z</time></trkpt><trkpt lat="51.781793" lon="39.525228"><ele>159</ele><time>1970-01-01T01:44:48.000Z</time></trkpt><trkpt lat="51.781807" lon="39.525154"><ele>158.9</ele><time>1970-01-01T01:44:49.000Z</time></trkpt><trkpt lat="51.781828" lon="39.525082"><ele>158.9</ele><time>1970-01-01T01:44:50.000Z</time></trkpt><trkpt lat="51.781857" lon="39.525015"><ele>158.8</ele><time>1970-01-01T01:44:51.000Z</time></trkpt><trkpt lat="51.78189" lon="39.524956"><ele>158.6</ele><time>1970-01-01T01:44:52.000Z</time></trkpt><trkpt lat="51.782029" lon="39.524753"><ele>158.4</ele><time>1970-01-01T01:44:56.000Z</time></trkpt><trkpt lat="51.782066" lon="39.524698"><ele>158.4</ele><time>1970-01-01T01:44:57.000Z</time></trkpt><trkpt lat="51.782109" lon="39.52465"><ele>158.6</ele><time>1970-01-01T01:44:58.000Z</time></trkpt><trkpt lat="51.782397" lon="39.52435"><ele>161</ele><time>1970-01-01T01:45:06.000Z</time></trkpt><trkpt lat="51.78245" lon="39.524232"><ele>161.4</ele><time>1970-01-01T01:45:08.000Z</time></trkpt><trkpt lat="51.78252" lon="39.524025"><ele>161.7</ele><time>1970-01-01T01:45:11.000Z</time></trkpt><trkpt lat="51.782578" lon="39.523891"><ele>162.2</ele><time>1970-01-01T01:45:13.000Z</time></trkpt><trkpt lat="51.782655" lon="39.52355"><ele>163.3</ele><time>1970-01-01T01:45:18.000Z</time></trkpt><trkpt lat="51.782663" lon="39.523062"><ele>163.4</ele><time>1970-01-01T01:45:25.000Z</time></trkpt><trkpt lat="51.782763" lon="39.522238"><ele>163.2</ele><time>1970-01-01T01:45:36.000Z</time></trkpt><trkpt lat="51.782776" lon="39.522162"><ele>162.8</ele><time>1970-01-01T01:45:37.000Z</time></trkpt><trkpt lat="51.782798" lon="39.522088"><ele>162.5</ele><time>1970-01-01T01:45:38.000Z</time></trkpt><trkpt lat="51.782828" lon="39.522025"><ele>162.2</ele><time>1970-01-01T01:45:39.000Z</time></trkpt><trkpt lat="51.782883" lon="39.521888"><ele>162.3</ele><time>1970-01-01T01:45:41.000Z</time></trkpt><trkpt lat="51.783038" lon="39.521372"><ele>162.5</ele><time>1970-01-01T01:45:49.000Z</time></trkpt><trkpt lat="51.783229" lon="39.520991"><ele>160.9</ele><time>1970-01-01T01:45:55.000Z</time></trkpt><trkpt lat="51.78326" lon="39.520923"><ele>160.8</ele><time>1970-01-01T01:45:56.000Z</time></trkpt><trkpt lat="51.783288" lon="39.520864"><ele>160.7</ele><time>1970-01-01T01:45:57.000Z</time></trkpt><trkpt lat="51.78332" lon="39.520806"><ele>160.8</ele><time>1970-01-01T01:45:58.000Z</time></trkpt><trkpt lat="51.78335" lon="39.520745"><ele>160.8</ele><time>1970-01-01T01:45:59.000Z</time></trkpt><trkpt lat="51.783383" lon="39.520683"><ele>160.8</ele><time>1970-01-01T01:46:00.000Z</time></trkpt><trkpt lat="51.783413" lon="39.520619"><ele>160.8</ele><time>1970-01-01T01:46:01.000Z</time></trkpt><trkpt lat="51.783443" lon="39.520556"><ele>160.9</ele><time>1970-01-01T01:46:02.000Z</time></trkpt><trkpt lat="51.783503" lon="39.519913"><ele>161.3</ele><time>1970-01-01T01:46:11.000Z</time></trkpt><trkpt lat="51.78351" lon="39.519453"><ele>159.4</ele><time>1970-01-01T01:46:17.000Z</time></trkpt><trkpt lat="51.783525" lon="39.519379"><ele>159.2</ele><time>1970-01-01T01:46:18.000Z</time></trkpt><trkpt lat="51.783523" lon="39.519322"><ele>158.9</ele><time>1970-01-01T01:46:19.000Z</time></trkpt><trkpt lat="51.78352" lon="39.519271"><ele>158.6</ele><time>1970-01-01T01:46:20.000Z</time></trkpt><trkpt lat="51.783523" lon="39.519216"><ele>158.4</ele><time>1970-01-01T01:46:21.000Z</time></trkpt><trkpt lat="51.783555" lon="39.5187"><ele>158.4</ele><time>1970-01-01T01:46:30.000Z</time></trkpt><trkpt lat="51.783596" lon="39.518288"><ele>158.1</ele><time>1970-01-01T01:46:36.000Z</time></trkpt><trkpt lat="51.783643" lon="39.517498"><ele>155.1</ele><time>1970-01-01T01:46:47.000Z</time></trkpt><trkpt lat="51.783684" lon="39.517272"><ele>154.6</ele><time>1970-01-01T01:46:50.000Z</time></trkpt><trkpt lat="51.783777" lon="39.516968"><ele>154.7</ele><time>1970-01-01T01:46:55.000Z</time></trkpt><trkpt lat="51.783815" lon="39.516913"><ele>154.8</ele><time>1970-01-01T01:46:56.000Z</time></trkpt><trkpt lat="51.784134" lon="39.516565"><ele>154.7</ele><time>1970-01-01T01:47:04.000Z</time></trkpt><trkpt lat="51.784171" lon="39.516514"><ele>154.7</ele><time>1970-01-01T01:47:05.000Z</time></trkpt><trkpt lat="51.784244" lon="39.516396"><ele>154.7</ele><time>1970-01-01T01:47:07.000Z</time></trkpt><trkpt lat="51.784278" lon="39.516332"><ele>154.8</ele><time>1970-01-01T01:47:08.000Z</time></trkpt><trkpt lat="51.784315" lon="39.516275"><ele>155</ele><time>1970-01-01T01:47:09.000Z</time></trkpt><trkpt lat="51.784461" lon="39.516037"><ele>155.6</ele><time>1970-01-01T01:47:15.000Z</time></trkpt><trkpt lat="51.784561" lon="39.515489"><ele>154.7</ele><time>1970-01-01T01:47:25.000Z</time></trkpt><trkpt lat="51.784585" lon="39.515424"><ele>154.6</ele><time>1970-01-01T01:47:26.000Z</time></trkpt><trkpt lat="51.784617" lon="39.515359"><ele>154.4</ele><time>1970-01-01T01:47:27.000Z</time></trkpt><trkpt lat="51.784686" lon="39.515253"><ele>153.8</ele><time>1970-01-01T01:47:29.000Z</time></trkpt><trkpt lat="51.784726" lon="39.515214"><ele>153.7</ele><time>1970-01-01T01:47:30.000Z</time></trkpt><trkpt lat="51.78476" lon="39.515189"><ele>153.8</ele><time>1970-01-01T01:47:31.000Z</time></trkpt><trkpt lat="51.784784" lon="39.515173"><ele>153.9</ele><time>1970-01-01T01:47:32.000Z</time></trkpt><trkpt lat="51.784802" lon="39.515163"><ele>154.1</ele><time>1970-01-01T01:47:33.000Z</time></trkpt><trkpt lat="51.78489" lon="39.51515"><ele>154.8</ele><time>1970-01-01T01:47:43.000Z</time></trkpt><trkpt lat="51.784941" lon="39.51508"><ele>154.9</ele><time>1970-01-01T01:47:48.000Z</time></trkpt><trkpt lat="51.784957" lon="39.515065"><ele>154.9</ele><time>1970-01-01T01:47:49.000Z</time></trkpt><trkpt lat="51.785274" lon="39.51506"><ele>153.8</ele><time>1970-01-01T01:47:59.000Z</time></trkpt><trkpt lat="51.785363" lon="39.515082"><ele>154.4</ele><time>1970-01-01T01:48:01.000Z</time></trkpt><trkpt lat="51.785411" lon="39.515082"><ele>154.8</ele><time>1970-01-01T01:48:02.000Z</time></trkpt><trkpt lat="51.78589" lon="39.51506"><ele>156</ele><time>1970-01-01T01:48:13.000Z</time></trkpt><trkpt lat="51.78593" lon="39.515068"><ele>156.1</ele><time>1970-01-01T01:48:14.000Z</time></trkpt><trkpt lat="51.786014" lon="39.515098"><ele>156</ele><time>1970-01-01T01:48:16.000Z</time></trkpt><trkpt lat="51.786408" lon="39.515291"><ele>154</ele><time>1970-01-01T01:48:25.000Z</time></trkpt><trkpt lat="51.786846" lon="39.515451"><ele>153</ele><time>1970-01-01T01:48:35.000Z</time></trkpt><trkpt lat="51.786978" lon="39.515517"><ele>153.1</ele><time>1970-01-01T01:48:38.000Z</time></trkpt><trkpt lat="51.787021" lon="39.51554"><ele>153</ele><time>1970-01-01T01:48:39.000Z</time></trkpt><trkpt lat="51.78706" lon="39.515568"><ele>152.9</ele><time>1970-01-01T01:48:40.000Z</time></trkpt><trkpt lat="51.787101" lon="39.5156"><ele>152.5</ele><time>1970-01-01T01:48:41.000Z</time></trkpt><trkpt lat="51.787142" lon="39.515628"><ele>152.1</ele><time>1970-01-01T01:48:42.000Z</time></trkpt><trkpt lat="51.787587" lon="39.515877"><ele>152.3</ele><time>1970-01-01T01:48:52.000Z</time></trkpt><trkpt lat="51.787874" lon="39.515998"><ele>153</ele><time>1970-01-01T01:49:00.000Z</time></trkpt><trkpt lat="51.787963" lon="39.516008"><ele>153</ele><time>1970-01-01T01:49:08.000Z</time></trkpt><trkpt lat="51.788055" lon="39.516043"><ele>153</ele><time>1970-01-01T01:49:14.000Z</time></trkpt><trkpt lat="51.788082" lon="39.516061"><ele>153</ele><time>1970-01-01T01:49:15.000Z</time></trkpt><trkpt lat="51.788113" lon="39.51608"><ele>153.1</ele><time>1970-01-01T01:49:16.000Z</time></trkpt><trkpt lat="51.788453" lon="39.516226"><ele>154.4</ele><time>1970-01-01T01:49:25.000Z</time></trkpt><trkpt lat="51.788759" lon="39.516374"><ele>155.9</ele><time>1970-01-01T01:49:32.000Z</time></trkpt><trkpt lat="51.789191" lon="39.516605"><ele>155.3</ele><time>1970-01-01T01:49:43.000Z</time></trkpt><trkpt lat="51.78953" lon="39.5168"><ele>154.2</ele><time>1970-01-01T01:49:52.000Z</time></trkpt><trkpt lat="51.789912" lon="39.516982"><ele>155.1</ele><time>1970-01-01T01:50:01.000Z</time></trkpt><trkpt lat="51.789956" lon="39.51701"><ele>155.2</ele><time>1970-01-01T01:50:02.000Z</time></trkpt><trkpt lat="51.790312" lon="39.517174"><ele>155.1</ele><time>1970-01-01T01:50:10.000Z</time></trkpt><trkpt lat="51.790707" lon="39.517391"><ele>154.1</ele><time>1970-01-01T01:50:20.000Z</time></trkpt><trkpt lat="51.790845" lon="39.517448"><ele>154</ele><time>1970-01-01T01:50:28.000Z</time></trkpt><trkpt lat="51.790897" lon="39.517482"><ele>153.7</ele><time>1970-01-01T01:50:31.000Z</time></trkpt><trkpt lat="51.790924" lon="39.517497"><ele>153.5</ele><time>1970-01-01T01:50:32.000Z</time></trkpt><trkpt lat="51.790954" lon="39.517504"><ele>153.2</ele><time>1970-01-01T01:50:33.000Z</time></trkpt><trkpt lat="51.791071" lon="39.517552"><ele>152.8</ele><time>1970-01-01T01:50:41.000Z</time></trkpt><trkpt lat="51.791151" lon="39.517595"><ele>152</ele><time>1970-01-01T01:50:46.000Z</time></trkpt><trkpt lat="51.79139" lon="39.517739"><ele>150.9</ele><time>1970-01-01T01:50:56.000Z</time></trkpt><trkpt lat="51.791776" lon="39.517968"><ele>151.6</ele><time>1970-01-01T01:51:07.000Z</time></trkpt><trkpt lat="51.792193" lon="39.518182"><ele>150.1</ele><time>1970-01-01T01:51:17.000Z</time></trkpt><trkpt lat="51.792357" lon="39.51825"><ele>149.9</ele><time>1970-01-01T01:51:27.000Z</time></trkpt><trkpt lat="51.792359" lon="39.518249"><ele>149.9</ele><time>1970-01-01T01:51:28.000Z</time></trkpt><trkpt lat="51.792483" lon="39.518341"><ele>150</ele><time>1970-01-01T01:51:48.000Z</time></trkpt><trkpt lat="51.792511" lon="39.518354"><ele>150.1</ele><time>1970-01-01T01:51:49.000Z</time></trkpt><trkpt lat="51.792539" lon="39.518369"><ele>150.3</ele><time>1970-01-01T01:51:50.000Z</time></trkpt><trkpt lat="51.792566" lon="39.518382"><ele>150.5</ele><time>1970-01-01T01:51:51.000Z</time></trkpt><trkpt lat="51.792596" lon="39.518394"><ele>150.5</ele><time>1970-01-01T01:51:52.000Z</time></trkpt><trkpt lat="51.792627" lon="39.518405"><ele>150.5</ele><time>1970-01-01T01:51:53.000Z</time></trkpt><trkpt lat="51.79266" lon="39.518418"><ele>150.6</ele><time>1970-01-01T01:51:54.000Z</time></trkpt><trkpt lat="51.792693" lon="39.518427"><ele>151</ele><time>1970-01-01T01:51:55.000Z</time></trkpt><trkpt lat="51.792724" lon="39.518441"><ele>151.3</ele><time>1970-01-01T01:51:56.000Z</time></trkpt><trkpt lat="51.792753" lon="39.518458"><ele>151.5</ele><time>1970-01-01T01:51:57.000Z</time></trkpt><trkpt lat="51.793012" lon="39.51857"><ele>151.7</ele><time>1970-01-01T01:52:08.000Z</time></trkpt><trkpt lat="51.793365" lon="39.518775"><ele>151.6</ele><time>1970-01-01T01:52:21.000Z</time></trkpt><trkpt lat="51.793777" lon="39.518963"><ele>152.4</ele><time>1970-01-01T01:52:31.000Z</time></trkpt><trkpt lat="51.793821" lon="39.518992"><ele>152.9</ele><time>1970-01-01T01:52:32.000Z</time></trkpt><trkpt lat="51.793863" lon="39.519029"><ele>153</ele><time>1970-01-01T01:52:33.000Z</time></trkpt><trkpt lat="51.794269" lon="39.519227"><ele>153</ele><time>1970-01-01T01:52:43.000Z</time></trkpt><trkpt lat="51.794496" lon="39.519332"><ele>152</ele><time>1970-01-01T01:52:48.000Z</time></trkpt><trkpt lat="51.794915" lon="39.519535"><ele>151.1</ele><time>1970-01-01T01:52:58.000Z</time></trkpt><trkpt lat="51.795164" lon="39.519654"><ele>149.8</ele><time>1970-01-01T01:53:03.000Z</time></trkpt><trkpt lat="51.795473" lon="39.519814"><ele>146.1</ele><time>1970-01-01T01:53:09.000Z</time></trkpt><trkpt lat="51.795525" lon="39.519829"><ele>145.5</ele><time>1970-01-01T01:53:10.000Z</time></trkpt><trkpt lat="51.795732" lon="39.519911"><ele>144.2</ele><time>1970-01-01T01:53:14.000Z</time></trkpt><trkpt lat="51.796052" lon="39.519845"><ele>143.9</ele><time>1970-01-01T01:53:24.000Z</time></trkpt><trkpt lat="51.796084" lon="39.519638"><ele>143.6</ele><time>1970-01-01T01:53:29.000Z</time></trkpt><trkpt lat="51.79609" lon="39.519601"><ele>143.5</ele><time>1970-01-01T01:53:30.000Z</time></trkpt><trkpt lat="51.796213" lon="39.519188"><ele>143.8</ele><time>1970-01-01T01:53:40.000Z</time></trkpt><trkpt lat="51.796395" lon="39.518615"><ele>143.2</ele><time>1970-01-01T01:53:52.000Z</time></trkpt><trkpt lat="51.796432" lon="39.518202"><ele>143.4</ele><time>1970-01-01T01:54:06.000Z</time></trkpt><trkpt lat="51.79645" lon="39.518135"><ele>143.2</ele><time>1970-01-01T01:54:12.000Z</time></trkpt><trkpt lat="51.796492" lon="39.518075"><ele>143.1</ele><time>1970-01-01T01:55:17.000Z</time></trkpt><trkpt lat="51.796524" lon="39.518166"><ele>143.2</ele><time>1970-01-01T01:55:21.000Z</time></trkpt><trkpt lat="51.796514" lon="39.51821"><ele>143.3</ele><time>1970-01-01T01:55:22.000Z</time></trkpt><trkpt lat="51.796502" lon="39.518264"><ele>143.4</ele><time>1970-01-01T01:55:23.000Z</time></trkpt><trkpt lat="51.796489" lon="39.518328"><ele>143.4</ele><time>1970-01-01T01:55:24.000Z</time></trkpt><trkpt lat="51.79645" lon="39.518713"><ele>143.2</ele><time>1970-01-01T01:55:30.000Z</time></trkpt><trkpt lat="51.796458" lon="39.518781"><ele>143.3</ele><time>1970-01-01T01:55:31.000Z</time></trkpt><trkpt lat="51.796535" lon="39.518978"><ele>144.3</ele><time>1970-01-01T01:55:35.000Z</time></trkpt><trkpt lat="51.796572" lon="39.519015"><ele>144.7</ele><time>1970-01-01T01:55:36.000Z</time></trkpt><trkpt lat="51.79668" lon="39.519102"><ele>145.7</ele><time>1970-01-01T01:55:39.000Z</time></trkpt><trkpt lat="51.796716" lon="39.519139"><ele>145.8</ele><time>1970-01-01T01:55:40.000Z</time></trkpt><trkpt lat="51.796944" lon="39.519495"><ele>147</ele><time>1970-01-01T01:55:47.000Z</time></trkpt><trkpt lat="51.796968" lon="39.519554"><ele>147.3</ele><time>1970-01-01T01:55:48.000Z</time></trkpt><trkpt lat="51.797015" lon="39.519687"><ele>147.3</ele><time>1970-01-01T01:55:50.000Z</time></trkpt><trkpt lat="51.79703" lon="39.519761"><ele>147.2</ele><time>1970-01-01T01:55:51.000Z</time></trkpt><trkpt lat="51.797036" lon="39.51984"><ele>146.8</ele><time>1970-01-01T01:55:52.000Z</time></trkpt><trkpt lat="51.797035" lon="39.51992"><ele>146.2</ele><time>1970-01-01T01:55:53.000Z</time></trkpt><trkpt lat="51.797027" lon="39.52"><ele>145.9</ele><time>1970-01-01T01:55:54.000Z</time></trkpt><trkpt lat="51.797015" lon="39.520074"><ele>145.8</ele><time>1970-01-01T01:55:55.000Z</time></trkpt><trkpt lat="51.797004" lon="39.520144"><ele>145.8</ele><time>1970-01-01T01:55:56.000Z</time></trkpt><trkpt lat="51.796973" lon="39.520526"><ele>148</ele><time>1970-01-01T01:56:04.000Z</time></trkpt><trkpt lat="51.796993" lon="39.520559"><ele>148.2</ele><time>1970-01-01T01:56:05.000Z</time></trkpt><trkpt lat="51.797024" lon="39.520584"><ele>148.6</ele><time>1970-01-01T01:56:06.000Z</time></trkpt><trkpt lat="51.797059" lon="39.520602"><ele>148.6</ele><time>1970-01-01T01:56:07.000Z</time></trkpt><trkpt lat="51.797095" lon="39.520621"><ele>148.6</ele><time>1970-01-01T01:56:08.000Z</time></trkpt><trkpt lat="51.797138" lon="39.520643"><ele>148.6</ele><time>1970-01-01T01:56:09.000Z</time></trkpt><trkpt lat="51.797181" lon="39.520656"><ele>148.7</ele><time>1970-01-01T01:56:10.000Z</time></trkpt><trkpt lat="51.797808" lon="39.5209"><ele>146.5</ele><time>1970-01-01T01:56:23.000Z</time></trkpt><trkpt lat="51.798434" lon="39.521255"><ele>151.7</ele><time>1970-01-01T01:56:37.000Z</time></trkpt><trkpt lat="51.798802" lon="39.521421"><ele>152.7</ele><time>1970-01-01T01:56:46.000Z</time></trkpt><trkpt lat="51.798935" lon="39.52147"><ele>152.7</ele><time>1970-01-01T01:56:55.000Z</time></trkpt><trkpt lat="51.799118" lon="39.52157"><ele>153.3</ele><time>1970-01-01T01:57:17.000Z</time></trkpt><trkpt lat="51.799137" lon="39.521573"><ele>153.4</ele><time>1970-01-01T01:57:18.000Z</time></trkpt><trkpt lat="51.799163" lon="39.521586"><ele>153.6</ele><time>1970-01-01T01:57:19.000Z</time></trkpt><trkpt lat="51.799564" lon="39.521839"><ele>154.7</ele><time>1970-01-01T01:57:31.000Z</time></trkpt><trkpt lat="51.799814" lon="39.521979"><ele>155.4</ele><time>1970-01-01T01:57:41.000Z</time></trkpt><trkpt lat="51.799864" lon="39.522009"><ele>155.8</ele><time>1970-01-01T01:57:43.000Z</time></trkpt><trkpt lat="51.799892" lon="39.522029"><ele>155.8</ele><time>1970-01-01T01:57:44.000Z</time></trkpt><trkpt lat="51.79993" lon="39.522046"><ele>155.7</ele><time>1970-01-01T01:57:45.000Z</time></trkpt><trkpt lat="51.799963" lon="39.522057"><ele>155.7</ele><time>1970-01-01T01:57:46.000Z</time></trkpt><trkpt lat="51.799999" lon="39.522073"><ele>155.8</ele><time>1970-01-01T01:57:47.000Z</time></trkpt><trkpt lat="51.800335" lon="39.522235"><ele>155.8</ele><time>1970-01-01T01:57:56.000Z</time></trkpt><trkpt lat="51.800892" lon="39.522512"><ele>155.6</ele><time>1970-01-01T01:58:09.000Z</time></trkpt><trkpt lat="51.801255" lon="39.522679"><ele>156.7</ele><time>1970-01-01T01:58:17.000Z</time></trkpt><trkpt lat="51.801297" lon="39.522695"><ele>156.6</ele><time>1970-01-01T01:58:18.000Z</time></trkpt><trkpt lat="51.801338" lon="39.522718"><ele>156.5</ele><time>1970-01-01T01:58:19.000Z</time></trkpt><trkpt lat="51.801379" lon="39.522741"><ele>156.2</ele><time>1970-01-01T01:58:20.000Z</time></trkpt><trkpt lat="51.801422" lon="39.522761"><ele>155.8</ele><time>1970-01-01T01:58:21.000Z</time></trkpt><trkpt lat="51.801675" lon="39.522876"><ele>154.2</ele><time>1970-01-01T01:58:29.000Z</time></trkpt><trkpt lat="51.801751" lon="39.522842"><ele>154</ele><time>1970-01-01T01:58:37.000Z</time></trkpt><trkpt lat="51.801775" lon="39.522888"><ele>154</ele><time>1970-01-01T01:58:39.000Z</time></trkpt><trkpt lat="51.801797" lon="39.522913"><ele>153.8</ele><time>1970-01-01T01:58:40.000Z</time></trkpt><trkpt lat="51.801905" lon="39.522991"><ele>153.6</ele><time>1970-01-01T01:58:44.000Z</time></trkpt><trkpt lat="51.801928" lon="39.523008"><ele>153.7</ele><time>1970-01-01T01:58:45.000Z</time></trkpt><trkpt lat="51.801949" lon="39.523022"><ele>153.7</ele><time>1970-01-01T01:58:46.000Z</time></trkpt><trkpt lat="51.801992" lon="39.523069"><ele>153.9</ele><time>1970-01-01T01:58:51.000Z</time></trkpt><trkpt lat="51.802188" lon="39.523146"><ele>154.5</ele><time>1970-01-01T01:59:10.000Z</time></trkpt><trkpt lat="51.802257" lon="39.52318"><ele>154.9</ele><time>1970-01-01T01:59:12.000Z</time></trkpt><trkpt lat="51.802294" lon="39.523201"><ele>154.9</ele><time>1970-01-01T01:59:13.000Z</time></trkpt><trkpt lat="51.802333" lon="39.523222"><ele>154.6</ele><time>1970-01-01T01:59:14.000Z</time></trkpt><trkpt lat="51.802695" lon="39.523406"><ele>153.9</ele><time>1970-01-01T01:59:24.000Z</time></trkpt><trkpt lat="51.803011" lon="39.52353"><ele>152.9</ele><time>1970-01-01T01:59:34.000Z</time></trkpt><trkpt lat="51.803408" lon="39.523734"><ele>151.7</ele><time>1970-01-01T01:59:43.000Z</time></trkpt><trkpt lat="51.803729" lon="39.523925"><ele>149.9</ele><time>1970-01-01T01:59:51.000Z</time></trkpt><trkpt lat="51.804025" lon="39.524019"><ele>149.9</ele><time>1970-01-01T01:59:59.000Z</time></trkpt><trkpt lat="51.804228" lon="39.524089"><ele>149.9</ele><time>1970-01-01T02:00:06.000Z</time></trkpt><trkpt lat="51.804296" lon="39.52406"><ele>150.2</ele><time>1970-01-01T02:00:10.000Z</time></trkpt><trkpt lat="51.804316" lon="39.524042"><ele>150.4</ele><time>1970-01-01T02:00:11.000Z</time></trkpt><trkpt lat="51.804336" lon="39.524025"><ele>150.6</ele><time>1970-01-01T02:00:12.000Z</time></trkpt><trkpt lat="51.804353" lon="39.524012"><ele>150.8</ele><time>1970-01-01T02:00:13.000Z</time></trkpt><trkpt lat="51.804373" lon="39.524013"><ele>150.9</ele><time>1970-01-01T02:00:14.000Z</time></trkpt><trkpt lat="51.804407" lon="39.524056"><ele>151</ele><time>1970-01-01T02:00:18.000Z</time></trkpt><trkpt lat="51.804437" lon="39.524149"><ele>151</ele><time>1970-01-01T02:00:23.000Z</time></trkpt><trkpt lat="51.804502" lon="39.5242"><ele>150.9</ele><time>1970-01-01T02:00:28.000Z</time></trkpt><trkpt lat="51.804526" lon="39.524201"><ele>151</ele><time>1970-01-01T02:00:29.000Z</time></trkpt><trkpt lat="51.804621" lon="39.524316"><ele>151</ele><time>1970-01-01T02:00:42.000Z</time></trkpt><trkpt lat="51.804669" lon="39.524335"><ele>151</ele><time>1970-01-01T02:00:49.000Z</time></trkpt><trkpt lat="51.804707" lon="39.524354"><ele>151</ele><time>1970-01-01T02:00:51.000Z</time></trkpt><trkpt lat="51.805034" lon="39.524513"><ele>150.9</ele><time>1970-01-01T02:01:00.000Z</time></trkpt><trkpt lat="51.805368" lon="39.524674"><ele>150.3</ele><time>1970-01-01T02:01:09.000Z</time></trkpt><trkpt lat="51.805534" lon="39.524744"><ele>149.7</ele><time>1970-01-01T02:01:13.000Z</time></trkpt><trkpt lat="51.806068" lon="39.525074"><ele>149.8</ele><time>1970-01-01T02:01:24.000Z</time></trkpt><trkpt lat="51.806396" lon="39.525257"><ele>148.7</ele><time>1970-01-01T02:01:32.000Z</time></trkpt><trkpt lat="51.806815" lon="39.525446"><ele>147.9</ele><time>1970-01-01T02:01:41.000Z</time></trkpt><trkpt lat="51.807415" lon="39.525754"><ele>147.1</ele><time>1970-01-01T02:01:52.000Z</time></trkpt><trkpt lat="51.80798" lon="39.526054"><ele>146.3</ele><time>1970-01-01T02:02:03.000Z</time></trkpt><trkpt lat="51.808052" lon="39.526063"><ele>146.1</ele><time>1970-01-01T02:02:06.000Z</time></trkpt><trkpt lat="51.808066" lon="39.526051"><ele>146</ele><time>1970-01-01T02:02:07.000Z</time></trkpt><trkpt lat="51.808081" lon="39.52604"><ele>145.9</ele><time>1970-01-01T02:02:08.000Z</time></trkpt><trkpt lat="51.808099" lon="39.526036"><ele>146</ele><time>1970-01-01T02:02:09.000Z</time></trkpt><trkpt lat="51.808115" lon="39.526041"><ele>146</ele><time>1970-01-01T02:02:10.000Z</time></trkpt><trkpt lat="51.808132" lon="39.526053"><ele>146.1</ele><time>1970-01-01T02:02:11.000Z</time></trkpt><trkpt lat="51.808148" lon="39.526066"><ele>146.2</ele><time>1970-01-01T02:02:12.000Z</time></trkpt><trkpt lat="51.808165" lon="39.526078"><ele>146.2</ele><time>1970-01-01T02:02:13.000Z</time></trkpt><trkpt lat="51.808183" lon="39.526091"><ele>146.2</ele><time>1970-01-01T02:02:14.000Z</time></trkpt><trkpt lat="51.808207" lon="39.526102"><ele>146.1</ele><time>1970-01-01T02:02:15.000Z</time></trkpt><trkpt lat="51.808497" lon="39.526295"><ele>145.3</ele><time>1970-01-01T02:02:25.000Z</time></trkpt><trkpt lat="51.808948" lon="39.526543"><ele>145.9</ele><time>1970-01-01T02:02:36.000Z</time></trkpt><trkpt lat="51.809488" lon="39.526859"><ele>144.9</ele><time>1970-01-01T02:02:47.000Z</time></trkpt><trkpt lat="51.809535" lon="39.526913"><ele>144.8</ele><time>1970-01-01T02:02:49.000Z</time></trkpt><trkpt lat="51.809545" lon="39.526948"><ele>144.7</ele><time>1970-01-01T02:02:50.000Z</time></trkpt><trkpt lat="51.80955" lon="39.526989"><ele>144.2</ele><time>1970-01-01T02:02:51.000Z</time></trkpt><trkpt lat="51.809551" lon="39.527033"><ele>144.2</ele><time>1970-01-01T02:02:52.000Z</time></trkpt><trkpt lat="51.809544" lon="39.527087"><ele>144.2</ele><time>1970-01-01T02:02:53.000Z</time></trkpt><trkpt lat="51.809536" lon="39.527149"><ele>144.3</ele><time>1970-01-01T02:02:54.000Z</time></trkpt><trkpt lat="51.809529" lon="39.527217"><ele>144.4</ele><time>1970-01-01T02:02:55.000Z</time></trkpt><trkpt lat="51.809519" lon="39.527284"><ele>144.6</ele><time>1970-01-01T02:02:56.000Z</time></trkpt><trkpt lat="51.809474" lon="39.527676"><ele>146</ele><time>1970-01-01T02:03:02.000Z</time></trkpt><trkpt lat="51.809476" lon="39.52775"><ele>146.3</ele><time>1970-01-01T02:03:03.000Z</time></trkpt><trkpt lat="51.809474" lon="39.527816"><ele>146.5</ele><time>1970-01-01T02:03:04.000Z</time></trkpt><trkpt lat="51.809468" lon="39.527878"><ele>146.6</ele><time>1970-01-01T02:03:05.000Z</time></trkpt><trkpt lat="51.80946" lon="39.52794"><ele>146.6</ele><time>1970-01-01T02:03:06.000Z</time></trkpt><trkpt lat="51.809454" lon="39.527994"><ele>146.6</ele><time>1970-01-01T02:03:07.000Z</time></trkpt><trkpt lat="51.809444" lon="39.528039"><ele>146.6</ele><time>1970-01-01T02:03:08.000Z</time></trkpt><trkpt lat="51.80943" lon="39.528084"><ele>146.7</ele><time>1970-01-01T02:03:09.000Z</time></trkpt><trkpt lat="51.809419" lon="39.528133"><ele>146.8</ele><time>1970-01-01T02:03:10.000Z</time></trkpt><trkpt lat="51.809404" lon="39.528186"><ele>146.9</ele><time>1970-01-01T02:03:11.000Z</time></trkpt><trkpt lat="51.809297" lon="39.528656"><ele>148.5</ele><time>1970-01-01T02:03:19.000Z</time></trkpt><trkpt lat="51.809254" lon="39.528869"><ele>150.3</ele><time>1970-01-01T02:03:22.000Z</time></trkpt><trkpt lat="51.809241" lon="39.528931"><ele>150.6</ele><time>1970-01-01T02:03:23.000Z</time></trkpt><trkpt lat="51.809075" lon="39.529678"><ele>152.1</ele><time>1970-01-01T02:03:35.000Z</time></trkpt><trkpt lat="51.809007" lon="39.530008"><ele>151.5</ele><time>1970-01-01T02:03:40.000Z</time></trkpt><trkpt lat="51.808987" lon="39.53006"><ele>151.6</ele><time>1970-01-01T02:03:41.000Z</time></trkpt><trkpt lat="51.808971" lon="39.530111"><ele>151.4</ele><time>1970-01-01T02:03:42.000Z</time></trkpt><trkpt lat="51.808909" lon="39.530596"><ele>149.5</ele><time>1970-01-01T02:03:52.000Z</time></trkpt><trkpt lat="51.808907" lon="39.530632"><ele>149.4</ele><time>1970-01-01T02:03:53.000Z</time></trkpt><trkpt lat="51.808896" lon="39.530722"><ele>149.2</ele><time>1970-01-01T02:03:56.000Z</time></trkpt><trkpt lat="51.808893" lon="39.530756"><ele>149.1</ele><time>1970-01-01T02:03:57.000Z</time></trkpt><trkpt lat="51.808855" lon="39.530973"><ele>148.1</ele><time>1970-01-01T02:04:08.000Z</time></trkpt><trkpt lat="51.808844" lon="39.531199"><ele>147.2</ele><time>1970-01-01T02:04:22.000Z</time></trkpt><trkpt lat="51.808837" lon="39.531218"><ele>147.1</ele><time>1970-01-01T02:04:24.000Z</time></trkpt><trkpt lat="51.808802" lon="39.531547"><ele>146.4</ele><time>1970-01-01T02:06:31.000Z</time></trkpt><trkpt lat="51.808792" lon="39.531605"><ele>146.3</ele><time>1970-01-01T02:06:33.000Z</time></trkpt><trkpt lat="51.80878" lon="39.531645"><ele>146.2</ele><time>1970-01-01T02:06:35.000Z</time></trkpt><trkpt lat="51.80878" lon="39.531675"><ele>146.3</ele><time>1970-01-01T02:06:36.000Z</time></trkpt><trkpt lat="51.808776" lon="39.531703"><ele>146.5</ele><time>1970-01-01T02:06:37.000Z</time></trkpt><trkpt lat="51.808773" lon="39.531729"><ele>146.6</ele><time>1970-01-01T02:06:38.000Z</time></trkpt><trkpt lat="51.808769" lon="39.531755"><ele>146.7</ele><time>1970-01-01T02:06:39.000Z</time></trkpt><trkpt lat="51.808727" lon="39.531888"><ele>146.9</ele><time>1970-01-01T02:06:49.000Z</time></trkpt><trkpt lat="51.808683" lon="39.532018"><ele>146.9</ele><time>1970-01-01T02:06:54.000Z</time></trkpt><trkpt lat="51.808664" lon="39.532134"><ele>146.9</ele><time>1970-01-01T02:06:58.000Z</time></trkpt><trkpt lat="51.808664" lon="39.532168"><ele>146.9</ele><time>1970-01-01T02:06:59.000Z</time></trkpt><trkpt lat="51.808658" lon="39.532206"><ele>147.1</ele><time>1970-01-01T02:07:00.000Z</time></trkpt><trkpt lat="51.808651" lon="39.532242"><ele>147.3</ele><time>1970-01-01T02:07:01.000Z</time></trkpt><trkpt lat="51.808644" lon="39.532282"><ele>147.6</ele><time>1970-01-01T02:07:02.000Z</time></trkpt><trkpt lat="51.808633" lon="39.532323"><ele>147.9</ele><time>1970-01-01T02:07:03.000Z</time></trkpt><trkpt lat="51.808626" lon="39.532355"><ele>148</ele><time>1970-01-01T02:07:04.000Z</time></trkpt><trkpt lat="51.808624" lon="39.532384"><ele>148.2</ele><time>1970-01-01T02:07:05.000Z</time></trkpt><trkpt lat="51.808614" lon="39.532467"><ele>148.7</ele><time>1970-01-01T02:07:08.000Z</time></trkpt><trkpt lat="51.808605" lon="39.532521"><ele>149</ele><time>1970-01-01T02:07:10.000Z</time></trkpt><trkpt lat="51.808597" lon="39.532551"><ele>149.1</ele><time>1970-01-01T02:07:11.000Z</time></trkpt><trkpt lat="51.808592" lon="39.532586"><ele>149.3</ele><time>1970-01-01T02:07:12.000Z</time></trkpt><trkpt lat="51.808588" lon="39.532617"><ele>149.4</ele><time>1970-01-01T02:07:13.000Z</time></trkpt><trkpt lat="51.808582" lon="39.532651"><ele>149.4</ele><time>1970-01-01T02:07:14.000Z</time></trkpt><trkpt lat="51.808573" lon="39.532681"><ele>149.4</ele><time>1970-01-01T02:07:15.000Z</time></trkpt><trkpt lat="51.808563" lon="39.53271"><ele>149.4</ele><time>1970-01-01T02:07:16.000Z</time></trkpt><trkpt lat="51.808533" lon="39.532794"><ele>149.8</ele><time>1970-01-01T02:07:19.000Z</time></trkpt><trkpt lat="51.808528" lon="39.532826"><ele>150</ele><time>1970-01-01T02:07:20.000Z</time></trkpt><trkpt lat="51.808517" lon="39.532858"><ele>150.2</ele><time>1970-01-01T02:07:21.000Z</time></trkpt><trkpt lat="51.808505" lon="39.532891"><ele>150.4</ele><time>1970-01-01T02:07:22.000Z</time></trkpt><trkpt lat="51.808493" lon="39.532924"><ele>150.6</ele><time>1970-01-01T02:07:23.000Z</time></trkpt><trkpt lat="51.808481" lon="39.532958"><ele>150.9</ele><time>1970-01-01T02:07:24.000Z</time></trkpt><trkpt lat="51.808473" lon="39.53299"><ele>151.1</ele><time>1970-01-01T02:07:25.000Z</time></trkpt><trkpt lat="51.808464" lon="39.533019"><ele>151.2</ele><time>1970-01-01T02:07:26.000Z</time></trkpt><trkpt lat="51.80845" lon="39.533049"><ele>151.2</ele><time>1970-01-01T02:07:27.000Z</time></trkpt><trkpt lat="51.808437" lon="39.533073"><ele>151.2</ele><time>1970-01-01T02:07:28.000Z</time></trkpt><trkpt lat="51.808432" lon="39.5331"><ele>151.2</ele><time>1970-01-01T02:07:29.000Z</time></trkpt><trkpt lat="51.808429" lon="39.533129"><ele>151.3</ele><time>1970-01-01T02:07:30.000Z</time></trkpt><trkpt lat="51.808403" lon="39.533286"><ele>152.4</ele><time>1970-01-01T02:07:34.000Z</time></trkpt><trkpt lat="51.80839" lon="39.533325"><ele>152.6</ele><time>1970-01-01T02:07:35.000Z</time></trkpt><trkpt lat="51.808378" lon="39.533365"><ele>152.8</ele><time>1970-01-01T02:07:36.000Z</time></trkpt><trkpt lat="51.80837" lon="39.5334"><ele>153</ele><time>1970-01-01T02:07:37.000Z</time></trkpt><trkpt lat="51.80836" lon="39.533439"><ele>153</ele><time>1970-01-01T02:07:38.000Z</time></trkpt><trkpt lat="51.808348" lon="39.533482"><ele>153.1</ele><time>1970-01-01T02:07:39.000Z</time></trkpt><trkpt lat="51.808339" lon="39.533527"><ele>153.2</ele><time>1970-01-01T02:07:40.000Z</time></trkpt><trkpt lat="51.808324" lon="39.53357"><ele>153.2</ele><time>1970-01-01T02:07:41.000Z</time></trkpt><trkpt lat="51.808313" lon="39.533614"><ele>153.3</ele><time>1970-01-01T02:07:42.000Z</time></trkpt><trkpt lat="51.808303" lon="39.53366"><ele>153.4</ele><time>1970-01-01T02:07:43.000Z</time></trkpt><trkpt lat="51.808291" lon="39.533703"><ele>153.5</ele><time>1970-01-01T02:07:44.000Z</time></trkpt><trkpt lat="51.808253" lon="39.534136"><ele>155.3</ele><time>1970-01-01T02:07:56.000Z</time></trkpt><trkpt lat="51.808229" lon="39.534419"><ele>156.9</ele><time>1970-01-01T02:08:12.000Z</time></trkpt><trkpt lat="51.80823" lon="39.534525"><ele>157</ele><time>1970-01-01T02:08:19.000Z</time></trkpt><trkpt lat="51.808148" lon="39.534898"><ele>156.7</ele><time>1970-01-01T02:08:43.000Z</time></trkpt><trkpt lat="51.808044" lon="39.535357"><ele>155.6</ele><time>1970-01-01T02:08:54.000Z</time></trkpt><trkpt lat="51.807919" lon="39.535916"><ele>157.2</ele><time>1970-01-01T02:09:03.000Z</time></trkpt><trkpt lat="51.807898" lon="39.535986"><ele>157.5</ele><time>1970-01-01T02:09:04.000Z</time></trkpt><trkpt lat="51.807886" lon="39.536055"><ele>157.8</ele><time>1970-01-01T02:09:05.000Z</time></trkpt><trkpt lat="51.807869" lon="39.536123"><ele>158</ele><time>1970-01-01T02:09:06.000Z</time></trkpt><trkpt lat="51.807855" lon="39.53619"><ele>158.1</ele><time>1970-01-01T02:09:07.000Z</time></trkpt><trkpt lat="51.80785" lon="39.536249"><ele>158.2</ele><time>1970-01-01T02:09:08.000Z</time></trkpt><trkpt lat="51.807842" lon="39.536302"><ele>158.3</ele><time>1970-01-01T02:09:09.000Z</time></trkpt><trkpt lat="51.807835" lon="39.536362"><ele>158.4</ele><time>1970-01-01T02:09:10.000Z</time></trkpt><trkpt lat="51.807823" lon="39.53643"><ele>158.5</ele><time>1970-01-01T02:09:11.000Z</time></trkpt><trkpt lat="51.807812" lon="39.536495"><ele>158.4</ele><time>1970-01-01T02:09:12.000Z</time></trkpt><trkpt lat="51.807802" lon="39.536565"><ele>158.1</ele><time>1970-01-01T02:09:13.000Z</time></trkpt><trkpt lat="51.80779" lon="39.536637"><ele>157.8</ele><time>1970-01-01T02:09:14.000Z</time></trkpt><trkpt lat="51.807628" lon="39.537368"><ele>155.7</ele><time>1970-01-01T02:09:25.000Z</time></trkpt><trkpt lat="51.80753" lon="39.537819"><ele>155</ele><time>1970-01-01T02:09:34.000Z</time></trkpt><trkpt lat="51.807526" lon="39.537867"><ele>155</ele><time>1970-01-01T02:09:35.000Z</time></trkpt><trkpt lat="51.807517" lon="39.537912"><ele>154.8</ele><time>1970-01-01T02:09:36.000Z</time></trkpt><trkpt lat="51.807514" lon="39.537951"><ele>154.7</ele><time>1970-01-01T02:09:37.000Z</time></trkpt><trkpt lat="51.807513" lon="39.537994"><ele>154.5</ele><time>1970-01-01T02:09:38.000Z</time></trkpt><trkpt lat="51.807504" lon="39.538033"><ele>154.3</ele><time>1970-01-01T02:09:39.000Z</time></trkpt><trkpt lat="51.807345" lon="39.53864"><ele>154.4</ele><time>1970-01-01T02:09:51.000Z</time></trkpt><trkpt lat="51.807249" lon="39.539138"><ele>154.5</ele><time>1970-01-01T02:10:00.000Z</time></trkpt><trkpt lat="51.807256" lon="39.539257"><ele>154.7</ele><time>1970-01-01T02:10:04.000Z</time></trkpt><trkpt lat="51.807257" lon="39.539285"><ele>154.8</ele><time>1970-01-01T02:10:05.000Z</time></trkpt><trkpt lat="51.807256" lon="39.539318"><ele>154.8</ele><time>1970-01-01T02:10:06.000Z</time></trkpt><trkpt lat="51.807255" lon="39.539357"><ele>154.9</ele><time>1970-01-01T02:10:07.000Z</time></trkpt><trkpt lat="51.80725" lon="39.539394"><ele>154.9</ele><time>1970-01-01T02:10:08.000Z</time></trkpt><trkpt lat="51.807246" lon="39.539433"><ele>154.8</ele><time>1970-01-01T02:10:09.000Z</time></trkpt><trkpt lat="51.807242" lon="39.539473"><ele>154.7</ele><time>1970-01-01T02:10:10.000Z</time></trkpt><trkpt lat="51.807117" lon="39.540084"><ele>155.8</ele><time>1970-01-01T02:10:24.000Z</time></trkpt><trkpt lat="51.807111" lon="39.540111"><ele>156</ele><time>1970-01-01T02:10:28.000Z</time></trkpt><trkpt lat="51.807019" lon="39.54079"><ele>158.6</ele><time>1970-01-01T02:11:14.000Z</time></trkpt><trkpt lat="51.806897" lon="39.541268"><ele>159.4</ele><time>1970-01-01T02:11:25.000Z</time></trkpt><trkpt lat="51.806873" lon="39.541342"><ele>159.3</ele><time>1970-01-01T02:11:27.000Z</time></trkpt><trkpt lat="51.806856" lon="39.541365"><ele>159.2</ele><time>1970-01-01T02:11:28.000Z</time></trkpt><trkpt lat="51.806844" lon="39.541385"><ele>159.2</ele><time>1970-01-01T02:11:29.000Z</time></trkpt><trkpt lat="51.80679" lon="39.541462"><ele>159</ele><time>1970-01-01T02:11:34.000Z</time></trkpt><trkpt lat="51.806746" lon="39.541531"><ele>158.7</ele><time>1970-01-01T02:11:37.000Z</time></trkpt><trkpt lat="51.806735" lon="39.541556"><ele>158.5</ele><time>1970-01-01T02:11:38.000Z</time></trkpt><trkpt lat="51.80673" lon="39.541583"><ele>158.4</ele><time>1970-01-01T02:11:39.000Z</time></trkpt><trkpt lat="51.80673" lon="39.541612"><ele>158.2</ele><time>1970-01-01T02:11:40.000Z</time></trkpt><trkpt lat="51.80674" lon="39.541636"><ele>158</ele><time>1970-01-01T02:11:41.000Z</time></trkpt><trkpt lat="51.806757" lon="39.541655"><ele>158.2</ele><time>1970-01-01T02:11:42.000Z</time></trkpt><trkpt lat="51.806773" lon="39.541669"><ele>158.3</ele><time>1970-01-01T02:11:43.000Z</time></trkpt><trkpt lat="51.806793" lon="39.541681"><ele>158.5</ele><time>1970-01-01T02:11:44.000Z</time></trkpt><trkpt lat="51.806815" lon="39.541691"><ele>158.7</ele><time>1970-01-01T02:11:45.000Z</time></trkpt><trkpt lat="51.80684" lon="39.541699"><ele>158.8</ele><time>1970-01-01T02:11:46.000Z</time></trkpt><trkpt lat="51.807255" lon="39.541864"><ele>159.9</ele><time>1970-01-01T02:11:57.000Z</time></trkpt><trkpt lat="51.807646" lon="39.542052"><ele>160.9</ele><time>1970-01-01T02:12:07.000Z</time></trkpt><trkpt lat="51.807891" lon="39.542167"><ele>161</ele><time>1970-01-01T02:12:16.000Z</time></trkpt><trkpt lat="51.8079" lon="39.542168"><ele>161</ele><time>1970-01-01T02:12:19.000Z</time></trkpt><trkpt lat="51.808051" lon="39.542225"><ele>161.1</ele><time>1970-01-01T02:12:38.000Z</time></trkpt><trkpt lat="51.808085" lon="39.542241"><ele>161.1</ele><time>1970-01-01T02:12:39.000Z</time></trkpt><trkpt lat="51.808114" lon="39.542262"><ele>160.9</ele><time>1970-01-01T02:12:40.000Z</time></trkpt><trkpt lat="51.808144" lon="39.542285"><ele>160.7</ele><time>1970-01-01T02:12:41.000Z</time></trkpt><trkpt lat="51.808522" lon="39.542471"><ele>158.4</ele><time>1970-01-01T02:12:51.000Z</time></trkpt><trkpt lat="51.808727" lon="39.542609"><ele>156.9</ele><time>1970-01-01T02:12:56.000Z</time></trkpt><trkpt lat="51.808769" lon="39.542635"><ele>156.5</ele><time>1970-01-01T02:12:57.000Z</time></trkpt><trkpt lat="51.808804" lon="39.542658"><ele>156.5</ele><time>1970-01-01T02:12:58.000Z</time></trkpt><trkpt lat="51.808836" lon="39.542681"><ele>156.4</ele><time>1970-01-01T02:12:59.000Z</time></trkpt><trkpt lat="51.808871" lon="39.542703"><ele>156.3</ele><time>1970-01-01T02:13:00.000Z</time></trkpt><trkpt lat="51.808911" lon="39.54272"><ele>156.1</ele><time>1970-01-01T02:13:01.000Z</time></trkpt><trkpt lat="51.808943" lon="39.542732"><ele>156</ele><time>1970-01-01T02:13:02.000Z</time></trkpt><trkpt lat="51.809122" lon="39.542741"><ele>155.5</ele><time>1970-01-01T02:13:12.000Z</time></trkpt><trkpt lat="51.809131" lon="39.542738"><ele>155.5</ele><time>1970-01-01T02:13:14.000Z</time></trkpt><trkpt lat="51.809308" lon="39.542873"><ele>156.1</ele><time>1970-01-01T02:13:27.000Z</time></trkpt><trkpt lat="51.809329" lon="39.542888"><ele>156</ele><time>1970-01-01T02:13:28.000Z</time></trkpt><trkpt lat="51.809617" lon="39.543007"><ele>155.9</ele><time>1970-01-01T02:13:38.000Z</time></trkpt><trkpt lat="51.809635" lon="39.543022"><ele>155.9</ele><time>1970-01-01T02:13:39.000Z</time></trkpt><trkpt lat="51.809645" lon="39.543043"><ele>155.9</ele><time>1970-01-01T02:13:40.000Z</time></trkpt><trkpt lat="51.809657" lon="39.543063"><ele>156</ele><time>1970-01-01T02:13:41.000Z</time></trkpt><trkpt lat="51.809711" lon="39.543113"><ele>156.3</ele><time>1970-01-01T02:13:45.000Z</time></trkpt><trkpt lat="51.80973" lon="39.543117"><ele>156.4</ele><time>1970-01-01T02:13:46.000Z</time></trkpt><trkpt lat="51.809752" lon="39.543118"><ele>156.6</ele><time>1970-01-01T02:13:47.000Z</time></trkpt><trkpt lat="51.810148" lon="39.543291"><ele>156</ele><time>1970-01-01T02:13:56.000Z</time></trkpt><trkpt lat="51.810224" lon="39.543352"><ele>156</ele><time>1970-01-01T02:13:58.000Z</time></trkpt><trkpt lat="51.810603" lon="39.543594"><ele>156</ele><time>1970-01-01T02:14:08.000Z</time></trkpt><trkpt lat="51.810961" lon="39.543753"><ele>156.1</ele><time>1970-01-01T02:14:17.000Z</time></trkpt><trkpt lat="51.811446" lon="39.543973"><ele>156</ele><time>1970-01-01T02:14:28.000Z</time></trkpt><trkpt lat="51.811743" lon="39.544096"><ele>155.8</ele><time>1970-01-01T02:14:36.000Z</time></trkpt><trkpt lat="51.81204" lon="39.544234"><ele>155.3</ele><time>1970-01-01T02:14:46.000Z</time></trkpt><trkpt lat="51.812332" lon="39.544378"><ele>154.8</ele><time>1970-01-01T02:14:53.000Z</time></trkpt><trkpt lat="51.812375" lon="39.544404"><ele>154.6</ele><time>1970-01-01T02:14:54.000Z</time></trkpt><trkpt lat="51.812422" lon="39.544433"><ele>154.5</ele><time>1970-01-01T02:14:55.000Z</time></trkpt><trkpt lat="51.812471" lon="39.544464"><ele>154.5</ele><time>1970-01-01T02:14:56.000Z</time></trkpt><trkpt lat="51.812519" lon="39.544497"><ele>154.6</ele><time>1970-01-01T02:14:57.000Z</time></trkpt><trkpt lat="51.812936" lon="39.54474"><ele>153.1</ele><time>1970-01-01T02:15:07.000Z</time></trkpt><trkpt lat="51.81321" lon="39.544842"><ele>149.8</ele><time>1970-01-01T02:15:15.000Z</time></trkpt><trkpt lat="51.813236" lon="39.544877"><ele>149.5</ele><time>1970-01-01T02:15:18.000Z</time></trkpt><trkpt lat="51.813248" lon="39.544896"><ele>149.3</ele><time>1970-01-01T02:15:19.000Z</time></trkpt><trkpt lat="51.813259" lon="39.544924"><ele>149.1</ele><time>1970-01-01T02:15:20.000Z</time></trkpt><trkpt lat="51.813274" lon="39.544952"><ele>148.9</ele><time>1970-01-01T02:15:21.000Z</time></trkpt><trkpt lat="51.813284" lon="39.544974"><ele>148.8</ele><time>1970-01-01T02:15:22.000Z</time></trkpt><trkpt lat="51.81329" lon="39.544997"><ele>148.7</ele><time>1970-01-01T02:15:23.000Z</time></trkpt><trkpt lat="51.813297" lon="39.545023"><ele>148.5</ele><time>1970-01-01T02:15:24.000Z</time></trkpt><trkpt lat="51.813361" lon="39.545271"><ele>148.1</ele><time>1970-01-01T02:15:32.000Z</time></trkpt><trkpt lat="51.813359" lon="39.545317"><ele>148.1</ele><time>1970-01-01T02:15:33.000Z</time></trkpt><trkpt lat="51.813354" lon="39.545363"><ele>148.3</ele><time>1970-01-01T02:15:34.000Z</time></trkpt><trkpt lat="51.81335" lon="39.545418"><ele>148.5</ele><time>1970-01-01T02:15:35.000Z</time></trkpt><trkpt lat="51.813343" lon="39.545474"><ele>148.7</ele><time>1970-01-01T02:15:36.000Z</time></trkpt><trkpt lat="51.813338" lon="39.545533"><ele>149</ele><time>1970-01-01T02:15:37.000Z</time></trkpt><trkpt lat="51.813286" lon="39.546233"><ele>152</ele><time>1970-01-01T02:15:48.000Z</time></trkpt><trkpt lat="51.813337" lon="39.546515"><ele>154.5</ele><time>1970-01-01T02:15:52.000Z</time></trkpt><trkpt lat="51.813333" lon="39.546587"><ele>155.2</ele><time>1970-01-01T02:15:53.000Z</time></trkpt><trkpt lat="51.813262" lon="39.547172"><ele>157.7</ele><time>1970-01-01T02:16:01.000Z</time></trkpt><trkpt lat="51.813241" lon="39.547233"><ele>157.9</ele><time>1970-01-01T02:16:02.000Z</time></trkpt><trkpt lat="51.813218" lon="39.547289"><ele>157.8</ele><time>1970-01-01T02:16:03.000Z</time></trkpt><trkpt lat="51.813199" lon="39.547347"><ele>157.9</ele><time>1970-01-01T02:16:04.000Z</time></trkpt><trkpt lat="51.813185" lon="39.54741"><ele>158.1</ele><time>1970-01-01T02:16:05.000Z</time></trkpt><trkpt lat="51.813127" lon="39.547655"><ele>158.8</ele><time>1970-01-01T02:16:09.000Z</time></trkpt><trkpt lat="51.813115" lon="39.547722"><ele>158.9</ele><time>1970-01-01T02:16:10.000Z</time></trkpt><trkpt lat="51.813104" lon="39.547792"><ele>159</ele><time>1970-01-01T02:16:11.000Z</time></trkpt><trkpt lat="51.813089" lon="39.547932"><ele>158.9</ele><time>1970-01-01T02:16:13.000Z</time></trkpt><trkpt lat="51.813081" lon="39.547999"><ele>158.8</ele><time>1970-01-01T02:16:14.000Z</time></trkpt><trkpt lat="51.813076" lon="39.548064"><ele>158.7</ele><time>1970-01-01T02:16:15.000Z</time></trkpt><trkpt lat="51.813075" lon="39.548206"><ele>159</ele><time>1970-01-01T02:16:17.000Z</time></trkpt><trkpt lat="51.813075" lon="39.548557"><ele>160.1</ele><time>1970-01-01T02:16:22.000Z</time></trkpt><trkpt lat="51.813048" lon="39.54876"><ele>160.8</ele><time>1970-01-01T02:16:25.000Z</time></trkpt><trkpt lat="51.813048" lon="39.54883"><ele>160.8</ele><time>1970-01-01T02:16:26.000Z</time></trkpt><trkpt lat="51.813047" lon="39.548899"><ele>160.7</ele><time>1970-01-01T02:16:27.000Z</time></trkpt><trkpt lat="51.813046" lon="39.548969"><ele>160.8</ele><time>1970-01-01T02:16:28.000Z</time></trkpt><trkpt lat="51.813048" lon="39.549037"><ele>160.9</ele><time>1970-01-01T02:16:29.000Z</time></trkpt><trkpt lat="51.813057" lon="39.549245"><ele>160.5</ele><time>1970-01-01T02:16:32.000Z</time></trkpt><trkpt lat="51.813053" lon="39.549314"><ele>159.8</ele><time>1970-01-01T02:16:33.000Z</time></trkpt><trkpt lat="51.813028" lon="39.54951"><ele>158.8</ele><time>1970-01-01T02:16:36.000Z</time></trkpt><trkpt lat="51.813007" lon="39.549561"><ele>158.4</ele><time>1970-01-01T02:16:37.000Z</time></trkpt><trkpt lat="51.812986" lon="39.549611"><ele>158</ele><time>1970-01-01T02:16:38.000Z</time></trkpt><trkpt lat="51.812972" lon="39.549667"><ele>157.7</ele><time>1970-01-01T02:16:39.000Z</time></trkpt><trkpt lat="51.812964" lon="39.549723"><ele>157.8</ele><time>1970-01-01T02:16:40.000Z</time></trkpt><trkpt lat="51.812957" lon="39.549783"><ele>157.8</ele><time>1970-01-01T02:16:41.000Z</time></trkpt><trkpt lat="51.812952" lon="39.549922"><ele>157.5</ele><time>1970-01-01T02:16:43.000Z</time></trkpt><trkpt lat="51.812951" lon="39.549992"><ele>157</ele><time>1970-01-01T02:16:44.000Z</time></trkpt><trkpt lat="51.81291" lon="39.550506"><ele>156.6</ele><time>1970-01-01T02:16:52.000Z</time></trkpt><trkpt lat="51.81286" lon="39.550939"><ele>158.2</ele><time>1970-01-01T02:16:58.000Z</time></trkpt><trkpt lat="51.812759" lon="39.551576"><ele>158.6</ele><time>1970-01-01T02:17:09.000Z</time></trkpt><trkpt lat="51.812757" lon="39.552246"><ele>156.9</ele><time>1970-01-01T02:17:21.000Z</time></trkpt><trkpt lat="51.81277" lon="39.552381"><ele>156.4</ele><time>1970-01-01T02:17:23.000Z</time></trkpt><trkpt lat="51.81277" lon="39.552526"><ele>156</ele><time>1970-01-01T02:17:25.000Z</time></trkpt><trkpt lat="51.812757" lon="39.552593"><ele>155.8</ele><time>1970-01-01T02:17:26.000Z</time></trkpt><trkpt lat="51.812741" lon="39.55266"><ele>155.8</ele><time>1970-01-01T02:17:27.000Z</time></trkpt><trkpt lat="51.812576" lon="39.553468"><ele>157.6</ele><time>1970-01-01T02:17:39.000Z</time></trkpt><trkpt lat="51.812554" lon="39.553528"><ele>158.1</ele><time>1970-01-01T02:17:40.000Z</time></trkpt><trkpt lat="51.812539" lon="39.553582"><ele>158.3</ele><time>1970-01-01T02:17:41.000Z</time></trkpt><trkpt lat="51.812531" lon="39.553642"><ele>158.6</ele><time>1970-01-01T02:17:42.000Z</time></trkpt><trkpt lat="51.812521" lon="39.553703"><ele>158.6</ele><time>1970-01-01T02:17:43.000Z</time></trkpt><trkpt lat="51.812511" lon="39.553764"><ele>158.6</ele><time>1970-01-01T02:17:44.000Z</time></trkpt><trkpt lat="51.812394" lon="39.554241"><ele>159</ele><time>1970-01-01T02:17:53.000Z</time></trkpt><trkpt lat="51.812411" lon="39.554284"><ele>159.1</ele><time>1970-01-01T02:17:54.000Z</time></trkpt><trkpt lat="51.812434" lon="39.554328"><ele>159.1</ele><time>1970-01-01T02:17:55.000Z</time></trkpt><trkpt lat="51.812461" lon="39.554364"><ele>159.1</ele><time>1970-01-01T02:17:56.000Z</time></trkpt><trkpt lat="51.81249" lon="39.554398"><ele>159.1</ele><time>1970-01-01T02:17:57.000Z</time></trkpt><trkpt lat="51.81251" lon="39.55443"><ele>159.1</ele><time>1970-01-01T02:17:58.000Z</time></trkpt><trkpt lat="51.81252" lon="39.554457"><ele>159.1</ele><time>1970-01-01T02:17:59.000Z</time></trkpt><trkpt lat="51.812521" lon="39.554481"><ele>159</ele><time>1970-01-01T02:18:00.000Z</time></trkpt><trkpt lat="51.812516" lon="39.554505"><ele>159</ele><time>1970-01-01T02:18:01.000Z</time></trkpt><trkpt lat="51.81251" lon="39.554531"><ele>159</ele><time>1970-01-01T02:18:02.000Z</time></trkpt><trkpt lat="51.812503" lon="39.554566"><ele>159</ele><time>1970-01-01T02:18:03.000Z</time></trkpt><trkpt lat="51.812497" lon="39.554608"><ele>159.1</ele><time>1970-01-01T02:18:04.000Z</time></trkpt><trkpt lat="51.812496" lon="39.554651"><ele>159.1</ele><time>1970-01-01T02:18:05.000Z</time></trkpt><trkpt lat="51.812496" lon="39.554696"><ele>159</ele><time>1970-01-01T02:18:06.000Z</time></trkpt><trkpt lat="51.812494" lon="39.55521"><ele>158.1</ele><time>1970-01-01T02:18:17.000Z</time></trkpt><trkpt lat="51.8125" lon="39.555711"><ele>158.3</ele><time>1970-01-01T02:18:26.000Z</time></trkpt><trkpt lat="51.81252" lon="39.555909"><ele>159.1</ele><time>1970-01-01T02:18:30.000Z</time></trkpt><trkpt lat="51.812514" lon="39.555945"><ele>159.2</ele><time>1970-01-01T02:18:31.000Z</time></trkpt><trkpt lat="51.812514" lon="39.555979"><ele>159.2</ele><time>1970-01-01T02:18:32.000Z</time></trkpt><trkpt lat="51.812516" lon="39.556018"><ele>159.1</ele><time>1970-01-01T02:18:33.000Z</time></trkpt><trkpt lat="51.812512" lon="39.556058"><ele>159.1</ele><time>1970-01-01T02:18:34.000Z</time></trkpt><trkpt lat="51.812512" lon="39.556104"><ele>159.1</ele><time>1970-01-01T02:18:35.000Z</time></trkpt><trkpt lat="51.812513" lon="39.556153"><ele>159</ele><time>1970-01-01T02:18:36.000Z</time></trkpt><trkpt lat="51.812513" lon="39.5562"><ele>159</ele><time>1970-01-01T02:18:37.000Z</time></trkpt><trkpt lat="51.81251" lon="39.556246"><ele>158.9</ele><time>1970-01-01T02:18:38.000Z</time></trkpt><trkpt lat="51.812511" lon="39.556294"><ele>159</ele><time>1970-01-01T02:18:39.000Z</time></trkpt><trkpt lat="51.812517" lon="39.556343"><ele>159</ele><time>1970-01-01T02:18:40.000Z</time></trkpt><trkpt lat="51.812521" lon="39.556391"><ele>159.1</ele><time>1970-01-01T02:18:41.000Z</time></trkpt><trkpt lat="51.812521" lon="39.556437"><ele>159.4</ele><time>1970-01-01T02:18:42.000Z</time></trkpt><trkpt lat="51.812522" lon="39.556484"><ele>159.7</ele><time>1970-01-01T02:18:43.000Z</time></trkpt><trkpt lat="51.812525" lon="39.556534"><ele>160</ele><time>1970-01-01T02:18:44.000Z</time></trkpt><trkpt lat="51.812531" lon="39.556586"><ele>160</ele><time>1970-01-01T02:18:45.000Z</time></trkpt><trkpt lat="51.812538" lon="39.556643"><ele>160</ele><time>1970-01-01T02:18:46.000Z</time></trkpt><trkpt lat="51.812539" lon="39.556699"><ele>160</ele><time>1970-01-01T02:18:47.000Z</time></trkpt><trkpt lat="51.812536" lon="39.556753"><ele>160</ele><time>1970-01-01T02:18:48.000Z</time></trkpt><trkpt lat="51.812535" lon="39.556807"><ele>160</ele><time>1970-01-01T02:18:49.000Z</time></trkpt><trkpt lat="51.81254" lon="39.556859"><ele>160</ele><time>1970-01-01T02:18:50.000Z</time></trkpt><trkpt lat="51.812551" lon="39.556911"><ele>160</ele><time>1970-01-01T02:18:51.000Z</time></trkpt><trkpt lat="51.812563" lon="39.556963"><ele>160</ele><time>1970-01-01T02:18:52.000Z</time></trkpt><trkpt lat="51.812571" lon="39.55702"><ele>160</ele><time>1970-01-01T02:18:53.000Z</time></trkpt><trkpt lat="51.812602" lon="39.557424"><ele>160.1</ele><time>1970-01-01T02:18:59.000Z</time></trkpt><trkpt lat="51.812599" lon="39.557496"><ele>160.5</ele><time>1970-01-01T02:19:00.000Z</time></trkpt><trkpt lat="51.812591" lon="39.557568"><ele>160.8</ele><time>1970-01-01T02:19:01.000Z</time></trkpt><trkpt lat="51.812578" lon="39.557636"><ele>161</ele><time>1970-01-01T02:19:02.000Z</time></trkpt><trkpt lat="51.812563" lon="39.5577"><ele>161</ele><time>1970-01-01T02:19:03.000Z</time></trkpt><trkpt lat="51.812549" lon="39.557764"><ele>161</ele><time>1970-01-01T02:19:04.000Z</time></trkpt><trkpt lat="51.812537" lon="39.557829"><ele>161</ele><time>1970-01-01T02:19:05.000Z</time></trkpt><trkpt lat="51.812523" lon="39.557895"><ele>161</ele><time>1970-01-01T02:19:06.000Z</time></trkpt><trkpt lat="51.812502" lon="39.557953"><ele>161</ele><time>1970-01-01T02:19:07.000Z</time></trkpt><trkpt lat="51.812483" lon="39.558006"><ele>161</ele><time>1970-01-01T02:19:08.000Z</time></trkpt><trkpt lat="51.81246" lon="39.558057"><ele>160.9</ele><time>1970-01-01T02:19:09.000Z</time></trkpt><trkpt lat="51.812445" lon="39.558109"><ele>160.8</ele><time>1970-01-01T02:19:10.000Z</time></trkpt><trkpt lat="51.812442" lon="39.558169"><ele>160.4</ele><time>1970-01-01T02:19:11.000Z</time></trkpt><trkpt lat="51.812441" lon="39.558232"><ele>160</ele><time>1970-01-01T02:19:12.000Z</time></trkpt><trkpt lat="51.81244" lon="39.5583"><ele>160</ele><time>1970-01-01T02:19:13.000Z</time></trkpt><trkpt lat="51.812435" lon="39.558371"><ele>159.9</ele><time>1970-01-01T02:19:14.000Z</time></trkpt><trkpt lat="51.812426" lon="39.558442"><ele>160</ele><time>1970-01-01T02:19:15.000Z</time></trkpt><trkpt lat="51.812418" lon="39.558505"><ele>160</ele><time>1970-01-01T02:19:16.000Z</time></trkpt><trkpt lat="51.812412" lon="39.558565"><ele>160</ele><time>1970-01-01T02:19:17.000Z</time></trkpt><trkpt lat="51.812405" lon="39.558634"><ele>159.9</ele><time>1970-01-01T02:19:18.000Z</time></trkpt><trkpt lat="51.812398" lon="39.5587"><ele>159.9</ele><time>1970-01-01T02:19:19.000Z</time></trkpt><trkpt lat="51.812398" lon="39.558762"><ele>160</ele><time>1970-01-01T02:19:20.000Z</time></trkpt><trkpt lat="51.812402" lon="39.558825"><ele>160</ele><time>1970-01-01T02:19:21.000Z</time></trkpt><trkpt lat="51.812407" lon="39.558886"><ele>160.5</ele><time>1970-01-01T02:19:22.000Z</time></trkpt><trkpt lat="51.812413" lon="39.558946"><ele>160.9</ele><time>1970-01-01T02:19:23.000Z</time></trkpt><trkpt lat="51.812438" lon="39.559634"><ele>160.1</ele><time>1970-01-01T02:19:34.000Z</time></trkpt><trkpt lat="51.812457" lon="39.560134"><ele>159.1</ele><time>1970-01-01T02:19:42.000Z</time></trkpt><trkpt lat="51.812449" lon="39.560201"><ele>159.1</ele><time>1970-01-01T02:19:43.000Z</time></trkpt><trkpt lat="51.812435" lon="39.560267"><ele>159.1</ele><time>1970-01-01T02:19:44.000Z</time></trkpt><trkpt lat="51.812422" lon="39.560331"><ele>159.1</ele><time>1970-01-01T02:19:45.000Z</time></trkpt><trkpt lat="51.812415" lon="39.560393"><ele>159</ele><time>1970-01-01T02:19:46.000Z</time></trkpt><trkpt lat="51.812406" lon="39.560447"><ele>158.8</ele><time>1970-01-01T02:19:47.000Z</time></trkpt><trkpt lat="51.812403" lon="39.560501"><ele>158.9</ele><time>1970-01-01T02:19:48.000Z</time></trkpt><trkpt lat="51.812405" lon="39.560556"><ele>159</ele><time>1970-01-01T02:19:49.000Z</time></trkpt><trkpt lat="51.812406" lon="39.560614"><ele>159.1</ele><time>1970-01-01T02:19:50.000Z</time></trkpt><trkpt lat="51.812411" lon="39.560663"><ele>159.4</ele><time>1970-01-01T02:19:51.000Z</time></trkpt><trkpt lat="51.812467" lon="39.560812"><ele>160</ele><time>1970-01-01T02:19:55.000Z</time></trkpt><trkpt lat="51.812504" lon="39.560833"><ele>160</ele><time>1970-01-01T02:19:56.000Z</time></trkpt><trkpt lat="51.812542" lon="39.560852"><ele>160</ele><time>1970-01-01T02:19:57.000Z</time></trkpt><trkpt lat="51.812579" lon="39.560868"><ele>160.2</ele><time>1970-01-01T02:19:58.000Z</time></trkpt><trkpt lat="51.812614" lon="39.560878"><ele>160.4</ele><time>1970-01-01T02:19:59.000Z</time></trkpt><trkpt lat="51.812651" lon="39.560893"><ele>160.6</ele><time>1970-01-01T02:20:00.000Z</time></trkpt><trkpt lat="51.813022" lon="39.561073"><ele>162.3</ele><time>1970-01-01T02:20:09.000Z</time></trkpt><trkpt lat="51.813053" lon="39.561108"><ele>162.2</ele><time>1970-01-01T02:20:10.000Z</time></trkpt><trkpt lat="51.813072" lon="39.561156"><ele>162.1</ele><time>1970-01-01T02:20:11.000Z</time></trkpt><trkpt lat="51.813085" lon="39.561215"><ele>162.1</ele><time>1970-01-01T02:20:12.000Z</time></trkpt><trkpt lat="51.813088" lon="39.561278"><ele>162.1</ele><time>1970-01-01T02:20:13.000Z</time></trkpt><trkpt lat="51.813084" lon="39.561343"><ele>162.1</ele><time>1970-01-01T02:20:14.000Z</time></trkpt><trkpt lat="51.813072" lon="39.561548"><ele>162.6</ele><time>1970-01-01T02:20:17.000Z</time></trkpt><trkpt lat="51.813066" lon="39.561618"><ele>162.9</ele><time>1970-01-01T02:20:18.000Z</time></trkpt><trkpt lat="51.813053" lon="39.561757"><ele>162.9</ele><time>1970-01-01T02:20:20.000Z</time></trkpt><trkpt lat="51.81303" lon="39.561891"><ele>162.8</ele><time>1970-01-01T02:20:22.000Z</time></trkpt><trkpt lat="51.81302" lon="39.561956"><ele>162.7</ele><time>1970-01-01T02:20:23.000Z</time></trkpt><trkpt lat="51.81301" lon="39.562019"><ele>162.6</ele><time>1970-01-01T02:20:24.000Z</time></trkpt><trkpt lat="51.812918" lon="39.562405"><ele>161.7</ele><time>1970-01-01T02:20:31.000Z</time></trkpt><trkpt lat="51.812897" lon="39.562438"><ele>161.4</ele><time>1970-01-01T02:20:32.000Z</time></trkpt><trkpt lat="51.812877" lon="39.562478"><ele>161.2</ele><time>1970-01-01T02:20:33.000Z</time></trkpt><trkpt lat="51.812855" lon="39.562524"><ele>160.9</ele><time>1970-01-01T02:20:34.000Z</time></trkpt><trkpt lat="51.812836" lon="39.562578"><ele>160.6</ele><time>1970-01-01T02:20:35.000Z</time></trkpt><trkpt lat="51.812814" lon="39.562643"><ele>160.2</ele><time>1970-01-01T02:20:36.000Z</time></trkpt><trkpt lat="51.812797" lon="39.562713"><ele>159.8</ele><time>1970-01-01T02:20:37.000Z</time></trkpt><trkpt lat="51.812777" lon="39.562781"><ele>159.3</ele><time>1970-01-01T02:20:38.000Z</time></trkpt><trkpt lat="51.812752" lon="39.562841"><ele>158.8</ele><time>1970-01-01T02:20:39.000Z</time></trkpt><trkpt lat="51.81273" lon="39.562888"><ele>158.5</ele><time>1970-01-01T02:20:40.000Z</time></trkpt><trkpt lat="51.812711" lon="39.562938"><ele>158.3</ele><time>1970-01-01T02:20:41.000Z</time></trkpt><trkpt lat="51.812696" lon="39.562997"><ele>158.1</ele><time>1970-01-01T02:20:42.000Z</time></trkpt><trkpt lat="51.81249" lon="39.563679"><ele>156.6</ele><time>1970-01-01T02:20:53.000Z</time></trkpt><trkpt lat="51.812429" lon="39.563843"><ele>157.1</ele><time>1970-01-01T02:20:56.000Z</time></trkpt><trkpt lat="51.812281" lon="39.564256"><ele>156.9</ele><time>1970-01-01T02:21:02.000Z</time></trkpt><trkpt lat="51.812246" lon="39.564302"><ele>157</ele><time>1970-01-01T02:21:03.000Z</time></trkpt><trkpt lat="51.812218" lon="39.564342"><ele>157</ele><time>1970-01-01T02:21:04.000Z</time></trkpt><trkpt lat="51.81219" lon="39.564391"><ele>156.9</ele><time>1970-01-01T02:21:05.000Z</time></trkpt><trkpt lat="51.812165" lon="39.564442"><ele>156.9</ele><time>1970-01-01T02:21:06.000Z</time></trkpt><trkpt lat="51.812134" lon="39.564511"><ele>157</ele><time>1970-01-01T02:21:07.000Z</time></trkpt><trkpt lat="51.811957" lon="39.564964"><ele>158.1</ele><time>1970-01-01T02:21:13.000Z</time></trkpt><trkpt lat="51.811915" lon="39.565109"><ele>158.3</ele><time>1970-01-01T02:21:15.000Z</time></trkpt><trkpt lat="51.811899" lon="39.565185"><ele>158.4</ele><time>1970-01-01T02:21:16.000Z</time></trkpt><trkpt lat="51.811842" lon="39.565505"><ele>157.9</ele><time>1970-01-01T02:21:20.000Z</time></trkpt><trkpt lat="51.811727" lon="39.566253"><ele>157.8</ele><time>1970-01-01T02:21:31.000Z</time></trkpt><trkpt lat="51.811831" lon="39.566941"><ele>157.9</ele><time>1970-01-01T02:21:43.000Z</time></trkpt><trkpt lat="51.811856" lon="39.567005"><ele>157.6</ele><time>1970-01-01T02:21:44.000Z</time></trkpt><trkpt lat="51.811885" lon="39.567067"><ele>157.3</ele><time>1970-01-01T02:21:45.000Z</time></trkpt><trkpt lat="51.811907" lon="39.567131"><ele>157.1</ele><time>1970-01-01T02:21:46.000Z</time></trkpt><trkpt lat="51.811925" lon="39.567203"><ele>157</ele><time>1970-01-01T02:21:47.000Z</time></trkpt><trkpt lat="51.811938" lon="39.567283"><ele>157</ele><time>1970-01-01T02:21:48.000Z</time></trkpt><trkpt lat="51.811954" lon="39.567365"><ele>156.6</ele><time>1970-01-01T02:21:49.000Z</time></trkpt><trkpt lat="51.812099" lon="39.56789"><ele>156.2</ele><time>1970-01-01T02:21:56.000Z</time></trkpt><trkpt lat="51.812104" lon="39.567962"><ele>155.9</ele><time>1970-01-01T02:21:57.000Z</time></trkpt><trkpt lat="51.812106" lon="39.568036"><ele>155.6</ele><time>1970-01-01T02:21:58.000Z</time></trkpt><trkpt lat="51.812109" lon="39.568112"><ele>155.3</ele><time>1970-01-01T02:21:59.000Z</time></trkpt><trkpt lat="51.812116" lon="39.568184"><ele>155.2</ele><time>1970-01-01T02:22:00.000Z</time></trkpt><trkpt lat="51.812128" lon="39.56825"><ele>155.2</ele><time>1970-01-01T02:22:01.000Z</time></trkpt><trkpt lat="51.812147" lon="39.568308"><ele>155.2</ele><time>1970-01-01T02:22:02.000Z</time></trkpt><trkpt lat="51.812168" lon="39.568366"><ele>155.1</ele><time>1970-01-01T02:22:03.000Z</time></trkpt><trkpt lat="51.812193" lon="39.568427"><ele>155</ele><time>1970-01-01T02:22:04.000Z</time></trkpt><trkpt lat="51.812516" lon="39.569454"><ele>157.9</ele><time>1970-01-01T02:22:18.000Z</time></trkpt><trkpt lat="51.812962" lon="39.570788"><ele>153</ele><time>1970-01-01T02:22:37.000Z</time></trkpt><trkpt lat="51.813535" lon="39.571723"><ele>153</ele><time>1970-01-01T02:22:54.000Z</time></trkpt><trkpt lat="51.8142" lon="39.572312"><ele>151.9</ele><time>1970-01-01T02:23:10.000Z</time></trkpt><trkpt lat="51.815014" lon="39.572724"><ele>152.6</ele><time>1970-01-01T02:23:28.000Z</time></trkpt><trkpt lat="51.815754" lon="39.572954"><ele>154.6</ele><time>1970-01-01T02:23:46.000Z</time></trkpt><trkpt lat="51.815774" lon="39.573002"><ele>154.6</ele><time>1970-01-01T02:23:47.000Z</time></trkpt><trkpt lat="51.815785" lon="39.573058"><ele>154.2</ele><time>1970-01-01T02:23:48.000Z</time></trkpt><trkpt lat="51.815788" lon="39.573114"><ele>154</ele><time>1970-01-01T02:23:49.000Z</time></trkpt><trkpt lat="51.815786" lon="39.573166"><ele>153.9</ele><time>1970-01-01T02:23:50.000Z</time></trkpt><trkpt lat="51.815773" lon="39.573342"><ele>153.5</ele><time>1970-01-01T02:23:59.000Z</time></trkpt><trkpt lat="51.815822" lon="39.573395"><ele>153.3</ele><time>1970-01-01T02:25:12.000Z</time></trkpt><trkpt lat="51.815821" lon="39.573412"><ele>153.3</ele><time>1970-01-01T02:25:13.000Z</time></trkpt><trkpt lat="51.815815" lon="39.573429"><ele>153.3</ele><time>1970-01-01T02:25:14.000Z</time></trkpt><trkpt lat="51.815781" lon="39.573447"><ele>153.1</ele><time>1970-01-01T02:25:21.000Z</time></trkpt><trkpt lat="51.815746" lon="39.57361"><ele>153</ele><time>1970-01-01T02:25:41.000Z</time></trkpt><trkpt lat="51.815737" lon="39.573653"><ele>153</ele><time>1970-01-01T02:25:42.000Z</time></trkpt><trkpt lat="51.815729" lon="39.57369"><ele>153</ele><time>1970-01-01T02:25:43.000Z</time></trkpt><trkpt lat="51.815726" lon="39.573721"><ele>153</ele><time>1970-01-01T02:25:44.000Z</time></trkpt><trkpt lat="51.815729" lon="39.573755"><ele>153</ele><time>1970-01-01T02:25:45.000Z</time></trkpt><trkpt lat="51.815731" lon="39.573803"><ele>153</ele><time>1970-01-01T02:25:46.000Z</time></trkpt><trkpt lat="51.815743" lon="39.57393"><ele>153</ele><time>1970-01-01T02:25:48.000Z</time></trkpt><trkpt lat="51.815759" lon="39.573993"><ele>153</ele><time>1970-01-01T02:25:49.000Z</time></trkpt><trkpt lat="51.815781" lon="39.574043"><ele>153.1</ele><time>1970-01-01T02:25:50.000Z</time></trkpt><trkpt lat="51.815805" lon="39.574079"><ele>153.2</ele><time>1970-01-01T02:25:51.000Z</time></trkpt><trkpt lat="51.815826" lon="39.574104"><ele>153.3</ele><time>1970-01-01T02:25:52.000Z</time></trkpt><trkpt lat="51.816043" lon="39.574121"><ele>154</ele><time>1970-01-01T02:26:01.000Z</time></trkpt><trkpt lat="51.81608" lon="39.574091"><ele>153.9</ele><time>1970-01-01T02:26:02.000Z</time></trkpt><trkpt lat="51.816112" lon="39.574051"><ele>153.9</ele><time>1970-01-01T02:26:03.000Z</time></trkpt><trkpt lat="51.816145" lon="39.574013"><ele>153.9</ele><time>1970-01-01T02:26:04.000Z</time></trkpt><trkpt lat="51.816178" lon="39.573975"><ele>153.9</ele><time>1970-01-01T02:26:05.000Z</time></trkpt><trkpt lat="51.81621" lon="39.573937"><ele>153.9</ele><time>1970-01-01T02:26:06.000Z</time></trkpt><trkpt lat="51.816246" lon="39.573905"><ele>153.9</ele><time>1970-01-01T02:26:07.000Z</time></trkpt><trkpt lat="51.816284" lon="39.573878"><ele>153.8</ele><time>1970-01-01T02:26:08.000Z</time></trkpt><trkpt lat="51.816321" lon="39.573857"><ele>153.8</ele><time>1970-01-01T02:26:09.000Z</time></trkpt><trkpt lat="51.816358" lon="39.573838"><ele>153.7</ele><time>1970-01-01T02:26:10.000Z</time></trkpt><trkpt lat="51.816394" lon="39.573818"><ele>153.6</ele><time>1970-01-01T02:26:11.000Z</time></trkpt><trkpt lat="51.816434" lon="39.573805"><ele>153.7</ele><time>1970-01-01T02:26:12.000Z</time></trkpt><trkpt lat="51.816476" lon="39.573805"><ele>153.7</ele><time>1970-01-01T02:26:13.000Z</time></trkpt><trkpt lat="51.817223" lon="39.573946"><ele>153.6</ele><time>1970-01-01T02:26:30.000Z</time></trkpt><trkpt lat="51.817912" lon="39.574064"><ele>155</ele><time>1970-01-01T02:26:44.000Z</time></trkpt><trkpt lat="51.818594" lon="39.574178"><ele>156.1</ele><time>1970-01-01T02:26:58.000Z</time></trkpt><trkpt lat="51.819365" lon="39.574302"><ele>156</ele><time>1970-01-01T02:27:13.000Z</time></trkpt><trkpt lat="51.819414" lon="39.574314"><ele>156</ele><time>1970-01-01T02:27:14.000Z</time></trkpt><trkpt lat="51.819562" lon="39.57434"><ele>156</ele><time>1970-01-01T02:27:17.000Z</time></trkpt><trkpt lat="51.819753" lon="39.574345"><ele>156</ele><time>1970-01-01T02:27:21.000Z</time></trkpt><trkpt lat="51.8198" lon="39.574347"><ele>155.8</ele><time>1970-01-01T02:27:22.000Z</time></trkpt><trkpt lat="51.819844" lon="39.574351"><ele>155.5</ele><time>1970-01-01T02:27:23.000Z</time></trkpt><trkpt lat="51.819934" lon="39.574365"><ele>155.4</ele><time>1970-01-01T02:27:25.000Z</time></trkpt><trkpt lat="51.820026" lon="39.574387"><ele>155.4</ele><time>1970-01-01T02:27:27.000Z</time></trkpt><trkpt lat="51.820931" lon="39.57452"><ele>156.1</ele><time>1970-01-01T02:27:44.000Z</time></trkpt><trkpt lat="51.821357" lon="39.574614"><ele>157.1</ele><time>1970-01-01T02:27:52.000Z</time></trkpt><trkpt lat="51.821463" lon="39.574612"><ele>157.1</ele><time>1970-01-01T02:27:54.000Z</time></trkpt><trkpt lat="51.821516" lon="39.574619"><ele>157.1</ele><time>1970-01-01T02:27:55.000Z</time></trkpt><trkpt lat="51.82157" lon="39.574626"><ele>157.2</ele><time>1970-01-01T02:27:56.000Z</time></trkpt><trkpt lat="51.82162" lon="39.574648"><ele>157.2</ele><time>1970-01-01T02:27:57.000Z</time></trkpt><trkpt lat="51.821669" lon="39.574686"><ele>157.3</ele><time>1970-01-01T02:27:58.000Z</time></trkpt><trkpt lat="51.821714" lon="39.574737"><ele>157.4</ele><time>1970-01-01T02:27:59.000Z</time></trkpt><trkpt lat="51.821757" lon="39.574791"><ele>157.1</ele><time>1970-01-01T02:28:00.000Z</time></trkpt><trkpt lat="51.821801" lon="39.574839"><ele>156.6</ele><time>1970-01-01T02:28:01.000Z</time></trkpt><trkpt lat="51.821968" lon="39.575011"><ele>156.2</ele><time>1970-01-01T02:28:05.000Z</time></trkpt><trkpt lat="51.822001" lon="39.575043"><ele>156.2</ele><time>1970-01-01T02:28:06.000Z</time></trkpt><trkpt lat="51.822027" lon="39.575073"><ele>156.2</ele><time>1970-01-01T02:28:07.000Z</time></trkpt><trkpt lat="51.822054" lon="39.575093"><ele>156.2</ele><time>1970-01-01T02:28:08.000Z</time></trkpt><trkpt lat="51.822086" lon="39.575104"><ele>156.2</ele><time>1970-01-01T02:28:09.000Z</time></trkpt><trkpt lat="51.82212" lon="39.575111"><ele>156.2</ele><time>1970-01-01T02:28:10.000Z</time></trkpt><trkpt lat="51.822844" lon="39.575424"><ele>156</ele><time>1970-01-01T02:28:26.000Z</time></trkpt><trkpt lat="51.822947" lon="39.57551"><ele>155.9</ele><time>1970-01-01T02:28:29.000Z</time></trkpt><trkpt lat="51.823017" lon="39.575635"><ele>155.9</ele><time>1970-01-01T02:28:32.000Z</time></trkpt><trkpt lat="51.823051" lon="39.575673"><ele>156</ele><time>1970-01-01T02:28:33.000Z</time></trkpt><trkpt lat="51.823478" lon="39.57597"><ele>156.8</ele><time>1970-01-01T02:28:44.000Z</time></trkpt><trkpt lat="51.823523" lon="39.575979"><ele>156.9</ele><time>1970-01-01T02:28:45.000Z</time></trkpt><trkpt lat="51.823565" lon="39.575987"><ele>156.8</ele><time>1970-01-01T02:28:46.000Z</time></trkpt><trkpt lat="51.823607" lon="39.576008"><ele>157</ele><time>1970-01-01T02:28:47.000Z</time></trkpt><trkpt lat="51.823647" lon="39.576038"><ele>157.3</ele><time>1970-01-01T02:28:48.000Z</time></trkpt><trkpt lat="51.823686" lon="39.576069"><ele>157.6</ele><time>1970-01-01T02:28:49.000Z</time></trkpt><trkpt lat="51.824191" lon="39.576391"><ele>158.4</ele><time>1970-01-01T02:29:02.000Z</time></trkpt><trkpt lat="51.824472" lon="39.576739"><ele>158.4</ele><time>1970-01-01T02:29:12.000Z</time></trkpt><trkpt lat="51.82478" lon="39.577479"><ele>157.9</ele><time>1970-01-01T02:29:25.000Z</time></trkpt><trkpt lat="51.825195" lon="39.578403"><ele>157.6</ele><time>1970-01-01T02:29:39.000Z</time></trkpt><trkpt lat="51.825476" lon="39.578947"><ele>156.8</ele><time>1970-01-01T02:29:49.000Z</time></trkpt><trkpt lat="51.825828" lon="39.579153"><ele>158.1</ele><time>1970-01-01T02:30:01.000Z</time></trkpt><trkpt lat="51.825856" lon="39.579228"><ele>158.1</ele><time>1970-01-01T02:30:04.000Z</time></trkpt><trkpt lat="51.825875" lon="39.579241"><ele>158.1</ele><time>1970-01-01T02:30:05.000Z</time></trkpt><trkpt lat="51.826187" lon="39.579161"><ele>158.3</ele><time>1970-01-01T02:30:16.000Z</time></trkpt><trkpt lat="51.826256" lon="39.579103"><ele>158.9</ele><time>1970-01-01T02:30:19.000Z</time></trkpt><trkpt lat="51.826371" lon="39.579147"><ele>158.6</ele><time>1970-01-01T02:30:23.000Z</time></trkpt><trkpt lat="51.826675" lon="39.579344"><ele>156.2</ele><time>1970-01-01T02:30:34.000Z</time></trkpt><trkpt lat="51.82704" lon="39.579449"><ele>157.4</ele><time>1970-01-01T02:30:44.000Z</time></trkpt><trkpt lat="51.827189" lon="39.579516"><ele>158.4</ele><time>1970-01-01T02:30:48.000Z</time></trkpt><trkpt lat="51.827541" lon="39.579729"><ele>159.3</ele><time>1970-01-01T02:30:57.000Z</time></trkpt><trkpt lat="51.827953" lon="39.579974"><ele>158.2</ele><time>1970-01-01T02:31:06.000Z</time></trkpt><trkpt lat="51.828371" lon="39.580168"><ele>158.2</ele><time>1970-01-01T02:31:16.000Z</time></trkpt><trkpt lat="51.828734" lon="39.580362"><ele>158.2</ele><time>1970-01-01T02:31:25.000Z</time></trkpt><trkpt lat="51.828771" lon="39.580389"><ele>158.1</ele><time>1970-01-01T02:31:26.000Z</time></trkpt><trkpt lat="51.829169" lon="39.580578"><ele>159.4</ele><time>1970-01-01T02:31:35.000Z</time></trkpt><trkpt lat="51.829322" lon="39.580675"><ele>159.3</ele><time>1970-01-01T02:31:38.000Z</time></trkpt><trkpt lat="51.829597" lon="39.580794"><ele>158.8</ele><time>1970-01-01T02:31:44.000Z</time></trkpt><trkpt lat="51.829961" lon="39.58099"><ele>159.1</ele><time>1970-01-01T02:31:52.000Z</time></trkpt><trkpt lat="51.83041" lon="39.58104"><ele>161.9</ele><time>1970-01-01T02:32:01.000Z</time></trkpt><trkpt lat="51.830461" lon="39.581055"><ele>162.1</ele><time>1970-01-01T02:32:02.000Z</time></trkpt><trkpt lat="51.830813" lon="39.58115"><ele>162.2</ele><time>1970-01-01T02:32:09.000Z</time></trkpt><trkpt lat="51.831276" lon="39.581014"><ele>161</ele><time>1970-01-01T02:32:18.000Z</time></trkpt><trkpt lat="51.831739" lon="39.580824"><ele>160.2</ele><time>1970-01-01T02:32:27.000Z</time></trkpt><trkpt lat="51.831885" lon="39.580825"><ele>161</ele><time>1970-01-01T02:32:30.000Z</time></trkpt><trkpt lat="51.832085" lon="39.58083"><ele>161.4</ele><time>1970-01-01T02:32:34.000Z</time></trkpt><trkpt lat="51.832319" lon="39.580805"><ele>162</ele><time>1970-01-01T02:32:38.000Z</time></trkpt><trkpt lat="51.832616" lon="39.580892"><ele>162</ele><time>1970-01-01T02:32:43.000Z</time></trkpt><trkpt lat="51.832828" lon="39.581013"><ele>162.7</ele><time>1970-01-01T02:32:47.000Z</time></trkpt><trkpt lat="51.833297" lon="39.581188"><ele>163</ele><time>1970-01-01T02:32:57.000Z</time></trkpt><trkpt lat="51.833638" lon="39.581172"><ele>162.2</ele><time>1970-01-01T02:33:06.000Z</time></trkpt><trkpt lat="51.834032" lon="39.581269"><ele>160.9</ele><time>1970-01-01T02:33:15.000Z</time></trkpt><trkpt lat="51.834186" lon="39.581322"><ele>159.9</ele><time>1970-01-01T02:33:19.000Z</time></trkpt><trkpt lat="51.834262" lon="39.581716"><ele>159.9</ele><time>1970-01-01T02:33:27.000Z</time></trkpt><trkpt lat="51.834261" lon="39.581779"><ele>159.9</ele><time>1970-01-01T02:33:28.000Z</time></trkpt><trkpt lat="51.834191" lon="39.582511"><ele>161</ele><time>1970-01-01T02:33:40.000Z</time></trkpt><trkpt lat="51.834178" lon="39.582686"><ele>160.9</ele><time>1970-01-01T02:33:43.000Z</time></trkpt><trkpt lat="51.83414" lon="39.582919"><ele>160.9</ele><time>1970-01-01T02:33:47.000Z</time></trkpt><trkpt lat="51.834127" lon="39.583156"><ele>160.9</ele><time>1970-01-01T02:33:53.000Z</time></trkpt><trkpt lat="51.834328" lon="39.583193"><ele>160.9</ele><time>1970-01-01T02:34:02.000Z</time></trkpt><trkpt lat="51.834679" lon="39.583183"><ele>160.6</ele><time>1970-01-01T02:34:11.000Z</time></trkpt><trkpt lat="51.83507" lon="39.583447"><ele>162.6</ele><time>1970-01-01T02:34:21.000Z</time></trkpt><trkpt lat="51.835476" lon="39.583657"><ele>163.1</ele><time>1970-01-01T02:34:30.000Z</time></trkpt><trkpt lat="51.835523" lon="39.583694"><ele>162.9</ele><time>1970-01-01T02:34:31.000Z</time></trkpt><trkpt lat="51.835724" lon="39.583779"><ele>163.2</ele><time>1970-01-01T02:34:35.000Z</time></trkpt><trkpt lat="51.836221" lon="39.583923"><ele>163.9</ele><time>1970-01-01T02:34:45.000Z</time></trkpt><trkpt lat="51.836596" lon="39.584107"><ele>164.8</ele><time>1970-01-01T02:34:53.000Z</time></trkpt><trkpt lat="51.836925" lon="39.584181"><ele>166.2</ele><time>1970-01-01T02:35:00.000Z</time></trkpt><trkpt lat="51.83721" lon="39.583866"><ele>166.1</ele><time>1970-01-01T02:35:07.000Z</time></trkpt><trkpt lat="51.837597" lon="39.583343"><ele>163.9</ele><time>1970-01-01T02:35:18.000Z</time></trkpt><trkpt lat="51.837725" lon="39.583246"><ele>164</ele><time>1970-01-01T02:35:21.000Z</time></trkpt><trkpt lat="51.838143" lon="39.583166"><ele>163</ele><time>1970-01-01T02:35:30.000Z</time></trkpt><trkpt lat="51.838509" lon="39.583146"><ele>162.9</ele><time>1970-01-01T02:35:37.000Z</time></trkpt><trkpt lat="51.838732" lon="39.58314"><ele>164</ele><time>1970-01-01T02:35:42.000Z</time></trkpt><trkpt lat="51.839134" lon="39.583444"><ele>165.7</ele><time>1970-01-01T02:35:56.000Z</time></trkpt><trkpt lat="51.839213" lon="39.583461"><ele>165.6</ele><time>1970-01-01T02:35:58.000Z</time></trkpt><trkpt lat="51.839598" lon="39.583551"><ele>165.7</ele><time>1970-01-01T02:36:08.000Z</time></trkpt><trkpt lat="51.839867" lon="39.583658"><ele>165.6</ele><time>1970-01-01T02:36:15.000Z</time></trkpt><trkpt lat="51.839993" lon="39.583681"><ele>164.7</ele><time>1970-01-01T02:36:18.000Z</time></trkpt><trkpt lat="51.84017" lon="39.58381"><ele>165</ele><time>1970-01-01T02:36:23.000Z</time></trkpt><trkpt lat="51.840282" lon="39.583848"><ele>165.2</ele><time>1970-01-01T02:36:26.000Z</time></trkpt><trkpt lat="51.840525" lon="39.583881"><ele>165.8</ele><time>1970-01-01T02:36:33.000Z</time></trkpt><trkpt lat="51.840819" lon="39.584079"><ele>165.8</ele><time>1970-01-01T02:36:41.000Z</time></trkpt><trkpt lat="51.841179" lon="39.584495"><ele>165.5</ele><time>1970-01-01T02:36:53.000Z</time></trkpt><trkpt lat="51.841189" lon="39.584495"><ele>165.5</ele><time>1970-01-01T02:36:56.000Z</time></trkpt><trkpt lat="51.841289" lon="39.584467"><ele>165.3</ele><time>1970-01-01T02:37:00.000Z</time></trkpt><trkpt lat="51.841614" lon="39.584231"><ele>167.5</ele><time>1970-01-01T02:37:10.000Z</time></trkpt><trkpt lat="51.841649" lon="39.584216"><ele>167.9</ele><time>1970-01-01T02:37:11.000Z</time></trkpt><trkpt lat="51.841727" lon="39.584171"><ele>168</ele><time>1970-01-01T02:37:14.000Z</time></trkpt><trkpt lat="51.841802" lon="39.584158"><ele>167.7</ele><time>1970-01-01T02:37:17.000Z</time></trkpt><trkpt lat="51.841939" lon="39.584043"><ele>166.7</ele><time>1970-01-01T02:37:22.000Z</time></trkpt><trkpt lat="51.842218" lon="39.584037"><ele>165.3</ele><time>1970-01-01T02:37:30.000Z</time></trkpt><trkpt lat="51.842649" lon="39.584147"><ele>163.6</ele><time>1970-01-01T02:37:40.000Z</time></trkpt><trkpt lat="51.842941" lon="39.584352"><ele>163.9</ele><time>1970-01-01T02:37:47.000Z</time></trkpt><trkpt lat="51.843114" lon="39.584514"><ele>164.8</ele><time>1970-01-01T02:37:52.000Z</time></trkpt><trkpt lat="51.843201" lon="39.584667"><ele>164.7</ele><time>1970-01-01T02:37:55.000Z</time></trkpt><trkpt lat="51.843542" lon="39.584923"><ele>166.3</ele><time>1970-01-01T02:38:04.000Z</time></trkpt><trkpt lat="51.843577" lon="39.584903"><ele>166.5</ele><time>1970-01-01T02:38:05.000Z</time></trkpt><trkpt lat="51.843841" lon="39.584639"><ele>166.9</ele><time>1970-01-01T02:38:13.000Z</time></trkpt><trkpt lat="51.844213" lon="39.584634"><ele>166</ele><time>1970-01-01T02:38:22.000Z</time></trkpt><trkpt lat="51.8445" lon="39.584424"><ele>165.9</ele><time>1970-01-01T02:38:29.000Z</time></trkpt><trkpt lat="51.8447" lon="39.584795"><ele>167.2</ele><time>1970-01-01T02:38:37.000Z</time></trkpt><trkpt lat="51.844808" lon="39.585635"><ele>167.5</ele><time>1970-01-01T02:38:49.000Z</time></trkpt><trkpt lat="51.844898" lon="39.586074"><ele>166.2</ele><time>1970-01-01T02:38:55.000Z</time></trkpt><trkpt lat="51.845058" lon="39.586347"><ele>166.1</ele><time>1970-01-01T02:39:00.000Z</time></trkpt><trkpt lat="51.845384" lon="39.586671"><ele>164.5</ele><time>1970-01-01T02:39:08.000Z</time></trkpt><trkpt lat="51.845573" lon="39.586962"><ele>164</ele><time>1970-01-01T02:39:13.000Z</time></trkpt><trkpt lat="51.845711" lon="39.587179"><ele>164</ele><time>1970-01-01T02:39:17.000Z</time></trkpt><trkpt lat="51.845814" lon="39.58741"><ele>165.1</ele><time>1970-01-01T02:39:21.000Z</time></trkpt><trkpt lat="51.845918" lon="39.587614"><ele>166</ele><time>1970-01-01T02:39:25.000Z</time></trkpt><trkpt lat="51.846113" lon="39.588196"><ele>166.8</ele><time>1970-01-01T02:39:35.000Z</time></trkpt><trkpt lat="51.846238" lon="39.588724"><ele>165.9</ele><time>1970-01-01T02:39:44.000Z</time></trkpt><trkpt lat="51.846279" lon="39.589059"><ele>167</ele><time>1970-01-01T02:39:49.000Z</time></trkpt><trkpt lat="51.846523" lon="39.589787"><ele>168</ele><time>1970-01-01T02:40:01.000Z</time></trkpt><trkpt lat="51.846847" lon="39.590413"><ele>169.4</ele><time>1970-01-01T02:40:12.000Z</time></trkpt><trkpt lat="51.847163" lon="39.59083"><ele>170.1</ele><time>1970-01-01T02:40:21.000Z</time></trkpt><trkpt lat="51.847485" lon="39.590998"><ele>169.4</ele><time>1970-01-01T02:40:31.000Z</time></trkpt><trkpt lat="51.847501" lon="39.591007"><ele>169.3</ele><time>1970-01-01T02:40:32.000Z</time></trkpt><trkpt lat="51.847514" lon="39.591009"><ele>169.2</ele><time>1970-01-01T02:40:34.000Z</time></trkpt><trkpt lat="51.847634" lon="39.591115"><ele>168.4</ele><time>1970-01-01T02:41:10.000Z</time></trkpt><trkpt lat="51.847731" lon="39.591298"><ele>168.5</ele><time>1970-01-01T02:41:15.000Z</time></trkpt><trkpt lat="51.84806" lon="39.59163"><ele>167</ele><time>1970-01-01T02:41:25.000Z</time></trkpt><trkpt lat="51.848364" lon="39.591819"><ele>165.9</ele><time>1970-01-01T02:41:32.000Z</time></trkpt><trkpt lat="51.848662" lon="39.591923"><ele>165.3</ele><time>1970-01-01T02:41:38.000Z</time></trkpt><trkpt lat="51.84907" lon="39.591715"><ele>162.6</ele><time>1970-01-01T02:41:48.000Z</time></trkpt><trkpt lat="51.849116" lon="39.5917"><ele>162.2</ele><time>1970-01-01T02:41:49.000Z</time></trkpt><trkpt lat="51.849243" lon="39.591677"><ele>161.2</ele><time>1970-01-01T02:41:52.000Z</time></trkpt><trkpt lat="51.849369" lon="39.591868"><ele>161.7</ele><time>1970-01-01T02:41:57.000Z</time></trkpt><trkpt lat="51.849463" lon="39.592107"><ele>162.2</ele><time>1970-01-01T02:42:02.000Z</time></trkpt><trkpt lat="51.849556" lon="39.592308"><ele>163.3</ele><time>1970-01-01T02:42:07.000Z</time></trkpt><trkpt lat="51.849815" lon="39.592589"><ele>163.2</ele><time>1970-01-01T02:42:18.000Z</time></trkpt><trkpt lat="51.85016" lon="39.59268"><ele>163.2</ele><time>1970-01-01T02:42:29.000Z</time></trkpt><trkpt lat="51.850573" lon="39.59268"><ele>164.2</ele><time>1970-01-01T02:42:38.000Z</time></trkpt><trkpt lat="51.851028" lon="39.592656"><ele>166.9</ele><time>1970-01-01T02:42:47.000Z</time></trkpt><trkpt lat="51.851682" lon="39.592573"><ele>167.3</ele><time>1970-01-01T02:43:00.000Z</time></trkpt><trkpt lat="51.8522" lon="39.59247"><ele>167.1</ele><time>1970-01-01T02:43:10.000Z</time></trkpt><trkpt lat="51.852457" lon="39.592413"><ele>165.5</ele><time>1970-01-01T02:43:17.000Z</time></trkpt><trkpt lat="51.852502" lon="39.592405"><ele>165.7</ele><time>1970-01-01T02:43:18.000Z</time></trkpt><trkpt lat="51.852552" lon="39.592398"><ele>166</ele><time>1970-01-01T02:43:19.000Z</time></trkpt><trkpt lat="51.852601" lon="39.5924"><ele>166.4</ele><time>1970-01-01T02:43:20.000Z</time></trkpt><trkpt lat="51.852647" lon="39.59242"><ele>166.9</ele><time>1970-01-01T02:43:21.000Z</time></trkpt><trkpt lat="51.852687" lon="39.59246"><ele>167.4</ele><time>1970-01-01T02:43:22.000Z</time></trkpt><trkpt lat="51.852718" lon="39.592516"><ele>168.2</ele><time>1970-01-01T02:43:23.000Z</time></trkpt><trkpt lat="51.852746" lon="39.592579"><ele>168.9</ele><time>1970-01-01T02:43:24.000Z</time></trkpt><trkpt lat="51.852771" lon="39.592644"><ele>169.4</ele><time>1970-01-01T02:43:25.000Z</time></trkpt><trkpt lat="51.852793" lon="39.592707"><ele>169.8</ele><time>1970-01-01T02:43:26.000Z</time></trkpt><trkpt lat="51.852981" lon="39.593324"><ele>170.2</ele><time>1970-01-01T02:43:35.000Z</time></trkpt><trkpt lat="51.853003" lon="39.593395"><ele>170.1</ele><time>1970-01-01T02:43:36.000Z</time></trkpt><trkpt lat="51.85302" lon="39.593477"><ele>170</ele><time>1970-01-01T02:43:37.000Z</time></trkpt><trkpt lat="51.853038" lon="39.593555"><ele>169.9</ele><time>1970-01-01T02:43:38.000Z</time></trkpt><trkpt lat="51.853052" lon="39.593635"><ele>169.5</ele><time>1970-01-01T02:43:39.000Z</time></trkpt><trkpt lat="51.85306" lon="39.593714"><ele>169</ele><time>1970-01-01T02:43:40.000Z</time></trkpt><trkpt lat="51.853068" lon="39.593792"><ele>168.4</ele><time>1970-01-01T02:43:41.000Z</time></trkpt><trkpt lat="51.853084" lon="39.593862"><ele>168.7</ele><time>1970-01-01T02:43:42.000Z</time></trkpt><trkpt lat="51.853109" lon="39.593925"><ele>169</ele><time>1970-01-01T02:43:43.000Z</time></trkpt><trkpt lat="51.853142" lon="39.593978"><ele>169.1</ele><time>1970-01-01T02:43:44.000Z</time></trkpt><trkpt lat="51.853185" lon="39.59402"><ele>169.1</ele><time>1970-01-01T02:43:45.000Z</time></trkpt><trkpt lat="51.853232" lon="39.594044"><ele>169.3</ele><time>1970-01-01T02:43:46.000Z</time></trkpt><trkpt lat="51.853285" lon="39.594052"><ele>169.8</ele><time>1970-01-01T02:43:47.000Z</time></trkpt><trkpt lat="51.853337" lon="39.594052"><ele>170.2</ele><time>1970-01-01T02:43:48.000Z</time></trkpt><trkpt lat="51.853481" lon="39.594065"><ele>170.2</ele><time>1970-01-01T02:43:51.000Z</time></trkpt><trkpt lat="51.85352" lon="39.594076"><ele>170.1</ele><time>1970-01-01T02:43:52.000Z</time></trkpt><trkpt lat="51.853554" lon="39.594082"><ele>170.1</ele><time>1970-01-01T02:43:53.000Z</time></trkpt><trkpt lat="51.853588" lon="39.594085"><ele>170.1</ele><time>1970-01-01T02:43:54.000Z</time></trkpt><trkpt lat="51.853624" lon="39.594082"><ele>170</ele><time>1970-01-01T02:43:55.000Z</time></trkpt><trkpt lat="51.853666" lon="39.59408"><ele>170</ele><time>1970-01-01T02:43:56.000Z</time></trkpt><trkpt lat="51.85402" lon="39.594058"><ele>171.1</ele><time>1970-01-01T02:44:06.000Z</time></trkpt><trkpt lat="51.854076" lon="39.59407"><ele>171.3</ele><time>1970-01-01T02:44:07.000Z</time></trkpt><trkpt lat="51.854612" lon="39.594138"><ele>171.2</ele><time>1970-01-01T02:44:18.000Z</time></trkpt><trkpt lat="51.854827" lon="39.594143"><ele>171.1</ele><time>1970-01-01T02:44:24.000Z</time></trkpt><trkpt lat="51.855133" lon="39.594249"><ele>170</ele><time>1970-01-01T02:44:31.000Z</time></trkpt><trkpt lat="51.855609" lon="39.594233"><ele>171.5</ele><time>1970-01-01T02:44:42.000Z</time></trkpt><trkpt lat="51.855956" lon="39.5942"><ele>170.3</ele><time>1970-01-01T02:44:50.000Z</time></trkpt><trkpt lat="51.856237" lon="39.594205"><ele>170.3</ele><time>1970-01-01T02:44:56.000Z</time></trkpt><trkpt lat="51.856278" lon="39.594212"><ele>170.4</ele><time>1970-01-01T02:44:57.000Z</time></trkpt><trkpt lat="51.856482" lon="39.594268"><ele>171.2</ele><time>1970-01-01T02:45:01.000Z</time></trkpt><trkpt lat="51.856799" lon="39.594329"><ele>170.5</ele><time>1970-01-01T02:45:08.000Z</time></trkpt><trkpt lat="51.856952" lon="39.594183"><ele>170.2</ele><time>1970-01-01T02:45:13.000Z</time></trkpt><trkpt lat="51.857071" lon="39.593848"><ele>170.9</ele><time>1970-01-01T02:45:19.000Z</time></trkpt><trkpt lat="51.857123" lon="39.593712"><ele>171.2</ele><time>1970-01-01T02:45:21.000Z</time></trkpt><trkpt lat="51.85728" lon="39.59329"><ele>171.7</ele><time>1970-01-01T02:45:27.000Z</time></trkpt><trkpt lat="51.857336" lon="39.593129"><ele>172.1</ele><time>1970-01-01T02:45:29.000Z</time></trkpt><trkpt lat="51.857408" lon="39.5928"><ele>172.1</ele><time>1970-01-01T02:45:33.000Z</time></trkpt><trkpt lat="51.857563" lon="39.59202"><ele>171.1</ele><time>1970-01-01T02:45:42.000Z</time></trkpt><trkpt lat="51.857646" lon="39.591601"><ele>171.2</ele><time>1970-01-01T02:45:47.000Z</time></trkpt><trkpt lat="51.857705" lon="39.591356"><ele>171.2</ele><time>1970-01-01T02:45:50.000Z</time></trkpt><trkpt lat="51.857797" lon="39.590944"><ele>170.5</ele><time>1970-01-01T02:45:55.000Z</time></trkpt><trkpt lat="51.857899" lon="39.590431"><ele>171.1</ele><time>1970-01-01T02:46:02.000Z</time></trkpt><trkpt lat="51.857935" lon="39.590075"><ele>171</ele><time>1970-01-01T02:46:06.000Z</time></trkpt><trkpt lat="51.858015" lon="39.589722"><ele>171.6</ele><time>1970-01-01T02:46:10.000Z</time></trkpt><trkpt lat="51.858036" lon="39.589561"><ele>171.5</ele><time>1970-01-01T02:46:12.000Z</time></trkpt><trkpt lat="51.858053" lon="39.589484"><ele>171.2</ele><time>1970-01-01T02:46:13.000Z</time></trkpt><trkpt lat="51.858069" lon="39.5894"><ele>170.8</ele><time>1970-01-01T02:46:14.000Z</time></trkpt><trkpt lat="51.858086" lon="39.589318"><ele>170.6</ele><time>1970-01-01T02:46:15.000Z</time></trkpt><trkpt lat="51.858106" lon="39.589237"><ele>170.6</ele><time>1970-01-01T02:46:16.000Z</time></trkpt><trkpt lat="51.858124" lon="39.589159"><ele>170.7</ele><time>1970-01-01T02:46:17.000Z</time></trkpt><trkpt lat="51.858134" lon="39.589073"><ele>170.7</ele><time>1970-01-01T02:46:18.000Z</time></trkpt><trkpt lat="51.858149" lon="39.58899"><ele>170.7</ele><time>1970-01-01T02:46:19.000Z</time></trkpt><trkpt lat="51.858163" lon="39.588897"><ele>170.6</ele><time>1970-01-01T02:46:20.000Z</time></trkpt><trkpt lat="51.858402" lon="39.587635"><ele>168.8</ele><time>1970-01-01T02:46:35.000Z</time></trkpt><trkpt lat="51.858426" lon="39.58757"><ele>168.5</ele><time>1970-01-01T02:46:36.000Z</time></trkpt><trkpt lat="51.85846" lon="39.58752"><ele>168.1</ele><time>1970-01-01T02:46:37.000Z</time></trkpt><trkpt lat="51.858499" lon="39.587488"><ele>167.3</ele><time>1970-01-01T02:46:38.000Z</time></trkpt><trkpt lat="51.85883" lon="39.587639"><ele>164</ele><time>1970-01-01T02:46:47.000Z</time></trkpt><trkpt lat="51.858852" lon="39.587688"><ele>164.5</ele><time>1970-01-01T02:46:48.000Z</time></trkpt><trkpt lat="51.858921" lon="39.58785"><ele>165.7</ele><time>1970-01-01T02:46:51.000Z</time></trkpt><trkpt lat="51.858982" lon="39.587954"><ele>165.5</ele><time>1970-01-01T02:46:53.000Z</time></trkpt><trkpt lat="51.859143" lon="39.588189"><ele>165.4</ele><time>1970-01-01T02:46:58.000Z</time></trkpt><trkpt lat="51.859644" lon="39.588546"><ele>161.4</ele><time>1970-01-01T02:47:11.000Z</time></trkpt><trkpt lat="51.860125" lon="39.588836"><ele>160.8</ele><time>1970-01-01T02:47:23.000Z</time></trkpt><trkpt lat="51.860276" lon="39.588894"><ele>161</ele><time>1970-01-01T02:47:26.000Z</time></trkpt><trkpt lat="51.860612" lon="39.589347"><ele>160.2</ele><time>1970-01-01T02:47:36.000Z</time></trkpt><trkpt lat="51.860963" lon="39.58949"><ele>159.7</ele><time>1970-01-01T02:47:44.000Z</time></trkpt><trkpt lat="51.861377" lon="39.589617"><ele>158.8</ele><time>1970-01-01T02:47:53.000Z</time></trkpt><trkpt lat="51.861718" lon="39.589533"><ele>159.9</ele><time>1970-01-01T02:48:01.000Z</time></trkpt><trkpt lat="51.861917" lon="39.5895"><ele>160.9</ele><time>1970-01-01T02:48:09.000Z</time></trkpt><trkpt lat="51.862073" lon="39.589424"><ele>162</ele><time>1970-01-01T02:48:15.000Z</time></trkpt><trkpt lat="51.862322" lon="39.589438"><ele>161.9</ele><time>1970-01-01T02:48:22.000Z</time></trkpt><trkpt lat="51.862478" lon="39.589476"><ele>160.9</ele><time>1970-01-01T02:48:27.000Z</time></trkpt><trkpt lat="51.862686" lon="39.589508"><ele>160.9</ele><time>1970-01-01T02:48:34.000Z</time></trkpt><trkpt lat="51.86284" lon="39.589463"><ele>160.9</ele><time>1970-01-01T02:48:40.000Z</time></trkpt><trkpt lat="51.862971" lon="39.589419"><ele>160.9</ele><time>1970-01-01T02:48:50.000Z</time></trkpt><trkpt lat="51.863303" lon="39.589301"><ele>161</ele><time>1970-01-01T02:51:52.000Z</time></trkpt><trkpt lat="51.863321" lon="39.589304"><ele>161</ele><time>1970-01-01T02:51:53.000Z</time></trkpt><trkpt lat="51.863339" lon="39.589313"><ele>161.3</ele><time>1970-01-01T02:51:54.000Z</time></trkpt><trkpt lat="51.863358" lon="39.589324"><ele>161.7</ele><time>1970-01-01T02:51:55.000Z</time></trkpt><trkpt lat="51.863563" lon="39.589432"><ele>162</ele><time>1970-01-01T02:52:04.000Z</time></trkpt><trkpt lat="51.863837" lon="39.589597"><ele>163.2</ele><time>1970-01-01T02:52:14.000Z</time></trkpt><trkpt lat="51.864224" lon="39.589754"><ele>164.6</ele><time>1970-01-01T02:52:24.000Z</time></trkpt><trkpt lat="51.864564" lon="39.589819"><ele>166.9</ele><time>1970-01-01T02:52:33.000Z</time></trkpt><trkpt lat="51.864731" lon="39.589919"><ele>167.8</ele><time>1970-01-01T02:52:37.000Z</time></trkpt><trkpt lat="51.864969" lon="39.589822"><ele>168.9</ele><time>1970-01-01T02:52:43.000Z</time></trkpt><trkpt lat="51.865257" lon="39.589491"><ele>169.1</ele><time>1970-01-01T02:52:50.000Z</time></trkpt><trkpt lat="51.865407" lon="39.589283"><ele>168</ele><time>1970-01-01T02:52:54.000Z</time></trkpt><trkpt lat="51.865503" lon="39.589108"><ele>167</ele><time>1970-01-01T02:52:57.000Z</time></trkpt><trkpt lat="51.86567" lon="39.588797"><ele>164.9</ele><time>1970-01-01T02:53:02.000Z</time></trkpt><trkpt lat="51.866048" lon="39.588069"><ele>163.6</ele><time>1970-01-01T02:53:15.000Z</time></trkpt><trkpt lat="51.866088" lon="39.588004"><ele>163.8</ele><time>1970-01-01T02:53:16.000Z</time></trkpt><trkpt lat="51.866262" lon="39.587792"><ele>165</ele><time>1970-01-01T02:53:20.000Z</time></trkpt><trkpt lat="51.866676" lon="39.587455"><ele>164.2</ele><time>1970-01-01T02:53:32.000Z</time></trkpt><trkpt lat="51.866901" lon="39.587373"><ele>161.9</ele><time>1970-01-01T02:53:45.000Z</time></trkpt><trkpt lat="51.867244" lon="39.58726"><ele>161.8</ele><time>1970-01-01T02:53:55.000Z</time></trkpt><trkpt lat="51.867624" lon="39.587249"><ele>161.9</ele><time>1970-01-01T02:54:05.000Z</time></trkpt><trkpt lat="51.86805" lon="39.587425"><ele>162</ele><time>1970-01-01T02:54:16.000Z</time></trkpt><trkpt lat="51.868125" lon="39.587493"><ele>161.7</ele><time>1970-01-01T02:54:18.000Z</time></trkpt><trkpt lat="51.868166" lon="39.587522"><ele>162.1</ele><time>1970-01-01T02:54:19.000Z</time></trkpt><trkpt lat="51.868566" lon="39.587686"><ele>162.9</ele><time>1970-01-01T02:54:31.000Z</time></trkpt><trkpt lat="51.869057" lon="39.58783"><ele>162.4</ele><time>1970-01-01T02:54:43.000Z</time></trkpt><trkpt lat="51.869104" lon="39.58784"><ele>162.1</ele><time>1970-01-01T02:54:44.000Z</time></trkpt><trkpt lat="51.86923" lon="39.587883"><ele>161.8</ele><time>1970-01-01T02:54:47.000Z</time></trkpt><trkpt lat="51.869278" lon="39.587894"><ele>161.4</ele><time>1970-01-01T02:54:48.000Z</time></trkpt><trkpt lat="51.869916" lon="39.588055"><ele>156</ele><time>1970-01-01T02:55:02.000Z</time></trkpt><trkpt lat="51.870272" lon="39.588237"><ele>153.6</ele><time>1970-01-01T02:55:13.000Z</time></trkpt><trkpt lat="51.870677" lon="39.588722"><ele>153.3</ele><time>1970-01-01T02:55:26.000Z</time></trkpt><trkpt lat="51.870839" lon="39.588929"><ele>154.1</ele><time>1970-01-01T02:55:31.000Z</time></trkpt><trkpt lat="51.87127" lon="39.589524"><ele>153.9</ele><time>1970-01-01T02:55:46.000Z</time></trkpt><trkpt lat="51.87159" lon="39.590115"><ele>153.8</ele><time>1970-01-01T02:56:00.000Z</time></trkpt><trkpt lat="51.871814" lon="39.590508"><ele>153.9</ele><time>1970-01-01T02:56:13.000Z</time></trkpt><trkpt lat="51.872153" lon="39.590814"><ele>154.4</ele><time>1970-01-01T02:56:24.000Z</time></trkpt><trkpt lat="51.872803" lon="39.591186"><ele>155</ele><time>1970-01-01T02:56:39.000Z</time></trkpt><trkpt lat="51.872843" lon="39.5912"><ele>155</ele><time>1970-01-01T02:56:40.000Z</time></trkpt><trkpt lat="51.873646" lon="39.591615"><ele>155</ele><time>1970-01-01T02:56:57.000Z</time></trkpt><trkpt lat="51.874625" lon="39.592118"><ele>155.8</ele><time>1970-01-01T02:57:17.000Z</time></trkpt><trkpt lat="51.875519" lon="39.592573"><ele>157.6</ele><time>1970-01-01T02:57:35.000Z</time></trkpt><trkpt lat="51.876334" lon="39.592982"><ele>156.1</ele><time>1970-01-01T02:57:51.000Z</time></trkpt><trkpt lat="51.877204" lon="39.59342"><ele>157</ele><time>1970-01-01T02:58:10.000Z</time></trkpt><trkpt lat="51.877401" lon="39.593421"><ele>157</ele><time>1970-01-01T02:58:16.000Z</time></trkpt><trkpt lat="51.877424" lon="39.59338"><ele>157</ele><time>1970-01-01T02:58:17.000Z</time></trkpt><trkpt lat="51.877443" lon="39.593328"><ele>157</ele><time>1970-01-01T02:58:18.000Z</time></trkpt><trkpt lat="51.877459" lon="39.593266"><ele>157</ele><time>1970-01-01T02:58:19.000Z</time></trkpt><trkpt lat="51.877471" lon="39.593197"><ele>157</ele><time>1970-01-01T02:58:20.000Z</time></trkpt><trkpt lat="51.877483" lon="39.593125"><ele>157</ele><time>1970-01-01T02:58:21.000Z</time></trkpt><trkpt lat="51.877774" lon="39.591523"><ele>156.6</ele><time>1970-01-01T02:58:41.000Z</time></trkpt><trkpt lat="51.878007" lon="39.590305"><ele>155.9</ele><time>1970-01-01T02:58:58.000Z</time></trkpt><trkpt lat="51.878174" lon="39.589548"><ele>154.9</ele><time>1970-01-01T02:59:13.000Z</time></trkpt><trkpt lat="51.878269" lon="39.589141"><ele>153.9</ele><time>1970-01-01T02:59:27.000Z</time></trkpt><trkpt lat="51.878428" lon="39.588416"><ele>154.2</ele><time>1970-01-01T02:59:41.000Z</time></trkpt><trkpt lat="51.878508" lon="39.588013"><ele>155</ele><time>1970-01-01T02:59:51.000Z</time></trkpt><trkpt lat="51.878613" lon="39.587727"><ele>155.1</ele><time>1970-01-01T03:00:00.000Z</time></trkpt><trkpt lat="51.878635" lon="39.587726"><ele>155.1</ele><time>1970-01-01T03:00:01.000Z</time></trkpt><trkpt lat="51.87866" lon="39.587736"><ele>155.1</ele><time>1970-01-01T03:00:02.000Z</time></trkpt><trkpt lat="51.878686" lon="39.587757"><ele>154.8</ele><time>1970-01-01T03:00:03.000Z</time></trkpt><trkpt lat="51.878712" lon="39.587783"><ele>154.5</ele><time>1970-01-01T03:00:04.000Z</time></trkpt><trkpt lat="51.87928" lon="39.588226"><ele>155</ele><time>1970-01-01T03:00:18.000Z</time></trkpt><trkpt lat="51.880455" lon="39.589039"><ele>156</ele><time>1970-01-01T03:00:41.000Z</time></trkpt><trkpt lat="51.8806" lon="39.589135"><ele>156.1</ele><time>1970-01-01T03:00:44.000Z</time></trkpt><trkpt lat="51.881671" lon="39.589797"><ele>153.2</ele><time>1970-01-01T03:01:05.000Z</time></trkpt><trkpt lat="51.882292" lon="39.590176"><ele>153</ele><time>1970-01-01T03:01:17.000Z</time></trkpt><trkpt lat="51.882343" lon="39.590215"><ele>153</ele><time>1970-01-01T03:01:18.000Z</time></trkpt><trkpt lat="51.883541" lon="39.591117"><ele>155</ele><time>1970-01-01T03:01:41.000Z</time></trkpt><trkpt lat="51.884689" lon="39.591897"><ele>154</ele><time>1970-01-01T03:02:04.000Z</time></trkpt><trkpt lat="51.884729" lon="39.591913"><ele>154</ele><time>1970-01-01T03:02:05.000Z</time></trkpt><trkpt lat="51.88477" lon="39.591911"><ele>153.9</ele><time>1970-01-01T03:02:06.000Z</time></trkpt><trkpt lat="51.884808" lon="39.591888"><ele>153.9</ele><time>1970-01-01T03:02:07.000Z</time></trkpt><trkpt lat="51.884841" lon="39.59185"><ele>153.9</ele><time>1970-01-01T03:02:08.000Z</time></trkpt><trkpt lat="51.884867" lon="39.591795"><ele>153.9</ele><time>1970-01-01T03:02:09.000Z</time></trkpt><trkpt lat="51.884881" lon="39.591733"><ele>153.9</ele><time>1970-01-01T03:02:10.000Z</time></trkpt><trkpt lat="51.884892" lon="39.591668"><ele>153.8</ele><time>1970-01-01T03:02:11.000Z</time></trkpt><trkpt lat="51.884903" lon="39.591608"><ele>153.8</ele><time>1970-01-01T03:02:12.000Z</time></trkpt><trkpt lat="51.88502" lon="39.591032"><ele>153.5</ele><time>1970-01-01T03:02:22.000Z</time></trkpt><trkpt lat="51.885167" lon="39.590445"><ele>153.3</ele><time>1970-01-01T03:02:33.000Z</time></trkpt><trkpt lat="51.885198" lon="39.59045"><ele>153.3</ele><time>1970-01-01T03:02:34.000Z</time></trkpt><trkpt lat="51.885231" lon="39.59047"><ele>153.3</ele><time>1970-01-01T03:02:35.000Z</time></trkpt><trkpt lat="51.885499" lon="39.590622"><ele>153.9</ele><time>1970-01-01T03:02:42.000Z</time></trkpt><trkpt lat="51.885974" lon="39.590818"><ele>154.2</ele><time>1970-01-01T03:02:53.000Z</time></trkpt><trkpt lat="51.886019" lon="39.590829"><ele>154.3</ele><time>1970-01-01T03:02:54.000Z</time></trkpt><trkpt lat="51.886062" lon="39.590845"><ele>154.4</ele><time>1970-01-01T03:02:55.000Z</time></trkpt><trkpt lat="51.886378" lon="39.59099"><ele>155.1</ele><time>1970-01-01T03:03:02.000Z</time></trkpt><trkpt lat="51.886425" lon="39.590992"><ele>155.3</ele><time>1970-01-01T03:03:03.000Z</time></trkpt><trkpt lat="51.886471" lon="39.590984"><ele>155.7</ele><time>1970-01-01T03:03:04.000Z</time></trkpt><trkpt lat="51.886513" lon="39.590967"><ele>156.1</ele><time>1970-01-01T03:03:05.000Z</time></trkpt><trkpt lat="51.886553" lon="39.590951"><ele>156.3</ele><time>1970-01-01T03:03:06.000Z</time></trkpt><trkpt lat="51.886596" lon="39.590933"><ele>156.4</ele><time>1970-01-01T03:03:07.000Z</time></trkpt><trkpt lat="51.886638" lon="39.590916"><ele>156.9</ele><time>1970-01-01T03:03:08.000Z</time></trkpt><trkpt lat="51.886997" lon="39.59079"><ele>158.4</ele><time>1970-01-01T03:03:16.000Z</time></trkpt><trkpt lat="51.887091" lon="39.590741"><ele>159.2</ele><time>1970-01-01T03:03:18.000Z</time></trkpt><trkpt lat="51.887505" lon="39.59064"><ele>161.1</ele><time>1970-01-01T03:03:27.000Z</time></trkpt><trkpt lat="51.887643" lon="39.590586"><ele>160.8</ele><time>1970-01-01T03:03:30.000Z</time></trkpt><trkpt lat="51.887687" lon="39.590563"><ele>160.8</ele><time>1970-01-01T03:03:31.000Z</time></trkpt><trkpt lat="51.888151" lon="39.590258"><ele>159.7</ele><time>1970-01-01T03:03:43.000Z</time></trkpt><trkpt lat="51.888188" lon="39.590227"><ele>159.9</ele><time>1970-01-01T03:03:44.000Z</time></trkpt><trkpt lat="51.888221" lon="39.590198"><ele>160.1</ele><time>1970-01-01T03:03:45.000Z</time></trkpt><trkpt lat="51.888255" lon="39.590165"><ele>160.5</ele><time>1970-01-01T03:03:46.000Z</time></trkpt><trkpt lat="51.888295" lon="39.590133"><ele>160.8</ele><time>1970-01-01T03:03:47.000Z</time></trkpt><trkpt lat="51.888709" lon="39.589818"><ele>162.3</ele><time>1970-01-01T03:03:57.000Z</time></trkpt><trkpt lat="51.888795" lon="39.589773"><ele>162.5</ele><time>1970-01-01T03:03:59.000Z</time></trkpt><trkpt lat="51.888837" lon="39.589751"><ele>162.6</ele><time>1970-01-01T03:04:00.000Z</time></trkpt><trkpt lat="51.888877" lon="39.589718"><ele>162.8</ele><time>1970-01-01T03:04:01.000Z</time></trkpt><trkpt lat="51.888965" lon="39.589649"><ele>163.7</ele><time>1970-01-01T03:04:03.000Z</time></trkpt><trkpt lat="51.889271" lon="39.589463"><ele>166.4</ele><time>1970-01-01T03:04:10.000Z</time></trkpt><trkpt lat="51.889362" lon="39.589442"><ele>167.2</ele><time>1970-01-01T03:04:12.000Z</time></trkpt><trkpt lat="51.889451" lon="39.589429"><ele>168.2</ele><time>1970-01-01T03:04:14.000Z</time></trkpt><trkpt lat="51.889493" lon="39.589413"><ele>168.6</ele><time>1970-01-01T03:04:15.000Z</time></trkpt><trkpt lat="51.889578" lon="39.589361"><ele>169</ele><time>1970-01-01T03:04:17.000Z</time></trkpt><trkpt lat="51.889834" lon="39.589126"><ele>169.9</ele><time>1970-01-01T03:04:23.000Z</time></trkpt><trkpt lat="51.889877" lon="39.589103"><ele>169.9</ele><time>1970-01-01T03:04:24.000Z</time></trkpt><trkpt lat="51.890146" lon="39.588964"><ele>170</ele><time>1970-01-01T03:04:30.000Z</time></trkpt><trkpt lat="51.890269" lon="39.588877"><ele>169.3</ele><time>1970-01-01T03:04:33.000Z</time></trkpt><trkpt lat="51.890616" lon="39.588741"><ele>166.3</ele><time>1970-01-01T03:04:42.000Z</time></trkpt><trkpt lat="51.890884" lon="39.588679"><ele>161.4</ele><time>1970-01-01T03:04:55.000Z</time></trkpt><trkpt lat="51.89096" lon="39.588718"><ele>158.8</ele><time>1970-01-01T03:05:04.000Z</time></trkpt><trkpt lat="51.890887" lon="39.588602"><ele>160.3</ele><time>1970-01-01T03:13:01.000Z</time></trkpt><trkpt lat="51.890754" lon="39.588409"><ele>161.3</ele><time>1970-01-01T03:13:10.000Z</time></trkpt><trkpt lat="51.890587" lon="39.588302"><ele>164.1</ele><time>1970-01-01T03:13:15.000Z</time></trkpt><trkpt lat="51.890649" lon="39.587851"><ele>160.5</ele><time>1970-01-01T03:13:25.000Z</time></trkpt><trkpt lat="51.89076" lon="39.587444"><ele>161.1</ele><time>1970-01-01T03:13:35.000Z</time></trkpt><trkpt lat="51.890846" lon="39.586851"><ele>162.8</ele><time>1970-01-01T03:13:45.000Z</time></trkpt><trkpt lat="51.890804" lon="39.586492"><ele>163.4</ele><time>1970-01-01T03:13:50.000Z</time></trkpt><trkpt lat="51.890665" lon="39.585925"><ele>165.2</ele><time>1970-01-01T03:14:00.000Z</time></trkpt><trkpt lat="51.890455" lon="39.58549"><ele>168.4</ele><time>1970-01-01T03:14:09.000Z</time></trkpt><trkpt lat="51.890349" lon="39.585159"><ele>169.5</ele><time>1970-01-01T03:14:16.000Z</time></trkpt><trkpt lat="51.89007" lon="39.584643"><ele>168</ele><time>1970-01-01T03:14:27.000Z</time></trkpt><trkpt lat="51.890011" lon="39.584529"><ele>167.9</ele><time>1970-01-01T03:14:33.000Z</time></trkpt><trkpt lat="51.88994" lon="39.584419"><ele>167.2</ele><time>1970-01-01T03:16:51.000Z</time></trkpt><trkpt lat="51.889806" lon="39.584048"><ele>165.5</ele><time>1970-01-01T03:17:01.000Z</time></trkpt><trkpt lat="51.889767" lon="39.583882"><ele>164.6</ele><time>1970-01-01T03:17:08.000Z</time></trkpt><trkpt lat="51.889533" lon="39.583378"><ele>160.7</ele><time>1970-01-01T03:17:21.000Z</time></trkpt><trkpt lat="51.889587" lon="39.583009"><ele>159.7</ele><time>1970-01-01T03:17:28.000Z</time></trkpt><trkpt lat="51.889717" lon="39.582677"><ele>160.6</ele><time>1970-01-01T03:17:34.000Z</time></trkpt><trkpt lat="51.889776" lon="39.582576"><ele>161.1</ele><time>1970-01-01T03:17:36.000Z</time></trkpt><trkpt lat="51.889802" lon="39.582521"><ele>161.2</ele><time>1970-01-01T03:17:37.000Z</time></trkpt><trkpt lat="51.890064" lon="39.582104"><ele>162</ele><time>1970-01-01T03:17:46.000Z</time></trkpt><trkpt lat="51.890249" lon="39.581824"><ele>161.6</ele><time>1970-01-01T03:17:52.000Z</time></trkpt><trkpt lat="51.890288" lon="39.581775"><ele>161.2</ele><time>1970-01-01T03:17:53.000Z</time></trkpt><trkpt lat="51.890323" lon="39.58172"><ele>160.9</ele><time>1970-01-01T03:17:54.000Z</time></trkpt><trkpt lat="51.890454" lon="39.581499"><ele>160.1</ele><time>1970-01-01T03:17:58.000Z</time></trkpt><trkpt lat="51.890488" lon="39.581447"><ele>159.9</ele><time>1970-01-01T03:17:59.000Z</time></trkpt><trkpt lat="51.890516" lon="39.581392"><ele>159.6</ele><time>1970-01-01T03:18:00.000Z</time></trkpt><trkpt lat="51.890543" lon="39.581332"><ele>159.2</ele><time>1970-01-01T03:18:01.000Z</time></trkpt><trkpt lat="51.890567" lon="39.581269"><ele>158.9</ele><time>1970-01-01T03:18:02.000Z</time></trkpt><trkpt lat="51.89059" lon="39.581203"><ele>159</ele><time>1970-01-01T03:18:03.000Z</time></trkpt><trkpt lat="51.890615" lon="39.581137"><ele>158.9</ele><time>1970-01-01T03:18:04.000Z</time></trkpt><trkpt lat="51.890644" lon="39.58108"><ele>158.8</ele><time>1970-01-01T03:18:05.000Z</time></trkpt><trkpt lat="51.890675" lon="39.581029"><ele>158.5</ele><time>1970-01-01T03:18:06.000Z</time></trkpt><trkpt lat="51.890706" lon="39.580978"><ele>158.1</ele><time>1970-01-01T03:18:07.000Z</time></trkpt><trkpt lat="51.890816" lon="39.58076"><ele>158</ele><time>1970-01-01T03:18:11.000Z</time></trkpt><trkpt lat="51.890845" lon="39.580702"><ele>157.9</ele><time>1970-01-01T03:18:12.000Z</time></trkpt><trkpt lat="51.891234" lon="39.580049"><ele>158.9</ele><time>1970-01-01T03:18:24.000Z</time></trkpt><trkpt lat="51.891333" lon="39.579892"><ele>159.5</ele><time>1970-01-01T03:18:27.000Z</time></trkpt><trkpt lat="51.89136" lon="39.579841"><ele>159.7</ele><time>1970-01-01T03:18:28.000Z</time></trkpt><trkpt lat="51.891426" lon="39.579662"><ele>160</ele><time>1970-01-01T03:18:31.000Z</time></trkpt><trkpt lat="51.891478" lon="39.579463"><ele>159.5</ele><time>1970-01-01T03:18:34.000Z</time></trkpt><trkpt lat="51.891494" lon="39.579393"><ele>159.4</ele><time>1970-01-01T03:18:35.000Z</time></trkpt><trkpt lat="51.8916" lon="39.578936"><ele>158</ele><time>1970-01-01T03:18:42.000Z</time></trkpt><trkpt lat="51.891623" lon="39.57887"><ele>157.9</ele><time>1970-01-01T03:18:43.000Z</time></trkpt><trkpt lat="51.891678" lon="39.578739"><ele>158</ele><time>1970-01-01T03:18:45.000Z</time></trkpt><trkpt lat="51.891747" lon="39.578569"><ele>157.7</ele><time>1970-01-01T03:18:48.000Z</time></trkpt><trkpt lat="51.891763" lon="39.578505"><ele>157.9</ele><time>1970-01-01T03:18:49.000Z</time></trkpt><trkpt lat="51.891873" lon="39.578197"><ele>157.8</ele><time>1970-01-01T03:18:54.000Z</time></trkpt><trkpt lat="51.892018" lon="39.577778"><ele>157.7</ele><time>1970-01-01T03:19:00.000Z</time></trkpt><trkpt lat="51.892042" lon="39.577717"><ele>157.6</ele><time>1970-01-01T03:19:01.000Z</time></trkpt><trkpt lat="51.892209" lon="39.577277"><ele>158.9</ele><time>1970-01-01T03:19:08.000Z</time></trkpt><trkpt lat="51.892241" lon="39.577211"><ele>158.9</ele><time>1970-01-01T03:19:09.000Z</time></trkpt><trkpt lat="51.892426" lon="39.576802"><ele>159.8</ele><time>1970-01-01T03:19:15.000Z</time></trkpt><trkpt lat="51.89263" lon="39.576268"><ele>158.7</ele><time>1970-01-01T03:19:23.000Z</time></trkpt><trkpt lat="51.892647" lon="39.576189"><ele>158.2</ele><time>1970-01-01T03:19:24.000Z</time></trkpt><trkpt lat="51.892666" lon="39.576111"><ele>157.7</ele><time>1970-01-01T03:19:25.000Z</time></trkpt><trkpt lat="51.892678" lon="39.576034"><ele>157.2</ele><time>1970-01-01T03:19:26.000Z</time></trkpt><trkpt lat="51.892688" lon="39.575952"><ele>156.9</ele><time>1970-01-01T03:19:27.000Z</time></trkpt><trkpt lat="51.892697" lon="39.575866"><ele>156.7</ele><time>1970-01-01T03:19:28.000Z</time></trkpt><trkpt lat="51.892706" lon="39.57578"><ele>156.1</ele><time>1970-01-01T03:19:29.000Z</time></trkpt><trkpt lat="51.892713" lon="39.575699"><ele>155.8</ele><time>1970-01-01T03:19:30.000Z</time></trkpt><trkpt lat="51.892715" lon="39.575616"><ele>155.8</ele><time>1970-01-01T03:19:31.000Z</time></trkpt><trkpt lat="51.89272" lon="39.57554"><ele>155.8</ele><time>1970-01-01T03:19:32.000Z</time></trkpt><trkpt lat="51.892731" lon="39.575473"><ele>155.7</ele><time>1970-01-01T03:19:33.000Z</time></trkpt><trkpt lat="51.892742" lon="39.575396"><ele>156</ele><time>1970-01-01T03:19:34.000Z</time></trkpt><trkpt lat="51.89275" lon="39.575313"><ele>156.4</ele><time>1970-01-01T03:19:35.000Z</time></trkpt><trkpt lat="51.892822" lon="39.574519"><ele>156</ele><time>1970-01-01T03:19:45.000Z</time></trkpt><trkpt lat="51.892831" lon="39.574437"><ele>155.8</ele><time>1970-01-01T03:19:46.000Z</time></trkpt><trkpt lat="51.892844" lon="39.574357"><ele>155.8</ele><time>1970-01-01T03:19:47.000Z</time></trkpt><trkpt lat="51.892862" lon="39.574279"><ele>156</ele><time>1970-01-01T03:19:48.000Z</time></trkpt><trkpt lat="51.892888" lon="39.574206"><ele>156.1</ele><time>1970-01-01T03:19:49.000Z</time></trkpt><trkpt lat="51.892914" lon="39.574128"><ele>156.3</ele><time>1970-01-01T03:19:50.000Z</time></trkpt><trkpt lat="51.89294" lon="39.574053"><ele>156.4</ele><time>1970-01-01T03:19:51.000Z</time></trkpt><trkpt lat="51.892964" lon="39.57398"><ele>156.5</ele><time>1970-01-01T03:19:52.000Z</time></trkpt><trkpt lat="51.893019" lon="39.573848"><ele>156.7</ele><time>1970-01-01T03:19:54.000Z</time></trkpt><trkpt lat="51.89309" lon="39.573652"><ele>156.7</ele><time>1970-01-01T03:19:57.000Z</time></trkpt><trkpt lat="51.893169" lon="39.5732"><ele>156.1</ele><time>1970-01-01T03:20:05.000Z</time></trkpt><trkpt lat="51.893188" lon="39.573166"><ele>155.8</ele><time>1970-01-01T03:20:06.000Z</time></trkpt><trkpt lat="51.893205" lon="39.573126"><ele>155.5</ele><time>1970-01-01T03:20:07.000Z</time></trkpt><trkpt lat="51.893217" lon="39.573079"><ele>155.3</ele><time>1970-01-01T03:20:08.000Z</time></trkpt><trkpt lat="51.89323" lon="39.573022"><ele>155</ele><time>1970-01-01T03:20:09.000Z</time></trkpt><trkpt lat="51.893245" lon="39.572962"><ele>154.9</ele><time>1970-01-01T03:20:10.000Z</time></trkpt><trkpt lat="51.893261" lon="39.572901"><ele>154.8</ele><time>1970-01-01T03:20:11.000Z</time></trkpt><trkpt lat="51.893275" lon="39.572839"><ele>154.6</ele><time>1970-01-01T03:20:12.000Z</time></trkpt><trkpt lat="51.89329" lon="39.572779"><ele>154.3</ele><time>1970-01-01T03:20:13.000Z</time></trkpt><trkpt lat="51.893306" lon="39.572721"><ele>154</ele><time>1970-01-01T03:20:14.000Z</time></trkpt><trkpt lat="51.893475" lon="39.571953"><ele>154.5</ele><time>1970-01-01T03:20:25.000Z</time></trkpt><trkpt lat="51.893524" lon="39.571811"><ele>154.8</ele><time>1970-01-01T03:20:27.000Z</time></trkpt><trkpt lat="51.893677" lon="39.571471"><ele>154.5</ele><time>1970-01-01T03:20:32.000Z</time></trkpt><trkpt lat="51.893715" lon="39.571419"><ele>154.5</ele><time>1970-01-01T03:20:33.000Z</time></trkpt><trkpt lat="51.893754" lon="39.571375"><ele>154.6</ele><time>1970-01-01T03:20:34.000Z</time></trkpt><trkpt lat="51.893791" lon="39.571323"><ele>154.8</ele><time>1970-01-01T03:20:35.000Z</time></trkpt><trkpt lat="51.893829" lon="39.571269"><ele>155.1</ele><time>1970-01-01T03:20:36.000Z</time></trkpt><trkpt lat="51.893865" lon="39.571214"><ele>155.4</ele><time>1970-01-01T03:20:37.000Z</time></trkpt><trkpt lat="51.893897" lon="39.571155"><ele>155.2</ele><time>1970-01-01T03:20:38.000Z</time></trkpt><trkpt lat="51.89399" lon="39.570965"><ele>154.4</ele><time>1970-01-01T03:20:41.000Z</time></trkpt><trkpt lat="51.894019" lon="39.570904"><ele>154.1</ele><time>1970-01-01T03:20:42.000Z</time></trkpt><trkpt lat="51.894047" lon="39.570842"><ele>153.7</ele><time>1970-01-01T03:20:43.000Z</time></trkpt><trkpt lat="51.894081" lon="39.570775"><ele>153.1</ele><time>1970-01-01T03:20:44.000Z</time></trkpt><trkpt lat="51.894116" lon="39.570713"><ele>152.5</ele><time>1970-01-01T03:20:45.000Z</time></trkpt><trkpt lat="51.894152" lon="39.570656"><ele>151.8</ele><time>1970-01-01T03:20:46.000Z</time></trkpt><trkpt lat="51.894192" lon="39.570602"><ele>151</ele><time>1970-01-01T03:20:47.000Z</time></trkpt><trkpt lat="51.894294" lon="39.570429"><ele>148.2</ele><time>1970-01-01T03:20:50.000Z</time></trkpt><trkpt lat="51.894387" lon="39.570144"><ele>144.6</ele><time>1970-01-01T03:20:54.000Z</time></trkpt><trkpt lat="51.89442" lon="39.569888"><ele>143.3</ele><time>1970-01-01T03:20:57.000Z</time></trkpt><trkpt lat="51.894427" lon="39.569706"><ele>143.4</ele><time>1970-01-01T03:20:59.000Z</time></trkpt><trkpt lat="51.894423" lon="39.569609"><ele>143.8</ele><time>1970-01-01T03:21:00.000Z</time></trkpt><trkpt lat="51.894411" lon="39.569522"><ele>143.9</ele><time>1970-01-01T03:21:01.000Z</time></trkpt><trkpt lat="51.894388" lon="39.569444"><ele>144.2</ele><time>1970-01-01T03:21:02.000Z</time></trkpt><trkpt lat="51.894354" lon="39.569387"><ele>144.7</ele><time>1970-01-01T03:21:03.000Z</time></trkpt><trkpt lat="51.894316" lon="39.569337"><ele>145</ele><time>1970-01-01T03:21:04.000Z</time></trkpt><trkpt lat="51.894277" lon="39.569299"><ele>145.5</ele><time>1970-01-01T03:21:05.000Z</time></trkpt><trkpt lat="51.894236" lon="39.569267"><ele>146.3</ele><time>1970-01-01T03:21:06.000Z</time></trkpt><trkpt lat="51.894193" lon="39.569236"><ele>147.2</ele><time>1970-01-01T03:21:07.000Z</time></trkpt><trkpt lat="51.893548" lon="39.568912"><ele>152.6</ele><time>1970-01-01T03:21:21.000Z</time></trkpt><trkpt lat="51.893497" lon="39.568895"><ele>152.3</ele><time>1970-01-01T03:21:22.000Z</time></trkpt><trkpt lat="51.893444" lon="39.568884"><ele>152.1</ele><time>1970-01-01T03:21:23.000Z</time></trkpt><trkpt lat="51.893391" lon="39.568877"><ele>151.9</ele><time>1970-01-01T03:21:24.000Z</time></trkpt><trkpt lat="51.893286" lon="39.568861"><ele>152.1</ele><time>1970-01-01T03:21:26.000Z</time></trkpt><trkpt lat="51.893033" lon="39.568833"><ele>151.8</ele><time>1970-01-01T03:21:31.000Z</time></trkpt><trkpt lat="51.892984" lon="39.568804"><ele>152.1</ele><time>1970-01-01T03:21:32.000Z</time></trkpt><trkpt lat="51.89294" lon="39.568765"><ele>152.1</ele><time>1970-01-01T03:21:33.000Z</time></trkpt><trkpt lat="51.892901" lon="39.568716"><ele>152</ele><time>1970-01-01T03:21:34.000Z</time></trkpt><trkpt lat="51.892862" lon="39.568662"><ele>152.2</ele><time>1970-01-01T03:21:35.000Z</time></trkpt><trkpt lat="51.892616" lon="39.568347"><ele>151.9</ele><time>1970-01-01T03:21:41.000Z</time></trkpt><trkpt lat="51.892548" lon="39.568231"><ele>152</ele><time>1970-01-01T03:21:43.000Z</time></trkpt><trkpt lat="51.892524" lon="39.568165"><ele>152</ele><time>1970-01-01T03:21:44.000Z</time></trkpt><trkpt lat="51.892509" lon="39.568097"><ele>151.8</ele><time>1970-01-01T03:21:45.000Z</time></trkpt><trkpt lat="51.892487" lon="39.567956"><ele>151.2</ele><time>1970-01-01T03:21:47.000Z</time></trkpt><trkpt lat="51.892481" lon="39.567885"><ele>151</ele><time>1970-01-01T03:21:48.000Z</time></trkpt><trkpt lat="51.892484" lon="39.567816"><ele>150.8</ele><time>1970-01-01T03:21:49.000Z</time></trkpt><trkpt lat="51.892495" lon="39.567745"><ele>150.9</ele><time>1970-01-01T03:21:50.000Z</time></trkpt><trkpt lat="51.892507" lon="39.567669"><ele>151</ele><time>1970-01-01T03:21:51.000Z</time></trkpt><trkpt lat="51.89252" lon="39.567595"><ele>151.1</ele><time>1970-01-01T03:21:52.000Z</time></trkpt><trkpt lat="51.892533" lon="39.56752"><ele>151.2</ele><time>1970-01-01T03:21:53.000Z</time></trkpt><trkpt lat="51.892613" lon="39.567137"><ele>152.4</ele><time>1970-01-01T03:21:58.000Z</time></trkpt><trkpt lat="51.89263" lon="39.567057"><ele>152.4</ele><time>1970-01-01T03:21:59.000Z</time></trkpt><trkpt lat="51.892648" lon="39.566976"><ele>152.4</ele><time>1970-01-01T03:22:00.000Z</time></trkpt><trkpt lat="51.892762" lon="39.566298"><ele>151.5</ele><time>1970-01-01T03:22:08.000Z</time></trkpt><trkpt lat="51.89278" lon="39.566222"><ele>151.5</ele><time>1970-01-01T03:22:09.000Z</time></trkpt><trkpt lat="51.892829" lon="39.565991"><ele>150.6</ele><time>1970-01-01T03:22:12.000Z</time></trkpt><trkpt lat="51.892844" lon="39.565919"><ele>150.4</ele><time>1970-01-01T03:22:13.000Z</time></trkpt><trkpt lat="51.892862" lon="39.56585"><ele>150.5</ele><time>1970-01-01T03:22:14.000Z</time></trkpt><trkpt lat="51.892875" lon="39.56578"><ele>150.7</ele><time>1970-01-01T03:22:15.000Z</time></trkpt><trkpt lat="51.892891" lon="39.565714"><ele>150.8</ele><time>1970-01-01T03:22:16.000Z</time></trkpt><trkpt lat="51.89291" lon="39.565647"><ele>150.9</ele><time>1970-01-01T03:22:17.000Z</time></trkpt><trkpt lat="51.892928" lon="39.565577"><ele>150.8</ele><time>1970-01-01T03:22:18.000Z</time></trkpt><trkpt lat="51.893016" lon="39.564995"><ele>149.7</ele><time>1970-01-01T03:22:29.000Z</time></trkpt><trkpt lat="51.893085" lon="39.564665"><ele>150.9</ele><time>1970-01-01T03:22:36.000Z</time></trkpt><trkpt lat="51.893086" lon="39.564607"><ele>150.8</ele><time>1970-01-01T03:22:37.000Z</time></trkpt><trkpt lat="51.893091" lon="39.56455"><ele>150.7</ele><time>1970-01-01T03:22:38.000Z</time></trkpt><trkpt lat="51.893105" lon="39.5645"><ele>150.8</ele><time>1970-01-01T03:22:39.000Z</time></trkpt><trkpt lat="51.893116" lon="39.564452"><ele>150.8</ele><time>1970-01-01T03:22:40.000Z</time></trkpt><trkpt lat="51.893123" lon="39.564412"><ele>150.9</ele><time>1970-01-01T03:22:41.000Z</time></trkpt><trkpt lat="51.893128" lon="39.564372"><ele>151.1</ele><time>1970-01-01T03:22:42.000Z</time></trkpt><trkpt lat="51.893134" lon="39.564335"><ele>151.3</ele><time>1970-01-01T03:22:43.000Z</time></trkpt><trkpt lat="51.893248" lon="39.563773"><ele>151.9</ele><time>1970-01-01T03:22:53.000Z</time></trkpt><trkpt lat="51.893445" lon="39.562871"><ele>147.8</ele><time>1970-01-01T03:23:05.000Z</time></trkpt><trkpt lat="51.893613" lon="39.561955"><ele>146.1</ele><time>1970-01-01T03:23:15.000Z</time></trkpt><trkpt lat="51.893634" lon="39.561866"><ele>146.3</ele><time>1970-01-01T03:23:16.000Z</time></trkpt><trkpt lat="51.893712" lon="39.561606"><ele>146.2</ele><time>1970-01-01T03:23:19.000Z</time></trkpt><trkpt lat="51.893845" lon="39.561296"><ele>147.5</ele><time>1970-01-01T03:23:23.000Z</time></trkpt><trkpt lat="51.893872" lon="39.561213"><ele>147.9</ele><time>1970-01-01T03:23:24.000Z</time></trkpt><trkpt lat="51.893893" lon="39.561127"><ele>148.3</ele><time>1970-01-01T03:23:25.000Z</time></trkpt><trkpt lat="51.8939" lon="39.561042"><ele>148.4</ele><time>1970-01-01T03:23:26.000Z</time></trkpt><trkpt lat="51.893906" lon="39.560962"><ele>148.8</ele><time>1970-01-01T03:23:27.000Z</time></trkpt><trkpt lat="51.893914" lon="39.560883"><ele>149.4</ele><time>1970-01-01T03:23:28.000Z</time></trkpt><trkpt lat="51.893922" lon="39.560813"><ele>149.8</ele><time>1970-01-01T03:23:29.000Z</time></trkpt><trkpt lat="51.894011" lon="39.560127"><ele>151.2</ele><time>1970-01-01T03:23:41.000Z</time></trkpt><trkpt lat="51.894078" lon="39.55934"><ele>151.2</ele><time>1970-01-01T03:23:52.000Z</time></trkpt><trkpt lat="51.89409" lon="39.55926"><ele>151.3</ele><time>1970-01-01T03:23:53.000Z</time></trkpt><trkpt lat="51.894165" lon="39.558844"><ele>153.4</ele><time>1970-01-01T03:23:58.000Z</time></trkpt><trkpt lat="51.894228" lon="39.558519"><ele>153.3</ele><time>1970-01-01T03:24:03.000Z</time></trkpt><trkpt lat="51.894237" lon="39.558477"><ele>153.3</ele><time>1970-01-01T03:24:04.000Z</time></trkpt><trkpt lat="51.894248" lon="39.558438"><ele>153.3</ele><time>1970-01-01T03:24:05.000Z</time></trkpt><trkpt lat="51.894261" lon="39.558399"><ele>153.3</ele><time>1970-01-01T03:24:06.000Z</time></trkpt><trkpt lat="51.894277" lon="39.558354"><ele>153.2</ele><time>1970-01-01T03:24:07.000Z</time></trkpt><trkpt lat="51.894292" lon="39.558299"><ele>153.2</ele><time>1970-01-01T03:24:08.000Z</time></trkpt><trkpt lat="51.894317" lon="39.558178"><ele>153.1</ele><time>1970-01-01T03:24:10.000Z</time></trkpt><trkpt lat="51.894326" lon="39.558102"><ele>152.6</ele><time>1970-01-01T03:24:11.000Z</time></trkpt><trkpt lat="51.894337" lon="39.558029"><ele>152.2</ele><time>1970-01-01T03:24:12.000Z</time></trkpt><trkpt lat="51.89439" lon="39.557398"><ele>150.2</ele><time>1970-01-01T03:24:21.000Z</time></trkpt><trkpt lat="51.89448" lon="39.557187"><ele>150.2</ele><time>1970-01-01T03:24:25.000Z</time></trkpt><trkpt lat="51.89448" lon="39.557126"><ele>150.2</ele><time>1970-01-01T03:24:26.000Z</time></trkpt><trkpt lat="51.894478" lon="39.557068"><ele>150.2</ele><time>1970-01-01T03:24:27.000Z</time></trkpt><trkpt lat="51.894479" lon="39.557017"><ele>150.2</ele><time>1970-01-01T03:24:28.000Z</time></trkpt><trkpt lat="51.894484" lon="39.556963"><ele>150.2</ele><time>1970-01-01T03:24:29.000Z</time></trkpt><trkpt lat="51.894489" lon="39.556901"><ele>150.2</ele><time>1970-01-01T03:24:30.000Z</time></trkpt><trkpt lat="51.894491" lon="39.556846"><ele>150.2</ele><time>1970-01-01T03:24:31.000Z</time></trkpt><trkpt lat="51.894519" lon="39.556653"><ele>151.1</ele><time>1970-01-01T03:24:35.000Z</time></trkpt><trkpt lat="51.894527" lon="39.556622"><ele>151.2</ele><time>1970-01-01T03:24:36.000Z</time></trkpt><trkpt lat="51.894538" lon="39.556594"><ele>151.3</ele><time>1970-01-01T03:24:37.000Z</time></trkpt><trkpt lat="51.894697" lon="39.556022"><ele>152.5</ele><time>1970-01-01T03:24:47.000Z</time></trkpt><trkpt lat="51.894844" lon="39.555404"><ele>153.8</ele><time>1970-01-01T03:24:57.000Z</time></trkpt><trkpt lat="51.894968" lon="39.554716"><ele>152.2</ele><time>1970-01-01T03:25:08.000Z</time></trkpt><trkpt lat="51.895107" lon="39.553958"><ele>149.7</ele><time>1970-01-01T03:25:19.000Z</time></trkpt><trkpt lat="51.895182" lon="39.553647"><ele>148.7</ele><time>1970-01-01T03:25:24.000Z</time></trkpt><trkpt lat="51.895228" lon="39.553263"><ele>148</ele><time>1970-01-01T03:25:29.000Z</time></trkpt><trkpt lat="51.895241" lon="39.553193"><ele>147.9</ele><time>1970-01-01T03:25:30.000Z</time></trkpt><trkpt lat="51.895267" lon="39.553041"><ele>147.6</ele><time>1970-01-01T03:25:32.000Z</time></trkpt><trkpt lat="51.895386" lon="39.552548"><ele>147.3</ele><time>1970-01-01T03:25:38.000Z</time></trkpt><trkpt lat="51.8956" lon="39.55128"><ele>144.4</ele><time>1970-01-01T03:25:51.000Z</time></trkpt><trkpt lat="51.895771" lon="39.550478"><ele>141.2</ele><time>1970-01-01T03:26:00.000Z</time></trkpt><trkpt lat="51.895846" lon="39.550128"><ele>142.5</ele><time>1970-01-01T03:26:04.000Z</time></trkpt><trkpt lat="51.895857" lon="39.550037"><ele>143.1</ele><time>1970-01-01T03:26:05.000Z</time></trkpt><trkpt lat="51.895859" lon="39.549941"><ele>143.4</ele><time>1970-01-01T03:26:06.000Z</time></trkpt><trkpt lat="51.895857" lon="39.549844"><ele>143.6</ele><time>1970-01-01T03:26:07.000Z</time></trkpt><trkpt lat="51.895855" lon="39.549741"><ele>143.6</ele><time>1970-01-01T03:26:08.000Z</time></trkpt><trkpt lat="51.895862" lon="39.54964"><ele>144.1</ele><time>1970-01-01T03:26:09.000Z</time></trkpt><trkpt lat="51.895875" lon="39.549547"><ele>144.3</ele><time>1970-01-01T03:26:10.000Z</time></trkpt><trkpt lat="51.895888" lon="39.549452"><ele>144.3</ele><time>1970-01-01T03:26:11.000Z</time></trkpt><trkpt lat="51.895914" lon="39.549271"><ele>144.2</ele><time>1970-01-01T03:26:13.000Z</time></trkpt><trkpt lat="51.895926" lon="39.549177"><ele>144.2</ele><time>1970-01-01T03:26:14.000Z</time></trkpt><trkpt lat="51.895952" lon="39.548894"><ele>144.1</ele><time>1970-01-01T03:26:17.000Z</time></trkpt><trkpt lat="51.895948" lon="39.548785"><ele>144.1</ele><time>1970-01-01T03:26:18.000Z</time></trkpt><trkpt lat="51.895911" lon="39.548134"><ele>143</ele><time>1970-01-01T03:26:25.000Z</time></trkpt><trkpt lat="51.89591" lon="39.548045"><ele>143.1</ele><time>1970-01-01T03:26:26.000Z</time></trkpt><trkpt lat="51.895912" lon="39.547955"><ele>143.2</ele><time>1970-01-01T03:26:27.000Z</time></trkpt><trkpt lat="51.895956" lon="39.547458"><ele>142.8</ele><time>1970-01-01T03:26:32.000Z</time></trkpt><trkpt lat="51.896026" lon="39.547072"><ele>142.9</ele><time>1970-01-01T03:26:37.000Z</time></trkpt><trkpt lat="51.896029" lon="39.546988"><ele>142.8</ele><time>1970-01-01T03:26:38.000Z</time></trkpt><trkpt lat="51.896038" lon="39.546669"><ele>142.9</ele><time>1970-01-01T03:26:42.000Z</time></trkpt><trkpt lat="51.896043" lon="39.546584"><ele>142.8</ele><time>1970-01-01T03:26:43.000Z</time></trkpt><trkpt lat="51.89605" lon="39.546497"><ele>142.6</ele><time>1970-01-01T03:26:44.000Z</time></trkpt><trkpt lat="51.896096" lon="39.546043"><ele>141.5</ele><time>1970-01-01T03:26:49.000Z</time></trkpt><trkpt lat="51.896098" lon="39.545963"><ele>141.5</ele><time>1970-01-01T03:26:50.000Z</time></trkpt><trkpt lat="51.896126" lon="39.545536"><ele>141</ele><time>1970-01-01T03:26:56.000Z</time></trkpt><trkpt lat="51.896153" lon="39.545314"><ele>140.7</ele><time>1970-01-01T03:26:59.000Z</time></trkpt><trkpt lat="51.89616" lon="39.545229"><ele>140.6</ele><time>1970-01-01T03:27:00.000Z</time></trkpt><trkpt lat="51.896155" lon="39.545131"><ele>140.6</ele><time>1970-01-01T03:27:01.000Z</time></trkpt><trkpt lat="51.896147" lon="39.54504"><ele>140.5</ele><time>1970-01-01T03:27:02.000Z</time></trkpt><trkpt lat="51.896148" lon="39.544952"><ele>140.4</ele><time>1970-01-01T03:27:03.000Z</time></trkpt><trkpt lat="51.896151" lon="39.544859"><ele>140.2</ele><time>1970-01-01T03:27:04.000Z</time></trkpt><trkpt lat="51.896163" lon="39.544772"><ele>140</ele><time>1970-01-01T03:27:05.000Z</time></trkpt><trkpt lat="51.896171" lon="39.544688"><ele>140</ele><time>1970-01-01T03:27:06.000Z</time></trkpt><trkpt lat="51.896196" lon="39.544418"><ele>140</ele><time>1970-01-01T03:27:09.000Z</time></trkpt><trkpt lat="51.896198" lon="39.544126"><ele>140.5</ele><time>1970-01-01T03:27:12.000Z</time></trkpt><trkpt lat="51.896209" lon="39.544043"><ele>140.5</ele><time>1970-01-01T03:27:13.000Z</time></trkpt><trkpt lat="51.896221" lon="39.543961"><ele>140.5</ele><time>1970-01-01T03:27:14.000Z</time></trkpt><trkpt lat="51.896229" lon="39.543881"><ele>140.4</ele><time>1970-01-01T03:27:15.000Z</time></trkpt><trkpt lat="51.896234" lon="39.5438"><ele>140.3</ele><time>1970-01-01T03:27:16.000Z</time></trkpt><trkpt lat="51.896235" lon="39.543707"><ele>140.2</ele><time>1970-01-01T03:27:17.000Z</time></trkpt><trkpt lat="51.896231" lon="39.543526"><ele>140.3</ele><time>1970-01-01T03:27:19.000Z</time></trkpt><trkpt lat="51.896211" lon="39.543242"><ele>141.1</ele><time>1970-01-01T03:27:22.000Z</time></trkpt><trkpt lat="51.896217" lon="39.543152"><ele>141.1</ele><time>1970-01-01T03:27:23.000Z</time></trkpt><trkpt lat="51.896226" lon="39.543057"><ele>141</ele><time>1970-01-01T03:27:24.000Z</time></trkpt><trkpt lat="51.896277" lon="39.542716"><ele>141.1</ele><time>1970-01-01T03:27:28.000Z</time></trkpt><trkpt lat="51.896283" lon="39.542625"><ele>141.1</ele><time>1970-01-01T03:27:29.000Z</time></trkpt><trkpt lat="51.89628" lon="39.542529"><ele>141.1</ele><time>1970-01-01T03:27:30.000Z</time></trkpt><trkpt lat="51.896287" lon="39.542434"><ele>140.8</ele><time>1970-01-01T03:27:31.000Z</time></trkpt><trkpt lat="51.896298" lon="39.542346"><ele>140.5</ele><time>1970-01-01T03:27:32.000Z</time></trkpt><trkpt lat="51.896316" lon="39.542177"><ele>140.2</ele><time>1970-01-01T03:27:34.000Z</time></trkpt><trkpt lat="51.896324" lon="39.542093"><ele>140.2</ele><time>1970-01-01T03:27:35.000Z</time></trkpt><trkpt lat="51.896328" lon="39.541832"><ele>140.1</ele><time>1970-01-01T03:27:38.000Z</time></trkpt><trkpt lat="51.896339" lon="39.541756"><ele>140.1</ele><time>1970-01-01T03:27:39.000Z</time></trkpt><trkpt lat="51.896353" lon="39.541696"><ele>140.1</ele><time>1970-01-01T03:27:40.000Z</time></trkpt><trkpt lat="51.89636" lon="39.541626"><ele>140.1</ele><time>1970-01-01T03:27:41.000Z</time></trkpt><trkpt lat="51.896358" lon="39.541549"><ele>140</ele><time>1970-01-01T03:27:42.000Z</time></trkpt><trkpt lat="51.896351" lon="39.541474"><ele>140.2</ele><time>1970-01-01T03:27:43.000Z</time></trkpt><trkpt lat="51.896342" lon="39.541407"><ele>140.5</ele><time>1970-01-01T03:27:44.000Z</time></trkpt><trkpt lat="51.896275" lon="39.541111"><ele>141</ele><time>1970-01-01T03:27:48.000Z</time></trkpt><trkpt lat="51.896261" lon="39.54103"><ele>141.2</ele><time>1970-01-01T03:27:49.000Z</time></trkpt><trkpt lat="51.896256" lon="39.540946"><ele>141.3</ele><time>1970-01-01T03:27:50.000Z</time></trkpt><trkpt lat="51.896266" lon="39.540868"><ele>141.3</ele><time>1970-01-01T03:27:51.000Z</time></trkpt><trkpt lat="51.896283" lon="39.540778"><ele>141.3</ele><time>1970-01-01T03:27:52.000Z</time></trkpt><trkpt lat="51.896293" lon="39.540694"><ele>141.2</ele><time>1970-01-01T03:27:53.000Z</time></trkpt><trkpt lat="51.896297" lon="39.54061"><ele>141.2</ele><time>1970-01-01T03:27:54.000Z</time></trkpt><trkpt lat="51.896295" lon="39.540532"><ele>141.2</ele><time>1970-01-01T03:27:55.000Z</time></trkpt><trkpt lat="51.896287" lon="39.54045"><ele>141.2</ele><time>1970-01-01T03:27:56.000Z</time></trkpt><trkpt lat="51.896272" lon="39.540352"><ele>141.2</ele><time>1970-01-01T03:27:57.000Z</time></trkpt><trkpt lat="51.89626" lon="39.540265"><ele>141.3</ele><time>1970-01-01T03:27:58.000Z</time></trkpt><trkpt lat="51.896233" lon="39.540069"><ele>141.1</ele><time>1970-01-01T03:28:00.000Z</time></trkpt><trkpt lat="51.896234" lon="39.53997"><ele>140.9</ele><time>1970-01-01T03:28:01.000Z</time></trkpt><trkpt lat="51.896244" lon="39.539884"><ele>140.8</ele><time>1970-01-01T03:28:02.000Z</time></trkpt><trkpt lat="51.896262" lon="39.539803"><ele>140.8</ele><time>1970-01-01T03:28:03.000Z</time></trkpt><trkpt lat="51.896283" lon="39.539728"><ele>140.9</ele><time>1970-01-01T03:28:04.000Z</time></trkpt><trkpt lat="51.896304" lon="39.539641"><ele>141</ele><time>1970-01-01T03:28:05.000Z</time></trkpt><trkpt lat="51.896321" lon="39.539564"><ele>141.2</ele><time>1970-01-01T03:28:06.000Z</time></trkpt><trkpt lat="51.896339" lon="39.539489"><ele>141.4</ele><time>1970-01-01T03:28:07.000Z</time></trkpt><trkpt lat="51.896357" lon="39.539399"><ele>141.7</ele><time>1970-01-01T03:28:08.000Z</time></trkpt><trkpt lat="51.896366" lon="39.539304"><ele>142</ele><time>1970-01-01T03:28:09.000Z</time></trkpt><trkpt lat="51.896373" lon="39.539215"><ele>142.2</ele><time>1970-01-01T03:28:10.000Z</time></trkpt><trkpt lat="51.896392" lon="39.539044"><ele>142.7</ele><time>1970-01-01T03:28:12.000Z</time></trkpt><trkpt lat="51.896403" lon="39.538946"><ele>142.8</ele><time>1970-01-01T03:28:13.000Z</time></trkpt><trkpt lat="51.896415" lon="39.538858"><ele>142.5</ele><time>1970-01-01T03:28:14.000Z</time></trkpt><trkpt lat="51.896426" lon="39.538763"><ele>141.8</ele><time>1970-01-01T03:28:15.000Z</time></trkpt><trkpt lat="51.896441" lon="39.53867"><ele>141.2</ele><time>1970-01-01T03:28:16.000Z</time></trkpt><trkpt lat="51.896449" lon="39.538563"><ele>140.7</ele><time>1970-01-01T03:28:17.000Z</time></trkpt><trkpt lat="51.896448" lon="39.538467"><ele>140.2</ele><time>1970-01-01T03:28:18.000Z</time></trkpt><trkpt lat="51.896432" lon="39.538371"><ele>139.5</ele><time>1970-01-01T03:28:19.000Z</time></trkpt><trkpt lat="51.896402" lon="39.538284"><ele>139.1</ele><time>1970-01-01T03:28:20.000Z</time></trkpt><trkpt lat="51.896365" lon="39.538203"><ele>138.8</ele><time>1970-01-01T03:28:21.000Z</time></trkpt><trkpt lat="51.896321" lon="39.538134"><ele>137.9</ele><time>1970-01-01T03:28:22.000Z</time></trkpt><trkpt lat="51.896273" lon="39.538068"><ele>137.1</ele><time>1970-01-01T03:28:23.000Z</time></trkpt><trkpt lat="51.896225" lon="39.537996"><ele>136.1</ele><time>1970-01-01T03:28:24.000Z</time></trkpt><trkpt lat="51.896182" lon="39.537918"><ele>135.1</ele><time>1970-01-01T03:28:25.000Z</time></trkpt><trkpt lat="51.896141" lon="39.537838"><ele>134.6</ele><time>1970-01-01T03:28:26.000Z</time></trkpt><trkpt lat="51.896055" lon="39.537679"><ele>133.6</ele><time>1970-01-01T03:28:28.000Z</time></trkpt><trkpt lat="51.896007" lon="39.537611"><ele>133.2</ele><time>1970-01-01T03:28:29.000Z</time></trkpt><trkpt lat="51.895959" lon="39.537558"><ele>133.3</ele><time>1970-01-01T03:28:30.000Z</time></trkpt><trkpt lat="51.895908" lon="39.537512"><ele>133.4</ele><time>1970-01-01T03:28:31.000Z</time></trkpt><trkpt lat="51.895855" lon="39.53747"><ele>133.3</ele><time>1970-01-01T03:28:32.000Z</time></trkpt><trkpt lat="51.895131" lon="39.536825"><ele>132.6</ele><time>1970-01-01T03:28:47.000Z</time></trkpt><trkpt lat="51.895086" lon="39.536797"><ele>132.2</ele><time>1970-01-01T03:28:48.000Z</time></trkpt><trkpt lat="51.895047" lon="39.53676"><ele>131.9</ele><time>1970-01-01T03:28:49.000Z</time></trkpt><trkpt lat="51.895017" lon="39.536713"><ele>132</ele><time>1970-01-01T03:28:50.000Z</time></trkpt><trkpt lat="51.895002" lon="39.53666"><ele>132.2</ele><time>1970-01-01T03:28:51.000Z</time></trkpt><trkpt lat="51.895008" lon="39.536607"><ele>132.3</ele><time>1970-01-01T03:28:52.000Z</time></trkpt><trkpt lat="51.895026" lon="39.536554"><ele>132.5</ele><time>1970-01-01T03:28:53.000Z</time></trkpt><trkpt lat="51.895052" lon="39.536503"><ele>132.3</ele><time>1970-01-01T03:28:54.000Z</time></trkpt><trkpt lat="51.895123" lon="39.536333"><ele>131.9</ele><time>1970-01-01T03:28:57.000Z</time></trkpt><trkpt lat="51.895138" lon="39.536269"><ele>132.2</ele><time>1970-01-01T03:28:58.000Z</time></trkpt><trkpt lat="51.895149" lon="39.536205"><ele>132.6</ele><time>1970-01-01T03:28:59.000Z</time></trkpt><trkpt lat="51.895138" lon="39.535914"><ele>133.6</ele><time>1970-01-01T03:29:04.000Z</time></trkpt><trkpt lat="51.895107" lon="39.535876"><ele>133.8</ele><time>1970-01-01T03:29:05.000Z</time></trkpt><trkpt lat="51.895067" lon="39.535852"><ele>134</ele><time>1970-01-01T03:29:06.000Z</time></trkpt><trkpt lat="51.895021" lon="39.535838"><ele>133.9</ele><time>1970-01-01T03:29:07.000Z</time></trkpt><trkpt lat="51.894973" lon="39.535826"><ele>133.7</ele><time>1970-01-01T03:29:08.000Z</time></trkpt><trkpt lat="51.894591" lon="39.535677"><ele>133</ele><time>1970-01-01T03:29:18.000Z</time></trkpt><trkpt lat="51.894459" lon="39.535642"><ele>133</ele><time>1970-01-01T03:29:21.000Z</time></trkpt><trkpt lat="51.894418" lon="39.535613"><ele>133.5</ele><time>1970-01-01T03:29:22.000Z</time></trkpt><trkpt lat="51.894381" lon="39.535571"><ele>134</ele><time>1970-01-01T03:29:23.000Z</time></trkpt><trkpt lat="51.894343" lon="39.535524"><ele>134</ele><time>1970-01-01T03:29:24.000Z</time></trkpt><trkpt lat="51.894301" lon="39.535479"><ele>134</ele><time>1970-01-01T03:29:25.000Z</time></trkpt><trkpt lat="51.894151" lon="39.535335"><ele>135.2</ele><time>1970-01-01T03:29:28.000Z</time></trkpt><trkpt lat="51.894095" lon="39.535306"><ele>135.4</ele><time>1970-01-01T03:29:29.000Z</time></trkpt><trkpt lat="51.894042" lon="39.535293"><ele>135.3</ele><time>1970-01-01T03:29:30.000Z</time></trkpt><trkpt lat="51.89399" lon="39.535291"><ele>135</ele><time>1970-01-01T03:29:31.000Z</time></trkpt><trkpt lat="51.893942" lon="39.535288"><ele>134.8</ele><time>1970-01-01T03:29:32.000Z</time></trkpt><trkpt lat="51.893868" lon="39.535254"><ele>135.1</ele><time>1970-01-01T03:29:34.000Z</time></trkpt><trkpt lat="51.893853" lon="39.535216"><ele>135.2</ele><time>1970-01-01T03:29:35.000Z</time></trkpt><trkpt lat="51.89385" lon="39.535168"><ele>135.3</ele><time>1970-01-01T03:29:36.000Z</time></trkpt><trkpt lat="51.893854" lon="39.535117"><ele>135.4</ele><time>1970-01-01T03:29:37.000Z</time></trkpt><trkpt lat="51.893859" lon="39.535061"><ele>135.3</ele><time>1970-01-01T03:29:38.000Z</time></trkpt><trkpt lat="51.893842" lon="39.5345"><ele>139.4</ele><time>1970-01-01T03:29:47.000Z</time></trkpt><trkpt lat="51.893884" lon="39.534245"><ele>139</ele><time>1970-01-01T03:29:51.000Z</time></trkpt><trkpt lat="51.893894" lon="39.534167"><ele>138.9</ele><time>1970-01-01T03:29:52.000Z</time></trkpt><trkpt lat="51.893921" lon="39.533919"><ele>139.1</ele><time>1970-01-01T03:29:55.000Z</time></trkpt><trkpt lat="51.893937" lon="39.533833"><ele>138.9</ele><time>1970-01-01T03:29:56.000Z</time></trkpt><trkpt lat="51.894025" lon="39.533381"><ele>139.4</ele><time>1970-01-01T03:30:01.000Z</time></trkpt><trkpt lat="51.89406" lon="39.533223"><ele>139.7</ele><time>1970-01-01T03:30:03.000Z</time></trkpt><trkpt lat="51.894087" lon="39.533069"><ele>139.1</ele><time>1970-01-01T03:30:05.000Z</time></trkpt><trkpt lat="51.894204" lon="39.532402"><ele>139.7</ele><time>1970-01-01T03:30:16.000Z</time></trkpt><trkpt lat="51.894251" lon="39.53221"><ele>139.4</ele><time>1970-01-01T03:30:19.000Z</time></trkpt><trkpt lat="51.894268" lon="39.532146"><ele>139.2</ele><time>1970-01-01T03:30:20.000Z</time></trkpt><trkpt lat="51.894325" lon="39.531846"><ele>138.1</ele><time>1970-01-01T03:30:24.000Z</time></trkpt><trkpt lat="51.89439" lon="39.531465"><ele>137.5</ele><time>1970-01-01T03:30:29.000Z</time></trkpt><trkpt lat="51.894401" lon="39.531381"><ele>137.7</ele><time>1970-01-01T03:30:30.000Z</time></trkpt><trkpt lat="51.894486" lon="39.530855"><ele>137.2</ele><time>1970-01-01T03:30:36.000Z</time></trkpt><trkpt lat="51.894528" lon="39.53067"><ele>136.5</ele><time>1970-01-01T03:30:38.000Z</time></trkpt><trkpt lat="51.894544" lon="39.530575"><ele>135.9</ele><time>1970-01-01T03:30:39.000Z</time></trkpt><trkpt lat="51.894651" lon="39.530087"><ele>133.2</ele><time>1970-01-01T03:30:44.000Z</time></trkpt><trkpt lat="51.894673" lon="39.529978"><ele>132.6</ele><time>1970-01-01T03:30:45.000Z</time></trkpt><trkpt lat="51.894704" lon="39.529875"><ele>132.2</ele><time>1970-01-01T03:30:46.000Z</time></trkpt><trkpt lat="51.89482" lon="39.52929"><ele>132</ele><time>1970-01-01T03:30:52.000Z</time></trkpt><trkpt lat="51.894838" lon="39.529201"><ele>132</ele><time>1970-01-01T03:30:53.000Z</time></trkpt><trkpt lat="51.89493" lon="39.528644"><ele>132</ele><time>1970-01-01T03:30:59.000Z</time></trkpt><trkpt lat="51.894974" lon="39.528383"><ele>131.8</ele><time>1970-01-01T03:31:02.000Z</time></trkpt><trkpt lat="51.894989" lon="39.528293"><ele>131.2</ele><time>1970-01-01T03:31:03.000Z</time></trkpt><trkpt lat="51.89501" lon="39.528212"><ele>131</ele><time>1970-01-01T03:31:04.000Z</time></trkpt><trkpt lat="51.895035" lon="39.52814"><ele>130.8</ele><time>1970-01-01T03:31:05.000Z</time></trkpt><trkpt lat="51.895059" lon="39.528065"><ele>130.7</ele><time>1970-01-01T03:31:06.000Z</time></trkpt><trkpt lat="51.895097" lon="39.527923"><ele>130.4</ele><time>1970-01-01T03:31:08.000Z</time></trkpt><trkpt lat="51.895111" lon="39.527836"><ele>130.2</ele><time>1970-01-01T03:31:09.000Z</time></trkpt><trkpt lat="51.895128" lon="39.527749"><ele>130</ele><time>1970-01-01T03:31:10.000Z</time></trkpt><trkpt lat="51.895205" lon="39.527396"><ele>129.5</ele><time>1970-01-01T03:31:14.000Z</time></trkpt><trkpt lat="51.895241" lon="39.527311"><ele>129.6</ele><time>1970-01-01T03:31:15.000Z</time></trkpt><trkpt lat="51.895276" lon="39.527229"><ele>130</ele><time>1970-01-01T03:31:16.000Z</time></trkpt><trkpt lat="51.895298" lon="39.52714"><ele>130.5</ele><time>1970-01-01T03:31:17.000Z</time></trkpt><trkpt lat="51.895314" lon="39.527057"><ele>131</ele><time>1970-01-01T03:31:18.000Z</time></trkpt><trkpt lat="51.895337" lon="39.526977"><ele>131.6</ele><time>1970-01-01T03:31:19.000Z</time></trkpt><trkpt lat="51.89535" lon="39.526892"><ele>132</ele><time>1970-01-01T03:31:20.000Z</time></trkpt><trkpt lat="51.895363" lon="39.526803"><ele>132.5</ele><time>1970-01-01T03:31:21.000Z</time></trkpt><trkpt lat="51.895384" lon="39.526712"><ele>133</ele><time>1970-01-01T03:31:22.000Z</time></trkpt><trkpt lat="51.895443" lon="39.526471"><ele>134.4</ele><time>1970-01-01T03:31:25.000Z</time></trkpt><trkpt lat="51.895459" lon="39.526388"><ele>134.9</ele><time>1970-01-01T03:31:26.000Z</time></trkpt><trkpt lat="51.895472" lon="39.526308"><ele>135.5</ele><time>1970-01-01T03:31:27.000Z</time></trkpt><trkpt lat="51.895488" lon="39.526228"><ele>136</ele><time>1970-01-01T03:31:28.000Z</time></trkpt><trkpt lat="51.895507" lon="39.526156"><ele>136.3</ele><time>1970-01-01T03:31:29.000Z</time></trkpt><trkpt lat="51.895519" lon="39.526064"><ele>136.8</ele><time>1970-01-01T03:31:30.000Z</time></trkpt><trkpt lat="51.895538" lon="39.525972"><ele>137.2</ele><time>1970-01-01T03:31:31.000Z</time></trkpt><trkpt lat="51.895556" lon="39.525883"><ele>137.4</ele><time>1970-01-01T03:31:32.000Z</time></trkpt><trkpt lat="51.895613" lon="39.525556"><ele>137.3</ele><time>1970-01-01T03:31:36.000Z</time></trkpt><trkpt lat="51.895629" lon="39.525474"><ele>137</ele><time>1970-01-01T03:31:37.000Z</time></trkpt><trkpt lat="51.895642" lon="39.525385"><ele>136.7</ele><time>1970-01-01T03:31:38.000Z</time></trkpt><trkpt lat="51.895675" lon="39.525203"><ele>136.1</ele><time>1970-01-01T03:31:40.000Z</time></trkpt><trkpt lat="51.895686" lon="39.525125"><ele>135.8</ele><time>1970-01-01T03:31:41.000Z</time></trkpt><trkpt lat="51.895694" lon="39.525046"><ele>135.4</ele><time>1970-01-01T03:31:42.000Z</time></trkpt><trkpt lat="51.895701" lon="39.524968"><ele>135.3</ele><time>1970-01-01T03:31:43.000Z</time></trkpt><trkpt lat="51.895715" lon="39.524881"><ele>135.5</ele><time>1970-01-01T03:31:44.000Z</time></trkpt><trkpt lat="51.895729" lon="39.524794"><ele>135.5</ele><time>1970-01-01T03:31:45.000Z</time></trkpt><trkpt lat="51.895746" lon="39.524709"><ele>135.4</ele><time>1970-01-01T03:31:46.000Z</time></trkpt><trkpt lat="51.89576" lon="39.524616"><ele>135.5</ele><time>1970-01-01T03:31:47.000Z</time></trkpt><trkpt lat="51.895778" lon="39.52453"><ele>135.7</ele><time>1970-01-01T03:31:48.000Z</time></trkpt><trkpt lat="51.895801" lon="39.524435"><ele>136.1</ele><time>1970-01-01T03:31:49.000Z</time></trkpt><trkpt lat="51.895817" lon="39.524342"><ele>136</ele><time>1970-01-01T03:31:50.000Z</time></trkpt><trkpt lat="51.895836" lon="39.524247"><ele>136</ele><time>1970-01-01T03:31:51.000Z</time></trkpt><trkpt lat="51.895857" lon="39.524157"><ele>136</ele><time>1970-01-01T03:31:52.000Z</time></trkpt><trkpt lat="51.895876" lon="39.524071"><ele>136.2</ele><time>1970-01-01T03:31:53.000Z</time></trkpt><trkpt lat="51.895888" lon="39.52398"><ele>136.2</ele><time>1970-01-01T03:31:54.000Z</time></trkpt><trkpt lat="51.895902" lon="39.523879"><ele>136</ele><time>1970-01-01T03:31:55.000Z</time></trkpt><trkpt lat="51.896036" lon="39.523065"><ele>135.6</ele><time>1970-01-01T03:32:05.000Z</time></trkpt><trkpt lat="51.896039" lon="39.523009"><ele>135.7</ele><time>1970-01-01T03:32:06.000Z</time></trkpt><trkpt lat="51.896111" lon="39.522737"><ele>136.1</ele><time>1970-01-01T03:32:11.000Z</time></trkpt><trkpt lat="51.896128" lon="39.522656"><ele>136.3</ele><time>1970-01-01T03:32:12.000Z</time></trkpt><trkpt lat="51.896189" lon="39.522295"><ele>136.9</ele><time>1970-01-01T03:32:16.000Z</time></trkpt><trkpt lat="51.896195" lon="39.522207"><ele>137.1</ele><time>1970-01-01T03:32:17.000Z</time></trkpt><trkpt lat="51.896207" lon="39.522127"><ele>137.3</ele><time>1970-01-01T03:32:18.000Z</time></trkpt><trkpt lat="51.896291" lon="39.521496"><ele>140.5</ele><time>1970-01-01T03:32:27.000Z</time></trkpt><trkpt lat="51.896269" lon="39.521446"><ele>140.9</ele><time>1970-01-01T03:32:28.000Z</time></trkpt><trkpt lat="51.896229" lon="39.521406"><ele>141.5</ele><time>1970-01-01T03:32:29.000Z</time></trkpt><trkpt lat="51.896182" lon="39.521376"><ele>142.5</ele><time>1970-01-01T03:32:30.000Z</time></trkpt><trkpt lat="51.896137" lon="39.521355"><ele>142.6</ele><time>1970-01-01T03:32:31.000Z</time></trkpt><trkpt lat="51.896096" lon="39.521324"><ele>142.6</ele><time>1970-01-01T03:32:32.000Z</time></trkpt><trkpt lat="51.896059" lon="39.521282"><ele>142.3</ele><time>1970-01-01T03:32:33.000Z</time></trkpt><trkpt lat="51.896025" lon="39.521239"><ele>141.9</ele><time>1970-01-01T03:32:34.000Z</time></trkpt><trkpt lat="51.895985" lon="39.521209"><ele>141.5</ele><time>1970-01-01T03:32:35.000Z</time></trkpt><trkpt lat="51.89594" lon="39.521185"><ele>141.1</ele><time>1970-01-01T03:32:36.000Z</time></trkpt><trkpt lat="51.895534" lon="39.520953"><ele>139.5</ele><time>1970-01-01T03:32:46.000Z</time></trkpt><trkpt lat="51.895415" lon="39.520889"><ele>139.6</ele><time>1970-01-01T03:32:49.000Z</time></trkpt><trkpt lat="51.894967" lon="39.520667"><ele>141.9</ele><time>1970-01-01T03:32:59.000Z</time></trkpt><trkpt lat="51.894877" lon="39.520622"><ele>142.2</ele><time>1970-01-01T03:33:01.000Z</time></trkpt><trkpt lat="51.894833" lon="39.520587"><ele>142.3</ele><time>1970-01-01T03:33:02.000Z</time></trkpt><trkpt lat="51.89466" lon="39.520403"><ele>143.5</ele><time>1970-01-01T03:33:07.000Z</time></trkpt><trkpt lat="51.894647" lon="39.520339"><ele>143.5</ele><time>1970-01-01T03:33:08.000Z</time></trkpt><trkpt lat="51.894644" lon="39.52027"><ele>143.5</ele><time>1970-01-01T03:33:09.000Z</time></trkpt><trkpt lat="51.894648" lon="39.520201"><ele>143.5</ele><time>1970-01-01T03:33:10.000Z</time></trkpt><trkpt lat="51.894656" lon="39.520138"><ele>143.6</ele><time>1970-01-01T03:33:11.000Z</time></trkpt><trkpt lat="51.894666" lon="39.519922"><ele>144.7</ele><time>1970-01-01T03:33:14.000Z</time></trkpt><trkpt lat="51.894664" lon="39.519841"><ele>144.7</ele><time>1970-01-01T03:33:15.000Z</time></trkpt><trkpt lat="51.894661" lon="39.519768"><ele>144.6</ele><time>1970-01-01T03:33:16.000Z</time></trkpt><trkpt lat="51.894664" lon="39.519697"><ele>144.5</ele><time>1970-01-01T03:33:17.000Z</time></trkpt><trkpt lat="51.894676" lon="39.519635"><ele>144.6</ele><time>1970-01-01T03:33:18.000Z</time></trkpt><trkpt lat="51.894691" lon="39.519572"><ele>144.6</ele><time>1970-01-01T03:33:19.000Z</time></trkpt><trkpt lat="51.894693" lon="39.519418"><ele>144.6</ele><time>1970-01-01T03:33:21.000Z</time></trkpt><trkpt lat="51.894686" lon="39.519339"><ele>144.6</ele><time>1970-01-01T03:33:22.000Z</time></trkpt><trkpt lat="51.894685" lon="39.51926"><ele>144.6</ele><time>1970-01-01T03:33:23.000Z</time></trkpt><trkpt lat="51.894683" lon="39.519172"><ele>144.6</ele><time>1970-01-01T03:33:24.000Z</time></trkpt><trkpt lat="51.894683" lon="39.51909"><ele>144.6</ele><time>1970-01-01T03:33:25.000Z</time></trkpt><trkpt lat="51.894684" lon="39.519012"><ele>144.6</ele><time>1970-01-01T03:33:26.000Z</time></trkpt><trkpt lat="51.894687" lon="39.518935"><ele>144.6</ele><time>1970-01-01T03:33:27.000Z</time></trkpt><trkpt lat="51.894688" lon="39.51886"><ele>144.7</ele><time>1970-01-01T03:33:28.000Z</time></trkpt><trkpt lat="51.894685" lon="39.518787"><ele>144.5</ele><time>1970-01-01T03:33:29.000Z</time></trkpt><trkpt lat="51.894689" lon="39.518708"><ele>144.3</ele><time>1970-01-01T03:33:30.000Z</time></trkpt><trkpt lat="51.894702" lon="39.518632"><ele>144</ele><time>1970-01-01T03:33:31.000Z</time></trkpt><trkpt lat="51.894715" lon="39.518556"><ele>143.8</ele><time>1970-01-01T03:33:32.000Z</time></trkpt><trkpt lat="51.894726" lon="39.518482"><ele>143.6</ele><time>1970-01-01T03:33:33.000Z</time></trkpt><trkpt lat="51.894734" lon="39.518409"><ele>143.5</ele><time>1970-01-01T03:33:34.000Z</time></trkpt><trkpt lat="51.894741" lon="39.518336"><ele>143.6</ele><time>1970-01-01T03:33:35.000Z</time></trkpt><trkpt lat="51.894733" lon="39.518259"><ele>143.5</ele><time>1970-01-01T03:33:36.000Z</time></trkpt><trkpt lat="51.894716" lon="39.518174"><ele>143.3</ele><time>1970-01-01T03:33:37.000Z</time></trkpt><trkpt lat="51.894707" lon="39.518013"><ele>142.7</ele><time>1970-01-01T03:33:39.000Z</time></trkpt><trkpt lat="51.894715" lon="39.517937"><ele>142.6</ele><time>1970-01-01T03:33:40.000Z</time></trkpt><trkpt lat="51.894731" lon="39.517874"><ele>142.6</ele><time>1970-01-01T03:33:41.000Z</time></trkpt><trkpt lat="51.894743" lon="39.517802"><ele>142.6</ele><time>1970-01-01T03:33:42.000Z</time></trkpt><trkpt lat="51.894752" lon="39.517724"><ele>142.4</ele><time>1970-01-01T03:33:43.000Z</time></trkpt><trkpt lat="51.894755" lon="39.517637"><ele>142.1</ele><time>1970-01-01T03:33:44.000Z</time></trkpt><trkpt lat="51.89476" lon="39.517275"><ele>141.4</ele><time>1970-01-01T03:33:48.000Z</time></trkpt><trkpt lat="51.894774" lon="39.517191"><ele>141.6</ele><time>1970-01-01T03:33:49.000Z</time></trkpt><trkpt lat="51.894794" lon="39.51711"><ele>141.5</ele><time>1970-01-01T03:33:50.000Z</time></trkpt><trkpt lat="51.894819" lon="39.517033"><ele>141.3</ele><time>1970-01-01T03:33:51.000Z</time></trkpt><trkpt lat="51.894856" lon="39.516972"><ele>140.9</ele><time>1970-01-01T03:33:52.000Z</time></trkpt><trkpt lat="51.894897" lon="39.516926"><ele>140.8</ele><time>1970-01-01T03:33:53.000Z</time></trkpt><trkpt lat="51.894998" lon="39.516779"><ele>140.8</ele><time>1970-01-01T03:33:56.000Z</time></trkpt><trkpt lat="51.895025" lon="39.516733"><ele>140.9</ele><time>1970-01-01T03:33:57.000Z</time></trkpt><trkpt lat="51.895243" lon="39.516336"><ele>140.9</ele><time>1970-01-01T03:34:07.000Z</time></trkpt><trkpt lat="51.895331" lon="39.516135"><ele>140.6</ele><time>1970-01-01T03:34:11.000Z</time></trkpt><trkpt lat="51.895345" lon="39.516078"><ele>140.6</ele><time>1970-01-01T03:34:12.000Z</time></trkpt><trkpt lat="51.895358" lon="39.516014"><ele>140.7</ele><time>1970-01-01T03:34:13.000Z</time></trkpt><trkpt lat="51.895442" lon="39.515135"><ele>139.7</ele><time>1970-01-01T03:34:26.000Z</time></trkpt><trkpt lat="51.895384" lon="39.514817"><ele>139.2</ele><time>1970-01-01T03:34:30.000Z</time></trkpt><trkpt lat="51.895393" lon="39.514744"><ele>139.1</ele><time>1970-01-01T03:34:31.000Z</time></trkpt><trkpt lat="51.895409" lon="39.514679"><ele>139.1</ele><time>1970-01-01T03:34:32.000Z</time></trkpt><trkpt lat="51.895427" lon="39.514616"><ele>139</ele><time>1970-01-01T03:34:33.000Z</time></trkpt><trkpt lat="51.895441" lon="39.51455"><ele>138.9</ele><time>1970-01-01T03:34:34.000Z</time></trkpt><trkpt lat="51.895577" lon="39.513969"><ele>137.5</ele><time>1970-01-01T03:34:43.000Z</time></trkpt><trkpt lat="51.895603" lon="39.513909"><ele>137.1</ele><time>1970-01-01T03:34:44.000Z</time></trkpt><trkpt lat="51.895754" lon="39.513576"><ele>135.1</ele><time>1970-01-01T03:34:49.000Z</time></trkpt><trkpt lat="51.895823" lon="39.513466"><ele>134.6</ele><time>1970-01-01T03:34:51.000Z</time></trkpt><trkpt lat="51.895877" lon="39.51335"><ele>133.9</ele><time>1970-01-01T03:34:53.000Z</time></trkpt><trkpt lat="51.895897" lon="39.513285"><ele>133.7</ele><time>1970-01-01T03:34:54.000Z</time></trkpt><trkpt lat="51.89601" lon="39.512607"><ele>132.1</ele><time>1970-01-01T03:35:05.000Z</time></trkpt><trkpt lat="51.896042" lon="39.511938"><ele>131.8</ele><time>1970-01-01T03:35:15.000Z</time></trkpt><trkpt lat="51.896061" lon="39.511789"><ele>132.1</ele><time>1970-01-01T03:35:17.000Z</time></trkpt><trkpt lat="51.896227" lon="39.511035"><ele>131.9</ele><time>1970-01-01T03:35:28.000Z</time></trkpt><trkpt lat="51.896254" lon="39.510979"><ele>131.8</ele><time>1970-01-01T03:35:29.000Z</time></trkpt><trkpt lat="51.896489" lon="39.510539"><ele>131</ele><time>1970-01-01T03:35:37.000Z</time></trkpt><trkpt lat="51.896579" lon="39.510332"><ele>130</ele><time>1970-01-01T03:35:40.000Z</time></trkpt><trkpt lat="51.896606" lon="39.510249"><ele>130.1</ele><time>1970-01-01T03:35:41.000Z</time></trkpt><trkpt lat="51.896657" lon="39.510093"><ele>130.7</ele><time>1970-01-01T03:35:43.000Z</time></trkpt><trkpt lat="51.896932" lon="39.509465"><ele>131.7</ele><time>1970-01-01T03:35:53.000Z</time></trkpt><trkpt lat="51.897122" lon="39.509122"><ele>132</ele><time>1970-01-01T03:35:59.000Z</time></trkpt><trkpt lat="51.897188" lon="39.509004"><ele>131.9</ele><time>1970-01-01T03:36:01.000Z</time></trkpt><trkpt lat="51.897221" lon="39.508945"><ele>132</ele><time>1970-01-01T03:36:02.000Z</time></trkpt><trkpt lat="51.897322" lon="39.508743"><ele>131.9</ele><time>1970-01-01T03:36:05.000Z</time></trkpt><trkpt lat="51.897352" lon="39.508677"><ele>131.7</ele><time>1970-01-01T03:36:06.000Z</time></trkpt><trkpt lat="51.897433" lon="39.508477"><ele>131.3</ele><time>1970-01-01T03:36:09.000Z</time></trkpt><trkpt lat="51.897457" lon="39.508397"><ele>131.3</ele><time>1970-01-01T03:36:10.000Z</time></trkpt><trkpt lat="51.897482" lon="39.508312"><ele>131.5</ele><time>1970-01-01T03:36:11.000Z</time></trkpt><trkpt lat="51.897503" lon="39.508217"><ele>131.7</ele><time>1970-01-01T03:36:12.000Z</time></trkpt><trkpt lat="51.89752" lon="39.508125"><ele>131.9</ele><time>1970-01-01T03:36:13.000Z</time></trkpt><trkpt lat="51.897665" lon="39.507346"><ele>136.4</ele><time>1970-01-01T03:36:23.000Z</time></trkpt><trkpt lat="51.89779" lon="39.506612"><ele>137</ele><time>1970-01-01T03:36:33.000Z</time></trkpt><trkpt lat="51.897804" lon="39.506532"><ele>137</ele><time>1970-01-01T03:36:34.000Z</time></trkpt><trkpt lat="51.897845" lon="39.506305"><ele>136.2</ele><time>1970-01-01T03:36:37.000Z</time></trkpt><trkpt lat="51.897836" lon="39.506213"><ele>136.1</ele><time>1970-01-01T03:36:38.000Z</time></trkpt><trkpt lat="51.897819" lon="39.506127"><ele>136.1</ele><time>1970-01-01T03:36:39.000Z</time></trkpt><trkpt lat="51.897797" lon="39.506045"><ele>136.1</ele><time>1970-01-01T03:36:40.000Z</time></trkpt><trkpt lat="51.897769" lon="39.505961"><ele>136.2</ele><time>1970-01-01T03:36:41.000Z</time></trkpt><trkpt lat="51.89774" lon="39.505881"><ele>136.3</ele><time>1970-01-01T03:36:42.000Z</time></trkpt><trkpt lat="51.897712" lon="39.505803"><ele>136.5</ele><time>1970-01-01T03:36:43.000Z</time></trkpt><trkpt lat="51.89768" lon="39.505721"><ele>136.6</ele><time>1970-01-01T03:36:44.000Z</time></trkpt><trkpt lat="51.897649" lon="39.50564"><ele>137.2</ele><time>1970-01-01T03:36:45.000Z</time></trkpt><trkpt lat="51.897618" lon="39.505559"><ele>137.7</ele><time>1970-01-01T03:36:46.000Z</time></trkpt><trkpt lat="51.89759" lon="39.505477"><ele>138.2</ele><time>1970-01-01T03:36:47.000Z</time></trkpt><trkpt lat="51.897569" lon="39.505389"><ele>138.6</ele><time>1970-01-01T03:36:48.000Z</time></trkpt><trkpt lat="51.897553" lon="39.505299"><ele>139.5</ele><time>1970-01-01T03:36:49.000Z</time></trkpt><trkpt lat="51.897541" lon="39.50521"><ele>139.8</ele><time>1970-01-01T03:36:50.000Z</time></trkpt><trkpt lat="51.897535" lon="39.505125"><ele>140</ele><time>1970-01-01T03:36:51.000Z</time></trkpt><trkpt lat="51.897536" lon="39.505048"><ele>140.2</ele><time>1970-01-01T03:36:52.000Z</time></trkpt><trkpt lat="51.897541" lon="39.504983"><ele>140.4</ele><time>1970-01-01T03:36:53.000Z</time></trkpt><trkpt lat="51.897547" lon="39.504923"><ele>140.6</ele><time>1970-01-01T03:36:54.000Z</time></trkpt><trkpt lat="51.8976" lon="39.504678"><ele>141</ele><time>1970-01-01T03:36:58.000Z</time></trkpt><trkpt lat="51.897617" lon="39.504611"><ele>141</ele><time>1970-01-01T03:36:59.000Z</time></trkpt><trkpt lat="51.897636" lon="39.504547"><ele>140.9</ele><time>1970-01-01T03:37:00.000Z</time></trkpt><trkpt lat="51.89766" lon="39.504482"><ele>140.5</ele><time>1970-01-01T03:37:01.000Z</time></trkpt><trkpt lat="51.897686" lon="39.504417"><ele>140</ele><time>1970-01-01T03:37:02.000Z</time></trkpt><trkpt lat="51.897868" lon="39.503834"><ele>138.6</ele><time>1970-01-01T03:37:10.000Z</time></trkpt><trkpt lat="51.89789" lon="39.503671"><ele>138</ele><time>1970-01-01T03:37:12.000Z</time></trkpt><trkpt lat="51.897893" lon="39.503584"><ele>137.5</ele><time>1970-01-01T03:37:13.000Z</time></trkpt><trkpt lat="51.897893" lon="39.503501"><ele>137</ele><time>1970-01-01T03:37:14.000Z</time></trkpt><trkpt lat="51.897895" lon="39.503423"><ele>136.5</ele><time>1970-01-01T03:37:15.000Z</time></trkpt><trkpt lat="51.897904" lon="39.503354"><ele>136.1</ele><time>1970-01-01T03:37:16.000Z</time></trkpt><trkpt lat="51.897921" lon="39.503291"><ele>135.8</ele><time>1970-01-01T03:37:17.000Z</time></trkpt><trkpt lat="51.89794" lon="39.503229"><ele>135.5</ele><time>1970-01-01T03:37:18.000Z</time></trkpt><trkpt lat="51.897956" lon="39.503164"><ele>135.1</ele><time>1970-01-01T03:37:19.000Z</time></trkpt><trkpt lat="51.89806" lon="39.502776"><ele>131.3</ele><time>1970-01-01T03:37:25.000Z</time></trkpt><trkpt lat="51.898086" lon="39.502716"><ele>130.6</ele><time>1970-01-01T03:37:26.000Z</time></trkpt><trkpt lat="51.898109" lon="39.502661"><ele>130.2</ele><time>1970-01-01T03:37:27.000Z</time></trkpt><trkpt lat="51.898127" lon="39.502607"><ele>129.7</ele><time>1970-01-01T03:37:28.000Z</time></trkpt><trkpt lat="51.898149" lon="39.502557"><ele>129.1</ele><time>1970-01-01T03:37:29.000Z</time></trkpt><trkpt lat="51.898173" lon="39.502501"><ele>128.4</ele><time>1970-01-01T03:37:30.000Z</time></trkpt><trkpt lat="51.898191" lon="39.502432"><ele>127.9</ele><time>1970-01-01T03:37:31.000Z</time></trkpt><trkpt lat="51.898206" lon="39.502362"><ele>127.5</ele><time>1970-01-01T03:37:32.000Z</time></trkpt><trkpt lat="51.898257" lon="39.502074"><ele>127.2</ele><time>1970-01-01T03:37:36.000Z</time></trkpt><trkpt lat="51.898257" lon="39.501981"><ele>128</ele><time>1970-01-01T03:37:37.000Z</time></trkpt><trkpt lat="51.898256" lon="39.501888"><ele>128.8</ele><time>1970-01-01T03:37:38.000Z</time></trkpt><trkpt lat="51.898278" lon="39.501507"><ele>131.7</ele><time>1970-01-01T03:37:42.000Z</time></trkpt><trkpt lat="51.898292" lon="39.50142"><ele>132.9</ele><time>1970-01-01T03:37:43.000Z</time></trkpt><trkpt lat="51.898316" lon="39.501243"><ele>135.1</ele><time>1970-01-01T03:37:45.000Z</time></trkpt><trkpt lat="51.89835" lon="39.50108"><ele>136</ele><time>1970-01-01T03:37:47.000Z</time></trkpt><trkpt lat="51.898475" lon="39.500717"><ele>137.9</ele><time>1970-01-01T03:37:52.000Z</time></trkpt><trkpt lat="51.898575" lon="39.500481"><ele>137.9</ele><time>1970-01-01T03:37:56.000Z</time></trkpt><trkpt lat="51.898597" lon="39.500414"><ele>137.9</ele><time>1970-01-01T03:37:57.000Z</time></trkpt><trkpt lat="51.898638" lon="39.50028"><ele>138</ele><time>1970-01-01T03:37:59.000Z</time></trkpt><trkpt lat="51.89865" lon="39.500207"><ele>137.9</ele><time>1970-01-01T03:38:00.000Z</time></trkpt><trkpt lat="51.898659" lon="39.500131"><ele>138.1</ele><time>1970-01-01T03:38:01.000Z</time></trkpt><trkpt lat="51.898661" lon="39.500055"><ele>138.5</ele><time>1970-01-01T03:38:02.000Z</time></trkpt><trkpt lat="51.898655" lon="39.499974"><ele>138.8</ele><time>1970-01-01T03:38:03.000Z</time></trkpt><trkpt lat="51.898644" lon="39.499889"><ele>138.3</ele><time>1970-01-01T03:38:04.000Z</time></trkpt><trkpt lat="51.898628" lon="39.499803"><ele>138</ele><time>1970-01-01T03:38:05.000Z</time></trkpt><trkpt lat="51.89861" lon="39.49972"><ele>137.9</ele><time>1970-01-01T03:38:06.000Z</time></trkpt><trkpt lat="51.89854" lon="39.499372"><ele>136.8</ele><time>1970-01-01T03:38:10.000Z</time></trkpt><trkpt lat="51.898539" lon="39.499288"><ele>136</ele><time>1970-01-01T03:38:11.000Z</time></trkpt><trkpt lat="51.898545" lon="39.49921"><ele>135.8</ele><time>1970-01-01T03:38:12.000Z</time></trkpt><trkpt lat="51.898591" lon="39.498814"><ele>133.1</ele><time>1970-01-01T03:38:17.000Z</time></trkpt><trkpt lat="51.898597" lon="39.498646"><ele>132.4</ele><time>1970-01-01T03:38:19.000Z</time></trkpt><trkpt lat="51.898614" lon="39.498232"><ele>129.9</ele><time>1970-01-01T03:38:24.000Z</time></trkpt><trkpt lat="51.898627" lon="39.498148"><ele>129.4</ele><time>1970-01-01T03:38:25.000Z</time></trkpt><trkpt lat="51.898649" lon="39.498074"><ele>128.9</ele><time>1970-01-01T03:38:26.000Z</time></trkpt><trkpt lat="51.898702" lon="39.497953"><ele>127.9</ele><time>1970-01-01T03:38:28.000Z</time></trkpt><trkpt lat="51.89873" lon="39.497905"><ele>127.4</ele><time>1970-01-01T03:38:29.000Z</time></trkpt><trkpt lat="51.898758" lon="39.497859"><ele>126.8</ele><time>1970-01-01T03:38:30.000Z</time></trkpt><trkpt lat="51.898923" lon="39.497328"><ele>126.1</ele><time>1970-01-01T03:38:39.000Z</time></trkpt><trkpt lat="51.898928" lon="39.497159"><ele>125.9</ele><time>1970-01-01T03:38:41.000Z</time></trkpt><trkpt lat="51.898923" lon="39.49707"><ele>125.9</ele><time>1970-01-01T03:38:42.000Z</time></trkpt><trkpt lat="51.898921" lon="39.496984"><ele>126</ele><time>1970-01-01T03:38:43.000Z</time></trkpt><trkpt lat="51.89893" lon="39.496815"><ele>125.9</ele><time>1970-01-01T03:38:45.000Z</time></trkpt><trkpt lat="51.898947" lon="39.496741"><ele>125.9</ele><time>1970-01-01T03:38:46.000Z</time></trkpt><trkpt lat="51.89896" lon="39.49666"><ele>126</ele><time>1970-01-01T03:38:47.000Z</time></trkpt><trkpt lat="51.898974" lon="39.496577"><ele>126</ele><time>1970-01-01T03:38:48.000Z</time></trkpt><trkpt lat="51.89899" lon="39.496495"><ele>125.7</ele><time>1970-01-01T03:38:49.000Z</time></trkpt><trkpt lat="51.899009" lon="39.496417"><ele>125.4</ele><time>1970-01-01T03:38:50.000Z</time></trkpt><trkpt lat="51.899026" lon="39.496348"><ele>125.1</ele><time>1970-01-01T03:38:51.000Z</time></trkpt><trkpt lat="51.899096" lon="39.49605"><ele>125</ele><time>1970-01-01T03:38:55.000Z</time></trkpt><trkpt lat="51.899116" lon="39.495888"><ele>124.7</ele><time>1970-01-01T03:38:57.000Z</time></trkpt><trkpt lat="51.899111" lon="39.495806"><ele>124.5</ele><time>1970-01-01T03:38:58.000Z</time></trkpt><trkpt lat="51.899103" lon="39.495729"><ele>124.2</ele><time>1970-01-01T03:38:59.000Z</time></trkpt><trkpt lat="51.899091" lon="39.495665"><ele>123.9</ele><time>1970-01-01T03:39:00.000Z</time></trkpt><trkpt lat="51.89907" lon="39.495616"><ele>123.8</ele><time>1970-01-01T03:39:01.000Z</time></trkpt><trkpt lat="51.899044" lon="39.495564"><ele>123.8</ele><time>1970-01-01T03:39:02.000Z</time></trkpt><trkpt lat="51.899024" lon="39.495517"><ele>124</ele><time>1970-01-01T03:39:03.000Z</time></trkpt><trkpt lat="51.899006" lon="39.49546"><ele>124</ele><time>1970-01-01T03:39:04.000Z</time></trkpt><trkpt lat="51.898987" lon="39.495401"><ele>124.2</ele><time>1970-01-01T03:39:05.000Z</time></trkpt><trkpt lat="51.898966" lon="39.495341"><ele>124.4</ele><time>1970-01-01T03:39:06.000Z</time></trkpt><trkpt lat="51.898747" lon="39.494725"><ele>123.9</ele><time>1970-01-01T03:39:15.000Z</time></trkpt><trkpt lat="51.898731" lon="39.494641"><ele>123.7</ele><time>1970-01-01T03:39:16.000Z</time></trkpt><trkpt lat="51.898714" lon="39.494552"><ele>123.5</ele><time>1970-01-01T03:39:17.000Z</time></trkpt><trkpt lat="51.898694" lon="39.494473"><ele>123.4</ele><time>1970-01-01T03:39:18.000Z</time></trkpt><trkpt lat="51.898683" lon="39.494396"><ele>123.7</ele><time>1970-01-01T03:39:19.000Z</time></trkpt><trkpt lat="51.898671" lon="39.494326"><ele>123.9</ele><time>1970-01-01T03:39:20.000Z</time></trkpt><trkpt lat="51.898655" lon="39.494252"><ele>124</ele><time>1970-01-01T03:39:21.000Z</time></trkpt><trkpt lat="51.898632" lon="39.494176"><ele>124</ele><time>1970-01-01T03:39:22.000Z</time></trkpt><trkpt lat="51.898606" lon="39.494093"><ele>124</ele><time>1970-01-01T03:39:23.000Z</time></trkpt><trkpt lat="51.898582" lon="39.494003"><ele>124</ele><time>1970-01-01T03:39:24.000Z</time></trkpt><trkpt lat="51.898284" lon="39.492913"><ele>125.9</ele><time>1970-01-01T03:39:36.000Z</time></trkpt><trkpt lat="51.898228" lon="39.492765"><ele>126.2</ele><time>1970-01-01T03:39:38.000Z</time></trkpt><trkpt lat="51.898171" lon="39.49261"><ele>127</ele><time>1970-01-01T03:39:40.000Z</time></trkpt><trkpt lat="51.898081" lon="39.492265"><ele>127.9</ele><time>1970-01-01T03:39:44.000Z</time></trkpt><trkpt lat="51.897975" lon="39.491952"><ele>127.9</ele><time>1970-01-01T03:39:48.000Z</time></trkpt><trkpt lat="51.897945" lon="39.491875"><ele>128</ele><time>1970-01-01T03:39:49.000Z</time></trkpt><trkpt lat="51.897923" lon="39.491793"><ele>128.3</ele><time>1970-01-01T03:39:50.000Z</time></trkpt><trkpt lat="51.897908" lon="39.491712"><ele>128.6</ele><time>1970-01-01T03:39:51.000Z</time></trkpt><trkpt lat="51.897895" lon="39.49163"><ele>129</ele><time>1970-01-01T03:39:52.000Z</time></trkpt><trkpt lat="51.897879" lon="39.491541"><ele>129</ele><time>1970-01-01T03:39:53.000Z</time></trkpt><trkpt lat="51.897837" lon="39.491363"><ele>129.4</ele><time>1970-01-01T03:39:55.000Z</time></trkpt><trkpt lat="51.897786" lon="39.491007"><ele>130</ele><time>1970-01-01T03:39:59.000Z</time></trkpt><trkpt lat="51.897774" lon="39.49092"><ele>130</ele><time>1970-01-01T03:40:00.000Z</time></trkpt><trkpt lat="51.897752" lon="39.490828"><ele>130</ele><time>1970-01-01T03:40:01.000Z</time></trkpt><trkpt lat="51.897727" lon="39.490739"><ele>129.9</ele><time>1970-01-01T03:40:02.000Z</time></trkpt><trkpt lat="51.897707" lon="39.49065"><ele>130</ele><time>1970-01-01T03:40:03.000Z</time></trkpt><trkpt lat="51.897687" lon="39.490552"><ele>130</ele><time>1970-01-01T03:40:04.000Z</time></trkpt><trkpt lat="51.897669" lon="39.490462"><ele>130</ele><time>1970-01-01T03:40:05.000Z</time></trkpt><trkpt lat="51.897499" lon="39.489715"><ele>128.8</ele><time>1970-01-01T03:40:14.000Z</time></trkpt><trkpt lat="51.897481" lon="39.489638"><ele>128.9</ele><time>1970-01-01T03:40:15.000Z</time></trkpt><trkpt lat="51.897464" lon="39.489562"><ele>129.1</ele><time>1970-01-01T03:40:16.000Z</time></trkpt><trkpt lat="51.897459" lon="39.489485"><ele>129.1</ele><time>1970-01-01T03:40:17.000Z</time></trkpt><trkpt lat="51.897467" lon="39.489409"><ele>129</ele><time>1970-01-01T03:40:18.000Z</time></trkpt><trkpt lat="51.897478" lon="39.489333"><ele>129</ele><time>1970-01-01T03:40:19.000Z</time></trkpt><trkpt lat="51.897495" lon="39.489258"><ele>129.2</ele><time>1970-01-01T03:40:20.000Z</time></trkpt><trkpt lat="51.897513" lon="39.489186"><ele>129.6</ele><time>1970-01-01T03:40:21.000Z</time></trkpt><trkpt lat="51.897736" lon="39.488106"><ele>129.9</ele><time>1970-01-01T03:40:34.000Z</time></trkpt><trkpt lat="51.897754" lon="39.488023"><ele>130.7</ele><time>1970-01-01T03:40:35.000Z</time></trkpt><trkpt lat="51.897768" lon="39.487936"><ele>131.1</ele><time>1970-01-01T03:40:36.000Z</time></trkpt><trkpt lat="51.89802" lon="39.48657"><ele>128.3</ele><time>1970-01-01T03:40:51.000Z</time></trkpt><trkpt lat="51.898256" lon="39.485331"><ele>128</ele><time>1970-01-01T03:41:05.000Z</time></trkpt><trkpt lat="51.898302" lon="39.48507"><ele>126.3</ele><time>1970-01-01T03:41:08.000Z</time></trkpt><trkpt lat="51.898334" lon="39.484916"><ele>125.3</ele><time>1970-01-01T03:41:10.000Z</time></trkpt><trkpt lat="51.898349" lon="39.484837"><ele>124.8</ele><time>1970-01-01T03:41:11.000Z</time></trkpt><trkpt lat="51.898365" lon="39.484755"><ele>124.5</ele><time>1970-01-01T03:41:12.000Z</time></trkpt><trkpt lat="51.898524" lon="39.483917"><ele>124.2</ele><time>1970-01-01T03:41:22.000Z</time></trkpt><trkpt lat="51.898562" lon="39.483758"><ele>124.7</ele><time>1970-01-01T03:41:24.000Z</time></trkpt><trkpt lat="51.898573" lon="39.483679"><ele>124.5</ele><time>1970-01-01T03:41:25.000Z</time></trkpt><trkpt lat="51.898584" lon="39.483607"><ele>124.3</ele><time>1970-01-01T03:41:26.000Z</time></trkpt><trkpt lat="51.898781" lon="39.482807"><ele>123</ele><time>1970-01-01T03:41:37.000Z</time></trkpt><trkpt lat="51.898809" lon="39.482734"><ele>123</ele><time>1970-01-01T03:41:38.000Z</time></trkpt><trkpt lat="51.898844" lon="39.482666"><ele>123.1</ele><time>1970-01-01T03:41:39.000Z</time></trkpt><trkpt lat="51.898882" lon="39.482606"><ele>123.1</ele><time>1970-01-01T03:41:40.000Z</time></trkpt><trkpt lat="51.898921" lon="39.482549"><ele>123.1</ele><time>1970-01-01T03:41:41.000Z</time></trkpt><trkpt lat="51.898958" lon="39.48249"><ele>122.9</ele><time>1970-01-01T03:41:42.000Z</time></trkpt><trkpt lat="51.899268" lon="39.482033"><ele>119.1</ele><time>1970-01-01T03:41:51.000Z</time></trkpt><trkpt lat="51.899347" lon="39.48196"><ele>118</ele><time>1970-01-01T03:41:53.000Z</time></trkpt><trkpt lat="51.89938" lon="39.481914"><ele>117.6</ele><time>1970-01-01T03:41:54.000Z</time></trkpt><trkpt lat="51.899408" lon="39.481862"><ele>117.1</ele><time>1970-01-01T03:41:55.000Z</time></trkpt><trkpt lat="51.899433" lon="39.481801"><ele>116.6</ele><time>1970-01-01T03:41:56.000Z</time></trkpt><trkpt lat="51.899452" lon="39.481732"><ele>116.2</ele><time>1970-01-01T03:41:57.000Z</time></trkpt><trkpt lat="51.899461" lon="39.481658"><ele>116.2</ele><time>1970-01-01T03:41:58.000Z</time></trkpt><trkpt lat="51.899465" lon="39.481583"><ele>116.1</ele><time>1970-01-01T03:41:59.000Z</time></trkpt><trkpt lat="51.899462" lon="39.481503"><ele>116.1</ele><time>1970-01-01T03:42:00.000Z</time></trkpt><trkpt lat="51.899454" lon="39.481422"><ele>115.7</ele><time>1970-01-01T03:42:01.000Z</time></trkpt><trkpt lat="51.899182" lon="39.480017"><ele>114.4</ele><time>1970-01-01T03:42:17.000Z</time></trkpt><trkpt lat="51.899155" lon="39.479833"><ele>113.9</ele><time>1970-01-01T03:42:19.000Z</time></trkpt><trkpt lat="51.898886" lon="39.478634"><ele>110.7</ele><time>1970-01-01T03:42:32.000Z</time></trkpt><trkpt lat="51.898747" lon="39.478116"><ele>110.1</ele><time>1970-01-01T03:42:39.000Z</time></trkpt><trkpt lat="51.898739" lon="39.478037"><ele>110</ele><time>1970-01-01T03:42:40.000Z</time></trkpt><trkpt lat="51.898739" lon="39.477959"><ele>110</ele><time>1970-01-01T03:42:41.000Z</time></trkpt><trkpt lat="51.898751" lon="39.477884"><ele>110</ele><time>1970-01-01T03:42:42.000Z</time></trkpt><trkpt lat="51.898774" lon="39.477823"><ele>110</ele><time>1970-01-01T03:42:43.000Z</time></trkpt><trkpt lat="51.898804" lon="39.477782"><ele>110</ele><time>1970-01-01T03:42:44.000Z</time></trkpt><trkpt lat="51.89884" lon="39.477758"><ele>110</ele><time>1970-01-01T03:42:45.000Z</time></trkpt><trkpt lat="51.898881" lon="39.47774"><ele>110</ele><time>1970-01-01T03:42:46.000Z</time></trkpt><trkpt lat="51.898923" lon="39.477722"><ele>109.9</ele><time>1970-01-01T03:42:47.000Z</time></trkpt><trkpt lat="51.899593" lon="39.477356"><ele>110.4</ele><time>1970-01-01T03:43:01.000Z</time></trkpt><trkpt lat="51.900444" lon="39.476806"><ele>111.4</ele><time>1970-01-01T03:43:17.000Z</time></trkpt><trkpt lat="51.900845" lon="39.476527"><ele>111.6</ele><time>1970-01-01T03:43:24.000Z</time></trkpt><trkpt lat="51.900898" lon="39.476471"><ele>111.3</ele><time>1970-01-01T03:43:25.000Z</time></trkpt><trkpt lat="51.900949" lon="39.476411"><ele>111</ele><time>1970-01-01T03:43:26.000Z</time></trkpt><trkpt lat="51.900998" lon="39.476345"><ele>110.7</ele><time>1970-01-01T03:43:27.000Z</time></trkpt><trkpt lat="51.901043" lon="39.476277"><ele>110.7</ele><time>1970-01-01T03:43:28.000Z</time></trkpt><trkpt lat="51.901315" lon="39.475616"><ele>112</ele><time>1970-01-01T03:43:40.000Z</time></trkpt><trkpt lat="51.901303" lon="39.475556"><ele>112</ele><time>1970-01-01T03:43:42.000Z</time></trkpt><trkpt lat="51.901287" lon="39.475551"><ele>112</ele><time>1970-01-01T03:43:43.000Z</time></trkpt><trkpt lat="51.901196" lon="39.475514"><ele>111.5</ele><time>1970-01-01T03:43:48.000Z</time></trkpt><trkpt lat="51.901157" lon="39.475517"><ele>111</ele><time>1970-01-01T03:43:54.000Z</time></trkpt><trkpt lat="51.901237" lon="39.475441"><ele>110.2</ele><time>1970-01-01T03:49:01.000Z</time></trkpt><trkpt lat="51.901247" lon="39.47541"><ele>110</ele><time>1970-01-01T03:49:02.000Z</time></trkpt><trkpt lat="51.901257" lon="39.47517"><ele>108.8</ele><time>1970-01-01T03:49:09.000Z</time></trkpt><trkpt lat="51.901252" lon="39.475143"><ele>108.8</ele><time>1970-01-01T03:49:10.000Z</time></trkpt><trkpt lat="51.901247" lon="39.475093"><ele>108.8</ele><time>1970-01-01T03:49:12.000Z</time></trkpt><trkpt lat="51.90124" lon="39.475067"><ele>108.8</ele><time>1970-01-01T03:49:13.000Z</time></trkpt><trkpt lat="51.901235" lon="39.475036"><ele>108.9</ele><time>1970-01-01T03:49:14.000Z</time></trkpt><trkpt lat="51.90123" lon="39.475004"><ele>108.9</ele><time>1970-01-01T03:49:15.000Z</time></trkpt><trkpt lat="51.901225" lon="39.47497"><ele>108.8</ele><time>1970-01-01T03:49:16.000Z</time></trkpt><trkpt lat="51.901047" lon="39.47439"><ele>106.9</ele><time>1970-01-01T03:49:29.000Z</time></trkpt><trkpt lat="51.900691" lon="39.473499"><ele>104.8</ele><time>1970-01-01T03:49:43.000Z</time></trkpt><trkpt lat="51.900078" lon="39.472152"><ele>106.6</ele><time>1970-01-01T03:50:03.000Z</time></trkpt><trkpt lat="51.89994" lon="39.471866"><ele>107.2</ele><time>1970-01-01T03:50:09.000Z</time></trkpt><trkpt lat="51.899932" lon="39.471867"><ele>107.3</ele><time>1970-01-01T03:50:10.000Z</time></trkpt><trkpt lat="51.899913" lon="39.471886"><ele>107.4</ele><time>1970-01-01T03:50:12.000Z</time></trkpt><trkpt lat="51.899903" lon="39.4719"><ele>107.5</ele><time>1970-01-01T03:50:16.000Z</time></trkpt><trkpt lat="51.899901" lon="39.471824"><ele>107.8</ele><time>1970-01-01T03:51:50.000Z</time></trkpt><trkpt lat="51.899897" lon="39.471796"><ele>107.9</ele><time>1970-01-01T03:51:51.000Z</time></trkpt><trkpt lat="51.899889" lon="39.471766"><ele>107.9</ele><time>1970-01-01T03:51:52.000Z</time></trkpt><trkpt lat="51.899878" lon="39.471729"><ele>108</ele><time>1970-01-01T03:51:53.000Z</time></trkpt><trkpt lat="51.899866" lon="39.471688"><ele>108.1</ele><time>1970-01-01T03:51:54.000Z</time></trkpt><trkpt lat="51.899818" lon="39.470971"><ele>108.7</ele><time>1970-01-01T03:52:06.000Z</time></trkpt><trkpt lat="51.899832" lon="39.470899"><ele>108.8</ele><time>1970-01-01T03:52:07.000Z</time></trkpt><trkpt lat="51.900123" lon="39.469995"><ele>110.4</ele><time>1970-01-01T03:52:18.000Z</time></trkpt><trkpt lat="51.900517" lon="39.468569"><ele>113.9</ele><time>1970-01-01T03:52:36.000Z</time></trkpt><trkpt lat="51.900785" lon="39.467338"><ele>113.2</ele><time>1970-01-01T03:52:50.000Z</time></trkpt><trkpt lat="51.901261" lon="39.465332"><ele>115.9</ele><time>1970-01-01T03:53:12.000Z</time></trkpt><trkpt lat="51.901608" lon="39.463895"><ele>115.7</ele><time>1970-01-01T03:53:28.000Z</time></trkpt><trkpt lat="51.901852" lon="39.462486"><ele>114.8</ele><time>1970-01-01T03:53:44.000Z</time></trkpt><trkpt lat="51.901928" lon="39.461204"><ele>117.8</ele><time>1970-01-01T03:54:01.000Z</time></trkpt><trkpt lat="51.901586" lon="39.460587"><ele>120.9</ele><time>1970-01-01T03:54:13.000Z</time></trkpt><trkpt lat="51.901" lon="39.459753"><ele>124.4</ele><time>1970-01-01T03:54:29.000Z</time></trkpt><trkpt lat="51.900303" lon="39.458962"><ele>127.5</ele><time>1970-01-01T03:54:45.000Z</time></trkpt><trkpt lat="51.900219" lon="39.45888"><ele>127.6</ele><time>1970-01-01T03:54:47.000Z</time></trkpt><trkpt lat="51.899775" lon="39.458334"><ele>127.5</ele><time>1970-01-01T03:54:58.000Z</time></trkpt><trkpt lat="51.899471" lon="39.457952"><ele>128</ele><time>1970-01-01T03:55:06.000Z</time></trkpt><trkpt lat="51.898933" lon="39.457336"><ele>126.9</ele><time>1970-01-01T03:55:19.000Z</time></trkpt><trkpt lat="51.89889" lon="39.45728"><ele>126.7</ele><time>1970-01-01T03:55:20.000Z</time></trkpt><trkpt lat="51.89877" lon="39.456997"><ele>126</ele><time>1970-01-01T03:55:24.000Z</time></trkpt><trkpt lat="51.898705" lon="39.456538"><ele>128.4</ele><time>1970-01-01T03:55:29.000Z</time></trkpt><trkpt lat="51.898693" lon="39.456355"><ele>130.2</ele><time>1970-01-01T03:55:31.000Z</time></trkpt><trkpt lat="51.898695" lon="39.456263"><ele>130.9</ele><time>1970-01-01T03:55:32.000Z</time></trkpt><trkpt lat="51.898706" lon="39.456179"><ele>131.6</ele><time>1970-01-01T03:55:33.000Z</time></trkpt><trkpt lat="51.898719" lon="39.456098"><ele>132.2</ele><time>1970-01-01T03:55:34.000Z</time></trkpt><trkpt lat="51.898728" lon="39.456014"><ele>132.8</ele><time>1970-01-01T03:55:35.000Z</time></trkpt><trkpt lat="51.898729" lon="39.455929"><ele>133.4</ele><time>1970-01-01T03:55:36.000Z</time></trkpt><trkpt lat="51.898716" lon="39.455852"><ele>134</ele><time>1970-01-01T03:55:37.000Z</time></trkpt><trkpt lat="51.898689" lon="39.455788"><ele>134</ele><time>1970-01-01T03:55:38.000Z</time></trkpt><trkpt lat="51.898651" lon="39.455737"><ele>134</ele><time>1970-01-01T03:55:39.000Z</time></trkpt><trkpt lat="51.898605" lon="39.455698"><ele>134.5</ele><time>1970-01-01T03:55:40.000Z</time></trkpt><trkpt lat="51.898556" lon="39.455663"><ele>135.2</ele><time>1970-01-01T03:55:41.000Z</time></trkpt><trkpt lat="51.898502" lon="39.455634"><ele>135.8</ele><time>1970-01-01T03:55:42.000Z</time></trkpt><trkpt lat="51.898448" lon="39.455605"><ele>136.2</ele><time>1970-01-01T03:55:43.000Z</time></trkpt><trkpt lat="51.898302" lon="39.45552"><ele>136.8</ele><time>1970-01-01T03:55:46.000Z</time></trkpt><trkpt lat="51.898255" lon="39.455492"><ele>137</ele><time>1970-01-01T03:55:47.000Z</time></trkpt><trkpt lat="51.898208" lon="39.455466"><ele>137.2</ele><time>1970-01-01T03:55:48.000Z</time></trkpt><trkpt lat="51.898162" lon="39.455442"><ele>137.2</ele><time>1970-01-01T03:55:49.000Z</time></trkpt><trkpt lat="51.898114" lon="39.455415"><ele>137.1</ele><time>1970-01-01T03:55:50.000Z</time></trkpt><trkpt lat="51.898068" lon="39.455386"><ele>136.8</ele><time>1970-01-01T03:55:51.000Z</time></trkpt><trkpt lat="51.897519" lon="39.455118"><ele>129.5</ele><time>1970-01-01T03:56:02.000Z</time></trkpt><trkpt lat="51.897317" lon="39.455002"><ele>125.9</ele><time>1970-01-01T03:56:06.000Z</time></trkpt><trkpt lat="51.897266" lon="39.454976"><ele>124.9</ele><time>1970-01-01T03:56:07.000Z</time></trkpt><trkpt lat="51.897215" lon="39.454951"><ele>123.7</ele><time>1970-01-01T03:56:08.000Z</time></trkpt><trkpt lat="51.897167" lon="39.454925"><ele>123.1</ele><time>1970-01-01T03:56:09.000Z</time></trkpt><trkpt lat="51.89712" lon="39.454894"><ele>122.7</ele><time>1970-01-01T03:56:10.000Z</time></trkpt><trkpt lat="51.89707" lon="39.45487"><ele>122</ele><time>1970-01-01T03:56:11.000Z</time></trkpt><trkpt lat="51.89702" lon="39.454841"><ele>121.3</ele><time>1970-01-01T03:56:12.000Z</time></trkpt><trkpt lat="51.896968" lon="39.454814"><ele>120.9</ele><time>1970-01-01T03:56:13.000Z</time></trkpt><trkpt lat="51.896915" lon="39.454788"><ele>120.6</ele><time>1970-01-01T03:56:14.000Z</time></trkpt><trkpt lat="51.896666" lon="39.454669"><ele>120.6</ele><time>1970-01-01T03:56:19.000Z</time></trkpt><trkpt lat="51.896613" lon="39.454647"><ele>120.6</ele><time>1970-01-01T03:56:20.000Z</time></trkpt><trkpt lat="51.896505" lon="39.454606"><ele>120.5</ele><time>1970-01-01T03:56:22.000Z</time></trkpt><trkpt lat="51.896455" lon="39.454582"><ele>120.8</ele><time>1970-01-01T03:56:23.000Z</time></trkpt><trkpt lat="51.896004" lon="39.454383"><ele>128</ele><time>1970-01-01T03:56:35.000Z</time></trkpt><trkpt lat="51.89564" lon="39.454246"><ele>134.4</ele><time>1970-01-01T03:56:45.000Z</time></trkpt><trkpt lat="51.89544" lon="39.454139"><ele>135.8</ele><time>1970-01-01T03:56:54.000Z</time></trkpt><trkpt lat="51.895382" lon="39.454061"><ele>135.6</ele><time>1970-01-01T03:56:58.000Z</time></trkpt><trkpt lat="51.895363" lon="39.454051"><ele>135.5</ele><time>1970-01-01T03:56:59.000Z</time></trkpt><trkpt lat="51.895345" lon="39.454053"><ele>135.5</ele><time>1970-01-01T03:57:00.000Z</time></trkpt><trkpt lat="51.895324" lon="39.454051"><ele>135.4</ele><time>1970-01-01T03:57:01.000Z</time></trkpt><trkpt lat="51.895304" lon="39.454051"><ele>135.4</ele><time>1970-01-01T03:57:02.000Z</time></trkpt><trkpt lat="51.895283" lon="39.454052"><ele>135.3</ele><time>1970-01-01T03:57:03.000Z</time></trkpt><trkpt lat="51.895261" lon="39.454056"><ele>135.2</ele><time>1970-01-01T03:57:04.000Z</time></trkpt><trkpt lat="51.895238" lon="39.454059"><ele>135.2</ele><time>1970-01-01T03:57:05.000Z</time></trkpt><trkpt lat="51.895208" lon="39.454057"><ele>135</ele><time>1970-01-01T03:57:06.000Z</time></trkpt><trkpt lat="51.895174" lon="39.454051"><ele>134.9</ele><time>1970-01-01T03:57:07.000Z</time></trkpt><trkpt lat="51.895138" lon="39.454038"><ele>134.9</ele><time>1970-01-01T03:57:08.000Z</time></trkpt><trkpt lat="51.894644" lon="39.453947"><ele>133.1</ele><time>1970-01-01T03:57:19.000Z</time></trkpt><trkpt lat="51.894516" lon="39.453893"><ele>132.3</ele><time>1970-01-01T03:57:22.000Z</time></trkpt><trkpt lat="51.894429" lon="39.453832"><ele>131.2</ele><time>1970-01-01T03:57:24.000Z</time></trkpt><trkpt lat="51.894183" lon="39.453612"><ele>130.2</ele><time>1970-01-01T03:57:31.000Z</time></trkpt><trkpt lat="51.894175" lon="39.453569"><ele>130.2</ele><time>1970-01-01T03:57:32.000Z</time></trkpt><trkpt lat="51.894176" lon="39.453526"><ele>130.2</ele><time>1970-01-01T03:57:33.000Z</time></trkpt><trkpt lat="51.894185" lon="39.453484"><ele>130.1</ele><time>1970-01-01T03:57:34.000Z</time></trkpt><trkpt lat="51.894196" lon="39.453437"><ele>130.1</ele><time>1970-01-01T03:57:35.000Z</time></trkpt><trkpt lat="51.894206" lon="39.453374"><ele>129.9</ele><time>1970-01-01T03:57:36.000Z</time></trkpt><trkpt lat="51.894215" lon="39.453305"><ele>129.7</ele><time>1970-01-01T03:57:37.000Z</time></trkpt><trkpt lat="51.894227" lon="39.453231"><ele>129.5</ele><time>1970-01-01T03:57:38.000Z</time></trkpt><trkpt lat="51.894267" lon="39.452997"><ele>129.9</ele><time>1970-01-01T03:57:41.000Z</time></trkpt><trkpt lat="51.894283" lon="39.452924"><ele>130</ele><time>1970-01-01T03:57:42.000Z</time></trkpt><trkpt lat="51.894375" lon="39.452417"><ele>130.3</ele><time>1970-01-01T03:57:49.000Z</time></trkpt><trkpt lat="51.89439" lon="39.45234"><ele>130.8</ele><time>1970-01-01T03:57:50.000Z</time></trkpt><trkpt lat="51.894402" lon="39.452269"><ele>131.1</ele><time>1970-01-01T03:57:51.000Z</time></trkpt><trkpt lat="51.894414" lon="39.452201"><ele>131.2</ele><time>1970-01-01T03:57:52.000Z</time></trkpt><trkpt lat="51.894425" lon="39.452134"><ele>131.4</ele><time>1970-01-01T03:57:53.000Z</time></trkpt><trkpt lat="51.894435" lon="39.452065"><ele>131.6</ele><time>1970-01-01T03:57:54.000Z</time></trkpt><trkpt lat="51.894577" lon="39.451329"><ele>135.8</ele><time>1970-01-01T03:58:04.000Z</time></trkpt><trkpt lat="51.894722" lon="39.450519"><ele>137.2</ele><time>1970-01-01T03:58:16.000Z</time></trkpt><trkpt lat="51.894851" lon="39.449844"><ele>135.5</ele><time>1970-01-01T03:58:26.000Z</time></trkpt><trkpt lat="51.895032" lon="39.44896"><ele>132.1</ele><time>1970-01-01T03:58:36.000Z</time></trkpt><trkpt lat="51.895129" lon="39.448461"><ele>131.8</ele><time>1970-01-01T03:58:42.000Z</time></trkpt><trkpt lat="51.895287" lon="39.447577"><ele>133.1</ele><time>1970-01-01T03:58:53.000Z</time></trkpt><trkpt lat="51.895347" lon="39.447326"><ele>132.9</ele><time>1970-01-01T03:58:56.000Z</time></trkpt><trkpt lat="51.895413" lon="39.446981"><ele>133.1</ele><time>1970-01-01T03:59:00.000Z</time></trkpt><trkpt lat="51.895427" lon="39.446891"><ele>133.1</ele><time>1970-01-01T03:59:01.000Z</time></trkpt><trkpt lat="51.895472" lon="39.446653"><ele>133</ele><time>1970-01-01T03:59:04.000Z</time></trkpt><trkpt lat="51.895601" lon="39.445901"><ele>132.5</ele><time>1970-01-01T03:59:15.000Z</time></trkpt><trkpt lat="51.895612" lon="39.44582"><ele>132.3</ele><time>1970-01-01T03:59:16.000Z</time></trkpt><trkpt lat="51.89563" lon="39.445744"><ele>132.3</ele><time>1970-01-01T03:59:17.000Z</time></trkpt><trkpt lat="51.895651" lon="39.445673"><ele>132.2</ele><time>1970-01-01T03:59:18.000Z</time></trkpt><trkpt lat="51.895666" lon="39.4456"><ele>132</ele><time>1970-01-01T03:59:19.000Z</time></trkpt><trkpt lat="51.895699" lon="39.445444"><ele>131.5</ele><time>1970-01-01T03:59:21.000Z</time></trkpt><trkpt lat="51.895715" lon="39.445363"><ele>131.2</ele><time>1970-01-01T03:59:22.000Z</time></trkpt><trkpt lat="51.89573" lon="39.445285"><ele>130.8</ele><time>1970-01-01T03:59:23.000Z</time></trkpt><trkpt lat="51.895809" lon="39.4449"><ele>130.4</ele><time>1970-01-01T03:59:28.000Z</time></trkpt><trkpt lat="51.895882" lon="39.444487"><ele>130</ele><time>1970-01-01T03:59:33.000Z</time></trkpt><trkpt lat="51.895897" lon="39.444406"><ele>129.9</ele><time>1970-01-01T03:59:34.000Z</time></trkpt><trkpt lat="51.895932" lon="39.444232"><ele>129.8</ele><time>1970-01-01T03:59:36.000Z</time></trkpt><trkpt lat="51.896009" lon="39.443738"><ele>129.9</ele><time>1970-01-01T03:59:42.000Z</time></trkpt><trkpt lat="51.896021" lon="39.443644"><ele>129.3</ele><time>1970-01-01T03:59:43.000Z</time></trkpt><trkpt lat="51.896065" lon="39.4434"><ele>128.1</ele><time>1970-01-01T03:59:46.000Z</time></trkpt><trkpt lat="51.896149" lon="39.442994"><ele>127.3</ele><time>1970-01-01T03:59:51.000Z</time></trkpt><trkpt lat="51.896171" lon="39.442911"><ele>127.2</ele><time>1970-01-01T03:59:52.000Z</time></trkpt><trkpt lat="51.896185" lon="39.442825"><ele>126.9</ele><time>1970-01-01T03:59:53.000Z</time></trkpt><trkpt lat="51.896201" lon="39.442748"><ele>126.7</ele><time>1970-01-01T03:59:54.000Z</time></trkpt><trkpt lat="51.896213" lon="39.442663"><ele>126.5</ele><time>1970-01-01T03:59:55.000Z</time></trkpt><trkpt lat="51.896229" lon="39.442563"><ele>126</ele><time>1970-01-01T03:59:56.000Z</time></trkpt><trkpt lat="51.896255" lon="39.442381"><ele>126.8</ele><time>1970-01-01T03:59:58.000Z</time></trkpt><trkpt lat="51.896328" lon="39.442079"><ele>126.3</ele><time>1970-01-01T04:00:02.000Z</time></trkpt><trkpt lat="51.896473" lon="39.441396"><ele>124.8</ele><time>1970-01-01T04:00:10.000Z</time></trkpt><trkpt lat="51.89662" lon="39.440665"><ele>126.6</ele><time>1970-01-01T04:00:20.000Z</time></trkpt><trkpt lat="51.896532" lon="39.44015"><ele>131.6</ele><time>1970-01-01T04:00:29.000Z</time></trkpt><trkpt lat="51.896517" lon="39.440132"><ele>131.7</ele><time>1970-01-01T04:00:30.000Z</time></trkpt><trkpt lat="51.896498" lon="39.440112"><ele>131.9</ele><time>1970-01-01T04:00:31.000Z</time></trkpt><trkpt lat="51.896479" lon="39.440093"><ele>132</ele><time>1970-01-01T04:00:32.000Z</time></trkpt><trkpt lat="51.896456" lon="39.440074"><ele>132.2</ele><time>1970-01-01T04:00:33.000Z</time></trkpt><trkpt lat="51.896143" lon="39.439926"><ele>134.8</ele><time>1970-01-01T04:00:44.000Z</time></trkpt><trkpt lat="51.895784" lon="39.439736"><ele>137.7</ele><time>1970-01-01T04:00:53.000Z</time></trkpt><trkpt lat="51.895734" lon="39.439707"><ele>138</ele><time>1970-01-01T04:00:54.000Z</time></trkpt><trkpt lat="51.895542" lon="39.439589"><ele>138.5</ele><time>1970-01-01T04:00:58.000Z</time></trkpt><trkpt lat="51.895496" lon="39.439563"><ele>138.6</ele><time>1970-01-01T04:00:59.000Z</time></trkpt><trkpt lat="51.895208" lon="39.4394"><ele>139.6</ele><time>1970-01-01T04:01:05.000Z</time></trkpt><trkpt lat="51.895112" lon="39.439352"><ele>139.9</ele><time>1970-01-01T04:01:07.000Z</time></trkpt><trkpt lat="51.895065" lon="39.439324"><ele>140.1</ele><time>1970-01-01T04:01:08.000Z</time></trkpt><trkpt lat="51.894822" lon="39.439197"><ele>140.3</ele><time>1970-01-01T04:01:13.000Z</time></trkpt><trkpt lat="51.894672" lon="39.439123"><ele>140.2</ele><time>1970-01-01T04:01:16.000Z</time></trkpt><trkpt lat="51.894616" lon="39.439105"><ele>139.9</ele><time>1970-01-01T04:01:17.000Z</time></trkpt><trkpt lat="51.894561" lon="39.439085"><ele>139.6</ele><time>1970-01-01T04:01:18.000Z</time></trkpt><trkpt lat="51.894508" lon="39.439066"><ele>139.2</ele><time>1970-01-01T04:01:19.000Z</time></trkpt><trkpt lat="51.894455" lon="39.439043"><ele>138.8</ele><time>1970-01-01T04:01:20.000Z</time></trkpt><trkpt lat="51.894109" lon="39.43889"><ele>137.8</ele><time>1970-01-01T04:01:27.000Z</time></trkpt><trkpt lat="51.894058" lon="39.438871"><ele>137.6</ele><time>1970-01-01T04:01:28.000Z</time></trkpt><trkpt lat="51.89401" lon="39.438848"><ele>137.1</ele><time>1970-01-01T04:01:29.000Z</time></trkpt><trkpt lat="51.893959" lon="39.438831"><ele>136.7</ele><time>1970-01-01T04:01:30.000Z</time></trkpt><trkpt lat="51.89391" lon="39.438815"><ele>136.4</ele><time>1970-01-01T04:01:31.000Z</time></trkpt><trkpt lat="51.893862" lon="39.438796"><ele>136.2</ele><time>1970-01-01T04:01:32.000Z</time></trkpt><trkpt lat="51.893814" lon="39.438776"><ele>135.9</ele><time>1970-01-01T04:01:33.000Z</time></trkpt><trkpt lat="51.89377" lon="39.438755"><ele>135.7</ele><time>1970-01-01T04:01:34.000Z</time></trkpt><trkpt lat="51.893727" lon="39.438736"><ele>135.7</ele><time>1970-01-01T04:01:35.000Z</time></trkpt><trkpt lat="51.893201" lon="39.43846"><ele>132.6</ele><time>1970-01-01T04:01:46.000Z</time></trkpt><trkpt lat="51.893043" lon="39.438377"><ele>132.5</ele><time>1970-01-01T04:01:49.000Z</time></trkpt><trkpt lat="51.892846" lon="39.438289"><ele>132.6</ele><time>1970-01-01T04:01:53.000Z</time></trkpt><trkpt lat="51.892455" lon="39.438029"><ele>130.2</ele><time>1970-01-01T04:02:04.000Z</time></trkpt><trkpt lat="51.892347" lon="39.437495"><ele>130.9</ele><time>1970-01-01T04:02:14.000Z</time></trkpt><trkpt lat="51.892339" lon="39.437419"><ele>131.5</ele><time>1970-01-01T04:02:15.000Z</time></trkpt><trkpt lat="51.892297" lon="39.436915"><ele>134.2</ele><time>1970-01-01T04:02:23.000Z</time></trkpt><trkpt lat="51.892298" lon="39.436856"><ele>134.6</ele><time>1970-01-01T04:02:24.000Z</time></trkpt><trkpt lat="51.892352" lon="39.436454"><ele>137.7</ele><time>1970-01-01T04:02:30.000Z</time></trkpt><trkpt lat="51.892364" lon="39.436389"><ele>138</ele><time>1970-01-01T04:02:31.000Z</time></trkpt><trkpt lat="51.892376" lon="39.436318"><ele>138.6</ele><time>1970-01-01T04:02:32.000Z</time></trkpt><trkpt lat="51.892409" lon="39.436189"><ele>139.2</ele><time>1970-01-01T04:02:34.000Z</time></trkpt><trkpt lat="51.892426" lon="39.436127"><ele>139.3</ele><time>1970-01-01T04:02:35.000Z</time></trkpt><trkpt lat="51.892542" lon="39.435619"><ele>139.1</ele><time>1970-01-01T04:02:43.000Z</time></trkpt><trkpt lat="51.892644" lon="39.43502"><ele>140.2</ele><time>1970-01-01T04:02:51.000Z</time></trkpt><trkpt lat="51.892647" lon="39.434939"><ele>140.1</ele><time>1970-01-01T04:02:52.000Z</time></trkpt><trkpt lat="51.892657" lon="39.434865"><ele>139.9</ele><time>1970-01-01T04:02:53.000Z</time></trkpt><trkpt lat="51.89267" lon="39.434784"><ele>139.5</ele><time>1970-01-01T04:02:54.000Z</time></trkpt><trkpt lat="51.892682" lon="39.434696"><ele>138.9</ele><time>1970-01-01T04:02:55.000Z</time></trkpt><trkpt lat="51.892711" lon="39.434533"><ele>137.9</ele><time>1970-01-01T04:02:57.000Z</time></trkpt><trkpt lat="51.892742" lon="39.434342"><ele>136.8</ele><time>1970-01-01T04:02:59.000Z</time></trkpt><trkpt lat="51.89276" lon="39.434244"><ele>136.3</ele><time>1970-01-01T04:03:00.000Z</time></trkpt><trkpt lat="51.892778" lon="39.43415"><ele>135.8</ele><time>1970-01-01T04:03:01.000Z</time></trkpt><trkpt lat="51.892846" lon="39.433823"><ele>135.1</ele><time>1970-01-01T04:03:05.000Z</time></trkpt><trkpt lat="51.892894" lon="39.433586"><ele>135.2</ele><time>1970-01-01T04:03:08.000Z</time></trkpt><trkpt lat="51.892959" lon="39.433274"><ele>136.7</ele><time>1970-01-01T04:03:12.000Z</time></trkpt><trkpt lat="51.893004" lon="39.433009"><ele>137.4</ele><time>1970-01-01T04:03:15.000Z</time></trkpt><trkpt lat="51.893022" lon="39.432918"><ele>137.6</ele><time>1970-01-01T04:03:16.000Z</time></trkpt><trkpt lat="51.893148" lon="39.432185"><ele>138.3</ele><time>1970-01-01T04:03:25.000Z</time></trkpt><trkpt lat="51.8932" lon="39.431942"><ele>138.5</ele><time>1970-01-01T04:03:28.000Z</time></trkpt><trkpt lat="51.89336" lon="39.431128"><ele>137.1</ele><time>1970-01-01T04:03:38.000Z</time></trkpt><trkpt lat="51.893386" lon="39.430964"><ele>136.4</ele><time>1970-01-01T04:03:40.000Z</time></trkpt><trkpt lat="51.893403" lon="39.43087"><ele>136.4</ele><time>1970-01-01T04:03:41.000Z</time></trkpt><trkpt lat="51.89348" lon="39.430432"><ele>136.6</ele><time>1970-01-01T04:03:46.000Z</time></trkpt><trkpt lat="51.893499" lon="39.430355"><ele>136.3</ele><time>1970-01-01T04:03:47.000Z</time></trkpt><trkpt lat="51.893652" lon="39.429424"><ele>132.4</ele><time>1970-01-01T04:03:57.000Z</time></trkpt><trkpt lat="51.893805" lon="39.4286"><ele>132.9</ele><time>1970-01-01T04:04:07.000Z</time></trkpt><trkpt lat="51.893821" lon="39.428522"><ele>133.4</ele><time>1970-01-01T04:04:08.000Z</time></trkpt><trkpt lat="51.893852" lon="39.428367"><ele>134</ele><time>1970-01-01T04:04:10.000Z</time></trkpt><trkpt lat="51.893915" lon="39.428122"><ele>134.6</ele><time>1970-01-01T04:04:13.000Z</time></trkpt><trkpt lat="51.893935" lon="39.428051"><ele>134.8</ele><time>1970-01-01T04:04:14.000Z</time></trkpt><trkpt lat="51.893952" lon="39.427975"><ele>134.9</ele><time>1970-01-01T04:04:15.000Z</time></trkpt><trkpt lat="51.893982" lon="39.427797"><ele>135.2</ele><time>1970-01-01T04:04:17.000Z</time></trkpt><trkpt lat="51.89401" lon="39.427621"><ele>135.2</ele><time>1970-01-01T04:04:19.000Z</time></trkpt><trkpt lat="51.894077" lon="39.42735"><ele>134.6</ele><time>1970-01-01T04:04:23.000Z</time></trkpt><trkpt lat="51.894091" lon="39.42726"><ele>134.5</ele><time>1970-01-01T04:04:24.000Z</time></trkpt><trkpt lat="51.894162" lon="39.426926"><ele>134.8</ele><time>1970-01-01T04:04:28.000Z</time></trkpt><trkpt lat="51.894183" lon="39.426837"><ele>134.9</ele><time>1970-01-01T04:04:29.000Z</time></trkpt><trkpt lat="51.894194" lon="39.426747"><ele>135.1</ele><time>1970-01-01T04:04:30.000Z</time></trkpt><trkpt lat="51.89421" lon="39.426665"><ele>135.2</ele><time>1970-01-01T04:04:31.000Z</time></trkpt><trkpt lat="51.894227" lon="39.426575"><ele>135.4</ele><time>1970-01-01T04:04:32.000Z</time></trkpt><trkpt lat="51.894244" lon="39.426477"><ele>135.6</ele><time>1970-01-01T04:04:33.000Z</time></trkpt><trkpt lat="51.894256" lon="39.426377"><ele>135.8</ele><time>1970-01-01T04:04:34.000Z</time></trkpt><trkpt lat="51.894431" lon="39.425478"><ele>136.3</ele><time>1970-01-01T04:04:44.000Z</time></trkpt><trkpt lat="51.894444" lon="39.425391"><ele>136.3</ele><time>1970-01-01T04:04:45.000Z</time></trkpt><trkpt lat="51.894455" lon="39.4253"><ele>135.9</ele><time>1970-01-01T04:04:46.000Z</time></trkpt><trkpt lat="51.894469" lon="39.425215"><ele>135.6</ele><time>1970-01-01T04:04:47.000Z</time></trkpt><trkpt lat="51.894483" lon="39.425138"><ele>135.3</ele><time>1970-01-01T04:04:48.000Z</time></trkpt><trkpt lat="51.894531" lon="39.424893"><ele>134.4</ele><time>1970-01-01T04:04:51.000Z</time></trkpt><trkpt lat="51.894707" lon="39.423851"><ele>129.4</ele><time>1970-01-01T04:05:03.000Z</time></trkpt><trkpt lat="51.89471" lon="39.423833"><ele>129.4</ele><time>1970-01-01T04:05:06.000Z</time></trkpt><trkpt lat="51.894723" lon="39.423658"><ele>129.6</ele><time>1970-01-01T04:05:31.000Z</time></trkpt><trkpt lat="51.894728" lon="39.423612"><ele>129.6</ele><time>1970-01-01T04:05:32.000Z</time></trkpt><trkpt lat="51.894735" lon="39.423567"><ele>129.6</ele><time>1970-01-01T04:05:33.000Z</time></trkpt><trkpt lat="51.894742" lon="39.423519"><ele>129.7</ele><time>1970-01-01T04:05:34.000Z</time></trkpt><trkpt lat="51.894754" lon="39.423472"><ele>129.7</ele><time>1970-01-01T04:05:35.000Z</time></trkpt><trkpt lat="51.894769" lon="39.423423"><ele>129.9</ele><time>1970-01-01T04:05:36.000Z</time></trkpt><trkpt lat="51.894885" lon="39.422848"><ele>131.6</ele><time>1970-01-01T04:05:47.000Z</time></trkpt><trkpt lat="51.894971" lon="39.42239"><ele>131.7</ele><time>1970-01-01T04:05:54.000Z</time></trkpt><trkpt lat="51.894988" lon="39.422317"><ele>131.6</ele><time>1970-01-01T04:05:55.000Z</time></trkpt><trkpt lat="51.895111" lon="39.421702"><ele>130.1</ele><time>1970-01-01T04:06:03.000Z</time></trkpt><trkpt lat="51.89513" lon="39.421627"><ele>129.9</ele><time>1970-01-01T04:06:04.000Z</time></trkpt><trkpt lat="51.895177" lon="39.421405"><ele>130</ele><time>1970-01-01T04:06:07.000Z</time></trkpt><trkpt lat="51.895251" lon="39.421002"><ele>129.2</ele><time>1970-01-01T04:06:12.000Z</time></trkpt><trkpt lat="51.895351" lon="39.42048"><ele>127.8</ele><time>1970-01-01T04:06:18.000Z</time></trkpt><trkpt lat="51.895448" lon="39.420045"><ele>126.7</ele><time>1970-01-01T04:06:23.000Z</time></trkpt><trkpt lat="51.895547" lon="39.41958"><ele>127.2</ele><time>1970-01-01T04:06:28.000Z</time></trkpt><trkpt lat="51.895576" lon="39.419395"><ele>127</ele><time>1970-01-01T04:06:30.000Z</time></trkpt><trkpt lat="51.895608" lon="39.419228"><ele>127.6</ele><time>1970-01-01T04:06:32.000Z</time></trkpt><trkpt lat="51.895681" lon="39.418772"><ele>127.7</ele><time>1970-01-01T04:06:37.000Z</time></trkpt><trkpt lat="51.895779" lon="39.418118"><ele>126.5</ele><time>1970-01-01T04:06:46.000Z</time></trkpt><trkpt lat="51.895791" lon="39.417927"><ele>126.7</ele><time>1970-01-01T04:06:49.000Z</time></trkpt><trkpt lat="51.895789" lon="39.417886"><ele>126.7</ele><time>1970-01-01T04:06:50.000Z</time></trkpt><trkpt lat="51.895783" lon="39.417845"><ele>126.7</ele><time>1970-01-01T04:06:51.000Z</time></trkpt><trkpt lat="51.895781" lon="39.417803"><ele>126.7</ele><time>1970-01-01T04:06:52.000Z</time></trkpt><trkpt lat="51.895788" lon="39.417763"><ele>126.7</ele><time>1970-01-01T04:06:53.000Z</time></trkpt><trkpt lat="51.895798" lon="39.417727"><ele>126.7</ele><time>1970-01-01T04:06:54.000Z</time></trkpt><trkpt lat="51.895813" lon="39.417694"><ele>126.6</ele><time>1970-01-01T04:06:55.000Z</time></trkpt><trkpt lat="51.895832" lon="39.417658"><ele>126.6</ele><time>1970-01-01T04:06:56.000Z</time></trkpt><trkpt lat="51.895854" lon="39.417619"><ele>126.4</ele><time>1970-01-01T04:06:57.000Z</time></trkpt><trkpt lat="51.895872" lon="39.417565"><ele>126</ele><time>1970-01-01T04:06:58.000Z</time></trkpt><trkpt lat="51.895889" lon="39.41751"><ele>125.5</ele><time>1970-01-01T04:06:59.000Z</time></trkpt><trkpt lat="51.895908" lon="39.41745"><ele>125.1</ele><time>1970-01-01T04:07:00.000Z</time></trkpt><trkpt lat="51.895925" lon="39.417382"><ele>124.7</ele><time>1970-01-01T04:07:01.000Z</time></trkpt><trkpt lat="51.895958" lon="39.417234"><ele>124.6</ele><time>1970-01-01T04:07:03.000Z</time></trkpt><trkpt lat="51.895967" lon="39.417151"><ele>124.7</ele><time>1970-01-01T04:07:04.000Z</time></trkpt><trkpt lat="51.896019" lon="39.41685"><ele>124</ele><time>1970-01-01T04:07:08.000Z</time></trkpt><trkpt lat="51.896055" lon="39.416701"><ele>124</ele><time>1970-01-01T04:07:10.000Z</time></trkpt><trkpt lat="51.896116" lon="39.416488"><ele>123.1</ele><time>1970-01-01T04:07:13.000Z</time></trkpt><trkpt lat="51.896151" lon="39.416342"><ele>122.1</ele><time>1970-01-01T04:07:15.000Z</time></trkpt><trkpt lat="51.896168" lon="39.416264"><ele>121.6</ele><time>1970-01-01T04:07:16.000Z</time></trkpt><trkpt lat="51.896184" lon="39.416188"><ele>121.2</ele><time>1970-01-01T04:07:17.000Z</time></trkpt><trkpt lat="51.896197" lon="39.416119"><ele>120.8</ele><time>1970-01-01T04:07:18.000Z</time></trkpt><trkpt lat="51.896208" lon="39.416048"><ele>120.4</ele><time>1970-01-01T04:07:19.000Z</time></trkpt><trkpt lat="51.896213" lon="39.415982"><ele>120</ele><time>1970-01-01T04:07:20.000Z</time></trkpt><trkpt lat="51.896219" lon="39.415916"><ele>119.7</ele><time>1970-01-01T04:07:21.000Z</time></trkpt><trkpt lat="51.89623" lon="39.415846"><ele>119.4</ele><time>1970-01-01T04:07:22.000Z</time></trkpt><trkpt lat="51.896337" lon="39.415298"><ele>117</ele><time>1970-01-01T04:07:30.000Z</time></trkpt><trkpt lat="51.896349" lon="39.415222"><ele>117</ele><time>1970-01-01T04:07:31.000Z</time></trkpt><trkpt lat="51.896363" lon="39.415151"><ele>117</ele><time>1970-01-01T04:07:32.000Z</time></trkpt><trkpt lat="51.896431" lon="39.414878"><ele>118.5</ele><time>1970-01-01T04:07:36.000Z</time></trkpt><trkpt lat="51.896439" lon="39.414789"><ele>118.9</ele><time>1970-01-01T04:07:37.000Z</time></trkpt><trkpt lat="51.896449" lon="39.414691"><ele>119.4</ele><time>1970-01-01T04:07:38.000Z</time></trkpt><trkpt lat="51.896575" lon="39.413921"><ele>125.6</ele><time>1970-01-01T04:07:47.000Z</time></trkpt><trkpt lat="51.896587" lon="39.413836"><ele>125.8</ele><time>1970-01-01T04:07:48.000Z</time></trkpt><trkpt lat="51.896606" lon="39.413748"><ele>126</ele><time>1970-01-01T04:07:49.000Z</time></trkpt><trkpt lat="51.896626" lon="39.413664"><ele>126</ele><time>1970-01-01T04:07:50.000Z</time></trkpt><trkpt lat="51.896641" lon="39.413578"><ele>126.1</ele><time>1970-01-01T04:07:51.000Z</time></trkpt><trkpt lat="51.896789" lon="39.412797"><ele>127</ele><time>1970-01-01T04:08:00.000Z</time></trkpt><trkpt lat="51.89691" lon="39.412214"><ele>125.9</ele><time>1970-01-01T04:08:07.000Z</time></trkpt><trkpt lat="51.896927" lon="39.412146"><ele>125.9</ele><time>1970-01-01T04:08:08.000Z</time></trkpt><trkpt lat="51.896944" lon="39.412079"><ele>125.9</ele><time>1970-01-01T04:08:09.000Z</time></trkpt><trkpt lat="51.897006" lon="39.411804"><ele>125.9</ele><time>1970-01-01T04:08:13.000Z</time></trkpt><trkpt lat="51.897018" lon="39.411721"><ele>125.9</ele><time>1970-01-01T04:08:14.000Z</time></trkpt><trkpt lat="51.897044" lon="39.411554"><ele>125.9</ele><time>1970-01-01T04:08:16.000Z</time></trkpt><trkpt lat="51.897058" lon="39.411477"><ele>125.9</ele><time>1970-01-01T04:08:17.000Z</time></trkpt><trkpt lat="51.897072" lon="39.411404"><ele>125.9</ele><time>1970-01-01T04:08:18.000Z</time></trkpt><trkpt lat="51.897093" lon="39.411335"><ele>125.9</ele><time>1970-01-01T04:08:19.000Z</time></trkpt><trkpt lat="51.897115" lon="39.411261"><ele>125.9</ele><time>1970-01-01T04:08:20.000Z</time></trkpt><trkpt lat="51.897136" lon="39.411177"><ele>125.9</ele><time>1970-01-01T04:08:21.000Z</time></trkpt><trkpt lat="51.897157" lon="39.411095"><ele>125.9</ele><time>1970-01-01T04:08:22.000Z</time></trkpt><trkpt lat="51.897172" lon="39.41101"><ele>125.9</ele><time>1970-01-01T04:08:23.000Z</time></trkpt><trkpt lat="51.897278" lon="39.410327"><ele>126.8</ele><time>1970-01-01T04:08:31.000Z</time></trkpt><trkpt lat="51.897455" lon="39.409346"><ele>125.9</ele><time>1970-01-01T04:08:43.000Z</time></trkpt><trkpt lat="51.897468" lon="39.409258"><ele>125.7</ele><time>1970-01-01T04:08:44.000Z</time></trkpt><trkpt lat="51.897494" lon="39.409089"><ele>124.8</ele><time>1970-01-01T04:08:46.000Z</time></trkpt><trkpt lat="51.897516" lon="39.408932"><ele>124.8</ele><time>1970-01-01T04:08:48.000Z</time></trkpt><trkpt lat="51.897529" lon="39.408852"><ele>124.5</ele><time>1970-01-01T04:08:49.000Z</time></trkpt><trkpt lat="51.897568" lon="39.40863"><ele>123.9</ele><time>1970-01-01T04:08:52.000Z</time></trkpt><trkpt lat="51.897586" lon="39.408548"><ele>124</ele><time>1970-01-01T04:08:53.000Z</time></trkpt><trkpt lat="51.897619" lon="39.408384"><ele>123.5</ele><time>1970-01-01T04:08:55.000Z</time></trkpt><trkpt lat="51.897638" lon="39.408299"><ele>123</ele><time>1970-01-01T04:08:56.000Z</time></trkpt><trkpt lat="51.89769" lon="39.407822"><ele>121.8</ele><time>1970-01-01T04:09:02.000Z</time></trkpt><trkpt lat="51.89768" lon="39.407574"><ele>121.8</ele><time>1970-01-01T04:09:05.000Z</time></trkpt><trkpt lat="51.897673" lon="39.407492"><ele>121.9</ele><time>1970-01-01T04:09:06.000Z</time></trkpt><trkpt lat="51.897661" lon="39.407399"><ele>121.9</ele><time>1970-01-01T04:09:07.000Z</time></trkpt><trkpt lat="51.897628" lon="39.406983"><ele>121.8</ele><time>1970-01-01T04:09:12.000Z</time></trkpt><trkpt lat="51.897618" lon="39.406821"><ele>122.1</ele><time>1970-01-01T04:09:14.000Z</time></trkpt><trkpt lat="51.897608" lon="39.406743"><ele>122.5</ele><time>1970-01-01T04:09:15.000Z</time></trkpt><trkpt lat="51.897601" lon="39.406672"><ele>122.6</ele><time>1970-01-01T04:09:16.000Z</time></trkpt><trkpt lat="51.897593" lon="39.406522"><ele>122.9</ele><time>1970-01-01T04:09:18.000Z</time></trkpt><trkpt lat="51.897588" lon="39.406444"><ele>123.4</ele><time>1970-01-01T04:09:19.000Z</time></trkpt><trkpt lat="51.897586" lon="39.406368"><ele>123.9</ele><time>1970-01-01T04:09:20.000Z</time></trkpt><trkpt lat="51.897581" lon="39.406078"><ele>124.7</ele><time>1970-01-01T04:09:24.000Z</time></trkpt><trkpt lat="51.897539" lon="39.405936"><ele>125.1</ele><time>1970-01-01T04:09:26.000Z</time></trkpt><trkpt lat="51.897505" lon="39.405881"><ele>125.6</ele><time>1970-01-01T04:09:27.000Z</time></trkpt><trkpt lat="51.8974" lon="39.405727"><ele>125.3</ele><time>1970-01-01T04:09:30.000Z</time></trkpt><trkpt lat="51.897367" lon="39.405676"><ele>124.9</ele><time>1970-01-01T04:09:31.000Z</time></trkpt><trkpt lat="51.897334" lon="39.405616"><ele>124.7</ele><time>1970-01-01T04:09:32.000Z</time></trkpt><trkpt lat="51.897146" lon="39.405109"><ele>123.9</ele><time>1970-01-01T04:09:39.000Z</time></trkpt><trkpt lat="51.897138" lon="39.405023"><ele>123.9</ele><time>1970-01-01T04:09:40.000Z</time></trkpt><trkpt lat="51.897136" lon="39.404939"><ele>123.9</ele><time>1970-01-01T04:09:41.000Z</time></trkpt><trkpt lat="51.897136" lon="39.404867"><ele>123.9</ele><time>1970-01-01T04:09:42.000Z</time></trkpt><trkpt lat="51.897144" lon="39.404787"><ele>123.9</ele><time>1970-01-01T04:09:43.000Z</time></trkpt><trkpt lat="51.897155" lon="39.404711"><ele>123.9</ele><time>1970-01-01T04:09:44.000Z</time></trkpt><trkpt lat="51.897185" lon="39.403963"><ele>122.7</ele><time>1970-01-01T04:09:54.000Z</time></trkpt><trkpt lat="51.897193" lon="39.403784"><ele>122.8</ele><time>1970-01-01T04:09:56.000Z</time></trkpt><trkpt lat="51.897201" lon="39.40362"><ele>122.7</ele><time>1970-01-01T04:09:58.000Z</time></trkpt><trkpt lat="51.897215" lon="39.403529"><ele>122.7</ele><time>1970-01-01T04:09:59.000Z</time></trkpt><trkpt lat="51.897228" lon="39.403433"><ele>122.8</ele><time>1970-01-01T04:10:00.000Z</time></trkpt><trkpt lat="51.897235" lon="39.403338"><ele>122.7</ele><time>1970-01-01T04:10:01.000Z</time></trkpt><trkpt lat="51.897238" lon="39.403244"><ele>122.4</ele><time>1970-01-01T04:10:02.000Z</time></trkpt><trkpt lat="51.897237" lon="39.403156"><ele>121.9</ele><time>1970-01-01T04:10:03.000Z</time></trkpt><trkpt lat="51.89727" lon="39.402747"><ele>121.6</ele><time>1970-01-01T04:10:08.000Z</time></trkpt><trkpt lat="51.897274" lon="39.402471"><ele>121.1</ele><time>1970-01-01T04:10:11.000Z</time></trkpt><trkpt lat="51.897282" lon="39.402384"><ele>121</ele><time>1970-01-01T04:10:12.000Z</time></trkpt><trkpt lat="51.897315" lon="39.402194"><ele>120.7</ele><time>1970-01-01T04:10:14.000Z</time></trkpt><trkpt lat="51.897338" lon="39.402101"><ele>120.7</ele><time>1970-01-01T04:10:15.000Z</time></trkpt><trkpt lat="51.897388" lon="39.401972"><ele>120.8</ele><time>1970-01-01T04:10:17.000Z</time></trkpt><trkpt lat="51.897417" lon="39.401909"><ele>120.6</ele><time>1970-01-01T04:10:18.000Z</time></trkpt><trkpt lat="51.897446" lon="39.401847"><ele>120.2</ele><time>1970-01-01T04:10:19.000Z</time></trkpt><trkpt lat="51.8977" lon="39.401544"><ele>118.8</ele><time>1970-01-01T04:10:26.000Z</time></trkpt><trkpt lat="51.897919" lon="39.401244"><ele>116.7</ele><time>1970-01-01T04:10:31.000Z</time></trkpt><trkpt lat="51.897947" lon="39.401189"><ele>116.6</ele><time>1970-01-01T04:10:32.000Z</time></trkpt><trkpt lat="51.897966" lon="39.401149"><ele>116.6</ele><time>1970-01-01T04:10:33.000Z</time></trkpt><trkpt lat="51.898009" lon="39.401043"><ele>116</ele><time>1970-01-01T04:10:40.000Z</time></trkpt><trkpt lat="51.898079" lon="39.400793"><ele>114.9</ele><time>1970-01-01T04:12:33.000Z</time></trkpt><trkpt lat="51.898089" lon="39.400391"><ele>114.7</ele><time>1970-01-01T04:12:42.000Z</time></trkpt><trkpt lat="51.898007" lon="39.399822"><ele>114.5</ele><time>1970-01-01T04:12:52.000Z</time></trkpt><trkpt lat="51.897982" lon="39.39979"><ele>114.3</ele><time>1970-01-01T04:12:53.000Z</time></trkpt><trkpt lat="51.897949" lon="39.399768"><ele>114.3</ele><time>1970-01-01T04:12:54.000Z</time></trkpt><trkpt lat="51.897918" lon="39.399761"><ele>114.3</ele><time>1970-01-01T04:12:55.000Z</time></trkpt><trkpt lat="51.897887" lon="39.399768"><ele>114.3</ele><time>1970-01-01T04:12:56.000Z</time></trkpt><trkpt lat="51.897858" lon="39.399772"><ele>114.4</ele><time>1970-01-01T04:12:57.000Z</time></trkpt><trkpt lat="51.897826" lon="39.399769"><ele>114.5</ele><time>1970-01-01T04:12:58.000Z</time></trkpt><trkpt lat="51.897797" lon="39.399767"><ele>114.6</ele><time>1970-01-01T04:12:59.000Z</time></trkpt><trkpt lat="51.89763" lon="39.39976"><ele>115.4</ele><time>1970-01-01T04:13:08.000Z</time></trkpt><trkpt lat="51.897539" lon="39.399767"><ele>115.4</ele><time>1970-01-01T04:13:20.000Z</time></trkpt><trkpt lat="51.897515" lon="39.399768"><ele>115.3</ele><time>1970-01-01T04:13:21.000Z</time></trkpt><trkpt lat="51.89749" lon="39.399765"><ele>115.3</ele><time>1970-01-01T04:13:22.000Z</time></trkpt><trkpt lat="51.897464" lon="39.399762"><ele>115.2</ele><time>1970-01-01T04:13:23.000Z</time></trkpt><trkpt lat="51.897438" lon="39.399761"><ele>115.2</ele><time>1970-01-01T04:13:24.000Z</time></trkpt><trkpt lat="51.897019" lon="39.399775"><ele>118.6</ele><time>1970-01-01T04:13:36.000Z</time></trkpt><trkpt lat="51.896688" lon="39.399778"><ele>121.5</ele><time>1970-01-01T04:13:47.000Z</time></trkpt><trkpt lat="51.896283" lon="39.399791"><ele>121.7</ele><time>1970-01-01T04:13:57.000Z</time></trkpt><trkpt lat="51.896235" lon="39.399798"><ele>121.7</ele><time>1970-01-01T04:13:58.000Z</time></trkpt><trkpt lat="51.896093" lon="39.39983"><ele>121.9</ele><time>1970-01-01T04:14:01.000Z</time></trkpt><trkpt lat="51.896038" lon="39.399839"><ele>121.5</ele><time>1970-01-01T04:14:02.000Z</time></trkpt><trkpt lat="51.895981" lon="39.399838"><ele>121.2</ele><time>1970-01-01T04:14:03.000Z</time></trkpt><trkpt lat="51.89593" lon="39.399834"><ele>120.9</ele><time>1970-01-01T04:14:04.000Z</time></trkpt><trkpt lat="51.895879" lon="39.399833"><ele>121.2</ele><time>1970-01-01T04:14:05.000Z</time></trkpt><trkpt lat="51.895828" lon="39.399824"><ele>121.7</ele><time>1970-01-01T04:14:06.000Z</time></trkpt><trkpt lat="51.895775" lon="39.399817"><ele>121.8</ele><time>1970-01-01T04:14:07.000Z</time></trkpt><trkpt lat="51.895724" lon="39.399814"><ele>121.7</ele><time>1970-01-01T04:14:08.000Z</time></trkpt><trkpt lat="51.895326" lon="39.39984"><ele>122.9</ele><time>1970-01-01T04:14:17.000Z</time></trkpt><trkpt lat="51.894993" lon="39.399842"><ele>122.8</ele><time>1970-01-01T04:14:25.000Z</time></trkpt><trkpt lat="51.894594" lon="39.399853"><ele>123.4</ele><time>1970-01-01T04:14:35.000Z</time></trkpt><trkpt lat="51.894293" lon="39.399879"><ele>124</ele><time>1970-01-01T04:14:42.000Z</time></trkpt><trkpt lat="51.894199" lon="39.399892"><ele>124</ele><time>1970-01-01T04:14:44.000Z</time></trkpt><trkpt lat="51.893804" lon="39.399885"><ele>124.2</ele><time>1970-01-01T04:14:51.000Z</time></trkpt><trkpt lat="51.893759" lon="39.399886"><ele>124.2</ele><time>1970-01-01T04:14:52.000Z</time></trkpt><trkpt lat="51.893626" lon="39.39988"><ele>124.3</ele><time>1970-01-01T04:14:55.000Z</time></trkpt><trkpt lat="51.893521" lon="39.399889"><ele>124.5</ele><time>1970-01-01T04:14:57.000Z</time></trkpt><trkpt lat="51.893142" lon="39.399952"><ele>124.6</ele><time>1970-01-01T04:15:06.000Z</time></trkpt><trkpt lat="51.893123" lon="39.39997"><ele>124.7</ele><time>1970-01-01T04:15:07.000Z</time></trkpt><trkpt lat="51.893104" lon="39.399988"><ele>124.7</ele><time>1970-01-01T04:15:08.000Z</time></trkpt><trkpt lat="51.893023" lon="39.400025"><ele>124.7</ele><time>1970-01-01T04:15:12.000Z</time></trkpt><trkpt lat="51.892998" lon="39.400018"><ele>124.6</ele><time>1970-01-01T04:15:13.000Z</time></trkpt><trkpt lat="51.892974" lon="39.400013"><ele>124.6</ele><time>1970-01-01T04:15:14.000Z</time></trkpt><trkpt lat="51.892698" lon="39.399971"><ele>124.9</ele><time>1970-01-01T04:15:23.000Z</time></trkpt><trkpt lat="51.892543" lon="39.399965"><ele>125.4</ele><time>1970-01-01T04:15:27.000Z</time></trkpt><trkpt lat="51.892491" lon="39.39996"><ele>125.4</ele><time>1970-01-01T04:15:28.000Z</time></trkpt><trkpt lat="51.892002" lon="39.400018"><ele>126.5</ele><time>1970-01-01T04:15:39.000Z</time></trkpt><trkpt lat="51.891878" lon="39.400012"><ele>126.5</ele><time>1970-01-01T04:15:42.000Z</time></trkpt><trkpt lat="51.891836" lon="39.400013"><ele>126.4</ele><time>1970-01-01T04:15:43.000Z</time></trkpt><trkpt lat="51.891532" lon="39.400022"><ele>126.4</ele><time>1970-01-01T04:15:50.000Z</time></trkpt><trkpt lat="51.891244" lon="39.400044"><ele>127.3</ele><time>1970-01-01T04:15:58.000Z</time></trkpt><trkpt lat="51.89121" lon="39.400045"><ele>127.3</ele><time>1970-01-01T04:15:59.000Z</time></trkpt><trkpt lat="51.891174" lon="39.40005"><ele>127.3</ele><time>1970-01-01T04:16:00.000Z</time></trkpt><trkpt lat="51.891129" lon="39.400055"><ele>127.3</ele><time>1970-01-01T04:16:01.000Z</time></trkpt><trkpt lat="51.891086" lon="39.400057"><ele>127.3</ele><time>1970-01-01T04:16:02.000Z</time></trkpt><trkpt lat="51.891045" lon="39.400055"><ele>127.3</ele><time>1970-01-01T04:16:03.000Z</time></trkpt><trkpt lat="51.8909" lon="39.40005"><ele>127.3</ele><time>1970-01-01T04:16:06.000Z</time></trkpt><trkpt lat="51.890837" lon="39.400048"><ele>127.3</ele><time>1970-01-01T04:16:07.000Z</time></trkpt><trkpt lat="51.890778" lon="39.400036"><ele>127.3</ele><time>1970-01-01T04:16:08.000Z</time></trkpt><trkpt lat="51.890719" lon="39.400028"><ele>127.3</ele><time>1970-01-01T04:16:09.000Z</time></trkpt><trkpt lat="51.89066" lon="39.400032"><ele>127.3</ele><time>1970-01-01T04:16:10.000Z</time></trkpt><trkpt lat="51.890609" lon="39.400046"><ele>127.2</ele><time>1970-01-01T04:16:11.000Z</time></trkpt><trkpt lat="51.890567" lon="39.400053"><ele>127.1</ele><time>1970-01-01T04:16:12.000Z</time></trkpt><trkpt lat="51.890528" lon="39.400051"><ele>127.3</ele><time>1970-01-01T04:16:13.000Z</time></trkpt><trkpt lat="51.890484" lon="39.400061"><ele>127.7</ele><time>1970-01-01T04:16:14.000Z</time></trkpt><trkpt lat="51.890441" lon="39.400059"><ele>128</ele><time>1970-01-01T04:16:15.000Z</time></trkpt><trkpt lat="51.890399" lon="39.400047"><ele>128.2</ele><time>1970-01-01T04:16:16.000Z</time></trkpt><trkpt lat="51.890358" lon="39.400034"><ele>128.3</ele><time>1970-01-01T04:16:17.000Z</time></trkpt><trkpt lat="51.89032" lon="39.400025"><ele>128.3</ele><time>1970-01-01T04:16:18.000Z</time></trkpt><trkpt lat="51.889844" lon="39.400122"><ele>127.9</ele><time>1970-01-01T04:16:28.000Z</time></trkpt><trkpt lat="51.889259" lon="39.400153"><ele>126</ele><time>1970-01-01T04:16:40.000Z</time></trkpt><trkpt lat="51.888664" lon="39.400151"><ele>126.9</ele><time>1970-01-01T04:16:52.000Z</time></trkpt><trkpt lat="51.888376" lon="39.400184"><ele>125.9</ele><time>1970-01-01T04:16:59.000Z</time></trkpt><trkpt lat="51.888189" lon="39.400185"><ele>125.1</ele><time>1970-01-01T04:17:03.000Z</time></trkpt><trkpt lat="51.888044" lon="39.400207"><ele>124.7</ele><time>1970-01-01T04:17:06.000Z</time></trkpt><trkpt lat="51.887851" lon="39.400236"><ele>125.6</ele><time>1970-01-01T04:17:10.000Z</time></trkpt><trkpt lat="51.887341" lon="39.400225"><ele>124.8</ele><time>1970-01-01T04:17:20.000Z</time></trkpt><trkpt lat="51.887137" lon="39.400247"><ele>124</ele><time>1970-01-01T04:17:24.000Z</time></trkpt><trkpt lat="51.886903" lon="39.40027"><ele>123.4</ele><time>1970-01-01T04:17:29.000Z</time></trkpt><trkpt lat="51.886243" lon="39.400345"><ele>128.4</ele><time>1970-01-01T04:17:41.000Z</time></trkpt><trkpt lat="51.886025" lon="39.40036"><ele>129.5</ele><time>1970-01-01T04:17:45.000Z</time></trkpt><trkpt lat="51.88571" lon="39.400408"><ele>129.3</ele><time>1970-01-01T04:17:53.000Z</time></trkpt><trkpt lat="51.88563" lon="39.400406"><ele>129.4</ele><time>1970-01-01T04:17:55.000Z</time></trkpt><trkpt lat="51.885126" lon="39.400422"><ele>130.7</ele><time>1970-01-01T04:18:06.000Z</time></trkpt><trkpt lat="51.88475" lon="39.40043"><ele>131.8</ele><time>1970-01-01T04:18:14.000Z</time></trkpt><trkpt lat="51.884647" lon="39.400442"><ele>131.5</ele><time>1970-01-01T04:18:16.000Z</time></trkpt><trkpt lat="51.884176" lon="39.400458"><ele>132.2</ele><time>1970-01-01T04:18:25.000Z</time></trkpt><trkpt lat="51.883606" lon="39.400498"><ele>134.4</ele><time>1970-01-01T04:18:36.000Z</time></trkpt><trkpt lat="51.883285" lon="39.400539"><ele>134.4</ele><time>1970-01-01T04:18:42.000Z</time></trkpt><trkpt lat="51.88297" lon="39.400576"><ele>134.1</ele><time>1970-01-01T04:18:48.000Z</time></trkpt><trkpt lat="51.882806" lon="39.400578"><ele>133.3</ele><time>1970-01-01T04:18:51.000Z</time></trkpt><trkpt lat="51.882553" lon="39.400636"><ele>132.9</ele><time>1970-01-01T04:18:56.000Z</time></trkpt><trkpt lat="51.882226" lon="39.4007"><ele>130.1</ele><time>1970-01-01T04:19:07.000Z</time></trkpt><trkpt lat="51.882168" lon="39.400721"><ele>129.8</ele><time>1970-01-01T04:19:11.000Z</time></trkpt><trkpt lat="51.882106" lon="39.400715"><ele>129</ele><time>1970-01-01T04:19:17.000Z</time></trkpt><trkpt lat="51.88203" lon="39.400727"><ele>128.6</ele><time>1970-01-01T04:19:22.000Z</time></trkpt><trkpt lat="51.881771" lon="39.400647"><ele>126.5</ele><time>1970-01-01T04:19:33.000Z</time></trkpt><trkpt lat="51.881407" lon="39.400654"><ele>125.1</ele><time>1970-01-01T04:19:44.000Z</time></trkpt><trkpt lat="51.881195" lon="39.400665"><ele>125.9</ele><time>1970-01-01T04:19:49.000Z</time></trkpt><trkpt lat="51.880859" lon="39.400695"><ele>126.7</ele><time>1970-01-01T04:19:57.000Z</time></trkpt><trkpt lat="51.880557" lon="39.400691"><ele>127.6</ele><time>1970-01-01T04:20:04.000Z</time></trkpt><trkpt lat="51.880035" lon="39.400755"><ele>127.9</ele><time>1970-01-01T04:20:16.000Z</time></trkpt><trkpt lat="51.879762" lon="39.400781"><ele>128.9</ele><time>1970-01-01T04:20:21.000Z</time></trkpt><trkpt lat="51.879431" lon="39.400793"><ele>130.2</ele><time>1970-01-01T04:20:27.000Z</time></trkpt><trkpt lat="51.879036" lon="39.400833"><ele>131.3</ele><time>1970-01-01T04:20:37.000Z</time></trkpt><trkpt lat="51.878899" lon="39.400856"><ele>131.4</ele><time>1970-01-01T04:20:42.000Z</time></trkpt><trkpt lat="51.878771" lon="39.400763"><ele>131.9</ele><time>1970-01-01T04:20:54.000Z</time></trkpt><trkpt lat="51.878618" lon="39.400887"><ele>132.4</ele><time>1970-01-01T04:21:04.000Z</time></trkpt><trkpt lat="51.878539" lon="39.400904"><ele>132.7</ele><time>1970-01-01T04:21:06.000Z</time></trkpt><trkpt lat="51.878065" lon="39.400946"><ele>134.2</ele><time>1970-01-01T04:21:20.000Z</time></trkpt><trkpt lat="51.877697" lon="39.400969"><ele>134.3</ele><time>1970-01-01T04:21:30.000Z</time></trkpt><trkpt lat="51.877244" lon="39.400991"><ele>133.3</ele><time>1970-01-01T04:21:41.000Z</time></trkpt><trkpt lat="51.877081" lon="39.400995"><ele>133.3</ele><time>1970-01-01T04:21:44.000Z</time></trkpt><trkpt lat="51.876926" lon="39.40098"><ele>133.3</ele><time>1970-01-01T04:21:47.000Z</time></trkpt><trkpt lat="51.876606" lon="39.401027"><ele>133.3</ele><time>1970-01-01T04:21:53.000Z</time></trkpt><trkpt lat="51.876033" lon="39.401036"><ele>133.3</ele><time>1970-01-01T04:22:05.000Z</time></trkpt><trkpt lat="51.87579" lon="39.401056"><ele>132.2</ele><time>1970-01-01T04:22:10.000Z</time></trkpt><trkpt lat="51.875416" lon="39.401109"><ele>130.8</ele><time>1970-01-01T04:22:18.000Z</time></trkpt><trkpt lat="51.8752" lon="39.401098"><ele>130.4</ele><time>1970-01-01T04:22:23.000Z</time></trkpt><trkpt lat="51.875036" lon="39.40112"><ele>130.3</ele><time>1970-01-01T04:22:26.000Z</time></trkpt><trkpt lat="51.874715" lon="39.401168"><ele>131.7</ele><time>1970-01-01T04:22:33.000Z</time></trkpt><trkpt lat="51.874503" lon="39.401148"><ele>132.6</ele><time>1970-01-01T04:22:39.000Z</time></trkpt><trkpt lat="51.874297" lon="39.401214"><ele>133.3</ele><time>1970-01-01T04:22:48.000Z</time></trkpt><trkpt lat="51.873829" lon="39.40126"><ele>132.1</ele><time>1970-01-01T04:22:59.000Z</time></trkpt><trkpt lat="51.873755" lon="39.401264"><ele>132.2</ele><time>1970-01-01T04:23:01.000Z</time></trkpt><trkpt lat="51.873691" lon="39.401287"><ele>132.2</ele><time>1970-01-01T04:23:04.000Z</time></trkpt><trkpt lat="51.873674" lon="39.401336"><ele>132.3</ele><time>1970-01-01T04:23:06.000Z</time></trkpt><trkpt lat="51.873647" lon="39.40141"><ele>132.3</ele><time>1970-01-01T04:23:09.000Z</time></trkpt><trkpt lat="51.873581" lon="39.401424"><ele>132.2</ele><time>1970-01-01T04:23:13.000Z</time></trkpt><trkpt lat="51.873334" lon="39.401305"><ele>133.1</ele><time>1970-01-01T04:23:25.000Z</time></trkpt><trkpt lat="51.872951" lon="39.401318"><ele>133.2</ele><time>1970-01-01T04:23:37.000Z</time></trkpt><trkpt lat="51.872565" lon="39.401321"><ele>131.6</ele><time>1970-01-01T04:23:47.000Z</time></trkpt><trkpt lat="51.872153" lon="39.401362"><ele>130.4</ele><time>1970-01-01T04:23:57.000Z</time></trkpt><trkpt lat="51.872098" lon="39.401369"><ele>130.3</ele><time>1970-01-01T04:23:58.000Z</time></trkpt><trkpt lat="51.871583" lon="39.401436"><ele>128.9</ele><time>1970-01-01T04:24:08.000Z</time></trkpt><trkpt lat="51.87143" lon="39.401417"><ele>128.6</ele><time>1970-01-01T04:24:11.000Z</time></trkpt><trkpt lat="51.8712" lon="39.401439"><ele>129.3</ele><time>1970-01-01T04:24:16.000Z</time></trkpt><trkpt lat="51.871043" lon="39.401488"><ele>129.3</ele><time>1970-01-01T04:24:21.000Z</time></trkpt><trkpt lat="51.870841" lon="39.401505"><ele>130.2</ele><time>1970-01-01T04:24:29.000Z</time></trkpt><trkpt lat="51.870574" lon="39.401496"><ele>130.3</ele><time>1970-01-01T04:24:35.000Z</time></trkpt><trkpt lat="51.87016" lon="39.40147"><ele>130.3</ele><time>1970-01-01T04:24:46.000Z</time></trkpt><trkpt lat="51.869806" lon="39.40148"><ele>127.8</ele><time>1970-01-01T04:24:53.000Z</time></trkpt><trkpt lat="51.869496" lon="39.401494"><ele>127.3</ele><time>1970-01-01T04:24:59.000Z</time></trkpt><trkpt lat="51.869068" lon="39.401561"><ele>126.4</ele><time>1970-01-01T04:25:10.000Z</time></trkpt><trkpt lat="51.86877" lon="39.40156"><ele>126.2</ele><time>1970-01-01T04:25:20.000Z</time></trkpt><trkpt lat="51.868167" lon="39.401562"><ele>126.2</ele><time>1970-01-01T04:25:33.000Z</time></trkpt><trkpt lat="51.86791" lon="39.401547"><ele>126.3</ele><time>1970-01-01T04:25:39.000Z</time></trkpt><trkpt lat="51.867662" lon="39.401551"><ele>125.3</ele><time>1970-01-01T04:25:44.000Z</time></trkpt><trkpt lat="51.867384" lon="39.401562"><ele>123.8</ele><time>1970-01-01T04:25:50.000Z</time></trkpt><trkpt lat="51.867272" lon="39.401562"><ele>123.1</ele><time>1970-01-01T04:25:52.000Z</time></trkpt><trkpt lat="51.8671" lon="39.401569"><ele>122</ele><time>1970-01-01T04:25:55.000Z</time></trkpt><trkpt lat="51.866928" lon="39.401576"><ele>121.4</ele><time>1970-01-01T04:25:58.000Z</time></trkpt><trkpt lat="51.866375" lon="39.401613"><ele>119.2</ele><time>1970-01-01T04:26:10.000Z</time></trkpt><trkpt lat="51.865875" lon="39.401639"><ele>119.6</ele><time>1970-01-01T04:26:20.000Z</time></trkpt><trkpt lat="51.865566" lon="39.401614"><ele>120.5</ele><time>1970-01-01T04:26:25.000Z</time></trkpt><trkpt lat="51.865073" lon="39.401657"><ele>120.3</ele><time>1970-01-01T04:26:36.000Z</time></trkpt><trkpt lat="51.864725" lon="39.401642"><ele>120</ele><time>1970-01-01T04:26:42.000Z</time></trkpt><trkpt lat="51.864394" lon="39.401619"><ele>120.5</ele><time>1970-01-01T04:26:49.000Z</time></trkpt><trkpt lat="51.864241" lon="39.401611"><ele>121.2</ele><time>1970-01-01T04:26:52.000Z</time></trkpt><trkpt lat="51.863765" lon="39.401687"><ele>120.5</ele><time>1970-01-01T04:27:03.000Z</time></trkpt><trkpt lat="51.863497" lon="39.401706"><ele>121.2</ele><time>1970-01-01T04:27:10.000Z</time></trkpt><trkpt lat="51.863245" lon="39.401718"><ele>121.4</ele><time>1970-01-01T04:27:15.000Z</time></trkpt><trkpt lat="51.863009" lon="39.401712"><ele>121.3</ele><time>1970-01-01T04:27:20.000Z</time></trkpt><trkpt lat="51.862881" lon="39.401702"><ele>121.1</ele><time>1970-01-01T04:27:23.000Z</time></trkpt><trkpt lat="51.862783" lon="39.401697"><ele>121.2</ele><time>1970-01-01T04:27:25.000Z</time></trkpt><trkpt lat="51.862254" lon="39.40176"><ele>125.3</ele><time>1970-01-01T04:27:36.000Z</time></trkpt><trkpt lat="51.861815" lon="39.401783"><ele>125.2</ele><time>1970-01-01T04:27:47.000Z</time></trkpt><trkpt lat="51.861584" lon="39.401804"><ele>124.2</ele><time>1970-01-01T04:27:52.000Z</time></trkpt><trkpt lat="51.861079" lon="39.401807"><ele>120.8</ele><time>1970-01-01T04:28:05.000Z</time></trkpt><trkpt lat="51.860858" lon="39.40183"><ele>121</ele><time>1970-01-01T04:28:15.000Z</time></trkpt><trkpt lat="51.860851" lon="39.401836"><ele>121</ele><time>1970-01-01T04:28:18.000Z</time></trkpt><trkpt lat="51.860793" lon="39.401968"><ele>121.6</ele><time>1970-01-01T04:28:24.000Z</time></trkpt><trkpt lat="51.860784" lon="39.401999"><ele>121.8</ele><time>1970-01-01T04:28:25.000Z</time></trkpt><trkpt lat="51.860777" lon="39.402033"><ele>122</ele><time>1970-01-01T04:28:26.000Z</time></trkpt><trkpt lat="51.860773" lon="39.402075"><ele>122.2</ele><time>1970-01-01T04:28:27.000Z</time></trkpt><trkpt lat="51.860759" lon="39.402573"><ele>123.7</ele><time>1970-01-01T04:28:37.000Z</time></trkpt><trkpt lat="51.860816" lon="39.403161"><ele>124.9</ele><time>1970-01-01T04:28:48.000Z</time></trkpt><trkpt lat="51.860792" lon="39.403819"><ele>125.3</ele><time>1970-01-01T04:29:01.000Z</time></trkpt><trkpt lat="51.860816" lon="39.404359"><ele>126.3</ele><time>1970-01-01T04:29:12.000Z</time></trkpt><trkpt lat="51.860868" lon="39.404608"><ele>126.1</ele><time>1970-01-01T04:29:23.000Z</time></trkpt><trkpt lat="51.860869" lon="39.404608"><ele>126.1</ele><time>1970-01-01T04:29:24.000Z</time></trkpt><trkpt lat="51.860873" lon="39.404796"><ele>125.3</ele><time>1970-01-01T04:33:48.000Z</time></trkpt><trkpt lat="51.860878" lon="39.404845"><ele>125.2</ele><time>1970-01-01T04:33:49.000Z</time></trkpt><trkpt lat="51.860881" lon="39.404904"><ele>125.2</ele><time>1970-01-01T04:33:50.000Z</time></trkpt><trkpt lat="51.860886" lon="39.404965"><ele>125</ele><time>1970-01-01T04:33:51.000Z</time></trkpt><trkpt lat="51.8609" lon="39.40531"><ele>124.1</ele><time>1970-01-01T04:34:00.000Z</time></trkpt><trkpt lat="51.860914" lon="39.405806"><ele>124.2</ele><time>1970-01-01T04:34:11.000Z</time></trkpt><trkpt lat="51.860932" lon="39.406401"><ele>125.9</ele><time>1970-01-01T04:34:23.000Z</time></trkpt><trkpt lat="51.86093" lon="39.406983"><ele>126.8</ele><time>1970-01-01T04:34:35.000Z</time></trkpt><trkpt lat="51.860936" lon="39.407635"><ele>128.4</ele><time>1970-01-01T04:34:46.000Z</time></trkpt><trkpt lat="51.860989" lon="39.408277"><ele>129.6</ele><time>1970-01-01T04:34:56.000Z</time></trkpt><trkpt lat="51.860985" lon="39.40886"><ele>129.9</ele><time>1970-01-01T04:35:05.000Z</time></trkpt><trkpt lat="51.861062" lon="39.409899"><ele>131</ele><time>1970-01-01T04:35:15.000Z</time></trkpt><trkpt lat="51.861079" lon="39.410299"><ele>131.1</ele><time>1970-01-01T04:35:20.000Z</time></trkpt><trkpt lat="51.86108" lon="39.410384"><ele>131.6</ele><time>1970-01-01T04:35:21.000Z</time></trkpt><trkpt lat="51.861083" lon="39.410468"><ele>132</ele><time>1970-01-01T04:35:22.000Z</time></trkpt><trkpt lat="51.861087" lon="39.41055"><ele>132</ele><time>1970-01-01T04:35:23.000Z</time></trkpt><trkpt lat="51.861086" lon="39.410632"><ele>131.8</ele><time>1970-01-01T04:35:24.000Z</time></trkpt><trkpt lat="51.861086" lon="39.410718"><ele>131.7</ele><time>1970-01-01T04:35:25.000Z</time></trkpt><trkpt lat="51.861088" lon="39.4108"><ele>131.9</ele><time>1970-01-01T04:35:26.000Z</time></trkpt><trkpt lat="51.861086" lon="39.410877"><ele>132.1</ele><time>1970-01-01T04:35:27.000Z</time></trkpt><trkpt lat="51.861117" lon="39.411297"><ele>132.7</ele><time>1970-01-01T04:35:34.000Z</time></trkpt><trkpt lat="51.861159" lon="39.411783"><ele>131.9</ele><time>1970-01-01T04:35:41.000Z</time></trkpt><trkpt lat="51.861172" lon="39.411944"><ele>131.8</ele><time>1970-01-01T04:35:43.000Z</time></trkpt><trkpt lat="51.861322" lon="39.412751"><ele>128.1</ele><time>1970-01-01T04:35:53.000Z</time></trkpt><trkpt lat="51.861387" lon="39.413224"><ele>127.6</ele><time>1970-01-01T04:35:59.000Z</time></trkpt><trkpt lat="51.861401" lon="39.413515"><ele>127.6</ele><time>1970-01-01T04:36:03.000Z</time></trkpt><trkpt lat="51.861297" lon="39.413991"><ele>127.4</ele><time>1970-01-01T04:36:10.000Z</time></trkpt><trkpt lat="51.861226" lon="39.414272"><ele>128.5</ele><time>1970-01-01T04:36:14.000Z</time></trkpt><trkpt lat="51.861146" lon="39.414552"><ele>128.9</ele><time>1970-01-01T04:36:18.000Z</time></trkpt><trkpt lat="51.861087" lon="39.414778"><ele>129.4</ele><time>1970-01-01T04:36:22.000Z</time></trkpt><trkpt lat="51.861057" lon="39.415056"><ele>129.5</ele><time>1970-01-01T04:36:26.000Z</time></trkpt><trkpt lat="51.86104" lon="39.415453"><ele>128.8</ele><time>1970-01-01T04:36:31.000Z</time></trkpt><trkpt lat="51.860998" lon="39.416233"><ele>127.6</ele><time>1970-01-01T04:36:42.000Z</time></trkpt><trkpt lat="51.860978" lon="39.416516"><ele>127.4</ele><time>1970-01-01T04:36:46.000Z</time></trkpt><trkpt lat="51.860998" lon="39.416882"><ele>127</ele><time>1970-01-01T04:36:50.000Z</time></trkpt><trkpt lat="51.861087" lon="39.417218"><ele>127.4</ele><time>1970-01-01T04:36:54.000Z</time></trkpt><trkpt lat="51.861216" lon="39.417587"><ele>127.4</ele><time>1970-01-01T04:36:58.000Z</time></trkpt><trkpt lat="51.861306" lon="39.417944"><ele>126.3</ele><time>1970-01-01T04:37:02.000Z</time></trkpt><trkpt lat="51.861371" lon="39.418279"><ele>125.1</ele><time>1970-01-01T04:37:06.000Z</time></trkpt><trkpt lat="51.861414" lon="39.418524"><ele>125.1</ele><time>1970-01-01T04:37:09.000Z</time></trkpt><trkpt lat="51.861538" lon="39.419339"><ele>128.2</ele><time>1970-01-01T04:37:20.000Z</time></trkpt><trkpt lat="51.861629" lon="39.419698"><ele>129.2</ele><time>1970-01-01T04:37:25.000Z</time></trkpt><trkpt lat="51.861811" lon="39.420478"><ele>129.1</ele><time>1970-01-01T04:37:37.000Z</time></trkpt><trkpt lat="51.861957" lon="39.421201"><ele>129.9</ele><time>1970-01-01T04:37:47.000Z</time></trkpt><trkpt lat="51.862047" lon="39.421648"><ele>131.2</ele><time>1970-01-01T04:37:53.000Z</time></trkpt><trkpt lat="51.862099" lon="39.422176"><ele>131</ele><time>1970-01-01T04:38:00.000Z</time></trkpt><trkpt lat="51.862115" lon="39.422474"><ele>131</ele><time>1970-01-01T04:38:04.000Z</time></trkpt><trkpt lat="51.862102" lon="39.422771"><ele>131</ele><time>1970-01-01T04:38:08.000Z</time></trkpt><trkpt lat="51.862095" lon="39.423343"><ele>130</ele><time>1970-01-01T04:38:16.000Z</time></trkpt><trkpt lat="51.862062" lon="39.42406"><ele>128.9</ele><time>1970-01-01T04:38:24.000Z</time></trkpt><trkpt lat="51.862053" lon="39.424358"><ele>128.9</ele><time>1970-01-01T04:38:27.000Z</time></trkpt><trkpt lat="51.862039" lon="39.424517"><ele>128.9</ele><time>1970-01-01T04:38:29.000Z</time></trkpt><trkpt lat="51.862022" lon="39.425241"><ele>127.8</ele><time>1970-01-01T04:38:39.000Z</time></trkpt><trkpt lat="51.861989" lon="39.425855"><ele>127.7</ele><time>1970-01-01T04:38:48.000Z</time></trkpt><trkpt lat="51.862032" lon="39.42631"><ele>128.1</ele><time>1970-01-01T04:38:54.000Z</time></trkpt><trkpt lat="51.862171" lon="39.426737"><ele>129.4</ele><time>1970-01-01T04:38:59.000Z</time></trkpt><trkpt lat="51.86227" lon="39.426997"><ele>129.8</ele><time>1970-01-01T04:39:03.000Z</time></trkpt><trkpt lat="51.862429" lon="39.427335"><ele>129.6</ele><time>1970-01-01T04:39:07.000Z</time></trkpt><trkpt lat="51.862506" lon="39.427668"><ele>128.9</ele><time>1970-01-01T04:39:11.000Z</time></trkpt><trkpt lat="51.862519" lon="39.428329"><ele>129</ele><time>1970-01-01T04:39:21.000Z</time></trkpt><trkpt lat="51.862527" lon="39.428447"><ele>129</ele><time>1970-01-01T04:39:23.000Z</time></trkpt><trkpt lat="51.862532" lon="39.428512"><ele>128.9</ele><time>1970-01-01T04:39:24.000Z</time></trkpt><trkpt lat="51.862534" lon="39.428585"><ele>128.7</ele><time>1970-01-01T04:39:25.000Z</time></trkpt><trkpt lat="51.862553" lon="39.428775"><ele>127.5</ele><time>1970-01-01T04:39:27.000Z</time></trkpt><trkpt lat="51.862568" lon="39.428857"><ele>127</ele><time>1970-01-01T04:39:28.000Z</time></trkpt><trkpt lat="51.862578" lon="39.428932"><ele>126.9</ele><time>1970-01-01T04:39:29.000Z</time></trkpt><trkpt lat="51.862587" lon="39.428996"><ele>126.9</ele><time>1970-01-01T04:39:30.000Z</time></trkpt><trkpt lat="51.862591" lon="39.42905"><ele>127</ele><time>1970-01-01T04:39:31.000Z</time></trkpt><trkpt lat="51.862596" lon="39.4291"><ele>127.1</ele><time>1970-01-01T04:39:32.000Z</time></trkpt><trkpt lat="51.8626" lon="39.429138"><ele>127</ele><time>1970-01-01T04:39:33.000Z</time></trkpt><trkpt lat="51.862631" lon="39.429348"><ele>126.1</ele><time>1970-01-01T04:39:40.000Z</time></trkpt><trkpt lat="51.862642" lon="39.429383"><ele>126.1</ele><time>1970-01-01T04:39:41.000Z</time></trkpt><trkpt lat="51.862649" lon="39.429417"><ele>126.1</ele><time>1970-01-01T04:39:42.000Z</time></trkpt><trkpt lat="51.862654" lon="39.429455"><ele>126</ele><time>1970-01-01T04:39:43.000Z</time></trkpt><trkpt lat="51.862654" lon="39.4295"><ele>126</ele><time>1970-01-01T04:39:44.000Z</time></trkpt><trkpt lat="51.86263" lon="39.42984"><ele>126</ele><time>1970-01-01T04:39:50.000Z</time></trkpt><trkpt lat="51.86261" lon="39.429906"><ele>126.1</ele><time>1970-01-01T04:39:51.000Z</time></trkpt><trkpt lat="51.862592" lon="39.429969"><ele>126</ele><time>1970-01-01T04:39:52.000Z</time></trkpt><trkpt lat="51.862571" lon="39.430033"><ele>126</ele><time>1970-01-01T04:39:53.000Z</time></trkpt><trkpt lat="51.862557" lon="39.430087"><ele>125.8</ele><time>1970-01-01T04:39:54.000Z</time></trkpt><trkpt lat="51.862542" lon="39.430148"><ele>125.8</ele><time>1970-01-01T04:39:55.000Z</time></trkpt><trkpt lat="51.862423" lon="39.430645"><ele>124.9</ele><time>1970-01-01T04:40:02.000Z</time></trkpt><trkpt lat="51.862404" lon="39.430712"><ele>125</ele><time>1970-01-01T04:40:03.000Z</time></trkpt><trkpt lat="51.862389" lon="39.430771"><ele>125</ele><time>1970-01-01T04:40:04.000Z</time></trkpt><trkpt lat="51.86237" lon="39.430839"><ele>125</ele><time>1970-01-01T04:40:05.000Z</time></trkpt><trkpt lat="51.862347" lon="39.430907"><ele>124.9</ele><time>1970-01-01T04:40:06.000Z</time></trkpt><trkpt lat="51.862332" lon="39.430983"><ele>125</ele><time>1970-01-01T04:40:07.000Z</time></trkpt><trkpt lat="51.862164" lon="39.431526"><ele>125.6</ele><time>1970-01-01T04:40:15.000Z</time></trkpt><trkpt lat="51.862028" lon="39.432172"><ele>127.1</ele><time>1970-01-01T04:40:25.000Z</time></trkpt><trkpt lat="51.861911" lon="39.432782"><ele>127</ele><time>1970-01-01T04:40:35.000Z</time></trkpt><trkpt lat="51.861787" lon="39.433196"><ele>126</ele><time>1970-01-01T04:40:42.000Z</time></trkpt><trkpt lat="51.861767" lon="39.433271"><ele>126</ele><time>1970-01-01T04:40:43.000Z</time></trkpt><trkpt lat="51.861616" lon="39.433906"><ele>127</ele><time>1970-01-01T04:40:53.000Z</time></trkpt><trkpt lat="51.861494" lon="39.434257"><ele>127</ele><time>1970-01-01T04:40:58.000Z</time></trkpt><trkpt lat="51.861474" lon="39.434349"><ele>127</ele><time>1970-01-01T04:40:59.000Z</time></trkpt><trkpt lat="51.861382" lon="39.434664"><ele>127</ele><time>1970-01-01T04:41:03.000Z</time></trkpt><trkpt lat="51.861325" lon="39.434903"><ele>127</ele><time>1970-01-01T04:41:06.000Z</time></trkpt><trkpt lat="51.861168" lon="39.435513"><ele>128</ele><time>1970-01-01T04:41:15.000Z</time></trkpt><trkpt lat="51.861109" lon="39.435736"><ele>128</ele><time>1970-01-01T04:41:18.000Z</time></trkpt><trkpt lat="51.861084" lon="39.435822"><ele>128.1</ele><time>1970-01-01T04:41:19.000Z</time></trkpt><trkpt lat="51.861056" lon="39.435911"><ele>128.2</ele><time>1970-01-01T04:41:20.000Z</time></trkpt><trkpt lat="51.861028" lon="39.435992"><ele>128.5</ele><time>1970-01-01T04:41:21.000Z</time></trkpt><trkpt lat="51.861004" lon="39.436058"><ele>128.3</ele><time>1970-01-01T04:41:22.000Z</time></trkpt><trkpt lat="51.860981" lon="39.436123"><ele>128</ele><time>1970-01-01T04:41:23.000Z</time></trkpt><trkpt lat="51.860779" lon="39.436928"><ele>128</ele><time>1970-01-01T04:41:33.000Z</time></trkpt><trkpt lat="51.86076" lon="39.43701"><ele>128.2</ele><time>1970-01-01T04:41:34.000Z</time></trkpt><trkpt lat="51.860739" lon="39.437086"><ele>128.4</ele><time>1970-01-01T04:41:35.000Z</time></trkpt><trkpt lat="51.860693" lon="39.437239"><ele>128.3</ele><time>1970-01-01T04:41:37.000Z</time></trkpt><trkpt lat="51.860666" lon="39.437331"><ele>128</ele><time>1970-01-01T04:41:38.000Z</time></trkpt><trkpt lat="51.860636" lon="39.437412"><ele>128</ele><time>1970-01-01T04:41:39.000Z</time></trkpt><trkpt lat="51.860615" lon="39.437495"><ele>128</ele><time>1970-01-01T04:41:40.000Z</time></trkpt><trkpt lat="51.8606" lon="39.437571"><ele>127.8</ele><time>1970-01-01T04:41:41.000Z</time></trkpt><trkpt lat="51.860585" lon="39.437639"><ele>127.8</ele><time>1970-01-01T04:41:42.000Z</time></trkpt><trkpt lat="51.860568" lon="39.437709"><ele>127.8</ele><time>1970-01-01T04:41:43.000Z</time></trkpt><trkpt lat="51.860438" lon="39.438184"><ele>125.9</ele><time>1970-01-01T04:41:50.000Z</time></trkpt><trkpt lat="51.860321" lon="39.438551"><ele>125.3</ele><time>1970-01-01T04:41:55.000Z</time></trkpt><trkpt lat="51.860044" lon="39.439526"><ele>124.9</ele><time>1970-01-01T04:42:06.000Z</time></trkpt><trkpt lat="51.859881" lon="39.440488"><ele>123.8</ele><time>1970-01-01T04:42:17.000Z</time></trkpt><trkpt lat="51.859876" lon="39.440566"><ele>123.8</ele><time>1970-01-01T04:42:18.000Z</time></trkpt><trkpt lat="51.859875" lon="39.440999"><ele>123.9</ele><time>1970-01-01T04:42:23.000Z</time></trkpt><trkpt lat="51.859867" lon="39.441089"><ele>124.1</ele><time>1970-01-01T04:42:24.000Z</time></trkpt><trkpt lat="51.859853" lon="39.441174"><ele>124.4</ele><time>1970-01-01T04:42:25.000Z</time></trkpt><trkpt lat="51.85984" lon="39.441262"><ele>124.8</ele><time>1970-01-01T04:42:26.000Z</time></trkpt><trkpt lat="51.859825" lon="39.441353"><ele>125.5</ele><time>1970-01-01T04:42:27.000Z</time></trkpt><trkpt lat="51.859808" lon="39.441441"><ele>125.7</ele><time>1970-01-01T04:42:28.000Z</time></trkpt><trkpt lat="51.859705" lon="39.441992"><ele>127</ele><time>1970-01-01T04:42:35.000Z</time></trkpt><trkpt lat="51.859688" lon="39.442711"><ele>126.4</ele><time>1970-01-01T04:42:45.000Z</time></trkpt><trkpt lat="51.85966" lon="39.442955"><ele>126.4</ele><time>1970-01-01T04:42:48.000Z</time></trkpt><trkpt lat="51.859648" lon="39.443034"><ele>126.4</ele><time>1970-01-01T04:42:49.000Z</time></trkpt><trkpt lat="51.859637" lon="39.44311"><ele>126.4</ele><time>1970-01-01T04:42:50.000Z</time></trkpt><trkpt lat="51.859625" lon="39.443194"><ele>126.4</ele><time>1970-01-01T04:42:51.000Z</time></trkpt><trkpt lat="51.859615" lon="39.443278"><ele>126.3</ele><time>1970-01-01T04:42:52.000Z</time></trkpt><trkpt lat="51.8596" lon="39.443354"><ele>126.2</ele><time>1970-01-01T04:42:53.000Z</time></trkpt><trkpt lat="51.859583" lon="39.443434"><ele>125.8</ele><time>1970-01-01T04:42:54.000Z</time></trkpt><trkpt lat="51.859499" lon="39.443883"><ele>126.3</ele><time>1970-01-01T04:43:00.000Z</time></trkpt><trkpt lat="51.859486" lon="39.443973"><ele>126.6</ele><time>1970-01-01T04:43:01.000Z</time></trkpt><trkpt lat="51.859181" lon="39.445071"><ele>131.6</ele><time>1970-01-01T04:43:14.000Z</time></trkpt><trkpt lat="51.859143" lon="39.445134"><ele>132.1</ele><time>1970-01-01T04:43:15.000Z</time></trkpt><trkpt lat="51.858735" lon="39.445677"><ele>134.3</ele><time>1970-01-01T04:43:26.000Z</time></trkpt><trkpt lat="51.858657" lon="39.44587"><ele>134.3</ele><time>1970-01-01T04:43:34.000Z</time></trkpt><trkpt lat="51.858657" lon="39.445873"><ele>134.3</ele><time>1970-01-01T04:43:35.000Z</time></trkpt><trkpt lat="51.858617" lon="39.44611"><ele>134.4</ele><time>1970-01-01T04:45:48.000Z</time></trkpt><trkpt lat="51.858603" lon="39.446138"><ele>134.4</ele><time>1970-01-01T04:45:49.000Z</time></trkpt><trkpt lat="51.858589" lon="39.446167"><ele>134.4</ele><time>1970-01-01T04:45:50.000Z</time></trkpt><trkpt lat="51.858492" lon="39.446588"><ele>133.1</ele><time>1970-01-01T04:45:58.000Z</time></trkpt><trkpt lat="51.858384" lon="39.446924"><ele>133.2</ele><time>1970-01-01T04:46:02.000Z</time></trkpt><trkpt lat="51.858236" lon="39.447553"><ele>132.8</ele><time>1970-01-01T04:46:10.000Z</time></trkpt><trkpt lat="51.858155" lon="39.448003"><ele>133.7</ele><time>1970-01-01T04:46:16.000Z</time></trkpt><trkpt lat="51.858145" lon="39.448082"><ele>133.8</ele><time>1970-01-01T04:46:17.000Z</time></trkpt><trkpt lat="51.858133" lon="39.448153"><ele>133.8</ele><time>1970-01-01T04:46:18.000Z</time></trkpt><trkpt lat="51.858119" lon="39.448226"><ele>134.3</ele><time>1970-01-01T04:46:19.000Z</time></trkpt><trkpt lat="51.858103" lon="39.448299"><ele>134.7</ele><time>1970-01-01T04:46:20.000Z</time></trkpt><trkpt lat="51.858042" lon="39.448519"><ele>135.2</ele><time>1970-01-01T04:46:23.000Z</time></trkpt><trkpt lat="51.857894" lon="39.448818"><ele>135.3</ele><time>1970-01-01T04:46:28.000Z</time></trkpt><trkpt lat="51.857865" lon="39.448885"><ele>135.3</ele><time>1970-01-01T04:46:29.000Z</time></trkpt><trkpt lat="51.857842" lon="39.448949"><ele>135.2</ele><time>1970-01-01T04:46:30.000Z</time></trkpt><trkpt lat="51.857823" lon="39.449018"><ele>135.1</ele><time>1970-01-01T04:46:31.000Z</time></trkpt><trkpt lat="51.857809" lon="39.449087"><ele>135.1</ele><time>1970-01-01T04:46:32.000Z</time></trkpt><trkpt lat="51.857799" lon="39.449149"><ele>135.1</ele><time>1970-01-01T04:46:33.000Z</time></trkpt><trkpt lat="51.857793" lon="39.44921"><ele>135.1</ele><time>1970-01-01T04:46:34.000Z</time></trkpt><trkpt lat="51.85765" lon="39.449688"><ele>136.1</ele><time>1970-01-01T04:46:42.000Z</time></trkpt><trkpt lat="51.857618" lon="39.449732"><ele>136.2</ele><time>1970-01-01T04:46:43.000Z</time></trkpt><trkpt lat="51.857488" lon="39.449889"><ele>135.6</ele><time>1970-01-01T04:46:47.000Z</time></trkpt><trkpt lat="51.85731" lon="39.45012"><ele>134.2</ele><time>1970-01-01T04:46:52.000Z</time></trkpt><trkpt lat="51.85676" lon="39.450584"><ele>131.6</ele><time>1970-01-01T04:47:05.000Z</time></trkpt><trkpt lat="51.856346" lon="39.451028"><ele>127.4</ele><time>1970-01-01T04:47:16.000Z</time></trkpt><trkpt lat="51.856318" lon="39.451081"><ele>127.2</ele><time>1970-01-01T04:47:17.000Z</time></trkpt><trkpt lat="51.856283" lon="39.451149"><ele>126.9</ele><time>1970-01-01T04:47:18.000Z</time></trkpt><trkpt lat="51.856246" lon="39.45121"><ele>126.5</ele><time>1970-01-01T04:47:19.000Z</time></trkpt><trkpt lat="51.855977" lon="39.451603"><ele>125.2</ele><time>1970-01-01T04:47:26.000Z</time></trkpt><trkpt lat="51.855459" lon="39.452112"><ele>124.9</ele><time>1970-01-01T04:47:38.000Z</time></trkpt><trkpt lat="51.855367" lon="39.452193"><ele>124.5</ele><time>1970-01-01T04:47:40.000Z</time></trkpt><trkpt lat="51.855324" lon="39.452241"><ele>124.4</ele><time>1970-01-01T04:47:41.000Z</time></trkpt><trkpt lat="51.855287" lon="39.452297"><ele>124.4</ele><time>1970-01-01T04:47:42.000Z</time></trkpt><trkpt lat="51.855249" lon="39.452363"><ele>124.2</ele><time>1970-01-01T04:47:43.000Z</time></trkpt><trkpt lat="51.855206" lon="39.452428"><ele>123.8</ele><time>1970-01-01T04:47:44.000Z</time></trkpt><trkpt lat="51.854847" lon="39.452924"><ele>121.8</ele><time>1970-01-01T04:47:53.000Z</time></trkpt><trkpt lat="51.854767" lon="39.453024"><ele>121.7</ele><time>1970-01-01T04:47:55.000Z</time></trkpt><trkpt lat="51.85474" lon="39.453077"><ele>121.6</ele><time>1970-01-01T04:47:56.000Z</time></trkpt><trkpt lat="51.854712" lon="39.453132"><ele>121.5</ele><time>1970-01-01T04:47:57.000Z</time></trkpt><trkpt lat="51.854688" lon="39.453191"><ele>121.3</ele><time>1970-01-01T04:47:58.000Z</time></trkpt><trkpt lat="51.854665" lon="39.453259"><ele>121.2</ele><time>1970-01-01T04:47:59.000Z</time></trkpt><trkpt lat="51.854584" lon="39.453539"><ele>122.2</ele><time>1970-01-01T04:48:03.000Z</time></trkpt><trkpt lat="51.854475" lon="39.453961"><ele>123.8</ele><time>1970-01-01T04:48:09.000Z</time></trkpt><trkpt lat="51.854458" lon="39.454042"><ele>124.1</ele><time>1970-01-01T04:48:10.000Z</time></trkpt><trkpt lat="51.854443" lon="39.454116"><ele>124.2</ele><time>1970-01-01T04:48:11.000Z</time></trkpt><trkpt lat="51.854432" lon="39.454193"><ele>124.4</ele><time>1970-01-01T04:48:12.000Z</time></trkpt><trkpt lat="51.85442" lon="39.454261"><ele>124.6</ele><time>1970-01-01T04:48:13.000Z</time></trkpt><trkpt lat="51.854407" lon="39.454329"><ele>124.8</ele><time>1970-01-01T04:48:14.000Z</time></trkpt><trkpt lat="51.854392" lon="39.4544"><ele>124.8</ele><time>1970-01-01T04:48:15.000Z</time></trkpt><trkpt lat="51.854378" lon="39.454473"><ele>124.7</ele><time>1970-01-01T04:48:16.000Z</time></trkpt><trkpt lat="51.854367" lon="39.45454"><ele>125.1</ele><time>1970-01-01T04:48:17.000Z</time></trkpt><trkpt lat="51.854356" lon="39.454599"><ele>125.4</ele><time>1970-01-01T04:48:18.000Z</time></trkpt><trkpt lat="51.85434" lon="39.454673"><ele>125.7</ele><time>1970-01-01T04:48:19.000Z</time></trkpt><trkpt lat="51.854325" lon="39.454744"><ele>126</ele><time>1970-01-01T04:48:20.000Z</time></trkpt><trkpt lat="51.854204" lon="39.455265"><ele>127.8</ele><time>1970-01-01T04:48:27.000Z</time></trkpt><trkpt lat="51.854187" lon="39.455341"><ele>128</ele><time>1970-01-01T04:48:28.000Z</time></trkpt><trkpt lat="51.85417" lon="39.455415"><ele>128.2</ele><time>1970-01-01T04:48:29.000Z</time></trkpt><trkpt lat="51.854144" lon="39.455706"><ele>128.9</ele><time>1970-01-01T04:48:33.000Z</time></trkpt><trkpt lat="51.854133" lon="39.455788"><ele>128.9</ele><time>1970-01-01T04:48:34.000Z</time></trkpt><trkpt lat="51.854119" lon="39.455867"><ele>128.8</ele><time>1970-01-01T04:48:35.000Z</time></trkpt><trkpt lat="51.853946" lon="39.45665"><ele>128.3</ele><time>1970-01-01T04:48:46.000Z</time></trkpt><trkpt lat="51.853771" lon="39.457367"><ele>125.6</ele><time>1970-01-01T04:48:57.000Z</time></trkpt><trkpt lat="51.853946" lon="39.458229"><ele>120.9</ele><time>1970-01-01T04:49:11.000Z</time></trkpt><trkpt lat="51.854059" lon="39.458471"><ele>120.4</ele><time>1970-01-01T04:49:24.000Z</time></trkpt><trkpt lat="51.854058" lon="39.45847"><ele>120.4</ele><time>1970-01-01T04:49:25.000Z</time></trkpt><trkpt lat="51.854035" lon="39.458518"><ele>120.5</ele><time>1970-01-01T04:51:32.000Z</time></trkpt><trkpt lat="51.85402" lon="39.458507"><ele>120.5</ele><time>1970-01-01T04:51:33.000Z</time></trkpt><trkpt lat="51.853996" lon="39.458463"><ele>120.6</ele><time>1970-01-01T04:51:35.000Z</time></trkpt><trkpt lat="51.853986" lon="39.458444"><ele>120.6</ele><time>1970-01-01T04:51:36.000Z</time></trkpt><trkpt lat="51.853975" lon="39.458429"><ele>120.7</ele><time>1970-01-01T04:51:37.000Z</time></trkpt><trkpt lat="51.853962" lon="39.458419"><ele>120.7</ele><time>1970-01-01T04:51:38.000Z</time></trkpt><trkpt lat="51.853944" lon="39.458413"><ele>120.8</ele><time>1970-01-01T04:51:39.000Z</time></trkpt><trkpt lat="51.853624" lon="39.458475"><ele>120.4</ele><time>1970-01-01T04:51:50.000Z</time></trkpt><trkpt lat="51.853154" lon="39.458561"><ele>120.3</ele><time>1970-01-01T04:52:02.000Z</time></trkpt><trkpt lat="51.853112" lon="39.458566"><ele>120.3</ele><time>1970-01-01T04:52:03.000Z</time></trkpt><trkpt lat="51.853073" lon="39.458555"><ele>120.4</ele><time>1970-01-01T04:52:04.000Z</time></trkpt><trkpt lat="51.852445" lon="39.458069"><ele>121.7</ele><time>1970-01-01T04:52:21.000Z</time></trkpt><trkpt lat="51.852254" lon="39.457905"><ele>124</ele><time>1970-01-01T04:52:26.000Z</time></trkpt><trkpt lat="51.852212" lon="39.457882"><ele>124.8</ele><time>1970-01-01T04:52:27.000Z</time></trkpt><trkpt lat="51.851612" lon="39.457684"><ele>132</ele><time>1970-01-01T04:52:41.000Z</time></trkpt><trkpt lat="51.851572" lon="39.457685"><ele>131.9</ele><time>1970-01-01T04:52:42.000Z</time></trkpt><trkpt lat="51.85153" lon="39.457687"><ele>131.8</ele><time>1970-01-01T04:52:43.000Z</time></trkpt><trkpt lat="51.851492" lon="39.457683"><ele>131.7</ele><time>1970-01-01T04:52:44.000Z</time></trkpt><trkpt lat="51.85145" lon="39.457681"><ele>131.9</ele><time>1970-01-01T04:52:45.000Z</time></trkpt><trkpt lat="51.851405" lon="39.457683"><ele>132.3</ele><time>1970-01-01T04:52:46.000Z</time></trkpt><trkpt lat="51.850999" lon="39.457687"><ele>133.3</ele><time>1970-01-01T04:52:55.000Z</time></trkpt><trkpt lat="51.850514" lon="39.45766"><ele>134.2</ele><time>1970-01-01T04:53:06.000Z</time></trkpt><trkpt lat="51.849959" lon="39.457589"><ele>134.5</ele><time>1970-01-01T04:53:19.000Z</time></trkpt><trkpt lat="51.849479" lon="39.457467"><ele>136.5</ele><time>1970-01-01T04:53:31.000Z</time></trkpt><trkpt lat="51.849206" lon="39.457467"><ele>138.2</ele><time>1970-01-01T04:53:37.000Z</time></trkpt><trkpt lat="51.84879" lon="39.457506"><ele>138.3</ele><time>1970-01-01T04:53:46.000Z</time></trkpt><trkpt lat="51.848408" lon="39.457618"><ele>136.2</ele><time>1970-01-01T04:53:54.000Z</time></trkpt><trkpt lat="51.847544" lon="39.457587"><ele>131.7</ele><time>1970-01-01T04:54:10.000Z</time></trkpt><trkpt lat="51.847156" lon="39.457625"><ele>128.3</ele><time>1970-01-01T04:54:21.000Z</time></trkpt><trkpt lat="51.84685" lon="39.457866"><ele>125.1</ele><time>1970-01-01T04:54:32.000Z</time></trkpt><trkpt lat="51.846656" lon="39.458227"><ele>125.2</ele><time>1970-01-01T04:54:39.000Z</time></trkpt><trkpt lat="51.846261" lon="39.458697"><ele>127</ele><time>1970-01-01T04:54:50.000Z</time></trkpt><trkpt lat="51.846044" lon="39.459271"><ele>129.4</ele><time>1970-01-01T04:55:00.000Z</time></trkpt><trkpt lat="51.845926" lon="39.459641"><ele>130.3</ele><time>1970-01-01T04:55:05.000Z</time></trkpt><trkpt lat="51.845762" lon="39.459903"><ele>130.3</ele><time>1970-01-01T04:55:10.000Z</time></trkpt><trkpt lat="51.845103" lon="39.460672"><ele>133.3</ele><time>1970-01-01T04:55:26.000Z</time></trkpt><trkpt lat="51.845054" lon="39.460705"><ele>133.1</ele><time>1970-01-01T04:55:27.000Z</time></trkpt><trkpt lat="51.844467" lon="39.46114"><ele>136.1</ele><time>1970-01-01T04:55:40.000Z</time></trkpt><trkpt lat="51.844382" lon="39.461186"><ele>136.3</ele><time>1970-01-01T04:55:42.000Z</time></trkpt><trkpt lat="51.844142" lon="39.461267"><ele>137.3</ele><time>1970-01-01T04:55:47.000Z</time></trkpt><trkpt lat="51.843563" lon="39.461774"><ele>136.4</ele><time>1970-01-01T04:56:00.000Z</time></trkpt><trkpt lat="51.843267" lon="39.462032"><ele>135.1</ele><time>1970-01-01T04:56:07.000Z</time></trkpt><trkpt lat="51.8427" lon="39.462633"><ele>137.4</ele><time>1970-01-01T04:56:21.000Z</time></trkpt><trkpt lat="51.842583" lon="39.462732"><ele>138.6</ele><time>1970-01-01T04:56:24.000Z</time></trkpt><trkpt lat="51.842009" lon="39.463129"><ele>140.3</ele><time>1970-01-01T04:56:37.000Z</time></trkpt><trkpt lat="51.841429" lon="39.463497"><ele>140.4</ele><time>1970-01-01T04:56:49.000Z</time></trkpt><trkpt lat="51.841044" lon="39.463583"><ele>140.1</ele><time>1970-01-01T04:56:58.000Z</time></trkpt><trkpt lat="51.840714" lon="39.46375"><ele>139.5</ele><time>1970-01-01T04:57:06.000Z</time></trkpt><trkpt lat="51.840461" lon="39.463794"><ele>137.9</ele><time>1970-01-01T04:57:12.000Z</time></trkpt><trkpt lat="51.840407" lon="39.463853"><ele>137.5</ele><time>1970-01-01T04:57:16.000Z</time></trkpt><trkpt lat="51.84011" lon="39.46396"><ele>135.7</ele><time>1970-01-01T04:57:27.000Z</time></trkpt><trkpt lat="51.839751" lon="39.464149"><ele>135.4</ele><time>1970-01-01T04:57:37.000Z</time></trkpt><trkpt lat="51.839407" lon="39.46436"><ele>135.2</ele><time>1970-01-01T04:57:46.000Z</time></trkpt><trkpt lat="51.839145" lon="39.464702"><ele>135.5</ele><time>1970-01-01T04:57:54.000Z</time></trkpt><trkpt lat="51.838978" lon="39.465041"><ele>137.9</ele><time>1970-01-01T04:58:01.000Z</time></trkpt><trkpt lat="51.838896" lon="39.465116"><ele>138.9</ele><time>1970-01-01T04:58:05.000Z</time></trkpt><trkpt lat="51.838852" lon="39.465127"><ele>139.3</ele><time>1970-01-01T04:58:07.000Z</time></trkpt><trkpt lat="51.838448" lon="39.465723"><ele>143.4</ele><time>1970-01-01T04:58:20.000Z</time></trkpt><trkpt lat="51.838015" lon="39.466384"><ele>141.9</ele><time>1970-01-01T04:58:31.000Z</time></trkpt><trkpt lat="51.837777" lon="39.466646"><ele>141.5</ele><time>1970-01-01T04:58:41.000Z</time></trkpt><trkpt lat="51.837125" lon="39.466917"><ele>139.4</ele><time>1970-01-01T04:58:55.000Z</time></trkpt><trkpt lat="51.836739" lon="39.467392"><ele>140.4</ele><time>1970-01-01T04:59:06.000Z</time></trkpt><trkpt lat="51.836709" lon="39.467442"><ele>140.5</ele><time>1970-01-01T04:59:07.000Z</time></trkpt><trkpt lat="51.83664" lon="39.467536"><ele>140.9</ele><time>1970-01-01T04:59:09.000Z</time></trkpt><trkpt lat="51.836364" lon="39.467829"><ele>141.6</ele><time>1970-01-01T04:59:16.000Z</time></trkpt><trkpt lat="51.83622" lon="39.468059"><ele>140.3</ele><time>1970-01-01T04:59:20.000Z</time></trkpt><trkpt lat="51.83583" lon="39.468504"><ele>139.4</ele><time>1970-01-01T04:59:32.000Z</time></trkpt><trkpt lat="51.83553" lon="39.469077"><ele>140.4</ele><time>1970-01-01T04:59:44.000Z</time></trkpt><trkpt lat="51.835295" lon="39.46969"><ele>140.4</ele><time>1970-01-01T04:59:53.000Z</time></trkpt><trkpt lat="51.835235" lon="39.469878"><ele>140</ele><time>1970-01-01T04:59:56.000Z</time></trkpt><trkpt lat="51.834986" lon="39.470472"><ele>141.4</ele><time>1970-01-01T05:00:06.000Z</time></trkpt><trkpt lat="51.834959" lon="39.470523"><ele>141.7</ele><time>1970-01-01T05:00:07.000Z</time></trkpt><trkpt lat="51.834616" lon="39.470866"><ele>143.8</ele><time>1970-01-01T05:00:16.000Z</time></trkpt><trkpt lat="51.834369" lon="39.471025"><ele>144.5</ele><time>1970-01-01T05:00:26.000Z</time></trkpt><trkpt lat="51.83437" lon="39.471027"><ele>144.5</ele><time>1970-01-01T05:00:27.000Z</time></trkpt><trkpt lat="51.834267" lon="39.471165"><ele>144.5</ele><time>1970-01-01T05:03:08.000Z</time></trkpt><trkpt lat="51.833846" lon="39.471582"><ele>143.7</ele><time>1970-01-01T05:03:22.000Z</time></trkpt><trkpt lat="51.833516" lon="39.471946"><ele>140.5</ele><time>1970-01-01T05:03:36.000Z</time></trkpt><trkpt lat="51.833441" lon="39.47209"><ele>139.1</ele><time>1970-01-01T05:03:42.000Z</time></trkpt><trkpt lat="51.83335" lon="39.472263"><ele>138.6</ele><time>1970-01-01T05:03:53.000Z</time></trkpt><trkpt lat="51.833295" lon="39.472339"><ele>138.3</ele><time>1970-01-01T05:03:58.000Z</time></trkpt><trkpt lat="51.833065" lon="39.472673"><ele>138.9</ele><time>1970-01-01T05:04:10.000Z</time></trkpt><trkpt lat="51.832883" lon="39.473115"><ele>139.9</ele><time>1970-01-01T05:04:20.000Z</time></trkpt><trkpt lat="51.832613" lon="39.473227"><ele>140.5</ele><time>1970-01-01T05:04:29.000Z</time></trkpt><trkpt lat="51.832188" lon="39.473011"><ele>142.8</ele><time>1970-01-01T05:04:40.000Z</time></trkpt><trkpt lat="51.832139" lon="39.47299"><ele>143</ele><time>1970-01-01T05:04:41.000Z</time></trkpt><trkpt lat="51.831623" lon="39.472784"><ele>144.9</ele><time>1970-01-01T05:04:53.000Z</time></trkpt><trkpt lat="51.831129" lon="39.472576"><ele>144.7</ele><time>1970-01-01T05:05:04.000Z</time></trkpt><trkpt lat="51.831086" lon="39.472559"><ele>144.7</ele><time>1970-01-01T05:05:05.000Z</time></trkpt><trkpt lat="51.831046" lon="39.472542"><ele>144.6</ele><time>1970-01-01T05:05:06.000Z</time></trkpt><trkpt lat="51.831012" lon="39.472525"><ele>144.5</ele><time>1970-01-01T05:05:07.000Z</time></trkpt><trkpt lat="51.830982" lon="39.472505"><ele>144.5</ele><time>1970-01-01T05:05:08.000Z</time></trkpt><trkpt lat="51.83086" lon="39.472452"><ele>143.6</ele><time>1970-01-01T05:05:13.000Z</time></trkpt><trkpt lat="51.830811" lon="39.472341"><ele>143.7</ele><time>1970-01-01T05:05:19.000Z</time></trkpt><trkpt lat="51.830756" lon="39.472298"><ele>143.7</ele><time>1970-01-01T05:05:23.000Z</time></trkpt><trkpt lat="51.830698" lon="39.472333"><ele>143.4</ele><time>1970-01-01T05:05:28.000Z</time></trkpt><trkpt lat="51.83068" lon="39.472344"><ele>143.3</ele><time>1970-01-01T05:05:29.000Z</time></trkpt><trkpt lat="51.830663" lon="39.472347"><ele>143.2</ele><time>1970-01-01T05:05:30.000Z</time></trkpt><trkpt lat="51.830643" lon="39.472343"><ele>143</ele><time>1970-01-01T05:05:31.000Z</time></trkpt><trkpt lat="51.830618" lon="39.47233"><ele>142.8</ele><time>1970-01-01T05:05:32.000Z</time></trkpt><trkpt lat="51.830242" lon="39.472167"><ele>140.9</ele><time>1970-01-01T05:05:42.000Z</time></trkpt><trkpt lat="51.830114" lon="39.47209"><ele>141</ele><time>1970-01-01T05:05:45.000Z</time></trkpt><trkpt lat="51.829652" lon="39.471814"><ele>141.8</ele><time>1970-01-01T05:05:56.000Z</time></trkpt><trkpt lat="51.829131" lon="39.471583"><ele>138</ele><time>1970-01-01T05:06:08.000Z</time></trkpt><trkpt lat="51.829032" lon="39.471541"><ele>137.8</ele><time>1970-01-01T05:06:10.000Z</time></trkpt><trkpt lat="51.828982" lon="39.47152"><ele>137.5</ele><time>1970-01-01T05:06:11.000Z</time></trkpt><trkpt lat="51.828932" lon="39.471501"><ele>137.5</ele><time>1970-01-01T05:06:12.000Z</time></trkpt><trkpt lat="51.82888" lon="39.471482"><ele>137.5</ele><time>1970-01-01T05:06:13.000Z</time></trkpt><trkpt lat="51.828825" lon="39.471455"><ele>137.7</ele><time>1970-01-01T05:06:14.000Z</time></trkpt><trkpt lat="51.828716" lon="39.471397"><ele>137.9</ele><time>1970-01-01T05:06:16.000Z</time></trkpt><trkpt lat="51.828394" lon="39.471278"><ele>136.9</ele><time>1970-01-01T05:06:22.000Z</time></trkpt><trkpt lat="51.828296" lon="39.471214"><ele>136.7</ele><time>1970-01-01T05:06:24.000Z</time></trkpt><trkpt lat="51.828171" lon="39.47111"><ele>136.7</ele><time>1970-01-01T05:06:27.000Z</time></trkpt><trkpt lat="51.82812" lon="39.471086"><ele>136.8</ele><time>1970-01-01T05:06:28.000Z</time></trkpt><trkpt lat="51.827814" lon="39.47096"><ele>137.6</ele><time>1970-01-01T05:06:34.000Z</time></trkpt><trkpt lat="51.827187" lon="39.470616"><ele>140.2</ele><time>1970-01-01T05:06:48.000Z</time></trkpt><trkpt lat="51.826585" lon="39.47031"><ele>137.8</ele><time>1970-01-01T05:07:01.000Z</time></trkpt><trkpt lat="51.826487" lon="39.470271"><ele>138.1</ele><time>1970-01-01T05:07:03.000Z</time></trkpt><trkpt lat="51.826434" lon="39.470251"><ele>138.4</ele><time>1970-01-01T05:07:04.000Z</time></trkpt><trkpt lat="51.825896" lon="39.469981"><ele>139.1</ele><time>1970-01-01T05:07:16.000Z</time></trkpt><trkpt lat="51.825842" lon="39.469953"><ele>138.8</ele><time>1970-01-01T05:07:17.000Z</time></trkpt><trkpt lat="51.825367" lon="39.469689"><ele>138.8</ele><time>1970-01-01T05:07:27.000Z</time></trkpt><trkpt lat="51.824646" lon="39.469386"><ele>139.6</ele><time>1970-01-01T05:07:43.000Z</time></trkpt><trkpt lat="51.824522" lon="39.46932"><ele>139.2</ele><time>1970-01-01T05:07:46.000Z</time></trkpt><trkpt lat="51.823973" lon="39.469054"><ele>138.2</ele><time>1970-01-01T05:07:56.000Z</time></trkpt><trkpt lat="51.823335" lon="39.468734"><ele>137.1</ele><time>1970-01-01T05:08:09.000Z</time></trkpt><trkpt lat="51.822562" lon="39.468338"><ele>138.1</ele><time>1970-01-01T05:08:25.000Z</time></trkpt><trkpt lat="51.822095" lon="39.468104"><ele>137.7</ele><time>1970-01-01T05:08:34.000Z</time></trkpt><trkpt lat="51.821477" lon="39.467877"><ele>137.4</ele><time>1970-01-01T05:08:46.000Z</time></trkpt><trkpt lat="51.821149" lon="39.467594"><ele>137.3</ele><time>1970-01-01T05:08:56.000Z</time></trkpt><trkpt lat="51.820769" lon="39.467423"><ele>137.2</ele><time>1970-01-01T05:09:09.000Z</time></trkpt><trkpt lat="51.820566" lon="39.467358"><ele>137.1</ele><time>1970-01-01T05:09:14.000Z</time></trkpt><trkpt lat="51.820321" lon="39.467256"><ele>138.2</ele><time>1970-01-01T05:09:19.000Z</time></trkpt><trkpt lat="51.819857" lon="39.46704"><ele>140.6</ele><time>1970-01-01T05:09:32.000Z</time></trkpt><trkpt lat="51.819646" lon="39.466891"><ele>140.6</ele><time>1970-01-01T05:09:37.000Z</time></trkpt><trkpt lat="51.819603" lon="39.46687"><ele>140.4</ele><time>1970-01-01T05:09:38.000Z</time></trkpt><trkpt lat="51.818918" lon="39.466512"><ele>140.5</ele><time>1970-01-01T05:09:54.000Z</time></trkpt><trkpt lat="51.818542" lon="39.466335"><ele>141.4</ele><time>1970-01-01T05:10:03.000Z</time></trkpt><trkpt lat="51.817976" lon="39.466022"><ele>143.9</ele><time>1970-01-01T05:10:19.000Z</time></trkpt><trkpt lat="51.817375" lon="39.465742"><ele>140.9</ele><time>1970-01-01T05:10:33.000Z</time></trkpt><trkpt lat="51.817273" lon="39.465703"><ele>140.9</ele><time>1970-01-01T05:10:35.000Z</time></trkpt><trkpt lat="51.816583" lon="39.465305"><ele>143.1</ele><time>1970-01-01T05:10:51.000Z</time></trkpt><trkpt lat="51.815881" lon="39.464986"><ele>140.3</ele><time>1970-01-01T05:11:07.000Z</time></trkpt><trkpt lat="51.815495" lon="39.464764"><ele>139.8</ele><time>1970-01-01T05:11:18.000Z</time></trkpt><trkpt lat="51.814992" lon="39.464514"><ele>138</ele><time>1970-01-01T05:11:32.000Z</time></trkpt><trkpt lat="51.814545" lon="39.464294"><ele>137</ele><time>1970-01-01T05:11:43.000Z</time></trkpt><trkpt lat="51.814009" lon="39.464019"><ele>138</ele><time>1970-01-01T05:11:57.000Z</time></trkpt><trkpt lat="51.813499" lon="39.463739"><ele>138.8</ele><time>1970-01-01T05:12:10.000Z</time></trkpt><trkpt lat="51.812941" lon="39.463487"><ele>139.1</ele><time>1970-01-01T05:12:22.000Z</time></trkpt><trkpt lat="51.812492" lon="39.463282"><ele>139.3</ele><time>1970-01-01T05:12:33.000Z</time></trkpt><trkpt lat="51.812341" lon="39.463222"><ele>140.2</ele><time>1970-01-01T05:12:36.000Z</time></trkpt><trkpt lat="51.81195" lon="39.463205"><ele>143.7</ele><time>1970-01-01T05:12:45.000Z</time></trkpt><trkpt lat="51.811783" lon="39.463901"><ele>141.7</ele><time>1970-01-01T05:12:57.000Z</time></trkpt><trkpt lat="51.811574" lon="39.464718"><ele>140.5</ele><time>1970-01-01T05:13:10.000Z</time></trkpt><trkpt lat="51.811482" lon="39.465157"><ele>139.7</ele><time>1970-01-01T05:13:17.000Z</time></trkpt><trkpt lat="51.81135" lon="39.465649"><ele>137.8</ele><time>1970-01-01T05:13:26.000Z</time></trkpt><trkpt lat="51.811205" lon="39.466435"><ele>136.5</ele><time>1970-01-01T05:13:38.000Z</time></trkpt><trkpt lat="51.811193" lon="39.466512"><ele>136.6</ele><time>1970-01-01T05:13:39.000Z</time></trkpt><trkpt lat="51.811045" lon="39.467188"><ele>136.3</ele><time>1970-01-01T05:13:49.000Z</time></trkpt><trkpt lat="51.810917" lon="39.467994"><ele>138.6</ele><time>1970-01-01T05:14:01.000Z</time></trkpt><trkpt lat="51.810814" lon="39.468587"><ele>140.8</ele><time>1970-01-01T05:14:12.000Z</time></trkpt><trkpt lat="51.810674" lon="39.469224"><ele>141.6</ele><time>1970-01-01T05:14:24.000Z</time></trkpt><trkpt lat="51.810531" lon="39.469827"><ele>141.6</ele><time>1970-01-01T05:14:36.000Z</time></trkpt><trkpt lat="51.810444" lon="39.470201"><ele>142.1</ele><time>1970-01-01T05:14:43.000Z</time></trkpt><trkpt lat="51.810346" lon="39.470919"><ele>142.3</ele><time>1970-01-01T05:14:54.000Z</time></trkpt><trkpt lat="51.81022" lon="39.471456"><ele>143.5</ele><time>1970-01-01T05:15:03.000Z</time></trkpt><trkpt lat="51.810095" lon="39.472088"><ele>146.6</ele><time>1970-01-01T05:15:14.000Z</time></trkpt><trkpt lat="51.809945" lon="39.473012"><ele>147.3</ele><time>1970-01-01T05:15:27.000Z</time></trkpt><trkpt lat="51.809739" lon="39.473474"><ele>148.4</ele><time>1970-01-01T05:15:35.000Z</time></trkpt><trkpt lat="51.809629" lon="39.473606"><ele>147.3</ele><time>1970-01-01T05:15:38.000Z</time></trkpt><trkpt lat="51.80954" lon="39.474185"><ele>144.2</ele><time>1970-01-01T05:15:46.000Z</time></trkpt><trkpt lat="51.809569" lon="39.474749"><ele>142.2</ele><time>1970-01-01T05:15:55.000Z</time></trkpt><trkpt lat="51.809574" lon="39.474812"><ele>142.3</ele><time>1970-01-01T05:15:56.000Z</time></trkpt><trkpt lat="51.80948" lon="39.475405"><ele>144.5</ele><time>1970-01-01T05:16:04.000Z</time></trkpt><trkpt lat="51.809442" lon="39.475654"><ele>145.2</ele><time>1970-01-01T05:16:07.000Z</time></trkpt><trkpt lat="51.809408" lon="39.47586"><ele>145</ele><time>1970-01-01T05:16:10.000Z</time></trkpt><trkpt lat="51.809344" lon="39.476172"><ele>144.2</ele><time>1970-01-01T05:16:15.000Z</time></trkpt><trkpt lat="51.809163" lon="39.476994"><ele>135</ele><time>1970-01-01T05:16:25.000Z</time></trkpt><trkpt lat="51.809093" lon="39.477376"><ele>132.3</ele><time>1970-01-01T05:16:30.000Z</time></trkpt><trkpt lat="51.809058" lon="39.477557"><ele>131.8</ele><time>1970-01-01T05:16:34.000Z</time></trkpt><trkpt lat="51.808972" lon="39.477647"><ele>131.4</ele><time>1970-01-01T05:16:38.000Z</time></trkpt><trkpt lat="51.80894" lon="39.477655"><ele>131.4</ele><time>1970-01-01T05:16:39.000Z</time></trkpt><trkpt lat="51.808908" lon="39.477651"><ele>131.4</ele><time>1970-01-01T05:16:40.000Z</time></trkpt><trkpt lat="51.808872" lon="39.477638"><ele>131.5</ele><time>1970-01-01T05:16:41.000Z</time></trkpt><trkpt lat="51.808269" lon="39.477358"><ele>132</ele><time>1970-01-01T05:16:57.000Z</time></trkpt><trkpt lat="51.80784" lon="39.477181"><ele>131.2</ele><time>1970-01-01T05:17:07.000Z</time></trkpt><trkpt lat="51.807435" lon="39.476983"><ele>132.6</ele><time>1970-01-01T05:17:16.000Z</time></trkpt><trkpt lat="51.807389" lon="39.476953"><ele>132.7</ele><time>1970-01-01T05:17:17.000Z</time></trkpt><trkpt lat="51.807028" lon="39.476723"><ele>135.6</ele><time>1970-01-01T05:17:25.000Z</time></trkpt><trkpt lat="51.806272" lon="39.476339"><ele>138</ele><time>1970-01-01T05:17:41.000Z</time></trkpt><trkpt lat="51.80623" lon="39.476309"><ele>138.1</ele><time>1970-01-01T05:17:42.000Z</time></trkpt><trkpt lat="51.805842" lon="39.476154"><ele>136</ele><time>1970-01-01T05:17:53.000Z</time></trkpt><trkpt lat="51.805472" lon="39.475955"><ele>135.1</ele><time>1970-01-01T05:18:02.000Z</time></trkpt><trkpt lat="51.805435" lon="39.475934"><ele>134.9</ele><time>1970-01-01T05:18:03.000Z</time></trkpt><trkpt lat="51.805394" lon="39.475919"><ele>134.4</ele><time>1970-01-01T05:18:04.000Z</time></trkpt><trkpt lat="51.805115" lon="39.475815"><ele>132.9</ele><time>1970-01-01T05:18:10.000Z</time></trkpt><trkpt lat="51.80507" lon="39.47578"><ele>132.8</ele><time>1970-01-01T05:18:11.000Z</time></trkpt><trkpt lat="51.805028" lon="39.475731"><ele>132.9</ele><time>1970-01-01T05:18:12.000Z</time></trkpt><trkpt lat="51.80499" lon="39.475666"><ele>133</ele><time>1970-01-01T05:18:13.000Z</time></trkpt><trkpt lat="51.804958" lon="39.475592"><ele>133</ele><time>1970-01-01T05:18:14.000Z</time></trkpt><trkpt lat="51.804929" lon="39.475524"><ele>132.9</ele><time>1970-01-01T05:18:15.000Z</time></trkpt><trkpt lat="51.804897" lon="39.475466"><ele>132.7</ele><time>1970-01-01T05:18:16.000Z</time></trkpt><trkpt lat="51.804835" lon="39.475356"><ele>132.2</ele><time>1970-01-01T05:18:18.000Z</time></trkpt><trkpt lat="51.804801" lon="39.475311"><ele>132.2</ele><time>1970-01-01T05:18:19.000Z</time></trkpt><trkpt lat="51.804769" lon="39.475278"><ele>132.2</ele><time>1970-01-01T05:18:20.000Z</time></trkpt><trkpt lat="51.804743" lon="39.475261"><ele>132.2</ele><time>1970-01-01T05:18:21.000Z</time></trkpt><trkpt lat="51.804723" lon="39.475251"><ele>132.1</ele><time>1970-01-01T05:18:22.000Z</time></trkpt><trkpt lat="51.804703" lon="39.475242"><ele>132.1</ele><time>1970-01-01T05:18:23.000Z</time></trkpt><trkpt lat="51.804685" lon="39.475235"><ele>131.9</ele><time>1970-01-01T05:18:24.000Z</time></trkpt><trkpt lat="51.804665" lon="39.475228"><ele>131.6</ele><time>1970-01-01T05:18:25.000Z</time></trkpt><trkpt lat="51.804509" lon="39.475256"><ele>130.5</ele><time>1970-01-01T05:18:35.000Z</time></trkpt><trkpt lat="51.8045" lon="39.475279"><ele>130.5</ele><time>1970-01-01T05:18:36.000Z</time></trkpt><trkpt lat="51.804494" lon="39.4753"><ele>130.5</ele><time>1970-01-01T05:18:37.000Z</time></trkpt><trkpt lat="51.80445" lon="39.475466"><ele>130.2</ele><time>1970-01-01T05:18:49.000Z</time></trkpt><trkpt lat="51.804364" lon="39.475508"><ele>130.5</ele><time>1970-01-01T05:20:46.000Z</time></trkpt><trkpt lat="51.80427" lon="39.475384"><ele>130.6</ele><time>1970-01-01T05:20:52.000Z</time></trkpt><trkpt lat="51.80425" lon="39.475369"><ele>130.6</ele><time>1970-01-01T05:20:53.000Z</time></trkpt><trkpt lat="51.804229" lon="39.475353"><ele>130.6</ele><time>1970-01-01T05:20:54.000Z</time></trkpt><trkpt lat="51.80421" lon="39.475339"><ele>130.6</ele><time>1970-01-01T05:20:55.000Z</time></trkpt><trkpt lat="51.804189" lon="39.475326"><ele>130.6</ele><time>1970-01-01T05:20:56.000Z</time></trkpt><trkpt lat="51.803759" lon="39.475135"><ele>131.3</ele><time>1970-01-01T05:21:10.000Z</time></trkpt><trkpt lat="51.803202" lon="39.474856"><ele>130.7</ele><time>1970-01-01T05:21:25.000Z</time></trkpt><trkpt lat="51.802741" lon="39.474652"><ele>128</ele><time>1970-01-01T05:21:36.000Z</time></trkpt><trkpt lat="51.802401" lon="39.474433"><ele>125.7</ele><time>1970-01-01T05:21:46.000Z</time></trkpt><trkpt lat="51.802062" lon="39.474256"><ele>122.6</ele><time>1970-01-01T05:21:55.000Z</time></trkpt><trkpt lat="51.801549" lon="39.473981"><ele>122.9</ele><time>1970-01-01T05:22:08.000Z</time></trkpt><trkpt lat="51.80113" lon="39.473778"><ele>125.5</ele><time>1970-01-01T05:22:18.000Z</time></trkpt><trkpt lat="51.800905" lon="39.473635"><ele>126.6</ele><time>1970-01-01T05:22:25.000Z</time></trkpt><trkpt lat="51.800882" lon="39.473613"><ele>126.6</ele><time>1970-01-01T05:22:26.000Z</time></trkpt><trkpt lat="51.80086" lon="39.473591"><ele>126.7</ele><time>1970-01-01T05:22:27.000Z</time></trkpt><trkpt lat="51.800552" lon="39.473472"><ele>130</ele><time>1970-01-01T05:22:38.000Z</time></trkpt><trkpt lat="51.800166" lon="39.473293"><ele>134.1</ele><time>1970-01-01T05:22:48.000Z</time></trkpt><trkpt lat="51.799932" lon="39.473166"><ele>134.8</ele><time>1970-01-01T05:22:54.000Z</time></trkpt><trkpt lat="51.799922" lon="39.473123"><ele>134.9</ele><time>1970-01-01T05:22:55.000Z</time></trkpt><trkpt lat="51.799924" lon="39.473073"><ele>135</ele><time>1970-01-01T05:22:56.000Z</time></trkpt><trkpt lat="51.799933" lon="39.473022"><ele>135.1</ele><time>1970-01-01T05:22:57.000Z</time></trkpt><trkpt lat="51.799943" lon="39.472964"><ele>135.5</ele><time>1970-01-01T05:22:58.000Z</time></trkpt><trkpt lat="51.799951" lon="39.472901"><ele>135.7</ele><time>1970-01-01T05:22:59.000Z</time></trkpt><trkpt lat="51.799972" lon="39.472766"><ele>136.6</ele><time>1970-01-01T05:23:01.000Z</time></trkpt><trkpt lat="51.799984" lon="39.472696"><ele>136.6</ele><time>1970-01-01T05:23:02.000Z</time></trkpt><trkpt lat="51.799999" lon="39.472634"><ele>136.7</ele><time>1970-01-01T05:23:03.000Z</time></trkpt><trkpt lat="51.800012" lon="39.472577"><ele>136.8</ele><time>1970-01-01T05:23:04.000Z</time></trkpt><trkpt lat="51.800026" lon="39.47252"><ele>137</ele><time>1970-01-01T05:23:05.000Z</time></trkpt><trkpt lat="51.800038" lon="39.472462"><ele>137.1</ele><time>1970-01-01T05:23:06.000Z</time></trkpt><trkpt lat="51.800048" lon="39.472397"><ele>137.3</ele><time>1970-01-01T05:23:07.000Z</time></trkpt><trkpt lat="51.800056" lon="39.472326"><ele>137.3</ele><time>1970-01-01T05:23:08.000Z</time></trkpt><trkpt lat="51.800143" lon="39.471942"><ele>135.3</ele><time>1970-01-01T05:23:14.000Z</time></trkpt><trkpt lat="51.800183" lon="39.471733"><ele>135.1</ele><time>1970-01-01T05:23:17.000Z</time></trkpt><trkpt lat="51.800199" lon="39.471667"><ele>134.8</ele><time>1970-01-01T05:23:18.000Z</time></trkpt><trkpt lat="51.800215" lon="39.471603"><ele>134.6</ele><time>1970-01-01T05:23:19.000Z</time></trkpt><trkpt lat="51.800284" lon="39.471286"><ele>133.2</ele><time>1970-01-01T05:23:24.000Z</time></trkpt><trkpt lat="51.800339" lon="39.470939"><ele>131.9</ele><time>1970-01-01T05:23:29.000Z</time></trkpt><trkpt lat="51.80038" lon="39.470721"><ele>131.3</ele><time>1970-01-01T05:23:32.000Z</time></trkpt><trkpt lat="51.800483" lon="39.47011"><ele>130.7</ele><time>1970-01-01T05:23:40.000Z</time></trkpt><trkpt lat="51.800507" lon="39.469871"><ele>131.2</ele><time>1970-01-01T05:23:43.000Z</time></trkpt><trkpt lat="51.800555" lon="39.469599"><ele>132.2</ele><time>1970-01-01T05:23:47.000Z</time></trkpt><trkpt lat="51.800605" lon="39.469389"><ele>132.6</ele><time>1970-01-01T05:23:50.000Z</time></trkpt><trkpt lat="51.80075" lon="39.468666"><ele>130</ele><time>1970-01-01T05:24:00.000Z</time></trkpt><trkpt lat="51.80084" lon="39.468266"><ele>130.8</ele><time>1970-01-01T05:24:05.000Z</time></trkpt><trkpt lat="51.800948" lon="39.467688"><ele>132.6</ele><time>1970-01-01T05:24:12.000Z</time></trkpt><trkpt lat="51.80105" lon="39.467096"><ele>131.5</ele><time>1970-01-01T05:24:20.000Z</time></trkpt><trkpt lat="51.801099" lon="39.466782"><ele>130.6</ele><time>1970-01-01T05:24:24.000Z</time></trkpt><trkpt lat="51.801159" lon="39.466506"><ele>130.7</ele><time>1970-01-01T05:24:28.000Z</time></trkpt><trkpt lat="51.801324" lon="39.465869"><ele>131</ele><time>1970-01-01T05:24:37.000Z</time></trkpt><trkpt lat="51.801343" lon="39.465651"><ele>131.8</ele><time>1970-01-01T05:24:40.000Z</time></trkpt><trkpt lat="51.80138" lon="39.465429"><ele>131.2</ele><time>1970-01-01T05:24:43.000Z</time></trkpt><trkpt lat="51.801452" lon="39.46513"><ele>131.1</ele><time>1970-01-01T05:24:47.000Z</time></trkpt><trkpt lat="51.801579" lon="39.464402"><ele>131.6</ele><time>1970-01-01T05:25:01.000Z</time></trkpt><trkpt lat="51.801579" lon="39.464237"><ele>131.7</ele><time>1970-01-01T05:25:08.000Z</time></trkpt><trkpt lat="51.801603" lon="39.463742"><ele>132.8</ele><time>1970-01-01T05:25:50.000Z</time></trkpt><trkpt lat="51.801715" lon="39.463226"><ele>132.9</ele><time>1970-01-01T05:26:02.000Z</time></trkpt><trkpt lat="51.801828" lon="39.462841"><ele>130.9</ele><time>1970-01-01T05:26:08.000Z</time></trkpt><trkpt lat="51.801982" lon="39.462108"><ele>127.6</ele><time>1970-01-01T05:26:20.000Z</time></trkpt><trkpt lat="51.802119" lon="39.46146"><ele>129.9</ele><time>1970-01-01T05:26:31.000Z</time></trkpt><trkpt lat="51.802233" lon="39.460883"><ele>129.9</ele><time>1970-01-01T05:26:40.000Z</time></trkpt><trkpt lat="51.802414" lon="39.460121"><ele>128.8</ele><time>1970-01-01T05:26:52.000Z</time></trkpt><trkpt lat="51.802472" lon="39.45974"><ele>130.1</ele><time>1970-01-01T05:26:58.000Z</time></trkpt><trkpt lat="51.802556" lon="39.459311"><ele>131.5</ele><time>1970-01-01T05:27:05.000Z</time></trkpt><trkpt lat="51.802609" lon="39.459193"><ele>132.8</ele><time>1970-01-01T05:27:12.000Z</time></trkpt><trkpt lat="51.803261" lon="39.458598"><ele>130.7</ele><time>1970-01-01T05:28:46.000Z</time></trkpt><trkpt lat="51.80338" lon="39.458528"><ele>129.6</ele><time>1970-01-01T05:28:50.000Z</time></trkpt><trkpt lat="51.80364" lon="39.458336"><ele>126.2</ele><time>1970-01-01T05:29:02.000Z</time></trkpt><trkpt lat="51.803671" lon="39.458315"><ele>125.8</ele><time>1970-01-01T05:29:04.000Z</time></trkpt><trkpt lat="51.803945" lon="39.45813"><ele>122.7</ele><time>1970-01-01T05:29:16.000Z</time></trkpt><trkpt lat="51.804184" lon="39.458143"><ele>120.1</ele><time>1970-01-01T05:29:28.000Z</time></trkpt><trkpt lat="51.8042" lon="39.458157"><ele>120.2</ele><time>1970-01-01T05:29:33.000Z</time></trkpt><trkpt lat="51.804148" lon="39.458153"><ele>120.5</ele><time>1970-01-01T05:29:58.000Z</time></trkpt><trkpt lat="51.804126" lon="39.458125"><ele>120.6</ele><time>1970-01-01T05:30:00.000Z</time></trkpt><trkpt lat="51.804024" lon="39.458022"><ele>123.2</ele><time>1970-01-01T05:30:08.000Z</time></trkpt><trkpt lat="51.804011" lon="39.457873"><ele>124.1</ele><time>1970-01-01T05:30:13.000Z</time></trkpt><trkpt lat="51.803945" lon="39.457561"><ele>126.5</ele><time>1970-01-01T05:30:22.000Z</time></trkpt><trkpt lat="51.803793" lon="39.457132"><ele>128.6</ele><time>1970-01-01T05:30:35.000Z</time></trkpt><trkpt lat="51.803604" lon="39.456733"><ele>129.1</ele><time>1970-01-01T05:30:44.000Z</time></trkpt><trkpt lat="51.803415" lon="39.456381"><ele>129</ele><time>1970-01-01T05:30:53.000Z</time></trkpt><trkpt lat="51.803132" lon="39.455895"><ele>128</ele><time>1970-01-01T05:31:04.000Z</time></trkpt><trkpt lat="51.802654" lon="39.455704"><ele>125.5</ele><time>1970-01-01T05:31:15.000Z</time></trkpt><trkpt lat="51.802604" lon="39.45569"><ele>125.3</ele><time>1970-01-01T05:31:16.000Z</time></trkpt><trkpt lat="51.802558" lon="39.455679"><ele>125.1</ele><time>1970-01-01T05:31:17.000Z</time></trkpt><trkpt lat="51.802511" lon="39.45566"><ele>124.9</ele><time>1970-01-01T05:31:18.000Z</time></trkpt><trkpt lat="51.801866" lon="39.455495"><ele>125.2</ele><time>1970-01-01T05:31:33.000Z</time></trkpt><trkpt lat="51.801499" lon="39.455416"><ele>126.6</ele><time>1970-01-01T05:31:44.000Z</time></trkpt><trkpt lat="51.801229" lon="39.455143"><ele>129.1</ele><time>1970-01-01T05:31:54.000Z</time></trkpt><trkpt lat="51.801194" lon="39.45511"><ele>129.2</ele><time>1970-01-01T05:31:55.000Z</time></trkpt><trkpt lat="51.801155" lon="39.455095"><ele>129.4</ele><time>1970-01-01T05:31:56.000Z</time></trkpt><trkpt lat="51.800709" lon="39.45495"><ele>129.6</ele><time>1970-01-01T05:32:08.000Z</time></trkpt><trkpt lat="51.800227" lon="39.454732"><ele>130</ele><time>1970-01-01T05:32:21.000Z</time></trkpt><trkpt lat="51.800131" lon="39.45468"><ele>129.5</ele><time>1970-01-01T05:32:23.000Z</time></trkpt><trkpt lat="51.800082" lon="39.454661"><ele>129.1</ele><time>1970-01-01T05:32:24.000Z</time></trkpt><trkpt lat="51.800033" lon="39.454652"><ele>128.9</ele><time>1970-01-01T05:32:25.000Z</time></trkpt><trkpt lat="51.799989" lon="39.454642"><ele>129</ele><time>1970-01-01T05:32:26.000Z</time></trkpt><trkpt lat="51.799946" lon="39.454626"><ele>129</ele><time>1970-01-01T05:32:27.000Z</time></trkpt><trkpt lat="51.799886" lon="39.454558"><ele>129</ele><time>1970-01-01T05:32:29.000Z</time></trkpt><trkpt lat="51.799879" lon="39.454512"><ele>129</ele><time>1970-01-01T05:32:30.000Z</time></trkpt><trkpt lat="51.799881" lon="39.454464"><ele>128.9</ele><time>1970-01-01T05:32:31.000Z</time></trkpt><trkpt lat="51.799898" lon="39.454363"><ele>129.2</ele><time>1970-01-01T05:32:33.000Z</time></trkpt><trkpt lat="51.799912" lon="39.454316"><ele>129.4</ele><time>1970-01-01T05:32:34.000Z</time></trkpt><trkpt lat="51.799925" lon="39.454261"><ele>129.7</ele><time>1970-01-01T05:32:35.000Z</time></trkpt><trkpt lat="51.799945" lon="39.454135"><ele>130</ele><time>1970-01-01T05:32:37.000Z</time></trkpt><trkpt lat="51.799956" lon="39.454072"><ele>130</ele><time>1970-01-01T05:32:38.000Z</time></trkpt><trkpt lat="51.800001" lon="39.453661"><ele>132.4</ele><time>1970-01-01T05:32:44.000Z</time></trkpt><trkpt lat="51.800002" lon="39.45359"><ele>132.8</ele><time>1970-01-01T05:32:45.000Z</time></trkpt><trkpt lat="51.800004" lon="39.453518"><ele>133.2</ele><time>1970-01-01T05:32:46.000Z</time></trkpt><trkpt lat="51.800005" lon="39.453441"><ele>133.6</ele><time>1970-01-01T05:32:47.000Z</time></trkpt><trkpt lat="51.800006" lon="39.453368"><ele>134</ele><time>1970-01-01T05:32:48.000Z</time></trkpt><trkpt lat="51.800006" lon="39.453064"><ele>134.1</ele><time>1970-01-01T05:32:52.000Z</time></trkpt><trkpt lat="51.800025" lon="39.452677"><ele>134.2</ele><time>1970-01-01T05:32:57.000Z</time></trkpt><trkpt lat="51.800051" lon="39.452297"><ele>133.1</ele><time>1970-01-01T05:33:02.000Z</time></trkpt><trkpt lat="51.800047" lon="39.452219"><ele>133.1</ele><time>1970-01-01T05:33:03.000Z</time></trkpt><trkpt lat="51.800049" lon="39.452145"><ele>133.1</ele><time>1970-01-01T05:33:04.000Z</time></trkpt><trkpt lat="51.800049" lon="39.452079"><ele>133.2</ele><time>1970-01-01T05:33:05.000Z</time></trkpt><trkpt lat="51.800048" lon="39.452008"><ele>133.2</ele><time>1970-01-01T05:33:06.000Z</time></trkpt><trkpt lat="51.80005" lon="39.451937"><ele>133.2</ele><time>1970-01-01T05:33:07.000Z</time></trkpt><trkpt lat="51.800052" lon="39.451865"><ele>133.2</ele><time>1970-01-01T05:33:08.000Z</time></trkpt><trkpt lat="51.800051" lon="39.45179"><ele>133.2</ele><time>1970-01-01T05:33:09.000Z</time></trkpt><trkpt lat="51.800053" lon="39.451715"><ele>133.3</ele><time>1970-01-01T05:33:10.000Z</time></trkpt><trkpt lat="51.800034" lon="39.450938"><ele>132.4</ele><time>1970-01-01T05:33:21.000Z</time></trkpt><trkpt lat="51.80003" lon="39.450855"><ele>132.3</ele><time>1970-01-01T05:33:22.000Z</time></trkpt><trkpt lat="51.800033" lon="39.450768"><ele>132.3</ele><time>1970-01-01T05:33:23.000Z</time></trkpt><trkpt lat="51.800044" lon="39.450678"><ele>132.4</ele><time>1970-01-01T05:33:24.000Z</time></trkpt><trkpt lat="51.800047" lon="39.450371"><ele>132</ele><time>1970-01-01T05:33:28.000Z</time></trkpt><trkpt lat="51.800051" lon="39.4503"><ele>131.8</ele><time>1970-01-01T05:33:29.000Z</time></trkpt><trkpt lat="51.800049" lon="39.450228"><ele>131.8</ele><time>1970-01-01T05:33:30.000Z</time></trkpt><trkpt lat="51.800047" lon="39.450063"><ele>131.8</ele><time>1970-01-01T05:33:32.000Z</time></trkpt><trkpt lat="51.800051" lon="39.449984"><ele>131.8</ele><time>1970-01-01T05:33:33.000Z</time></trkpt><trkpt lat="51.800064" lon="39.449907"><ele>131.8</ele><time>1970-01-01T05:33:34.000Z</time></trkpt><trkpt lat="51.800071" lon="39.449836"><ele>131.7</ele><time>1970-01-01T05:33:35.000Z</time></trkpt><trkpt lat="51.800068" lon="39.449753"><ele>131.6</ele><time>1970-01-01T05:33:36.000Z</time></trkpt><trkpt lat="51.800069" lon="39.449674"><ele>131.5</ele><time>1970-01-01T05:33:37.000Z</time></trkpt><trkpt lat="51.800079" lon="39.449601"><ele>131.4</ele><time>1970-01-01T05:33:38.000Z</time></trkpt><trkpt lat="51.800084" lon="39.449532"><ele>131.4</ele><time>1970-01-01T05:33:39.000Z</time></trkpt><trkpt lat="51.800093" lon="39.449308"><ele>130.9</ele><time>1970-01-01T05:33:42.000Z</time></trkpt><trkpt lat="51.800095" lon="39.449228"><ele>130.6</ele><time>1970-01-01T05:33:43.000Z</time></trkpt><trkpt lat="51.800118" lon="39.448808"><ele>130.5</ele><time>1970-01-01T05:33:49.000Z</time></trkpt><trkpt lat="51.800123" lon="39.448183"><ele>130.6</ele><time>1970-01-01T05:33:58.000Z</time></trkpt><trkpt lat="51.800155" lon="39.447461"><ele>130.6</ele><time>1970-01-01T05:34:08.000Z</time></trkpt><trkpt lat="51.800158" lon="39.447386"><ele>130.2</ele><time>1970-01-01T05:34:09.000Z</time></trkpt><trkpt lat="51.80017" lon="39.447319"><ele>130.2</ele><time>1970-01-01T05:34:10.000Z</time></trkpt><trkpt lat="51.800172" lon="39.447246"><ele>130.8</ele><time>1970-01-01T05:34:11.000Z</time></trkpt><trkpt lat="51.800173" lon="39.447168"><ele>131.3</ele><time>1970-01-01T05:34:12.000Z</time></trkpt><trkpt lat="51.800178" lon="39.446913"><ele>131.1</ele><time>1970-01-01T05:34:15.000Z</time></trkpt><trkpt lat="51.800176" lon="39.446604"><ele>131.3</ele><time>1970-01-01T05:34:19.000Z</time></trkpt><trkpt lat="51.80016" lon="39.44593"><ele>130.7</ele><time>1970-01-01T05:34:28.000Z</time></trkpt><trkpt lat="51.799952" lon="39.445665"><ele>130.6</ele><time>1970-01-01T05:34:34.000Z</time></trkpt><trkpt lat="51.799416" lon="39.445512"><ele>130.7</ele><time>1970-01-01T05:34:45.000Z</time></trkpt><trkpt lat="51.79904" lon="39.445541"><ele>131.5</ele><time>1970-01-01T05:34:55.000Z</time></trkpt><trkpt lat="51.798962" lon="39.445509"><ele>131.6</ele><time>1970-01-01T05:34:57.000Z</time></trkpt><trkpt lat="51.798469" lon="39.445304"><ele>132</ele><time>1970-01-01T05:35:07.000Z</time></trkpt><trkpt lat="51.798054" lon="39.445532"><ele>133.1</ele><time>1970-01-01T05:35:18.000Z</time></trkpt><trkpt lat="51.798048" lon="39.445599"><ele>133.3</ele><time>1970-01-01T05:35:19.000Z</time></trkpt><trkpt lat="51.798011" lon="39.445797"><ele>133.6</ele><time>1970-01-01T05:35:22.000Z</time></trkpt><trkpt lat="51.797882" lon="39.44592"><ele>133.8</ele><time>1970-01-01T05:35:26.000Z</time></trkpt><trkpt lat="51.797508" lon="39.445831"><ele>134</ele><time>1970-01-01T05:35:37.000Z</time></trkpt><trkpt lat="51.797258" lon="39.445639"><ele>134.1</ele><time>1970-01-01T05:35:45.000Z</time></trkpt><trkpt lat="51.79687" lon="39.445437"><ele>134.5</ele><time>1970-01-01T05:35:55.000Z</time></trkpt><trkpt lat="51.796838" lon="39.445394"><ele>134.5</ele><time>1970-01-01T05:35:56.000Z</time></trkpt><trkpt lat="51.796744" lon="39.445186"><ele>134.8</ele><time>1970-01-01T05:36:00.000Z</time></trkpt><trkpt lat="51.796539" lon="39.44479"><ele>135.2</ele><time>1970-01-01T05:36:08.000Z</time></trkpt><trkpt lat="51.796373" lon="39.444501"><ele>135.6</ele><time>1970-01-01T05:36:14.000Z</time></trkpt><trkpt lat="51.796288" lon="39.443899"><ele>135.5</ele><time>1970-01-01T05:36:24.000Z</time></trkpt><trkpt lat="51.796243" lon="39.443769"><ele>135.5</ele><time>1970-01-01T05:36:26.000Z</time></trkpt><trkpt lat="51.796226" lon="39.443139"><ele>135.2</ele><time>1970-01-01T05:36:35.000Z</time></trkpt><trkpt lat="51.796227" lon="39.442953"><ele>135.1</ele><time>1970-01-01T05:36:38.000Z</time></trkpt><trkpt lat="51.796129" lon="39.442722"><ele>134.9</ele><time>1970-01-01T05:36:42.000Z</time></trkpt><trkpt lat="51.795907" lon="39.442293"><ele>134.1</ele><time>1970-01-01T05:36:49.000Z</time></trkpt><trkpt lat="51.795835" lon="39.442019"><ele>133.9</ele><time>1970-01-01T05:36:53.000Z</time></trkpt><trkpt lat="51.795682" lon="39.441241"><ele>134.1</ele><time>1970-01-01T05:37:04.000Z</time></trkpt><trkpt lat="51.795641" lon="39.440748"><ele>134.6</ele><time>1970-01-01T05:37:11.000Z</time></trkpt><trkpt lat="51.795641" lon="39.440679"><ele>134.9</ele><time>1970-01-01T05:37:12.000Z</time></trkpt><trkpt lat="51.795636" lon="39.440604"><ele>135</ele><time>1970-01-01T05:37:13.000Z</time></trkpt><trkpt lat="51.79563" lon="39.440533"><ele>135.1</ele><time>1970-01-01T05:37:14.000Z</time></trkpt><trkpt lat="51.795631" lon="39.440463"><ele>135</ele><time>1970-01-01T05:37:15.000Z</time></trkpt><trkpt lat="51.79563" lon="39.44039"><ele>135</ele><time>1970-01-01T05:37:16.000Z</time></trkpt><trkpt lat="51.795631" lon="39.440317"><ele>135</ele><time>1970-01-01T05:37:17.000Z</time></trkpt><trkpt lat="51.795638" lon="39.440245"><ele>134.9</ele><time>1970-01-01T05:37:18.000Z</time></trkpt><trkpt lat="51.795633" lon="39.440169"><ele>135</ele><time>1970-01-01T05:37:19.000Z</time></trkpt><trkpt lat="51.795627" lon="39.440088"><ele>134.9</ele><time>1970-01-01T05:37:20.000Z</time></trkpt><trkpt lat="51.795621" lon="39.440006"><ele>134.9</ele><time>1970-01-01T05:37:21.000Z</time></trkpt><trkpt lat="51.795616" lon="39.439922"><ele>134.6</ele><time>1970-01-01T05:37:22.000Z</time></trkpt><trkpt lat="51.795617" lon="39.439848"><ele>134.3</ele><time>1970-01-01T05:37:23.000Z</time></trkpt><trkpt lat="51.795618" lon="39.439775"><ele>134.1</ele><time>1970-01-01T05:37:24.000Z</time></trkpt><trkpt lat="51.79562" lon="39.439624"><ele>134</ele><time>1970-01-01T05:37:26.000Z</time></trkpt><trkpt lat="51.795618" lon="39.439552"><ele>134</ele><time>1970-01-01T05:37:27.000Z</time></trkpt><trkpt lat="51.795589" lon="39.438933"><ele>133</ele><time>1970-01-01T05:37:37.000Z</time></trkpt><trkpt lat="51.795566" lon="39.438812"><ele>133</ele><time>1970-01-01T05:37:40.000Z</time></trkpt><trkpt lat="51.795563" lon="39.438792"><ele>132.9</ele><time>1970-01-01T05:37:41.000Z</time></trkpt><trkpt lat="51.795567" lon="39.43876"><ele>132.8</ele><time>1970-01-01T05:37:42.000Z</time></trkpt><trkpt lat="51.795571" lon="39.438727"><ele>132.7</ele><time>1970-01-01T05:37:43.000Z</time></trkpt><trkpt lat="51.795576" lon="39.438687"><ele>132.6</ele><time>1970-01-01T05:37:44.000Z</time></trkpt><trkpt lat="51.795579" lon="39.438631"><ele>132.4</ele><time>1970-01-01T05:37:45.000Z</time></trkpt><trkpt lat="51.795564" lon="39.438256"><ele>131.9</ele><time>1970-01-01T05:37:51.000Z</time></trkpt><trkpt lat="51.795542" lon="39.438207"><ele>131.7</ele><time>1970-01-01T05:37:52.000Z</time></trkpt><trkpt lat="51.795512" lon="39.43816"><ele>131.4</ele><time>1970-01-01T05:37:53.000Z</time></trkpt><trkpt lat="51.795433" lon="39.437956"><ele>130.9</ele><time>1970-01-01T05:37:57.000Z</time></trkpt><trkpt lat="51.795519" lon="39.437561"><ele>131</ele><time>1970-01-01T05:38:05.000Z</time></trkpt><trkpt lat="51.795561" lon="39.437254"><ele>131</ele><time>1970-01-01T05:38:09.000Z</time></trkpt><trkpt lat="51.795577" lon="39.437168"><ele>131</ele><time>1970-01-01T05:38:10.000Z</time></trkpt><trkpt lat="51.795587" lon="39.437082"><ele>131</ele><time>1970-01-01T05:38:11.000Z</time></trkpt><trkpt lat="51.795582" lon="39.43699"><ele>131</ele><time>1970-01-01T05:38:12.000Z</time></trkpt><trkpt lat="51.795581" lon="39.436899"><ele>131</ele><time>1970-01-01T05:38:13.000Z</time></trkpt><trkpt lat="51.795577" lon="39.436816"><ele>131</ele><time>1970-01-01T05:38:14.000Z</time></trkpt><trkpt lat="51.795575" lon="39.436731"><ele>130.9</ele><time>1970-01-01T05:38:15.000Z</time></trkpt><trkpt lat="51.795571" lon="39.43665"><ele>130.9</ele><time>1970-01-01T05:38:16.000Z</time></trkpt><trkpt lat="51.795565" lon="39.436566"><ele>131</ele><time>1970-01-01T05:38:17.000Z</time></trkpt><trkpt lat="51.795565" lon="39.436335"><ele>132</ele><time>1970-01-01T05:38:20.000Z</time></trkpt><trkpt lat="51.79558" lon="39.436262"><ele>132</ele><time>1970-01-01T05:38:21.000Z</time></trkpt><trkpt lat="51.795591" lon="39.436192"><ele>132</ele><time>1970-01-01T05:38:22.000Z</time></trkpt><trkpt lat="51.795603" lon="39.436034"><ele>131.9</ele><time>1970-01-01T05:38:24.000Z</time></trkpt><trkpt lat="51.795609" lon="39.435955"><ele>131.9</ele><time>1970-01-01T05:38:25.000Z</time></trkpt><trkpt lat="51.795613" lon="39.435885"><ele>132</ele><time>1970-01-01T05:38:26.000Z</time></trkpt><trkpt lat="51.795617" lon="39.435822"><ele>132</ele><time>1970-01-01T05:38:27.000Z</time></trkpt><trkpt lat="51.795617" lon="39.435768"><ele>132</ele><time>1970-01-01T05:38:28.000Z</time></trkpt><trkpt lat="51.795618" lon="39.435724"><ele>132</ele><time>1970-01-01T05:38:29.000Z</time></trkpt><trkpt lat="51.795611" lon="39.435663"><ele>132.1</ele><time>1970-01-01T05:38:35.000Z</time></trkpt><trkpt lat="51.795601" lon="39.435512"><ele>131.1</ele><time>1970-01-01T05:38:45.000Z</time></trkpt><trkpt lat="51.795601" lon="39.435481"><ele>130.8</ele><time>1970-01-01T05:38:46.000Z</time></trkpt><trkpt lat="51.795597" lon="39.435444"><ele>130.6</ele><time>1970-01-01T05:38:47.000Z</time></trkpt><trkpt lat="51.7956" lon="39.435401"><ele>130.3</ele><time>1970-01-01T05:38:48.000Z</time></trkpt><trkpt lat="51.795606" lon="39.435361"><ele>130</ele><time>1970-01-01T05:38:49.000Z</time></trkpt><trkpt lat="51.795613" lon="39.435321"><ele>129.8</ele><time>1970-01-01T05:38:50.000Z</time></trkpt><trkpt lat="51.795619" lon="39.435282"><ele>129.6</ele><time>1970-01-01T05:38:51.000Z</time></trkpt><trkpt lat="51.795622" lon="39.435237"><ele>129.4</ele><time>1970-01-01T05:38:52.000Z</time></trkpt><trkpt lat="51.795627" lon="39.435184"><ele>129</ele><time>1970-01-01T05:38:53.000Z</time></trkpt><trkpt lat="51.795628" lon="39.435136"><ele>128.7</ele><time>1970-01-01T05:38:54.000Z</time></trkpt><trkpt lat="51.795628" lon="39.435088"><ele>128.3</ele><time>1970-01-01T05:38:55.000Z</time></trkpt><trkpt lat="51.79563" lon="39.435041"><ele>128.1</ele><time>1970-01-01T05:38:56.000Z</time></trkpt><trkpt lat="51.79563" lon="39.435"><ele>128</ele><time>1970-01-01T05:38:57.000Z</time></trkpt><trkpt lat="51.79563" lon="39.434961"><ele>127.9</ele><time>1970-01-01T05:38:58.000Z</time></trkpt><trkpt lat="51.795634" lon="39.43493"><ele>127.8</ele><time>1970-01-01T05:38:59.000Z</time></trkpt><trkpt lat="51.795639" lon="39.434867"><ele>127.7</ele><time>1970-01-01T05:39:03.000Z</time></trkpt><trkpt lat="51.795645" lon="39.434694"><ele>127.1</ele><time>1970-01-01T05:39:10.000Z</time></trkpt><trkpt lat="51.795648" lon="39.434669"><ele>127</ele><time>1970-01-01T05:39:11.000Z</time></trkpt><trkpt lat="51.795655" lon="39.43464"><ele>126.9</ele><time>1970-01-01T05:39:12.000Z</time></trkpt><trkpt lat="51.795664" lon="39.434159"><ele>126.9</ele><time>1970-01-01T05:39:23.000Z</time></trkpt><trkpt lat="51.795683" lon="39.433826"><ele>126.9</ele><time>1970-01-01T05:39:28.000Z</time></trkpt><trkpt lat="51.795687" lon="39.433751"><ele>127.1</ele><time>1970-01-01T05:39:29.000Z</time></trkpt><trkpt lat="51.795692" lon="39.433672"><ele>127.5</ele><time>1970-01-01T05:39:30.000Z</time></trkpt><trkpt lat="51.795707" lon="39.433593"><ele>127.8</ele><time>1970-01-01T05:39:31.000Z</time></trkpt><trkpt lat="51.795722" lon="39.433508"><ele>127.9</ele><time>1970-01-01T05:39:32.000Z</time></trkpt><trkpt lat="51.795728" lon="39.433417"><ele>128.2</ele><time>1970-01-01T05:39:33.000Z</time></trkpt><trkpt lat="51.795736" lon="39.433329"><ele>128.5</ele><time>1970-01-01T05:39:34.000Z</time></trkpt><trkpt lat="51.795738" lon="39.433241"><ele>129.3</ele><time>1970-01-01T05:39:35.000Z</time></trkpt><trkpt lat="51.795737" lon="39.433157"><ele>129.7</ele><time>1970-01-01T05:39:36.000Z</time></trkpt><trkpt lat="51.795733" lon="39.433069"><ele>129.9</ele><time>1970-01-01T05:39:37.000Z</time></trkpt><trkpt lat="51.795711" lon="39.432747"><ele>131</ele><time>1970-01-01T05:39:41.000Z</time></trkpt><trkpt lat="51.795718" lon="39.432671"><ele>130.9</ele><time>1970-01-01T05:39:42.000Z</time></trkpt><trkpt lat="51.795724" lon="39.432595"><ele>130.9</ele><time>1970-01-01T05:39:43.000Z</time></trkpt><trkpt lat="51.795729" lon="39.432364"><ele>130.8</ele><time>1970-01-01T05:39:46.000Z</time></trkpt><trkpt lat="51.795742" lon="39.432205"><ele>130.5</ele><time>1970-01-01T05:39:48.000Z</time></trkpt><trkpt lat="51.795741" lon="39.431956"><ele>129.9</ele><time>1970-01-01T05:39:51.000Z</time></trkpt><trkpt lat="51.795749" lon="39.431805"><ele>129.8</ele><time>1970-01-01T05:39:53.000Z</time></trkpt><trkpt lat="51.795763" lon="39.431175"><ele>127.5</ele><time>1970-01-01T05:40:01.000Z</time></trkpt><trkpt lat="51.795764" lon="39.431105"><ele>127.2</ele><time>1970-01-01T05:40:02.000Z</time></trkpt><trkpt lat="51.795758" lon="39.430965"><ele>126.9</ele><time>1970-01-01T05:40:04.000Z</time></trkpt><trkpt lat="51.795744" lon="39.430381"><ele>127.2</ele><time>1970-01-01T05:40:12.000Z</time></trkpt><trkpt lat="51.79575" lon="39.43031"><ele>127.2</ele><time>1970-01-01T05:40:13.000Z</time></trkpt><trkpt lat="51.795741" lon="39.430048"><ele>127.2</ele><time>1970-01-01T05:40:17.000Z</time></trkpt><trkpt lat="51.795734" lon="39.42997"><ele>126.9</ele><time>1970-01-01T05:40:18.000Z</time></trkpt><trkpt lat="51.795722" lon="39.429896"><ele>126.6</ele><time>1970-01-01T05:40:19.000Z</time></trkpt><trkpt lat="51.795712" lon="39.429819"><ele>126.5</ele><time>1970-01-01T05:40:20.000Z</time></trkpt><trkpt lat="51.79571" lon="39.42974"><ele>126.3</ele><time>1970-01-01T05:40:21.000Z</time></trkpt><trkpt lat="51.795715" lon="39.429662"><ele>125.9</ele><time>1970-01-01T05:40:22.000Z</time></trkpt><trkpt lat="51.795731" lon="39.42892"><ele>124.3</ele><time>1970-01-01T05:40:32.000Z</time></trkpt><trkpt lat="51.795735" lon="39.428843"><ele>124.6</ele><time>1970-01-01T05:40:33.000Z</time></trkpt><trkpt lat="51.795742" lon="39.428764"><ele>125.2</ele><time>1970-01-01T05:40:34.000Z</time></trkpt><trkpt lat="51.795746" lon="39.428682"><ele>125.5</ele><time>1970-01-01T05:40:35.000Z</time></trkpt><trkpt lat="51.795751" lon="39.428598"><ele>125.6</ele><time>1970-01-01T05:40:36.000Z</time></trkpt><trkpt lat="51.795757" lon="39.428519"><ele>125.6</ele><time>1970-01-01T05:40:37.000Z</time></trkpt><trkpt lat="51.79576" lon="39.428439"><ele>125.7</ele><time>1970-01-01T05:40:38.000Z</time></trkpt><trkpt lat="51.795763" lon="39.42836"><ele>126.3</ele><time>1970-01-01T05:40:39.000Z</time></trkpt><trkpt lat="51.795765" lon="39.428289"><ele>126.8</ele><time>1970-01-01T05:40:40.000Z</time></trkpt><trkpt lat="51.795764" lon="39.428213"><ele>126.9</ele><time>1970-01-01T05:40:41.000Z</time></trkpt><trkpt lat="51.795762" lon="39.428132"><ele>126.9</ele><time>1970-01-01T05:40:42.000Z</time></trkpt><trkpt lat="51.795763" lon="39.428048"><ele>126.8</ele><time>1970-01-01T05:40:43.000Z</time></trkpt><trkpt lat="51.795766" lon="39.427969"><ele>126.9</ele><time>1970-01-01T05:40:44.000Z</time></trkpt><trkpt lat="51.795765" lon="39.427889"><ele>127.3</ele><time>1970-01-01T05:40:45.000Z</time></trkpt><trkpt lat="51.795764" lon="39.427814"><ele>127.5</ele><time>1970-01-01T05:40:46.000Z</time></trkpt><trkpt lat="51.795764" lon="39.42774"><ele>127.7</ele><time>1970-01-01T05:40:47.000Z</time></trkpt><trkpt lat="51.795763" lon="39.427662"><ele>127.7</ele><time>1970-01-01T05:40:48.000Z</time></trkpt><trkpt lat="51.795763" lon="39.427581"><ele>127.7</ele><time>1970-01-01T05:40:49.000Z</time></trkpt><trkpt lat="51.795768" lon="39.427424"><ele>128</ele><time>1970-01-01T05:40:51.000Z</time></trkpt><trkpt lat="51.795774" lon="39.427353"><ele>128</ele><time>1970-01-01T05:40:52.000Z</time></trkpt><trkpt lat="51.795776" lon="39.427207"><ele>127.9</ele><time>1970-01-01T05:40:54.000Z</time></trkpt><trkpt lat="51.795776" lon="39.42713"><ele>127.9</ele><time>1970-01-01T05:40:55.000Z</time></trkpt><trkpt lat="51.795763" lon="39.426983"><ele>127.8</ele><time>1970-01-01T05:40:57.000Z</time></trkpt><trkpt lat="51.795758" lon="39.426908"><ele>127.9</ele><time>1970-01-01T05:40:58.000Z</time></trkpt><trkpt lat="51.795759" lon="39.42683"><ele>127.8</ele><time>1970-01-01T05:40:59.000Z</time></trkpt><trkpt lat="51.795758" lon="39.426749"><ele>127.6</ele><time>1970-01-01T05:41:00.000Z</time></trkpt><trkpt lat="51.795758" lon="39.426668"><ele>127.5</ele><time>1970-01-01T05:41:01.000Z</time></trkpt><trkpt lat="51.795781" lon="39.426357"><ele>127.1</ele><time>1970-01-01T05:41:05.000Z</time></trkpt><trkpt lat="51.795786" lon="39.42628"><ele>126.5</ele><time>1970-01-01T05:41:06.000Z</time></trkpt><trkpt lat="51.795792" lon="39.426201"><ele>126.5</ele><time>1970-01-01T05:41:07.000Z</time></trkpt><trkpt lat="51.795798" lon="39.426122"><ele>126.4</ele><time>1970-01-01T05:41:08.000Z</time></trkpt><trkpt lat="51.7958" lon="39.426044"><ele>126.3</ele><time>1970-01-01T05:41:09.000Z</time></trkpt><trkpt lat="51.795798" lon="39.425961"><ele>125.9</ele><time>1970-01-01T05:41:10.000Z</time></trkpt><trkpt lat="51.795798" lon="39.425881"><ele>125.2</ele><time>1970-01-01T05:41:11.000Z</time></trkpt><trkpt lat="51.795813" lon="39.425428"><ele>123.5</ele><time>1970-01-01T05:41:17.000Z</time></trkpt><trkpt lat="51.795842" lon="39.424848"><ele>126.5</ele><time>1970-01-01T05:41:25.000Z</time></trkpt><trkpt lat="51.795835" lon="39.424454"><ele>128.7</ele><time>1970-01-01T05:41:30.000Z</time></trkpt><trkpt lat="51.79581" lon="39.423847"><ele>130.3</ele><time>1970-01-01T05:41:38.000Z</time></trkpt><trkpt lat="51.795804" lon="39.423771"><ele>129.9</ele><time>1970-01-01T05:41:39.000Z</time></trkpt><trkpt lat="51.795802" lon="39.423308"><ele>128.5</ele><time>1970-01-01T05:41:45.000Z</time></trkpt><trkpt lat="51.795805" lon="39.423226"><ele>128.3</ele><time>1970-01-01T05:41:46.000Z</time></trkpt><trkpt lat="51.795809" lon="39.423145"><ele>128.1</ele><time>1970-01-01T05:41:47.000Z</time></trkpt><trkpt lat="51.795813" lon="39.422974"><ele>127.4</ele><time>1970-01-01T05:41:49.000Z</time></trkpt><trkpt lat="51.795811" lon="39.422888"><ele>127.3</ele><time>1970-01-01T05:41:50.000Z</time></trkpt><trkpt lat="51.795815" lon="39.422723"><ele>127.3</ele><time>1970-01-01T05:41:52.000Z</time></trkpt><trkpt lat="51.79582" lon="39.42264"><ele>127.3</ele><time>1970-01-01T05:41:53.000Z</time></trkpt><trkpt lat="51.795842" lon="39.422329"><ele>127.4</ele><time>1970-01-01T05:41:57.000Z</time></trkpt><trkpt lat="51.795848" lon="39.422251"><ele>127.6</ele><time>1970-01-01T05:41:58.000Z</time></trkpt><trkpt lat="51.795856" lon="39.422095"><ele>128.4</ele><time>1970-01-01T05:42:00.000Z</time></trkpt><trkpt lat="51.795862" lon="39.422017"><ele>128.3</ele><time>1970-01-01T05:42:01.000Z</time></trkpt><trkpt lat="51.795862" lon="39.42162"><ele>128.1</ele><time>1970-01-01T05:42:06.000Z</time></trkpt><trkpt lat="51.795865" lon="39.421544"><ele>128.1</ele><time>1970-01-01T05:42:07.000Z</time></trkpt><trkpt lat="51.795859" lon="39.421466"><ele>127.8</ele><time>1970-01-01T05:42:08.000Z</time></trkpt><trkpt lat="51.795828" lon="39.42089"><ele>127.1</ele><time>1970-01-01T05:42:15.000Z</time></trkpt><trkpt lat="51.79583" lon="39.420811"><ele>127.1</ele><time>1970-01-01T05:42:16.000Z</time></trkpt><trkpt lat="51.795848" lon="39.420026"><ele>126.2</ele><time>1970-01-01T05:42:28.000Z</time></trkpt><trkpt lat="51.795836" lon="39.419853"><ele>126.8</ele><time>1970-01-01T05:42:30.000Z</time></trkpt><trkpt lat="51.795836" lon="39.419761"><ele>127</ele><time>1970-01-01T05:42:31.000Z</time></trkpt><trkpt lat="51.795839" lon="39.419675"><ele>127.1</ele><time>1970-01-01T05:42:32.000Z</time></trkpt><trkpt lat="51.795838" lon="39.419164"><ele>128</ele><time>1970-01-01T05:42:41.000Z</time></trkpt><trkpt lat="51.795839" lon="39.419092"><ele>128.1</ele><time>1970-01-01T05:42:42.000Z</time></trkpt><trkpt lat="51.795831" lon="39.418768"><ele>128.5</ele><time>1970-01-01T05:42:46.000Z</time></trkpt><trkpt lat="51.795836" lon="39.418697"><ele>128.8</ele><time>1970-01-01T05:42:47.000Z</time></trkpt><trkpt lat="51.79584" lon="39.418628"><ele>129.1</ele><time>1970-01-01T05:42:48.000Z</time></trkpt><trkpt lat="51.795846" lon="39.418575"><ele>129.1</ele><time>1970-01-01T05:42:49.000Z</time></trkpt><trkpt lat="51.795848" lon="39.418527"><ele>129</ele><time>1970-01-01T05:42:50.000Z</time></trkpt><trkpt lat="51.79585" lon="39.418482"><ele>129</ele><time>1970-01-01T05:42:51.000Z</time></trkpt><trkpt lat="51.79585" lon="39.418437"><ele>129</ele><time>1970-01-01T05:42:52.000Z</time></trkpt><trkpt lat="51.795848" lon="39.418392"><ele>129</ele><time>1970-01-01T05:42:53.000Z</time></trkpt><trkpt lat="51.795846" lon="39.418358"><ele>129</ele><time>1970-01-01T05:42:54.000Z</time></trkpt><trkpt lat="51.795836" lon="39.418325"><ele>129</ele><time>1970-01-01T05:42:55.000Z</time></trkpt><trkpt lat="51.795819" lon="39.41829"><ele>129</ele><time>1970-01-01T05:42:56.000Z</time></trkpt><trkpt lat="51.795515" lon="39.418066"><ele>128.6</ele><time>1970-01-01T05:43:07.000Z</time></trkpt><trkpt lat="51.795237" lon="39.417952"><ele>126.3</ele><time>1970-01-01T05:43:15.000Z</time></trkpt><trkpt lat="51.794774" lon="39.417859"><ele>123</ele><time>1970-01-01T05:43:26.000Z</time></trkpt><trkpt lat="51.794366" lon="39.417769"><ele>121.1</ele><time>1970-01-01T05:43:35.000Z</time></trkpt><trkpt lat="51.794318" lon="39.417756"><ele>120.6</ele><time>1970-01-01T05:43:36.000Z</time></trkpt><trkpt lat="51.794274" lon="39.41774"><ele>120.2</ele><time>1970-01-01T05:43:37.000Z</time></trkpt><trkpt lat="51.794234" lon="39.417726"><ele>119.9</ele><time>1970-01-01T05:43:38.000Z</time></trkpt><trkpt lat="51.794188" lon="39.417719"><ele>119.9</ele><time>1970-01-01T05:43:39.000Z</time></trkpt><trkpt lat="51.794143" lon="39.41771"><ele>119.9</ele><time>1970-01-01T05:43:40.000Z</time></trkpt><trkpt lat="51.793955" lon="39.417645"><ele>119.9</ele><time>1970-01-01T05:43:44.000Z</time></trkpt><trkpt lat="51.79391" lon="39.417627"><ele>119.8</ele><time>1970-01-01T05:43:45.000Z</time></trkpt><trkpt lat="51.793867" lon="39.417614"><ele>119.6</ele><time>1970-01-01T05:43:46.000Z</time></trkpt><trkpt lat="51.793324" lon="39.417498"><ele>120.7</ele><time>1970-01-01T05:43:56.000Z</time></trkpt><trkpt lat="51.792948" lon="39.417382"><ele>123.6</ele><time>1970-01-01T05:44:04.000Z</time></trkpt><trkpt lat="51.792901" lon="39.417366"><ele>123.9</ele><time>1970-01-01T05:44:05.000Z</time></trkpt><trkpt lat="51.792522" lon="39.41724"><ele>126</ele><time>1970-01-01T05:44:14.000Z</time></trkpt><trkpt lat="51.791998" lon="39.417129"><ele>126.9</ele><time>1970-01-01T05:44:25.000Z</time></trkpt><trkpt lat="51.791888" lon="39.417087"><ele>127</ele><time>1970-01-01T05:44:27.000Z</time></trkpt><trkpt lat="51.791793" lon="39.417052"><ele>127.3</ele><time>1970-01-01T05:44:29.000Z</time></trkpt><trkpt lat="51.791417" lon="39.416939"><ele>128.3</ele><time>1970-01-01T05:44:37.000Z</time></trkpt><trkpt lat="51.791364" lon="39.41693"><ele>128</ele><time>1970-01-01T05:44:38.000Z</time></trkpt><trkpt lat="51.791314" lon="39.416915"><ele>128</ele><time>1970-01-01T05:44:39.000Z</time></trkpt><trkpt lat="51.791267" lon="39.416898"><ele>127.8</ele><time>1970-01-01T05:44:40.000Z</time></trkpt><trkpt lat="51.791213" lon="39.416885"><ele>127.4</ele><time>1970-01-01T05:44:41.000Z</time></trkpt><trkpt lat="51.790714" lon="39.416778"><ele>125</ele><time>1970-01-01T05:44:51.000Z</time></trkpt><trkpt lat="51.790396" lon="39.416709"><ele>124.9</ele><time>1970-01-01T05:44:57.000Z</time></trkpt><trkpt lat="51.790017" lon="39.416598"><ele>125.1</ele><time>1970-01-01T05:45:05.000Z</time></trkpt><trkpt lat="51.789973" lon="39.416592"><ele>125.2</ele><time>1970-01-01T05:45:06.000Z</time></trkpt><trkpt lat="51.789705" lon="39.416527"><ele>128.4</ele><time>1970-01-01T05:45:12.000Z</time></trkpt><trkpt lat="51.789614" lon="39.41649"><ele>129.3</ele><time>1970-01-01T05:45:14.000Z</time></trkpt><trkpt lat="51.78957" lon="39.416473"><ele>129.8</ele><time>1970-01-01T05:45:15.000Z</time></trkpt><trkpt lat="51.788994" lon="39.416348"><ele>134.1</ele><time>1970-01-01T05:45:27.000Z</time></trkpt><trkpt lat="51.788857" lon="39.416305"><ele>134.2</ele><time>1970-01-01T05:45:30.000Z</time></trkpt><trkpt lat="51.788813" lon="39.416296"><ele>134.2</ele><time>1970-01-01T05:45:31.000Z</time></trkpt><trkpt lat="51.788768" lon="39.41629"><ele>134.2</ele><time>1970-01-01T05:45:32.000Z</time></trkpt><trkpt lat="51.788206" lon="39.416112"><ele>133.5</ele><time>1970-01-01T05:45:45.000Z</time></trkpt><trkpt lat="51.787782" lon="39.416022"><ele>133.9</ele><time>1970-01-01T05:45:56.000Z</time></trkpt><trkpt lat="51.787323" lon="39.415864"><ele>136</ele><time>1970-01-01T05:46:07.000Z</time></trkpt><trkpt lat="51.786986" lon="39.415741"><ele>136</ele><time>1970-01-01T05:46:16.000Z</time></trkpt><trkpt lat="51.786593" lon="39.415641"><ele>136.2</ele><time>1970-01-01T05:46:26.000Z</time></trkpt><trkpt lat="51.786133" lon="39.415551"><ele>138.9</ele><time>1970-01-01T05:46:37.000Z</time></trkpt><trkpt lat="51.785768" lon="39.415482"><ele>140.6</ele><time>1970-01-01T05:46:49.000Z</time></trkpt><trkpt lat="51.785396" lon="39.415358"><ele>142</ele><time>1970-01-01T05:47:01.000Z</time></trkpt><trkpt lat="51.784937" lon="39.415317"><ele>140.4</ele><time>1970-01-01T05:47:12.000Z</time></trkpt><trkpt lat="51.784523" lon="39.415184"><ele>135.5</ele><time>1970-01-01T05:47:22.000Z</time></trkpt><trkpt lat="51.784346" lon="39.415095"><ele>133.9</ele><time>1970-01-01T05:47:26.000Z</time></trkpt><trkpt lat="51.784296" lon="39.415078"><ele>133.4</ele><time>1970-01-01T05:47:27.000Z</time></trkpt><trkpt lat="51.783819" lon="39.414961"><ele>131.9</ele><time>1970-01-01T05:47:38.000Z</time></trkpt><trkpt lat="51.783297" lon="39.414799"><ele>132.6</ele><time>1970-01-01T05:47:51.000Z</time></trkpt><trkpt lat="51.782841" lon="39.414663"><ele>131.7</ele><time>1970-01-01T05:48:01.000Z</time></trkpt><trkpt lat="51.782606" lon="39.414634"><ele>133</ele><time>1970-01-01T05:48:06.000Z</time></trkpt><trkpt lat="51.782554" lon="39.414632"><ele>132.9</ele><time>1970-01-01T05:48:07.000Z</time></trkpt><trkpt lat="51.782508" lon="39.414624"><ele>132.8</ele><time>1970-01-01T05:48:08.000Z</time></trkpt><trkpt lat="51.78246" lon="39.414609"><ele>132.9</ele><time>1970-01-01T05:48:09.000Z</time></trkpt><trkpt lat="51.782421" lon="39.414589"><ele>133</ele><time>1970-01-01T05:48:10.000Z</time></trkpt><trkpt lat="51.782375" lon="39.414569"><ele>133.4</ele><time>1970-01-01T05:48:11.000Z</time></trkpt><trkpt lat="51.782331" lon="39.414555"><ele>133.8</ele><time>1970-01-01T05:48:12.000Z</time></trkpt><trkpt lat="51.782291" lon="39.414545"><ele>133.8</ele><time>1970-01-01T05:48:13.000Z</time></trkpt><trkpt lat="51.781935" lon="39.414497"><ele>133.8</ele><time>1970-01-01T05:48:20.000Z</time></trkpt><trkpt lat="51.78188" lon="39.414482"><ele>134</ele><time>1970-01-01T05:48:21.000Z</time></trkpt><trkpt lat="51.781724" lon="39.414445"><ele>134.9</ele><time>1970-01-01T05:48:24.000Z</time></trkpt><trkpt lat="51.781384" lon="39.414364"><ele>135.4</ele><time>1970-01-01T05:48:31.000Z</time></trkpt><trkpt lat="51.780826" lon="39.414186"><ele>138.1</ele><time>1970-01-01T05:48:43.000Z</time></trkpt><trkpt lat="51.780705" lon="39.414146"><ele>139.3</ele><time>1970-01-01T05:48:46.000Z</time></trkpt><trkpt lat="51.780616" lon="39.414114"><ele>140.3</ele><time>1970-01-01T05:48:48.000Z</time></trkpt><trkpt lat="51.780565" lon="39.414101"><ele>140.7</ele><time>1970-01-01T05:48:49.000Z</time></trkpt><trkpt lat="51.780038" lon="39.413979"><ele>144.4</ele><time>1970-01-01T05:49:01.000Z</time></trkpt><trkpt lat="51.779774" lon="39.413947"><ele>143.8</ele><time>1970-01-01T05:49:08.000Z</time></trkpt><trkpt lat="51.779755" lon="39.413939"><ele>143.6</ele><time>1970-01-01T05:49:09.000Z</time></trkpt><trkpt lat="51.779462" lon="39.413841"><ele>143.7</ele><time>1970-01-01T05:49:19.000Z</time></trkpt><trkpt lat="51.779158" lon="39.413926"><ele>144.5</ele><time>1970-01-01T05:49:26.000Z</time></trkpt><trkpt lat="51.779111" lon="39.41394"><ele>144.5</ele><time>1970-01-01T05:49:27.000Z</time></trkpt><trkpt lat="51.779065" lon="39.413957"><ele>144.5</ele><time>1970-01-01T05:49:28.000Z</time></trkpt><trkpt lat="51.778729" lon="39.414146"><ele>144.5</ele><time>1970-01-01T05:49:36.000Z</time></trkpt><trkpt lat="51.778142" lon="39.414385"><ele>145</ele><time>1970-01-01T05:49:49.000Z</time></trkpt><trkpt lat="51.777814" lon="39.41438"><ele>145</ele><time>1970-01-01T05:49:56.000Z</time></trkpt><trkpt lat="51.777674" lon="39.414392"><ele>145</ele><time>1970-01-01T05:49:59.000Z</time></trkpt><trkpt lat="51.777381" lon="39.414373"><ele>145</ele><time>1970-01-01T05:50:05.000Z</time></trkpt><trkpt lat="51.777237" lon="39.414357"><ele>145.2</ele><time>1970-01-01T05:50:08.000Z</time></trkpt><trkpt lat="51.777186" lon="39.414364"><ele>145.6</ele><time>1970-01-01T05:50:09.000Z</time></trkpt><trkpt lat="51.776978" lon="39.414375"><ele>146.4</ele><time>1970-01-01T05:50:13.000Z</time></trkpt><trkpt lat="51.776526" lon="39.414319"><ele>147</ele><time>1970-01-01T05:50:23.000Z</time></trkpt><trkpt lat="51.776221" lon="39.414328"><ele>148</ele><time>1970-01-01T05:50:30.000Z</time></trkpt><trkpt lat="51.776173" lon="39.414322"><ele>147.9</ele><time>1970-01-01T05:50:31.000Z</time></trkpt><trkpt lat="51.775858" lon="39.414333"><ele>149.3</ele><time>1970-01-01T05:50:38.000Z</time></trkpt><trkpt lat="51.77581" lon="39.414329"><ele>149.3</ele><time>1970-01-01T05:50:39.000Z</time></trkpt><trkpt lat="51.775664" lon="39.414308"><ele>149.8</ele><time>1970-01-01T05:50:42.000Z</time></trkpt><trkpt lat="51.775616" lon="39.414316"><ele>150</ele><time>1970-01-01T05:50:43.000Z</time></trkpt><trkpt lat="51.775568" lon="39.414322"><ele>150</ele><time>1970-01-01T05:50:44.000Z</time></trkpt><trkpt lat="51.775414" lon="39.414311"><ele>150</ele><time>1970-01-01T05:50:47.000Z</time></trkpt><trkpt lat="51.775277" lon="39.414264"><ele>150</ele><time>1970-01-01T05:50:50.000Z</time></trkpt><trkpt lat="51.775226" lon="39.414259"><ele>150</ele><time>1970-01-01T05:50:51.000Z</time></trkpt><trkpt lat="51.775132" lon="39.414261"><ele>149.9</ele><time>1970-01-01T05:50:53.000Z</time></trkpt><trkpt lat="51.775085" lon="39.414262"><ele>149.8</ele><time>1970-01-01T05:50:54.000Z</time></trkpt><trkpt lat="51.774586" lon="39.414266"><ele>150</ele><time>1970-01-01T05:51:05.000Z</time></trkpt><trkpt lat="51.774186" lon="39.414269"><ele>150</ele><time>1970-01-01T05:51:14.000Z</time></trkpt><trkpt lat="51.773907" lon="39.414567"><ele>150.7</ele><time>1970-01-01T05:51:23.000Z</time></trkpt><trkpt lat="51.773838" lon="39.414599"><ele>151.2</ele><time>1970-01-01T05:51:25.000Z</time></trkpt><trkpt lat="51.773817" lon="39.414589"><ele>151.1</ele><time>1970-01-01T05:51:26.000Z</time></trkpt><trkpt lat="51.773802" lon="39.414571"><ele>151.1</ele><time>1970-01-01T05:51:27.000Z</time></trkpt><trkpt lat="51.773788" lon="39.414548"><ele>151.1</ele><time>1970-01-01T05:51:28.000Z</time></trkpt><trkpt lat="51.773785" lon="39.414521"><ele>151</ele><time>1970-01-01T05:51:29.000Z</time></trkpt><trkpt lat="51.773786" lon="39.414488"><ele>151</ele><time>1970-01-01T05:51:30.000Z</time></trkpt><trkpt lat="51.773793" lon="39.414451"><ele>151</ele><time>1970-01-01T05:51:31.000Z</time></trkpt><trkpt lat="51.773798" lon="39.414405"><ele>151</ele><time>1970-01-01T05:51:32.000Z</time></trkpt><trkpt lat="51.773806" lon="39.414357"><ele>150.7</ele><time>1970-01-01T05:51:33.000Z</time></trkpt><trkpt lat="51.773812" lon="39.414301"><ele>150.4</ele><time>1970-01-01T05:51:34.000Z</time></trkpt><trkpt lat="51.773816" lon="39.414241"><ele>150.1</ele><time>1970-01-01T05:51:35.000Z</time></trkpt><trkpt lat="51.773817" lon="39.41418"><ele>150.1</ele><time>1970-01-01T05:51:36.000Z</time></trkpt><trkpt lat="51.773809" lon="39.414114"><ele>150.1</ele><time>1970-01-01T05:51:37.000Z</time></trkpt><trkpt lat="51.773802" lon="39.414051"><ele>149.9</ele><time>1970-01-01T05:51:38.000Z</time></trkpt><trkpt lat="51.773798" lon="39.413995"><ele>149.8</ele><time>1970-01-01T05:51:39.000Z</time></trkpt><trkpt lat="51.773796" lon="39.413939"><ele>149.8</ele><time>1970-01-01T05:51:40.000Z</time></trkpt><trkpt lat="51.773798" lon="39.413884"><ele>149.7</ele><time>1970-01-01T05:51:41.000Z</time></trkpt><trkpt lat="51.773798" lon="39.413828"><ele>149.7</ele><time>1970-01-01T05:51:42.000Z</time></trkpt><trkpt lat="51.773799" lon="39.413769"><ele>149.8</ele><time>1970-01-01T05:51:43.000Z</time></trkpt><trkpt lat="51.773838" lon="39.413145"><ele>150.5</ele><time>1970-01-01T05:51:53.000Z</time></trkpt><trkpt lat="51.773843" lon="39.413082"><ele>150.8</ele><time>1970-01-01T05:51:54.000Z</time></trkpt><trkpt lat="51.77386" lon="39.412624"><ele>150.3</ele><time>1970-01-01T05:52:01.000Z</time></trkpt><trkpt lat="51.773867" lon="39.41255"><ele>150.3</ele><time>1970-01-01T05:52:02.000Z</time></trkpt><trkpt lat="51.773887" lon="39.412469"><ele>150.3</ele><time>1970-01-01T05:52:03.000Z</time></trkpt><trkpt lat="51.773905" lon="39.412366"><ele>150.3</ele><time>1970-01-01T05:52:04.000Z</time></trkpt><trkpt lat="51.77391" lon="39.41225"><ele>150.3</ele><time>1970-01-01T05:52:05.000Z</time></trkpt><trkpt lat="51.773911" lon="39.412129"><ele>150</ele><time>1970-01-01T05:52:06.000Z</time></trkpt><trkpt lat="51.773943" lon="39.411772"><ele>148.9</ele><time>1970-01-01T05:52:10.000Z</time></trkpt><trkpt lat="51.773967" lon="39.411549"><ele>147.4</ele><time>1970-01-01T05:52:13.000Z</time></trkpt><trkpt lat="51.773973" lon="39.411465"><ele>147</ele><time>1970-01-01T05:52:14.000Z</time></trkpt><trkpt lat="51.773988" lon="39.4113"><ele>147</ele><time>1970-01-01T05:52:16.000Z</time></trkpt><trkpt lat="51.773985" lon="39.411212"><ele>147</ele><time>1970-01-01T05:52:17.000Z</time></trkpt><trkpt lat="51.773982" lon="39.411131"><ele>147</ele><time>1970-01-01T05:52:18.000Z</time></trkpt><trkpt lat="51.77398" lon="39.41105"><ele>146.9</ele><time>1970-01-01T05:52:19.000Z</time></trkpt><trkpt lat="51.773975" lon="39.410962"><ele>147.1</ele><time>1970-01-01T05:52:20.000Z</time></trkpt><trkpt lat="51.773975" lon="39.410877"><ele>147.4</ele><time>1970-01-01T05:52:21.000Z</time></trkpt><trkpt lat="51.773928" lon="39.410325"><ele>148</ele><time>1970-01-01T05:52:31.000Z</time></trkpt><trkpt lat="51.773923" lon="39.410111"><ele>148</ele><time>1970-01-01T05:52:35.000Z</time></trkpt><trkpt lat="51.77392" lon="39.410049"><ele>147.9</ele><time>1970-01-01T05:52:36.000Z</time></trkpt><trkpt lat="51.773929" lon="39.409988"><ele>148</ele><time>1970-01-01T05:52:37.000Z</time></trkpt><trkpt lat="51.773923" lon="39.409914"><ele>148</ele><time>1970-01-01T05:52:38.000Z</time></trkpt><trkpt lat="51.773914" lon="39.409831"><ele>148.4</ele><time>1970-01-01T05:52:39.000Z</time></trkpt><trkpt lat="51.773908" lon="39.409753"><ele>148.9</ele><time>1970-01-01T05:52:40.000Z</time></trkpt><trkpt lat="51.7739" lon="39.40968"><ele>149</ele><time>1970-01-01T05:52:41.000Z</time></trkpt><trkpt lat="51.773901" lon="39.409617"><ele>149</ele><time>1970-01-01T05:52:42.000Z</time></trkpt><trkpt lat="51.773902" lon="39.409548"><ele>149</ele><time>1970-01-01T05:52:43.000Z</time></trkpt><trkpt lat="51.773904" lon="39.409481"><ele>148.9</ele><time>1970-01-01T05:52:44.000Z</time></trkpt><trkpt lat="51.773912" lon="39.409411"><ele>149</ele><time>1970-01-01T05:52:45.000Z</time></trkpt><trkpt lat="51.773936" lon="39.409107"><ele>148.8</ele><time>1970-01-01T05:52:49.000Z</time></trkpt><trkpt lat="51.773944" lon="39.409031"><ele>148.6</ele><time>1970-01-01T05:52:50.000Z</time></trkpt><trkpt lat="51.773942" lon="39.408944"><ele>148.7</ele><time>1970-01-01T05:52:51.000Z</time></trkpt><trkpt lat="51.773944" lon="39.40886"><ele>148.8</ele><time>1970-01-01T05:52:52.000Z</time></trkpt><trkpt lat="51.773948" lon="39.408782"><ele>149.2</ele><time>1970-01-01T05:52:53.000Z</time></trkpt><trkpt lat="51.773951" lon="39.408706"><ele>149.7</ele><time>1970-01-01T05:52:54.000Z</time></trkpt><trkpt lat="51.773951" lon="39.408628"><ele>149.7</ele><time>1970-01-01T05:52:55.000Z</time></trkpt><trkpt lat="51.77398" lon="39.408181"><ele>149.8</ele><time>1970-01-01T05:53:01.000Z</time></trkpt><trkpt lat="51.773975" lon="39.408092"><ele>150.1</ele><time>1970-01-01T05:53:02.000Z</time></trkpt><trkpt lat="51.773975" lon="39.408007"><ele>150.4</ele><time>1970-01-01T05:53:03.000Z</time></trkpt><trkpt lat="51.773974" lon="39.407926"><ele>150.7</ele><time>1970-01-01T05:53:04.000Z</time></trkpt><trkpt lat="51.773974" lon="39.407845"><ele>151</ele><time>1970-01-01T05:53:05.000Z</time></trkpt><trkpt lat="51.773966" lon="39.407768"><ele>150.9</ele><time>1970-01-01T05:53:06.000Z</time></trkpt><trkpt lat="51.773959" lon="39.407698"><ele>150.7</ele><time>1970-01-01T05:53:07.000Z</time></trkpt><trkpt lat="51.773953" lon="39.407622"><ele>150.5</ele><time>1970-01-01T05:53:08.000Z</time></trkpt><trkpt lat="51.773953" lon="39.407548"><ele>150.2</ele><time>1970-01-01T05:53:09.000Z</time></trkpt><trkpt lat="51.773949" lon="39.407479"><ele>150.1</ele><time>1970-01-01T05:53:10.000Z</time></trkpt><trkpt lat="51.773948" lon="39.407425"><ele>150.1</ele><time>1970-01-01T05:53:11.000Z</time></trkpt><trkpt lat="51.773957" lon="39.407392"><ele>150.1</ele><time>1970-01-01T05:53:12.000Z</time></trkpt><trkpt lat="51.773973" lon="39.407365"><ele>150.1</ele><time>1970-01-01T05:53:13.000Z</time></trkpt><trkpt lat="51.773985" lon="39.407332"><ele>150</ele><time>1970-01-01T05:53:14.000Z</time></trkpt><trkpt lat="51.774001" lon="39.4073"><ele>150</ele><time>1970-01-01T05:53:15.000Z</time></trkpt><trkpt lat="51.774017" lon="39.407268"><ele>150</ele><time>1970-01-01T05:53:16.000Z</time></trkpt><trkpt lat="51.774038" lon="39.407182"><ele>149.8</ele><time>1970-01-01T05:53:18.000Z</time></trkpt><trkpt lat="51.774032" lon="39.407139"><ele>149.6</ele><time>1970-01-01T05:53:19.000Z</time></trkpt><trkpt lat="51.774019" lon="39.407113"><ele>149.6</ele><time>1970-01-01T05:53:20.000Z</time></trkpt><trkpt lat="51.773997" lon="39.407098"><ele>149.4</ele><time>1970-01-01T05:53:21.000Z</time></trkpt><trkpt lat="51.773941" lon="39.407044"><ele>149.1</ele><time>1970-01-01T05:53:25.000Z</time></trkpt><trkpt lat="51.773947" lon="39.406637"><ele>147.7</ele><time>1970-01-01T05:53:33.000Z</time></trkpt><trkpt lat="51.773937" lon="39.40658"><ele>147.5</ele><time>1970-01-01T05:53:34.000Z</time></trkpt><trkpt lat="51.773937" lon="39.40652"><ele>147.1</ele><time>1970-01-01T05:53:35.000Z</time></trkpt><trkpt lat="51.773934" lon="39.406459"><ele>146.8</ele><time>1970-01-01T05:53:36.000Z</time></trkpt><trkpt lat="51.773939" lon="39.406386"><ele>146.9</ele><time>1970-01-01T05:53:37.000Z</time></trkpt><trkpt lat="51.77395" lon="39.406308"><ele>147</ele><time>1970-01-01T05:53:38.000Z</time></trkpt><trkpt lat="51.773956" lon="39.406229"><ele>147</ele><time>1970-01-01T05:53:39.000Z</time></trkpt><trkpt lat="51.773965" lon="39.406157"><ele>147</ele><time>1970-01-01T05:53:40.000Z</time></trkpt><trkpt lat="51.773969" lon="39.406091"><ele>147</ele><time>1970-01-01T05:53:41.000Z</time></trkpt><trkpt lat="51.773977" lon="39.406028"><ele>147.1</ele><time>1970-01-01T05:53:42.000Z</time></trkpt><trkpt lat="51.773984" lon="39.405959"><ele>146.9</ele><time>1970-01-01T05:53:43.000Z</time></trkpt><trkpt lat="51.774017" lon="39.405297"><ele>145.4</ele><time>1970-01-01T05:53:52.000Z</time></trkpt><trkpt lat="51.774024" lon="39.405048"><ele>145.1</ele><time>1970-01-01T05:53:55.000Z</time></trkpt><trkpt lat="51.774026" lon="39.404969"><ele>145.1</ele><time>1970-01-01T05:53:56.000Z</time></trkpt><trkpt lat="51.774027" lon="39.404887"><ele>145</ele><time>1970-01-01T05:53:57.000Z</time></trkpt><trkpt lat="51.774033" lon="39.404806"><ele>145</ele><time>1970-01-01T05:53:58.000Z</time></trkpt><trkpt lat="51.774042" lon="39.404727"><ele>145</ele><time>1970-01-01T05:53:59.000Z</time></trkpt><trkpt lat="51.774041" lon="39.404646"><ele>145</ele><time>1970-01-01T05:54:00.000Z</time></trkpt><trkpt lat="51.774026" lon="39.404349"><ele>144.8</ele><time>1970-01-01T05:54:04.000Z</time></trkpt><trkpt lat="51.774013" lon="39.404276"><ele>144.3</ele><time>1970-01-01T05:54:05.000Z</time></trkpt><trkpt lat="51.773993" lon="39.404205"><ele>144.1</ele><time>1970-01-01T05:54:06.000Z</time></trkpt><trkpt lat="51.773959" lon="39.404147"><ele>143.9</ele><time>1970-01-01T05:54:07.000Z</time></trkpt><trkpt lat="51.773913" lon="39.404103"><ele>143.9</ele><time>1970-01-01T05:54:08.000Z</time></trkpt><trkpt lat="51.773871" lon="39.404081"><ele>143.9</ele><time>1970-01-01T05:54:09.000Z</time></trkpt><trkpt lat="51.773824" lon="39.404072"><ele>143.9</ele><time>1970-01-01T05:54:10.000Z</time></trkpt><trkpt lat="51.773776" lon="39.404069"><ele>143.9</ele><time>1970-01-01T05:54:11.000Z</time></trkpt><trkpt lat="51.773113" lon="39.404"><ele>146.6</ele><time>1970-01-01T05:54:25.000Z</time></trkpt><trkpt lat="51.772651" lon="39.404017"><ele>147.3</ele><time>1970-01-01T05:54:34.000Z</time></trkpt><trkpt lat="51.772602" lon="39.404003"><ele>146.8</ele><time>1970-01-01T05:54:35.000Z</time></trkpt><trkpt lat="51.772458" lon="39.403969"><ele>146.5</ele><time>1970-01-01T05:54:38.000Z</time></trkpt><trkpt lat="51.77241" lon="39.403965"><ele>146.6</ele><time>1970-01-01T05:54:39.000Z</time></trkpt><trkpt lat="51.771862" lon="39.403929"><ele>145.8</ele><time>1970-01-01T05:54:50.000Z</time></trkpt><trkpt lat="51.771289" lon="39.403908"><ele>148</ele><time>1970-01-01T05:55:01.000Z</time></trkpt><trkpt lat="51.771147" lon="39.403902"><ele>148</ele><time>1970-01-01T05:55:04.000Z</time></trkpt><trkpt lat="51.771102" lon="39.403918"><ele>148</ele><time>1970-01-01T05:55:05.000Z</time></trkpt><trkpt lat="51.771063" lon="39.403932"><ele>147.7</ele><time>1970-01-01T05:55:06.000Z</time></trkpt><trkpt lat="51.770986" lon="39.403942"><ele>147.2</ele><time>1970-01-01T05:55:08.000Z</time></trkpt><trkpt lat="51.77095" lon="39.403932"><ele>147</ele><time>1970-01-01T05:55:09.000Z</time></trkpt><trkpt lat="51.770906" lon="39.403926"><ele>146.9</ele><time>1970-01-01T05:55:10.000Z</time></trkpt><trkpt lat="51.770864" lon="39.403926"><ele>147</ele><time>1970-01-01T05:55:11.000Z</time></trkpt><trkpt lat="51.770827" lon="39.403924"><ele>147.1</ele><time>1970-01-01T05:55:12.000Z</time></trkpt><trkpt lat="51.770606" lon="39.403893"><ele>146.1</ele><time>1970-01-01T05:55:17.000Z</time></trkpt><trkpt lat="51.770551" lon="39.403889"><ele>146.1</ele><time>1970-01-01T05:55:18.000Z</time></trkpt><trkpt lat="51.770302" lon="39.403872"><ele>145.3</ele><time>1970-01-01T05:55:23.000Z</time></trkpt><trkpt lat="51.770254" lon="39.403879"><ele>145.3</ele><time>1970-01-01T05:55:24.000Z</time></trkpt><trkpt lat="51.770112" lon="39.403889"><ele>144.3</ele><time>1970-01-01T05:55:27.000Z</time></trkpt><trkpt lat="51.770018" lon="39.403867"><ele>143.6</ele><time>1970-01-01T05:55:29.000Z</time></trkpt><trkpt lat="51.769887" lon="39.403831"><ele>143.2</ele><time>1970-01-01T05:55:32.000Z</time></trkpt><trkpt lat="51.769839" lon="39.403827"><ele>142.8</ele><time>1970-01-01T05:55:33.000Z</time></trkpt><trkpt lat="51.76979" lon="39.403831"><ele>142.4</ele><time>1970-01-01T05:55:34.000Z</time></trkpt><trkpt lat="51.769357" lon="39.403806"><ele>141.7</ele><time>1970-01-01T05:55:43.000Z</time></trkpt><trkpt lat="51.769031" lon="39.403807"><ele>142.1</ele><time>1970-01-01T05:55:50.000Z</time></trkpt><trkpt lat="51.768984" lon="39.403819"><ele>142.5</ele><time>1970-01-01T05:55:51.000Z</time></trkpt><trkpt lat="51.768644" lon="39.403785"><ele>144.8</ele><time>1970-01-01T05:55:59.000Z</time></trkpt><trkpt lat="51.768103" lon="39.403774"><ele>147.9</ele><time>1970-01-01T05:56:11.000Z</time></trkpt><trkpt lat="51.767837" lon="39.403775"><ele>147.8</ele><time>1970-01-01T05:56:16.000Z</time></trkpt><trkpt lat="51.767797" lon="39.403779"><ele>147.8</ele><time>1970-01-01T05:56:17.000Z</time></trkpt><trkpt lat="51.767516" lon="39.403774"><ele>147</ele><time>1970-01-01T05:56:23.000Z</time></trkpt><trkpt lat="51.767469" lon="39.403762"><ele>146.8</ele><time>1970-01-01T05:56:24.000Z</time></trkpt><trkpt lat="51.767419" lon="39.403751"><ele>146.7</ele><time>1970-01-01T05:56:25.000Z</time></trkpt><trkpt lat="51.766707" lon="39.403721"><ele>148.8</ele><time>1970-01-01T05:56:40.000Z</time></trkpt><trkpt lat="51.766251" lon="39.403739"><ele>148.8</ele><time>1970-01-01T05:56:50.000Z</time></trkpt><trkpt lat="51.766205" lon="39.40374"><ele>148.9</ele><time>1970-01-01T05:56:51.000Z</time></trkpt><trkpt lat="51.766104" lon="39.403761"><ele>148.9</ele><time>1970-01-01T05:56:53.000Z</time></trkpt><trkpt lat="51.766051" lon="39.403771"><ele>148.8</ele><time>1970-01-01T05:56:54.000Z</time></trkpt><trkpt lat="51.765999" lon="39.403767"><ele>148.3</ele><time>1970-01-01T05:56:55.000Z</time></trkpt><trkpt lat="51.76595" lon="39.403757"><ele>147.9</ele><time>1970-01-01T05:56:56.000Z</time></trkpt><trkpt lat="51.765898" lon="39.403743"><ele>147.8</ele><time>1970-01-01T05:56:57.000Z</time></trkpt><trkpt lat="51.765682" lon="39.403704"><ele>147.1</ele><time>1970-01-01T05:57:01.000Z</time></trkpt><trkpt lat="51.765514" lon="39.403716"><ele>146.7</ele><time>1970-01-01T05:57:04.000Z</time></trkpt><trkpt lat="51.765361" lon="39.403694"><ele>145.9</ele><time>1970-01-01T05:57:07.000Z</time></trkpt><trkpt lat="51.765306" lon="39.403696"><ele>145.7</ele><time>1970-01-01T05:57:08.000Z</time></trkpt><trkpt lat="51.765087" lon="39.403699"><ele>144.6</ele><time>1970-01-01T05:57:12.000Z</time></trkpt><trkpt lat="51.765031" lon="39.403694"><ele>144.3</ele><time>1970-01-01T05:57:13.000Z</time></trkpt><trkpt lat="51.764206" lon="39.403673"><ele>142</ele><time>1970-01-01T05:57:27.000Z</time></trkpt><trkpt lat="51.763867" lon="39.403648"><ele>140.5</ele><time>1970-01-01T05:57:33.000Z</time></trkpt><trkpt lat="51.76375" lon="39.403642"><ele>139.9</ele><time>1970-01-01T05:57:35.000Z</time></trkpt><trkpt lat="51.763698" lon="39.403636"><ele>139.9</ele><time>1970-01-01T05:57:36.000Z</time></trkpt><trkpt lat="51.763532" lon="39.403618"><ele>139.9</ele><time>1970-01-01T05:57:39.000Z</time></trkpt><trkpt lat="51.763069" lon="39.403603"><ele>139.9</ele><time>1970-01-01T05:57:48.000Z</time></trkpt><trkpt lat="51.76241" lon="39.403608"><ele>142.9</ele><time>1970-01-01T05:58:00.000Z</time></trkpt><trkpt lat="51.761778" lon="39.403604"><ele>144</ele><time>1970-01-01T05:58:11.000Z</time></trkpt><trkpt lat="51.761724" lon="39.403603"><ele>144</ele><time>1970-01-01T05:58:12.000Z</time></trkpt><trkpt lat="51.761521" lon="39.403582"><ele>144</ele><time>1970-01-01T05:58:16.000Z</time></trkpt><trkpt lat="51.761474" lon="39.40358"><ele>144</ele><time>1970-01-01T05:58:17.000Z</time></trkpt><trkpt lat="51.761334" lon="39.403568"><ele>144</ele><time>1970-01-01T05:58:20.000Z</time></trkpt><trkpt lat="51.761296" lon="39.403575"><ele>144</ele><time>1970-01-01T05:58:21.000Z</time></trkpt><trkpt lat="51.761238" lon="39.403616"><ele>144</ele><time>1970-01-01T05:58:24.000Z</time></trkpt><trkpt lat="51.76121" lon="39.403696"><ele>144</ele><time>1970-01-01T05:58:28.000Z</time></trkpt><trkpt lat="51.761196" lon="39.403723"><ele>144</ele><time>1970-01-01T05:58:29.000Z</time></trkpt><trkpt lat="51.761182" lon="39.403745"><ele>144</ele><time>1970-01-01T05:58:30.000Z</time></trkpt><trkpt lat="51.761164" lon="39.403758"><ele>143.9</ele><time>1970-01-01T05:58:31.000Z</time></trkpt><trkpt lat="51.761147" lon="39.403758"><ele>143.9</ele><time>1970-01-01T05:58:32.000Z</time></trkpt><trkpt lat="51.761132" lon="39.403751"><ele>143.8</ele><time>1970-01-01T05:58:33.000Z</time></trkpt><trkpt lat="51.761087" lon="39.403717"><ele>143.6</ele><time>1970-01-01T05:58:36.000Z</time></trkpt><trkpt lat="51.761068" lon="39.403701"><ele>143.4</ele><time>1970-01-01T05:58:37.000Z</time></trkpt><trkpt lat="51.761046" lon="39.403677"><ele>143.3</ele><time>1970-01-01T05:58:38.000Z</time></trkpt><trkpt lat="51.760949" lon="39.403574"><ele>143.2</ele><time>1970-01-01T05:58:43.000Z</time></trkpt><trkpt lat="51.760476" lon="39.403576"><ele>143</ele><time>1970-01-01T05:58:54.000Z</time></trkpt><trkpt lat="51.760425" lon="39.403581"><ele>142.9</ele><time>1970-01-01T05:58:55.000Z</time></trkpt><trkpt lat="51.760376" lon="39.403583"><ele>142.5</ele><time>1970-01-01T05:58:56.000Z</time></trkpt><trkpt lat="51.759897" lon="39.403587"><ele>142.5</ele><time>1970-01-01T05:59:05.000Z</time></trkpt><trkpt lat="51.759841" lon="39.403578"><ele>142.9</ele><time>1970-01-01T05:59:06.000Z</time></trkpt><trkpt lat="51.759284" lon="39.403501"><ele>141.9</ele><time>1970-01-01T05:59:16.000Z</time></trkpt><trkpt lat="51.759223" lon="39.403493"><ele>141.4</ele><time>1970-01-01T05:59:17.000Z</time></trkpt><trkpt lat="51.759162" lon="39.403492"><ele>141.1</ele><time>1970-01-01T05:59:18.000Z</time></trkpt><trkpt lat="51.7591" lon="39.40349"><ele>141.1</ele><time>1970-01-01T05:59:19.000Z</time></trkpt><trkpt lat="51.758984" lon="39.403493"><ele>140.3</ele><time>1970-01-01T05:59:21.000Z</time></trkpt><trkpt lat="51.758804" lon="39.403522"><ele>140.1</ele><time>1970-01-01T05:59:24.000Z</time></trkpt><trkpt lat="51.758748" lon="39.403516"><ele>139.9</ele><time>1970-01-01T05:59:25.000Z</time></trkpt><trkpt lat="51.758579" lon="39.403491"><ele>139.1</ele><time>1970-01-01T05:59:28.000Z</time></trkpt><trkpt lat="51.758527" lon="39.40348"><ele>138.8</ele><time>1970-01-01T05:59:29.000Z</time></trkpt><trkpt lat="51.75848" lon="39.403468"><ele>138.5</ele><time>1970-01-01T05:59:30.000Z</time></trkpt><trkpt lat="51.758435" lon="39.403452"><ele>138.2</ele><time>1970-01-01T05:59:31.000Z</time></trkpt><trkpt lat="51.758388" lon="39.403435"><ele>138</ele><time>1970-01-01T05:59:32.000Z</time></trkpt><trkpt lat="51.758334" lon="39.403427"><ele>138</ele><time>1970-01-01T05:59:33.000Z</time></trkpt><trkpt lat="51.758276" lon="39.403422"><ele>138.1</ele><time>1970-01-01T05:59:34.000Z</time></trkpt><trkpt lat="51.758163" lon="39.403424"><ele>137.6</ele><time>1970-01-01T05:59:36.000Z</time></trkpt><trkpt lat="51.757954" lon="39.403448"><ele>137.5</ele><time>1970-01-01T05:59:40.000Z</time></trkpt><trkpt lat="51.757897" lon="39.403445"><ele>137.8</ele><time>1970-01-01T05:59:41.000Z</time></trkpt><trkpt lat="51.757643" lon="39.403407"><ele>138</ele><time>1970-01-01T05:59:46.000Z</time></trkpt><trkpt lat="51.757593" lon="39.403398"><ele>138</ele><time>1970-01-01T05:59:47.000Z</time></trkpt><trkpt lat="51.757537" lon="39.403401"><ele>138.1</ele><time>1970-01-01T05:59:48.000Z</time></trkpt><trkpt lat="51.757285" lon="39.403417"><ele>136.4</ele><time>1970-01-01T05:59:53.000Z</time></trkpt><trkpt lat="51.757044" lon="39.403471"><ele>135.1</ele><time>1970-01-01T05:59:58.000Z</time></trkpt><trkpt lat="51.756991" lon="39.40347"><ele>134.5</ele><time>1970-01-01T05:59:59.000Z</time></trkpt><trkpt lat="51.756551" lon="39.403428"><ele>134.2</ele><time>1970-01-01T06:00:08.000Z</time></trkpt><trkpt lat="51.756501" lon="39.403411"><ele>134.2</ele><time>1970-01-01T06:00:09.000Z</time></trkpt><trkpt lat="51.756447" lon="39.403395"><ele>134.2</ele><time>1970-01-01T06:00:10.000Z</time></trkpt><trkpt lat="51.756394" lon="39.403406"><ele>134.2</ele><time>1970-01-01T06:00:11.000Z</time></trkpt><trkpt lat="51.756348" lon="39.403432"><ele>134.2</ele><time>1970-01-01T06:00:12.000Z</time></trkpt><trkpt lat="51.756301" lon="39.403455"><ele>134.4</ele><time>1970-01-01T06:00:13.000Z</time></trkpt><trkpt lat="51.75625" lon="39.403473"><ele>134.5</ele><time>1970-01-01T06:00:14.000Z</time></trkpt><trkpt lat="51.756199" lon="39.403489"><ele>134.4</ele><time>1970-01-01T06:00:15.000Z</time></trkpt><trkpt lat="51.756149" lon="39.403502"><ele>134.3</ele><time>1970-01-01T06:00:16.000Z</time></trkpt><trkpt lat="51.756099" lon="39.403499"><ele>134.1</ele><time>1970-01-01T06:00:17.000Z</time></trkpt><trkpt lat="51.756049" lon="39.403489"><ele>134.1</ele><time>1970-01-01T06:00:18.000Z</time></trkpt><trkpt lat="51.755998" lon="39.403473"><ele>134.1</ele><time>1970-01-01T06:00:19.000Z</time></trkpt><trkpt lat="51.75571" lon="39.403391"><ele>132.2</ele><time>1970-01-01T06:00:24.000Z</time></trkpt><trkpt lat="51.755647" lon="39.403391"><ele>131.9</ele><time>1970-01-01T06:00:25.000Z</time></trkpt><trkpt lat="51.755241" lon="39.403424"><ele>130.2</ele><time>1970-01-01T06:00:32.000Z</time></trkpt><trkpt lat="51.755199" lon="39.403411"><ele>130.2</ele><time>1970-01-01T06:00:33.000Z</time></trkpt><trkpt lat="51.755155" lon="39.403398"><ele>130</ele><time>1970-01-01T06:00:34.000Z</time></trkpt><trkpt lat="51.754513" lon="39.403266"><ele>128.2</ele><time>1970-01-01T06:00:46.000Z</time></trkpt><trkpt lat="51.754409" lon="39.403221"><ele>127.7</ele><time>1970-01-01T06:00:48.000Z</time></trkpt><trkpt lat="51.754357" lon="39.403197"><ele>127.6</ele><time>1970-01-01T06:00:49.000Z</time></trkpt><trkpt lat="51.754309" lon="39.40317"><ele>127.2</ele><time>1970-01-01T06:00:50.000Z</time></trkpt><trkpt lat="51.754264" lon="39.403134"><ele>126.6</ele><time>1970-01-01T06:00:51.000Z</time></trkpt><trkpt lat="51.754223" lon="39.403088"><ele>125.7</ele><time>1970-01-01T06:00:52.000Z</time></trkpt><trkpt lat="51.754187" lon="39.403036"><ele>124.8</ele><time>1970-01-01T06:00:53.000Z</time></trkpt><trkpt lat="51.754114" lon="39.402927"><ele>124.8</ele><time>1970-01-01T06:00:55.000Z</time></trkpt><trkpt lat="51.754082" lon="39.402875"><ele>124.7</ele><time>1970-01-01T06:00:56.000Z</time></trkpt><trkpt lat="51.754058" lon="39.402819"><ele>124.7</ele><time>1970-01-01T06:00:57.000Z</time></trkpt><trkpt lat="51.754045" lon="39.402749"><ele>124.7</ele><time>1970-01-01T06:00:58.000Z</time></trkpt><trkpt lat="51.754044" lon="39.402673"><ele>124.7</ele><time>1970-01-01T06:00:59.000Z</time></trkpt><trkpt lat="51.754048" lon="39.402595"><ele>124.7</ele><time>1970-01-01T06:01:00.000Z</time></trkpt><trkpt lat="51.754044" lon="39.402519"><ele>124.7</ele><time>1970-01-01T06:01:01.000Z</time></trkpt><trkpt lat="51.754032" lon="39.402444"><ele>124.7</ele><time>1970-01-01T06:01:02.000Z</time></trkpt><trkpt lat="51.754013" lon="39.402367"><ele>124.7</ele><time>1970-01-01T06:01:03.000Z</time></trkpt><trkpt lat="51.753989" lon="39.40229"><ele>124.7</ele><time>1970-01-01T06:01:04.000Z</time></trkpt><trkpt lat="51.753968" lon="39.402216"><ele>124.7</ele><time>1970-01-01T06:01:05.000Z</time></trkpt><trkpt lat="51.753947" lon="39.402141"><ele>124.6</ele><time>1970-01-01T06:01:06.000Z</time></trkpt><trkpt lat="51.753726" lon="39.401416"><ele>124.6</ele><time>1970-01-01T06:01:15.000Z</time></trkpt><trkpt lat="51.753709" lon="39.401334"><ele>124.6</ele><time>1970-01-01T06:01:16.000Z</time></trkpt><trkpt lat="51.753695" lon="39.40125"><ele>124.7</ele><time>1970-01-01T06:01:17.000Z</time></trkpt><trkpt lat="51.753645" lon="39.400992"><ele>125.5</ele><time>1970-01-01T06:01:20.000Z</time></trkpt><trkpt lat="51.753621" lon="39.400912"><ele>125.7</ele><time>1970-01-01T06:01:21.000Z</time></trkpt><trkpt lat="51.753601" lon="39.400831"><ele>125.8</ele><time>1970-01-01T06:01:22.000Z</time></trkpt><trkpt lat="51.75358" lon="39.400752"><ele>125.9</ele><time>1970-01-01T06:01:23.000Z</time></trkpt><trkpt lat="51.753559" lon="39.400674"><ele>125.9</ele><time>1970-01-01T06:01:24.000Z</time></trkpt><trkpt lat="51.753543" lon="39.400598"><ele>125.8</ele><time>1970-01-01T06:01:25.000Z</time></trkpt><trkpt lat="51.753527" lon="39.400524"><ele>126</ele><time>1970-01-01T06:01:26.000Z</time></trkpt><trkpt lat="51.753459" lon="39.400313"><ele>126.6</ele><time>1970-01-01T06:01:29.000Z</time></trkpt><trkpt lat="51.753309" lon="39.399933"><ele>127.8</ele><time>1970-01-01T06:01:34.000Z</time></trkpt><trkpt lat="51.753293" lon="39.399852"><ele>127.4</ele><time>1970-01-01T06:01:35.000Z</time></trkpt><trkpt lat="51.753282" lon="39.399767"><ele>127.4</ele><time>1970-01-01T06:01:36.000Z</time></trkpt><trkpt lat="51.753276" lon="39.399685"><ele>127.4</ele><time>1970-01-01T06:01:37.000Z</time></trkpt><trkpt lat="51.753275" lon="39.399612"><ele>126.9</ele><time>1970-01-01T06:01:38.000Z</time></trkpt><trkpt lat="51.753276" lon="39.399532"><ele>126.8</ele><time>1970-01-01T06:01:39.000Z</time></trkpt><trkpt lat="51.753273" lon="39.399446"><ele>126.7</ele><time>1970-01-01T06:01:40.000Z</time></trkpt><trkpt lat="51.753258" lon="39.399355"><ele>127.2</ele><time>1970-01-01T06:01:41.000Z</time></trkpt><trkpt lat="51.753249" lon="39.399262"><ele>127.6</ele><time>1970-01-01T06:01:42.000Z</time></trkpt><trkpt lat="51.753243" lon="39.399181"><ele>127.6</ele><time>1970-01-01T06:01:43.000Z</time></trkpt><trkpt lat="51.753233" lon="39.399098"><ele>128.3</ele><time>1970-01-01T06:01:44.000Z</time></trkpt><trkpt lat="51.753219" lon="39.399018"><ele>128.8</ele><time>1970-01-01T06:01:45.000Z</time></trkpt><trkpt lat="51.753193" lon="39.398872"><ele>128.1</ele><time>1970-01-01T06:01:47.000Z</time></trkpt><trkpt lat="51.753187" lon="39.398808"><ele>127.8</ele><time>1970-01-01T06:01:48.000Z</time></trkpt><trkpt lat="51.753158" lon="39.398659"><ele>127.3</ele><time>1970-01-01T06:01:50.000Z</time></trkpt><trkpt lat="51.753134" lon="39.398578"><ele>127.1</ele><time>1970-01-01T06:01:51.000Z</time></trkpt><trkpt lat="51.753058" lon="39.398332"><ele>126.3</ele><time>1970-01-01T06:01:54.000Z</time></trkpt><trkpt lat="51.753035" lon="39.398249"><ele>126.1</ele><time>1970-01-01T06:01:55.000Z</time></trkpt><trkpt lat="51.753015" lon="39.398166"><ele>125.8</ele><time>1970-01-01T06:01:56.000Z</time></trkpt><trkpt lat="51.753002" lon="39.398084"><ele>125.6</ele><time>1970-01-01T06:01:57.000Z</time></trkpt><trkpt lat="51.752988" lon="39.398"><ele>125.6</ele><time>1970-01-01T06:01:58.000Z</time></trkpt><trkpt lat="51.752979" lon="39.39791"><ele>125.7</ele><time>1970-01-01T06:01:59.000Z</time></trkpt><trkpt lat="51.752977" lon="39.397812"><ele>125.9</ele><time>1970-01-01T06:02:00.000Z</time></trkpt><trkpt lat="51.752974" lon="39.397719"><ele>125.9</ele><time>1970-01-01T06:02:01.000Z</time></trkpt><trkpt lat="51.752971" lon="39.397632"><ele>125.8</ele><time>1970-01-01T06:02:02.000Z</time></trkpt><trkpt lat="51.752963" lon="39.397461"><ele>126.3</ele><time>1970-01-01T06:02:04.000Z</time></trkpt><trkpt lat="51.752956" lon="39.397372"><ele>126.8</ele><time>1970-01-01T06:02:05.000Z</time></trkpt><trkpt lat="51.752944" lon="39.397281"><ele>126.9</ele><time>1970-01-01T06:02:06.000Z</time></trkpt><trkpt lat="51.752903" lon="39.397093"><ele>127.6</ele><time>1970-01-01T06:02:08.000Z</time></trkpt><trkpt lat="51.752682" lon="39.396516"><ele>129.1</ele><time>1970-01-01T06:02:16.000Z</time></trkpt><trkpt lat="51.752582" lon="39.396268"><ele>130.5</ele><time>1970-01-01T06:02:20.000Z</time></trkpt><trkpt lat="51.752566" lon="39.396199"><ele>131</ele><time>1970-01-01T06:02:21.000Z</time></trkpt><trkpt lat="51.752557" lon="39.396136"><ele>131.4</ele><time>1970-01-01T06:02:22.000Z</time></trkpt><trkpt lat="51.752552" lon="39.396073"><ele>131.7</ele><time>1970-01-01T06:02:23.000Z</time></trkpt><trkpt lat="51.75255" lon="39.396013"><ele>131.9</ele><time>1970-01-01T06:02:24.000Z</time></trkpt><trkpt lat="51.752551" lon="39.395958"><ele>131.9</ele><time>1970-01-01T06:02:25.000Z</time></trkpt><trkpt lat="51.752556" lon="39.395903"><ele>132</ele><time>1970-01-01T06:02:26.000Z</time></trkpt><trkpt lat="51.752557" lon="39.395843"><ele>131.9</ele><time>1970-01-01T06:02:27.000Z</time></trkpt><trkpt lat="51.752553" lon="39.395775"><ele>131.9</ele><time>1970-01-01T06:02:28.000Z</time></trkpt><trkpt lat="51.752546" lon="39.395712"><ele>131.9</ele><time>1970-01-01T06:02:29.000Z</time></trkpt><trkpt lat="51.752541" lon="39.395661"><ele>131.9</ele><time>1970-01-01T06:02:30.000Z</time></trkpt><trkpt lat="51.752539" lon="39.395602"><ele>132</ele><time>1970-01-01T06:02:31.000Z</time></trkpt><trkpt lat="51.752535" lon="39.395534"><ele>132</ele><time>1970-01-01T06:02:32.000Z</time></trkpt><trkpt lat="51.752523" lon="39.395466"><ele>132</ele><time>1970-01-01T06:02:33.000Z</time></trkpt><trkpt lat="51.752505" lon="39.395394"><ele>132</ele><time>1970-01-01T06:02:34.000Z</time></trkpt><trkpt lat="51.752484" lon="39.395319"><ele>131.9</ele><time>1970-01-01T06:02:35.000Z</time></trkpt><trkpt lat="51.752456" lon="39.395245"><ele>131.8</ele><time>1970-01-01T06:02:36.000Z</time></trkpt><trkpt lat="51.752428" lon="39.395175"><ele>132</ele><time>1970-01-01T06:02:37.000Z</time></trkpt><trkpt lat="51.752399" lon="39.395111"><ele>132.3</ele><time>1970-01-01T06:02:38.000Z</time></trkpt><trkpt lat="51.752363" lon="39.395039"><ele>132.5</ele><time>1970-01-01T06:02:39.000Z</time></trkpt><trkpt lat="51.75233" lon="39.394965"><ele>132.1</ele><time>1970-01-01T06:02:40.000Z</time></trkpt><trkpt lat="51.752289" lon="39.394886"><ele>132</ele><time>1970-01-01T06:02:41.000Z</time></trkpt><trkpt lat="51.752252" lon="39.394805"><ele>132.3</ele><time>1970-01-01T06:02:42.000Z</time></trkpt><trkpt lat="51.752218" lon="39.394723"><ele>132.8</ele><time>1970-01-01T06:02:43.000Z</time></trkpt><trkpt lat="51.752161" lon="39.394559"><ele>132.9</ele><time>1970-01-01T06:02:45.000Z</time></trkpt><trkpt lat="51.752138" lon="39.394484"><ele>132.9</ele><time>1970-01-01T06:02:46.000Z</time></trkpt><trkpt lat="51.752049" lon="39.394249"><ele>133</ele><time>1970-01-01T06:02:49.000Z</time></trkpt><trkpt lat="51.751937" lon="39.393944"><ele>133.1</ele><time>1970-01-01T06:02:53.000Z</time></trkpt><trkpt lat="51.751917" lon="39.393868"><ele>133</ele><time>1970-01-01T06:02:54.000Z</time></trkpt><trkpt lat="51.751897" lon="39.393792"><ele>132.9</ele><time>1970-01-01T06:02:55.000Z</time></trkpt><trkpt lat="51.751757" lon="39.393327"><ele>133.7</ele><time>1970-01-01T06:03:01.000Z</time></trkpt><trkpt lat="51.751581" lon="39.392521"><ele>132</ele><time>1970-01-01T06:03:11.000Z</time></trkpt><trkpt lat="51.751553" lon="39.392446"><ele>131.8</ele><time>1970-01-01T06:03:12.000Z</time></trkpt><trkpt lat="51.751358" lon="39.391951"><ele>130.9</ele><time>1970-01-01T06:03:19.000Z</time></trkpt><trkpt lat="51.751345" lon="39.391868"><ele>130.3</ele><time>1970-01-01T06:03:20.000Z</time></trkpt><trkpt lat="51.751341" lon="39.391782"><ele>129.9</ele><time>1970-01-01T06:03:21.000Z</time></trkpt><trkpt lat="51.751337" lon="39.391615"><ele>129.9</ele><time>1970-01-01T06:03:23.000Z</time></trkpt><trkpt lat="51.75131" lon="39.391469"><ele>129.8</ele><time>1970-01-01T06:03:25.000Z</time></trkpt><trkpt lat="51.751282" lon="39.391399"><ele>130.1</ele><time>1970-01-01T06:03:26.000Z</time></trkpt><trkpt lat="51.751226" lon="39.391259"><ele>130.9</ele><time>1970-01-01T06:03:28.000Z</time></trkpt><trkpt lat="51.751162" lon="39.391048"><ele>130.9</ele><time>1970-01-01T06:03:31.000Z</time></trkpt><trkpt lat="51.751132" lon="39.390976"><ele>130.9</ele><time>1970-01-01T06:03:32.000Z</time></trkpt><trkpt lat="51.751097" lon="39.390908"><ele>130.9</ele><time>1970-01-01T06:03:33.000Z</time></trkpt><trkpt lat="51.751068" lon="39.390849"><ele>130.8</ele><time>1970-01-01T06:03:34.000Z</time></trkpt><trkpt lat="51.75104" lon="39.390793"><ele>130.8</ele><time>1970-01-01T06:03:35.000Z</time></trkpt><trkpt lat="51.750943" lon="39.390606"><ele>131</ele><time>1970-01-01T06:03:38.000Z</time></trkpt><trkpt lat="51.750911" lon="39.390545"><ele>130.9</ele><time>1970-01-01T06:03:39.000Z</time></trkpt><trkpt lat="51.750719" lon="39.39011"><ele>130.8</ele><time>1970-01-01T06:03:46.000Z</time></trkpt><trkpt lat="51.750689" lon="39.390053"><ele>130.4</ele><time>1970-01-01T06:03:47.000Z</time></trkpt><trkpt lat="51.750498" lon="39.389723"><ele>130.4</ele><time>1970-01-01T06:03:53.000Z</time></trkpt><trkpt lat="51.750116" lon="39.389212"><ele>127.5</ele><time>1970-01-01T06:04:02.000Z</time></trkpt><trkpt lat="51.750084" lon="39.389142"><ele>127.2</ele><time>1970-01-01T06:04:03.000Z</time></trkpt><trkpt lat="51.750056" lon="39.389069"><ele>126.8</ele><time>1970-01-01T06:04:04.000Z</time></trkpt><trkpt lat="51.750002" lon="39.388924"><ele>126.2</ele><time>1970-01-01T06:04:06.000Z</time></trkpt><trkpt lat="51.749636" lon="39.388237"><ele>124.5</ele><time>1970-01-01T06:04:16.000Z</time></trkpt><trkpt lat="51.749605" lon="39.388174"><ele>124.4</ele><time>1970-01-01T06:04:17.000Z</time></trkpt><trkpt lat="51.749583" lon="39.388106"><ele>124.4</ele><time>1970-01-01T06:04:18.000Z</time></trkpt><trkpt lat="51.749522" lon="39.387878"><ele>123.9</ele><time>1970-01-01T06:04:21.000Z</time></trkpt><trkpt lat="51.749491" lon="39.387738"><ele>123.6</ele><time>1970-01-01T06:04:23.000Z</time></trkpt><trkpt lat="51.749466" lon="39.387663"><ele>123.4</ele><time>1970-01-01T06:04:24.000Z</time></trkpt><trkpt lat="51.749388" lon="39.387442"><ele>122.9</ele><time>1970-01-01T06:04:27.000Z</time></trkpt><trkpt lat="51.749372" lon="39.387361"><ele>122.8</ele><time>1970-01-01T06:04:28.000Z</time></trkpt><trkpt lat="51.749354" lon="39.387274"><ele>122.9</ele><time>1970-01-01T06:04:29.000Z</time></trkpt><trkpt lat="51.749284" lon="39.386968"><ele>122.9</ele><time>1970-01-01T06:04:33.000Z</time></trkpt><trkpt lat="51.749261" lon="39.386891"><ele>122.9</ele><time>1970-01-01T06:04:34.000Z</time></trkpt><trkpt lat="51.749239" lon="39.386811"><ele>122.9</ele><time>1970-01-01T06:04:35.000Z</time></trkpt><trkpt lat="51.749219" lon="39.386735"><ele>122.6</ele><time>1970-01-01T06:04:36.000Z</time></trkpt><trkpt lat="51.749203" lon="39.386652"><ele>122.6</ele><time>1970-01-01T06:04:37.000Z</time></trkpt><trkpt lat="51.749192" lon="39.386561"><ele>122.5</ele><time>1970-01-01T06:04:38.000Z</time></trkpt><trkpt lat="51.749193" lon="39.386471"><ele>122</ele><time>1970-01-01T06:04:39.000Z</time></trkpt><trkpt lat="51.749192" lon="39.386377"><ele>121.9</ele><time>1970-01-01T06:04:40.000Z</time></trkpt><trkpt lat="51.749187" lon="39.386283"><ele>121.9</ele><time>1970-01-01T06:04:41.000Z</time></trkpt><trkpt lat="51.749176" lon="39.38619"><ele>122</ele><time>1970-01-01T06:04:42.000Z</time></trkpt><trkpt lat="51.749158" lon="39.38609"><ele>121.9</ele><time>1970-01-01T06:04:43.000Z</time></trkpt><trkpt lat="51.749089" lon="39.385693"><ele>123</ele><time>1970-01-01T06:04:47.000Z</time></trkpt><trkpt lat="51.748961" lon="39.385213"><ele>124.2</ele><time>1970-01-01T06:04:53.000Z</time></trkpt><trkpt lat="51.748714" lon="39.384639"><ele>124.1</ele><time>1970-01-01T06:05:02.000Z</time></trkpt><trkpt lat="51.748695" lon="39.384575"><ele>124</ele><time>1970-01-01T06:05:03.000Z</time></trkpt><trkpt lat="51.748658" lon="39.384446"><ele>123.9</ele><time>1970-01-01T06:05:05.000Z</time></trkpt><trkpt lat="51.748612" lon="39.384324"><ele>124.1</ele><time>1970-01-01T06:05:07.000Z</time></trkpt><trkpt lat="51.748584" lon="39.384265"><ele>124</ele><time>1970-01-01T06:05:08.000Z</time></trkpt><trkpt lat="51.748566" lon="39.384212"><ele>123.8</ele><time>1970-01-01T06:05:09.000Z</time></trkpt><trkpt lat="51.748513" lon="39.384039"><ele>123.1</ele><time>1970-01-01T06:05:14.000Z</time></trkpt><trkpt lat="51.748495" lon="39.384007"><ele>123</ele><time>1970-01-01T06:05:15.000Z</time></trkpt><trkpt lat="51.748477" lon="39.383966"><ele>122.9</ele><time>1970-01-01T06:05:16.000Z</time></trkpt><trkpt lat="51.748261" lon="39.383409"><ele>120.1</ele><time>1970-01-01T06:05:28.000Z</time></trkpt><trkpt lat="51.748081" lon="39.382991"><ele>119.9</ele><time>1970-01-01T06:05:40.000Z</time></trkpt><trkpt lat="51.74795" lon="39.382622"><ele>120.3</ele><time>1970-01-01T06:05:46.000Z</time></trkpt><trkpt lat="51.747933" lon="39.382545"><ele>120.4</ele><time>1970-01-01T06:05:47.000Z</time></trkpt><trkpt lat="51.747848" lon="39.382202"><ele>119.9</ele><time>1970-01-01T06:05:52.000Z</time></trkpt><trkpt lat="51.747827" lon="39.382141"><ele>119.8</ele><time>1970-01-01T06:05:53.000Z</time></trkpt><trkpt lat="51.747809" lon="39.382079"><ele>119.7</ele><time>1970-01-01T06:05:54.000Z</time></trkpt><trkpt lat="51.747789" lon="39.382014"><ele>119.6</ele><time>1970-01-01T06:05:55.000Z</time></trkpt><trkpt lat="51.747765" lon="39.381949"><ele>119.5</ele><time>1970-01-01T06:05:56.000Z</time></trkpt><trkpt lat="51.747387" lon="39.381118"><ele>117.2</ele><time>1970-01-01T06:06:12.000Z</time></trkpt><trkpt lat="51.747105" lon="39.380912"><ele>116.3</ele><time>1970-01-01T06:06:23.000Z</time></trkpt><trkpt lat="51.746655" lon="39.381274"><ele>116</ele><time>1970-01-01T06:06:38.000Z</time></trkpt><trkpt lat="51.746574" lon="39.38128"><ele>116.4</ele><time>1970-01-01T06:06:40.000Z</time></trkpt><trkpt lat="51.746531" lon="39.38127"><ele>116.7</ele><time>1970-01-01T06:06:41.000Z</time></trkpt><trkpt lat="51.74649" lon="39.381251"><ele>116.8</ele><time>1970-01-01T06:06:42.000Z</time></trkpt><trkpt lat="51.746454" lon="39.381216"><ele>117</ele><time>1970-01-01T06:06:43.000Z</time></trkpt><trkpt lat="51.746428" lon="39.381174"><ele>118.3</ele><time>1970-01-01T06:06:44.000Z</time></trkpt><trkpt lat="51.746411" lon="39.381137"><ele>118.3</ele><time>1970-01-01T06:06:45.000Z</time></trkpt><trkpt lat="51.746395" lon="39.381101"><ele>118.4</ele><time>1970-01-01T06:06:46.000Z</time></trkpt><trkpt lat="51.74638" lon="39.381064"><ele>118.4</ele><time>1970-01-01T06:06:47.000Z</time></trkpt><trkpt lat="51.746366" lon="39.381028"><ele>118.4</ele><time>1970-01-01T06:06:48.000Z</time></trkpt><trkpt lat="51.746324" lon="39.380927"><ele>118.4</ele><time>1970-01-01T06:06:54.000Z</time></trkpt><trkpt lat="51.746199" lon="39.380899"><ele>118.3</ele><time>1970-01-01T06:11:10.000Z</time></trkpt><trkpt lat="51.746184" lon="39.38088"><ele>118.2</ele><time>1970-01-01T06:11:11.000Z</time></trkpt><trkpt lat="51.746171" lon="39.380861"><ele>118.2</ele><time>1970-01-01T06:11:12.000Z</time></trkpt><trkpt lat="51.746155" lon="39.380843"><ele>118.2</ele><time>1970-01-01T06:11:13.000Z</time></trkpt><trkpt lat="51.745957" lon="39.380336"><ele>118.2</ele><time>1970-01-01T06:11:25.000Z</time></trkpt><trkpt lat="51.745755" lon="39.379706"><ele>119.2</ele><time>1970-01-01T06:11:35.000Z</time></trkpt><trkpt lat="51.745735" lon="39.379634"><ele>119.3</ele><time>1970-01-01T06:11:36.000Z</time></trkpt><trkpt lat="51.74538" lon="39.378552"><ele>118.5</ele><time>1970-01-01T06:11:50.000Z</time></trkpt><trkpt lat="51.745011" lon="39.37743"><ele>116.9</ele><time>1970-01-01T06:12:03.000Z</time></trkpt><trkpt lat="51.744501" lon="39.375969"><ele>114.5</ele><time>1970-01-01T06:12:19.000Z</time></trkpt><trkpt lat="51.744058" lon="39.37465"><ele>113.9</ele><time>1970-01-01T06:12:33.000Z</time></trkpt><trkpt lat="51.743657" lon="39.373435"><ele>116</ele><time>1970-01-01T06:12:46.000Z</time></trkpt><trkpt lat="51.743352" lon="39.372457"><ele>115.8</ele><time>1970-01-01T06:12:57.000Z</time></trkpt><trkpt lat="51.74291" lon="39.371179"><ele>112.8</ele><time>1970-01-01T06:13:11.000Z</time></trkpt><trkpt lat="51.742581" lon="39.370161"><ele>113.8</ele><time>1970-01-01T06:13:22.000Z</time></trkpt><trkpt lat="51.742178" lon="39.368911"><ele>112.1</ele><time>1970-01-01T06:13:37.000Z</time></trkpt><trkpt lat="51.742101" lon="39.368666"><ele>112.3</ele><time>1970-01-01T06:13:40.000Z</time></trkpt><trkpt lat="51.741758" lon="39.36742"><ele>111</ele><time>1970-01-01T06:13:55.000Z</time></trkpt><trkpt lat="51.741493" lon="39.36587"><ele>108.3</ele><time>1970-01-01T06:14:12.000Z</time></trkpt><trkpt lat="51.741116" lon="39.364232"><ele>108.3</ele><time>1970-01-01T06:14:30.000Z</time></trkpt><trkpt lat="51.740707" lon="39.362844"><ele>108.4</ele><time>1970-01-01T06:14:45.000Z</time></trkpt><trkpt lat="51.740357" lon="39.361578"><ele>108.4</ele><time>1970-01-01T06:14:58.000Z</time></trkpt><trkpt lat="51.740008" lon="39.360381"><ele>106</ele><time>1970-01-01T06:15:10.000Z</time></trkpt><trkpt lat="51.739505" lon="39.358578"><ele>103.5</ele><time>1970-01-01T06:15:28.000Z</time></trkpt><trkpt lat="51.739148" lon="39.357219"><ele>103.3</ele><time>1970-01-01T06:15:42.000Z</time></trkpt><trkpt lat="51.73863" lon="39.355377"><ele>102.5</ele><time>1970-01-01T06:16:01.000Z</time></trkpt><trkpt lat="51.738042" lon="39.353384"><ele>100.9</ele><time>1970-01-01T06:16:22.000Z</time></trkpt><trkpt lat="51.737476" lon="39.351574"><ele>101.2</ele><time>1970-01-01T06:16:42.000Z</time></trkpt><trkpt lat="51.736825" lon="39.350369"><ele>100</ele><time>1970-01-01T06:16:59.000Z</time></trkpt><trkpt lat="51.736768" lon="39.350336"><ele>100</ele><time>1970-01-01T06:17:00.000Z</time></trkpt><trkpt lat="51.73671" lon="39.350328"><ele>100</ele><time>1970-01-01T06:17:01.000Z</time></trkpt><trkpt lat="51.736651" lon="39.350344"><ele>99.9</ele><time>1970-01-01T06:17:02.000Z</time></trkpt><trkpt lat="51.736593" lon="39.350378"><ele>99.9</ele><time>1970-01-01T06:17:03.000Z</time></trkpt><trkpt lat="51.736537" lon="39.350425"><ele>100.5</ele><time>1970-01-01T06:17:04.000Z</time></trkpt><trkpt lat="51.736481" lon="39.350477"><ele>100.5</ele><time>1970-01-01T06:17:05.000Z</time></trkpt><trkpt lat="51.735609" lon="39.351172"><ele>102.9</ele><time>1970-01-01T06:17:21.000Z</time></trkpt><trkpt lat="51.735548" lon="39.351165"><ele>102.9</ele><time>1970-01-01T06:17:22.000Z</time></trkpt><trkpt lat="51.735493" lon="39.351134"><ele>103</ele><time>1970-01-01T06:17:23.000Z</time></trkpt><trkpt lat="51.735442" lon="39.351087"><ele>103</ele><time>1970-01-01T06:17:24.000Z</time></trkpt><trkpt lat="51.735393" lon="39.351034"><ele>103</ele><time>1970-01-01T06:17:25.000Z</time></trkpt><trkpt lat="51.735346" lon="39.350976"><ele>103</ele><time>1970-01-01T06:17:26.000Z</time></trkpt><trkpt lat="51.735302" lon="39.350915"><ele>103</ele><time>1970-01-01T06:17:27.000Z</time></trkpt><trkpt lat="51.735264" lon="39.350842"><ele>103</ele><time>1970-01-01T06:17:28.000Z</time></trkpt><trkpt lat="51.735075" lon="39.350462"><ele>101.9</ele><time>1970-01-01T06:17:33.000Z</time></trkpt><trkpt lat="51.73503" lon="39.350398"><ele>102</ele><time>1970-01-01T06:17:34.000Z</time></trkpt><trkpt lat="51.73498" lon="39.350343"><ele>102</ele><time>1970-01-01T06:17:35.000Z</time></trkpt><trkpt lat="51.734927" lon="39.350301"><ele>102</ele><time>1970-01-01T06:17:36.000Z</time></trkpt><trkpt lat="51.73487" lon="39.350275"><ele>102.1</ele><time>1970-01-01T06:17:37.000Z</time></trkpt><trkpt lat="51.734811" lon="39.35026"><ele>102.3</ele><time>1970-01-01T06:17:38.000Z</time></trkpt><trkpt lat="51.734754" lon="39.350251"><ele>102.6</ele><time>1970-01-01T06:17:39.000Z</time></trkpt><trkpt lat="51.733824" lon="39.350175"><ele>101.9</ele><time>1970-01-01T06:17:55.000Z</time></trkpt><trkpt lat="51.732755" lon="39.350123"><ele>103.6</ele><time>1970-01-01T06:18:13.000Z</time></trkpt><trkpt lat="51.731375" lon="39.350033"><ele>105.2</ele><time>1970-01-01T06:18:36.000Z</time></trkpt><trkpt lat="51.73116" lon="39.349943"><ele>105.4</ele><time>1970-01-01T06:18:40.000Z</time></trkpt><trkpt lat="51.730363" lon="39.349205"><ele>105.9</ele><time>1970-01-01T06:18:57.000Z</time></trkpt><trkpt lat="51.729913" lon="39.348344"><ele>106.4</ele><time>1970-01-01T06:19:09.000Z</time></trkpt><trkpt lat="51.729857" lon="39.348184"><ele>106.4</ele><time>1970-01-01T06:19:11.000Z</time></trkpt><trkpt lat="51.729817" lon="39.348008"><ele>106.5</ele><time>1970-01-01T06:19:13.000Z</time></trkpt><trkpt lat="51.729809" lon="39.347915"><ele>106.6</ele><time>1970-01-01T06:19:14.000Z</time></trkpt><trkpt lat="51.729786" lon="39.347353"><ele>106.8</ele><time>1970-01-01T06:19:20.000Z</time></trkpt><trkpt lat="51.729747" lon="39.346912"><ele>106.9</ele><time>1970-01-01T06:19:25.000Z</time></trkpt><trkpt lat="51.729749" lon="39.346822"><ele>107</ele><time>1970-01-01T06:19:26.000Z</time></trkpt><trkpt lat="51.72975" lon="39.346732"><ele>107</ele><time>1970-01-01T06:19:27.000Z</time></trkpt><trkpt lat="51.729728" lon="39.346097"><ele>107.3</ele><time>1970-01-01T06:19:34.000Z</time></trkpt><trkpt lat="51.729719" lon="39.345999"><ele>107.3</ele><time>1970-01-01T06:19:35.000Z</time></trkpt><trkpt lat="51.72969" lon="39.34572"><ele>107.4</ele><time>1970-01-01T06:19:38.000Z</time></trkpt><trkpt lat="51.729681" lon="39.345632"><ele>107.4</ele><time>1970-01-01T06:19:39.000Z</time></trkpt><trkpt lat="51.729616" lon="39.34504"><ele>107.7</ele><time>1970-01-01T06:19:45.000Z</time></trkpt><trkpt lat="51.729569" lon="39.344582"><ele>107.8</ele><time>1970-01-01T06:19:50.000Z</time></trkpt><trkpt lat="51.729562" lon="39.344494"><ele>107.9</ele><time>1970-01-01T06:19:51.000Z</time></trkpt><trkpt lat="51.729557" lon="39.344408"><ele>107.9</ele><time>1970-01-01T06:19:52.000Z</time></trkpt><trkpt lat="51.729547" lon="39.344313"><ele>107.9</ele><time>1970-01-01T06:19:53.000Z</time></trkpt><trkpt lat="51.72954" lon="39.34422"><ele>108</ele><time>1970-01-01T06:19:54.000Z</time></trkpt><trkpt lat="51.729531" lon="39.344129"><ele>108</ele><time>1970-01-01T06:19:55.000Z</time></trkpt><trkpt lat="51.729521" lon="39.344035"><ele>108</ele><time>1970-01-01T06:19:56.000Z</time></trkpt><trkpt lat="51.72951" lon="39.343942"><ele>108.1</ele><time>1970-01-01T06:19:57.000Z</time></trkpt><trkpt lat="51.729448" lon="39.343253"><ele>107.6</ele><time>1970-01-01T06:20:04.000Z</time></trkpt><trkpt lat="51.729441" lon="39.343149"><ele>107.4</ele><time>1970-01-01T06:20:05.000Z</time></trkpt><trkpt lat="51.729347" lon="39.341853"><ele>107</ele><time>1970-01-01T06:20:18.000Z</time></trkpt><trkpt lat="51.729341" lon="39.341755"><ele>107</ele><time>1970-01-01T06:20:19.000Z</time></trkpt><trkpt lat="51.729298" lon="39.340579"><ele>106.8</ele><time>1970-01-01T06:20:31.000Z</time></trkpt><trkpt lat="51.729161" lon="39.338734"><ele>106.6</ele><time>1970-01-01T06:20:49.000Z</time></trkpt><trkpt lat="51.729136" lon="39.337772"><ele>106.5</ele><time>1970-01-01T06:20:59.000Z</time></trkpt><trkpt lat="51.729159" lon="39.337592"><ele>106.5</ele><time>1970-01-01T06:21:01.000Z</time></trkpt><trkpt lat="51.72918" lon="39.337503"><ele>106.4</ele><time>1970-01-01T06:21:02.000Z</time></trkpt><trkpt lat="51.729229" lon="39.337321"><ele>106.4</ele><time>1970-01-01T06:21:04.000Z</time></trkpt><trkpt lat="51.729753" lon="39.335819"><ele>106.9</ele><time>1970-01-01T06:21:21.000Z</time></trkpt><trkpt lat="51.729838" lon="39.335429"><ele>107.7</ele><time>1970-01-01T06:21:25.000Z</time></trkpt><trkpt lat="51.729879" lon="39.334223"><ele>109.1</ele><time>1970-01-01T06:21:38.000Z</time></trkpt><trkpt lat="51.729855" lon="39.333857"><ele>108.3</ele><time>1970-01-01T06:21:42.000Z</time></trkpt><trkpt lat="51.729853" lon="39.333765"><ele>108</ele><time>1970-01-01T06:21:43.000Z</time></trkpt><trkpt lat="51.729817" lon="39.332222"><ele>103.4</ele><time>1970-01-01T06:21:59.000Z</time></trkpt><trkpt lat="51.729831" lon="39.332125"><ele>103.6</ele><time>1970-01-01T06:22:00.000Z</time></trkpt><trkpt lat="51.73027" lon="39.330327"><ele>105.1</ele><time>1970-01-01T06:22:20.000Z</time></trkpt><trkpt lat="51.730476" lon="39.329858"><ele>105.5</ele><time>1970-01-01T06:22:26.000Z</time></trkpt><trkpt lat="51.731216" lon="39.328714"><ele>102.7</ele><time>1970-01-01T06:22:44.000Z</time></trkpt><trkpt lat="51.731394" lon="39.328165"><ele>101.9</ele><time>1970-01-01T06:22:51.000Z</time></trkpt><trkpt lat="51.731555" lon="39.326541"><ele>99.8</ele><time>1970-01-01T06:23:09.000Z</time></trkpt><trkpt lat="51.731692" lon="39.324862"><ele>99.6</ele><time>1970-01-01T06:23:27.000Z</time></trkpt><trkpt lat="51.731747" lon="39.324137"><ele>99.8</ele><time>1970-01-01T06:23:35.000Z</time></trkpt><trkpt lat="51.731863" lon="39.322662"><ele>101.3</ele><time>1970-01-01T06:23:51.000Z</time></trkpt><trkpt lat="51.731957" lon="39.321091"><ele>101.9</ele><time>1970-01-01T06:24:08.000Z</time></trkpt><trkpt lat="51.731949" lon="39.320999"><ele>102.3</ele><time>1970-01-01T06:24:09.000Z</time></trkpt><trkpt lat="51.731937" lon="39.320911"><ele>102.5</ele><time>1970-01-01T06:24:10.000Z</time></trkpt><trkpt lat="51.731922" lon="39.320822"><ele>102.7</ele><time>1970-01-01T06:24:11.000Z</time></trkpt><trkpt lat="51.731904" lon="39.320734"><ele>103</ele><time>1970-01-01T06:24:12.000Z</time></trkpt><trkpt lat="51.731863" lon="39.320554"><ele>103.5</ele><time>1970-01-01T06:24:14.000Z</time></trkpt><trkpt lat="51.731834" lon="39.320468"><ele>103.8</ele><time>1970-01-01T06:24:15.000Z</time></trkpt><trkpt lat="51.731801" lon="39.320386"><ele>104</ele><time>1970-01-01T06:24:16.000Z</time></trkpt><trkpt lat="51.731129" lon="39.319471"><ele>107.8</ele><time>1970-01-01T06:24:31.000Z</time></trkpt><trkpt lat="51.730268" lon="39.319185"><ele>108.5</ele><time>1970-01-01T06:24:46.000Z</time></trkpt><trkpt lat="51.72886" lon="39.318884"><ele>110.1</ele><time>1970-01-01T06:25:09.000Z</time></trkpt><trkpt lat="51.727436" lon="39.31859"><ele>110.1</ele><time>1970-01-01T06:25:33.000Z</time></trkpt><trkpt lat="51.726012" lon="39.318284"><ele>110.2</ele><time>1970-01-01T06:25:58.000Z</time></trkpt><trkpt lat="51.725107" lon="39.318384"><ele>110.8</ele><time>1970-01-01T06:26:13.000Z</time></trkpt><trkpt lat="51.723745" lon="39.319075"><ele>111.7</ele><time>1970-01-01T06:26:35.000Z</time></trkpt><trkpt lat="51.722823" lon="39.319586"><ele>112.5</ele><time>1970-01-01T06:26:50.000Z</time></trkpt><trkpt lat="51.721916" lon="39.320149"><ele>110.4</ele><time>1970-01-01T06:27:05.000Z</time></trkpt><trkpt lat="51.720776" lon="39.320924"><ele>108.5</ele><time>1970-01-01T06:27:24.000Z</time></trkpt><trkpt lat="51.719957" lon="39.321433"><ele>107.8</ele><time>1970-01-01T06:27:38.000Z</time></trkpt><trkpt lat="51.718802" lon="39.322212"><ele>109</ele><time>1970-01-01T06:27:58.000Z</time></trkpt><trkpt lat="51.717662" lon="39.322956"><ele>111.1</ele><time>1970-01-01T06:28:18.000Z</time></trkpt><trkpt lat="51.716711" lon="39.323592"><ele>112.8</ele><time>1970-01-01T06:28:36.000Z</time></trkpt><trkpt lat="51.715485" lon="39.32449"><ele>114.8</ele><time>1970-01-01T06:28:59.000Z</time></trkpt><trkpt lat="51.715171" lon="39.324718"><ele>114.9</ele><time>1970-01-01T06:29:05.000Z</time></trkpt><trkpt lat="51.715118" lon="39.324758"><ele>115</ele><time>1970-01-01T06:29:06.000Z</time></trkpt><trkpt lat="51.715067" lon="39.324796"><ele>115.1</ele><time>1970-01-01T06:29:07.000Z</time></trkpt><trkpt lat="51.715014" lon="39.324836"><ele>115.2</ele><time>1970-01-01T06:29:08.000Z</time></trkpt><trkpt lat="51.714961" lon="39.324877"><ele>115.3</ele><time>1970-01-01T06:29:09.000Z</time></trkpt><trkpt lat="51.713852" lon="39.325739"><ele>116.9</ele><time>1970-01-01T06:29:30.000Z</time></trkpt><trkpt lat="51.713015" lon="39.326365"><ele>117.8</ele><time>1970-01-01T06:29:46.000Z</time></trkpt><trkpt lat="51.71237" lon="39.326802"><ele>117.6</ele><time>1970-01-01T06:29:58.000Z</time></trkpt><trkpt lat="51.712312" lon="39.326809"><ele>117.6</ele><time>1970-01-01T06:29:59.000Z</time></trkpt><trkpt lat="51.712253" lon="39.326811"><ele>117.6</ele><time>1970-01-01T06:30:00.000Z</time></trkpt><trkpt lat="51.711269" lon="39.326593"><ele>117.3</ele><time>1970-01-01T06:30:17.000Z</time></trkpt><trkpt lat="51.709898" lon="39.326211"><ele>116.8</ele><time>1970-01-01T06:30:40.000Z</time></trkpt><trkpt lat="51.708432" lon="39.325784"><ele>115</ele><time>1970-01-01T06:31:03.000Z</time></trkpt><trkpt lat="51.707318" lon="39.325466"><ele>114.4</ele><time>1970-01-01T06:31:21.000Z</time></trkpt><trkpt lat="51.706331" lon="39.325208"><ele>115</ele><time>1970-01-01T06:31:37.000Z</time></trkpt><trkpt lat="51.70523" lon="39.324882"><ele>115.7</ele><time>1970-01-01T06:31:54.000Z</time></trkpt><trkpt lat="51.704177" lon="39.324568"><ele>116.5</ele><time>1970-01-01T06:32:11.000Z</time></trkpt><trkpt lat="51.70323" lon="39.324305"><ele>116.8</ele><time>1970-01-01T06:32:27.000Z</time></trkpt><trkpt lat="51.702386" lon="39.324083"><ele>115.3</ele><time>1970-01-01T06:32:42.000Z</time></trkpt><trkpt lat="51.701176" lon="39.323821"><ele>113</ele><time>1970-01-01T06:33:03.000Z</time></trkpt><trkpt lat="51.700231" lon="39.323145"><ele>112.4</ele><time>1970-01-01T06:33:20.000Z</time></trkpt><trkpt lat="51.699614" lon="39.322129"><ele>113.2</ele><time>1970-01-01T06:33:36.000Z</time></trkpt><trkpt lat="51.699198" lon="39.321123"><ele>116.3</ele><time>1970-01-01T06:33:51.000Z</time></trkpt><trkpt lat="51.69861" lon="39.319626"><ele>116.2</ele><time>1970-01-01T06:34:12.000Z</time></trkpt><trkpt lat="51.697869" lon="39.317691"><ele>116.1</ele><time>1970-01-01T06:34:37.000Z</time></trkpt><trkpt lat="51.697135" lon="39.315819"><ele>116</ele><time>1970-01-01T06:35:01.000Z</time></trkpt><trkpt lat="51.696468" lon="39.3141"><ele>115.9</ele><time>1970-01-01T06:35:22.000Z</time></trkpt><trkpt lat="51.695653" lon="39.312055"><ele>118.3</ele><time>1970-01-01T06:35:47.000Z</time></trkpt><trkpt lat="51.694793" lon="39.309848"><ele>120.9</ele><time>1970-01-01T06:36:14.000Z</time></trkpt><trkpt lat="51.694021" lon="39.307894"><ele>121.3</ele><time>1970-01-01T06:36:38.000Z</time></trkpt><trkpt lat="51.693238" lon="39.30598"><ele>119.5</ele><time>1970-01-01T06:37:02.000Z</time></trkpt><trkpt lat="51.692325" lon="39.303744"><ele>113.1</ele><time>1970-01-01T06:37:30.000Z</time></trkpt><trkpt lat="51.691562" lon="39.301782"><ele>115.5</ele><time>1970-01-01T06:37:54.000Z</time></trkpt><trkpt lat="51.690737" lon="39.299485"><ele>118.6</ele><time>1970-01-01T06:38:17.000Z</time></trkpt><trkpt lat="51.6905" lon="39.298861"><ele>118.3</ele><time>1970-01-01T06:38:24.000Z</time></trkpt><trkpt lat="51.690419" lon="39.298563"><ele>118.1</ele><time>1970-01-01T06:38:27.000Z</time></trkpt><trkpt lat="51.689646" lon="39.296597"><ele>116.8</ele><time>1970-01-01T06:38:48.000Z</time></trkpt><trkpt lat="51.688662" lon="39.29415"><ele>117.1</ele><time>1970-01-01T06:39:15.000Z</time></trkpt><trkpt lat="51.687668" lon="39.29162"><ele>115.5</ele><time>1970-01-01T06:39:43.000Z</time></trkpt><trkpt lat="51.686745" lon="39.289265"><ele>113.3</ele><time>1970-01-01T06:40:10.000Z</time></trkpt><trkpt lat="51.685854" lon="39.286997"><ele>113.9</ele><time>1970-01-01T06:40:36.000Z</time></trkpt><trkpt lat="51.685082" lon="39.284997"><ele>114.7</ele><time>1970-01-01T06:40:59.000Z</time></trkpt><trkpt lat="51.684136" lon="39.282592"><ele>117.6</ele><time>1970-01-01T06:41:26.000Z</time></trkpt><trkpt lat="51.683478" lon="39.280861"><ele>117.1</ele><time>1970-01-01T06:41:46.000Z</time></trkpt><trkpt lat="51.682847" lon="39.27931"><ele>116</ele><time>1970-01-01T06:42:04.000Z</time></trkpt><trkpt lat="51.682593" lon="39.278701"><ele>114.1</ele><time>1970-01-01T06:42:15.000Z</time></trkpt><trkpt lat="51.682576" lon="39.278674"><ele>114.1</ele><time>1970-01-01T06:42:19.000Z</time></trkpt><trkpt lat="51.682508" lon="39.27853"><ele>112.6</ele><time>1970-01-01T06:42:24.000Z</time></trkpt><trkpt lat="51.682179" lon="39.277808"><ele>111.1</ele><time>1970-01-01T06:42:34.000Z</time></trkpt><trkpt lat="51.68153" lon="39.276519"><ele>111.9</ele><time>1970-01-01T06:42:50.000Z</time></trkpt><trkpt lat="51.680682" lon="39.274831"><ele>113.8</ele><time>1970-01-01T06:43:12.000Z</time></trkpt><trkpt lat="51.680281" lon="39.27411"><ele>112.7</ele><time>1970-01-01T06:43:23.000Z</time></trkpt><trkpt lat="51.680269" lon="39.274039"><ele>112.6</ele><time>1970-01-01T06:43:24.000Z</time></trkpt><trkpt lat="51.680262" lon="39.273971"><ele>112.6</ele><time>1970-01-01T06:43:25.000Z</time></trkpt><trkpt lat="51.680253" lon="39.27391"><ele>112.5</ele><time>1970-01-01T06:43:26.000Z</time></trkpt><trkpt lat="51.680238" lon="39.273854"><ele>112.3</ele><time>1970-01-01T06:43:27.000Z</time></trkpt><trkpt lat="51.680218" lon="39.2738"><ele>111.8</ele><time>1970-01-01T06:43:28.000Z</time></trkpt><trkpt lat="51.680198" lon="39.273746"><ele>111.7</ele><time>1970-01-01T06:43:29.000Z</time></trkpt><trkpt lat="51.680183" lon="39.273689"><ele>111.5</ele><time>1970-01-01T06:43:30.000Z</time></trkpt><trkpt lat="51.680174" lon="39.273568"><ele>111.4</ele><time>1970-01-01T06:43:32.000Z</time></trkpt><trkpt lat="51.680285" lon="39.27302"><ele>108.8</ele><time>1970-01-01T06:43:45.000Z</time></trkpt><trkpt lat="51.680258" lon="39.272923"><ele>108.5</ele><time>1970-01-01T06:43:50.000Z</time></trkpt><trkpt lat="51.680146" lon="39.27283"><ele>107.8</ele><time>1970-01-01T06:44:01.000Z</time></trkpt><trkpt lat="51.680146" lon="39.272824"><ele>107.8</ele><time>1970-01-01T06:44:02.000Z</time></trkpt><trkpt lat="51.68004" lon="39.272576"><ele>107</ele><time>1970-01-01T06:44:41.000Z</time></trkpt><trkpt lat="51.680046" lon="39.27248"><ele>107</ele><time>1970-01-01T06:44:46.000Z</time></trkpt><trkpt lat="51.680051" lon="39.272371"><ele>107.1</ele><time>1970-01-01T06:44:54.000Z</time></trkpt><trkpt lat="51.679945" lon="39.272211"><ele>107.4</ele><time>1970-01-01T06:45:17.000Z</time></trkpt><trkpt lat="51.679919" lon="39.272202"><ele>107.4</ele><time>1970-01-01T06:45:18.000Z</time></trkpt><trkpt lat="51.679887" lon="39.272193"><ele>107.4</ele><time>1970-01-01T06:45:19.000Z</time></trkpt><trkpt lat="51.679667" lon="39.272073"><ele>108</ele><time>1970-01-01T06:45:26.000Z</time></trkpt><trkpt lat="51.679658" lon="39.272027"><ele>108.3</ele><time>1970-01-01T06:45:27.000Z</time></trkpt><trkpt lat="51.679585" lon="39.271409"><ele>110.4</ele><time>1970-01-01T06:45:39.000Z</time></trkpt><trkpt lat="51.679619" lon="39.270691"><ele>110.9</ele><time>1970-01-01T06:45:53.000Z</time></trkpt><trkpt lat="51.679653" lon="39.270127"><ele>112.9</ele><time>1970-01-01T06:46:05.000Z</time></trkpt><trkpt lat="51.679665" lon="39.270092"><ele>112.9</ele><time>1970-01-01T06:46:06.000Z</time></trkpt><trkpt lat="51.679695" lon="39.270035"><ele>112.9</ele><time>1970-01-01T06:46:08.000Z</time></trkpt><trkpt lat="51.679703" lon="39.270015"><ele>112.9</ele><time>1970-01-01T06:46:09.000Z</time></trkpt><trkpt lat="51.67972" lon="39.270001"><ele>113</ele><time>1970-01-01T06:46:12.000Z</time></trkpt><trkpt lat="51.679735" lon="39.269996"><ele>113</ele><time>1970-01-01T06:46:13.000Z</time></trkpt><trkpt lat="51.679754" lon="39.270001"><ele>113.1</ele><time>1970-01-01T06:46:14.000Z</time></trkpt><trkpt lat="51.679776" lon="39.270005"><ele>113.2</ele><time>1970-01-01T06:46:15.000Z</time></trkpt><trkpt lat="51.679805" lon="39.269988"><ele>113.2</ele><time>1970-01-01T06:46:16.000Z</time></trkpt><trkpt lat="51.679832" lon="39.269964"><ele>113.3</ele><time>1970-01-01T06:46:17.000Z</time></trkpt><trkpt lat="51.679854" lon="39.269931"><ele>113.3</ele><time>1970-01-01T06:46:18.000Z</time></trkpt><trkpt lat="51.679877" lon="39.269892"><ele>113.6</ele><time>1970-01-01T06:46:19.000Z</time></trkpt><trkpt lat="51.679903" lon="39.269857"><ele>113.8</ele><time>1970-01-01T06:46:20.000Z</time></trkpt><trkpt lat="51.67993" lon="39.269839"><ele>113.9</ele><time>1970-01-01T06:46:21.000Z</time></trkpt><trkpt lat="51.679961" lon="39.269825"><ele>113.9</ele><time>1970-01-01T06:46:22.000Z</time></trkpt><trkpt lat="51.679995" lon="39.269813"><ele>114.3</ele><time>1970-01-01T06:46:23.000Z</time></trkpt><trkpt lat="51.680336" lon="39.269765"><ele>114</ele><time>1970-01-01T06:46:33.000Z</time></trkpt><trkpt lat="51.680435" lon="39.269775"><ele>114</ele><time>1970-01-01T06:46:36.000Z</time></trkpt><trkpt lat="51.680525" lon="39.269641"><ele>114.4</ele><time>1970-01-01T06:46:41.000Z</time></trkpt><trkpt lat="51.680819" lon="39.269313"><ele>115.3</ele><time>1970-01-01T06:46:51.000Z</time></trkpt><trkpt lat="51.680861" lon="39.269154"><ele>115.2</ele><time>1970-01-01T06:46:55.000Z</time></trkpt><trkpt lat="51.680924" lon="39.268895"><ele>115.9</ele><time>1970-01-01T06:47:02.000Z</time></trkpt><trkpt lat="51.680949" lon="39.268891"><ele>115.9</ele><time>1970-01-01T06:47:03.000Z</time></trkpt><trkpt lat="51.680969" lon="39.268895"><ele>116</ele><time>1970-01-01T06:47:04.000Z</time></trkpt><trkpt lat="51.681352" lon="39.268862"><ele>116</ele><time>1970-01-01T06:47:16.000Z</time></trkpt><trkpt lat="51.681726" lon="39.268917"><ele>114.6</ele><time>1970-01-01T06:47:27.000Z</time></trkpt><trkpt lat="51.68197" lon="39.268938"><ele>113.8</ele><time>1970-01-01T06:47:34.000Z</time></trkpt><trkpt lat="51.682001" lon="39.268923"><ele>113.7</ele><time>1970-01-01T06:47:35.000Z</time></trkpt><trkpt lat="51.682032" lon="39.268893"><ele>113.4</ele><time>1970-01-01T06:47:36.000Z</time></trkpt><trkpt lat="51.682127" lon="39.268719"><ele>113.3</ele><time>1970-01-01T06:47:40.000Z</time></trkpt><trkpt lat="51.682318" lon="39.268017"><ele>113.3</ele><time>1970-01-01T06:47:54.000Z</time></trkpt><trkpt lat="51.682391" lon="39.267479"><ele>112.9</ele><time>1970-01-01T06:48:06.000Z</time></trkpt><trkpt lat="51.68247" lon="39.267186"><ele>112</ele><time>1970-01-01T06:48:12.000Z</time></trkpt><trkpt lat="51.682482" lon="39.267144"><ele>111.9</ele><time>1970-01-01T06:48:13.000Z</time></trkpt><trkpt lat="51.682496" lon="39.267103"><ele>111.7</ele><time>1970-01-01T06:48:14.000Z</time></trkpt><trkpt lat="51.682514" lon="39.267063"><ele>111.6</ele><time>1970-01-01T06:48:15.000Z</time></trkpt><trkpt lat="51.682531" lon="39.267027"><ele>111.4</ele><time>1970-01-01T06:48:16.000Z</time></trkpt><trkpt lat="51.682548" lon="39.266993"><ele>111.3</ele><time>1970-01-01T06:48:17.000Z</time></trkpt><trkpt lat="51.682568" lon="39.26696"><ele>111.1</ele><time>1970-01-01T06:48:18.000Z</time></trkpt><trkpt lat="51.682579" lon="39.266925"><ele>111.2</ele><time>1970-01-01T06:48:19.000Z</time></trkpt><trkpt lat="51.682591" lon="39.266886"><ele>111.3</ele><time>1970-01-01T06:48:20.000Z</time></trkpt><trkpt lat="51.6826" lon="39.266846"><ele>111.4</ele><time>1970-01-01T06:48:21.000Z</time></trkpt><trkpt lat="51.682606" lon="39.266797"><ele>111.5</ele><time>1970-01-01T06:48:22.000Z</time></trkpt><trkpt lat="51.68261" lon="39.266753"><ele>111.6</ele><time>1970-01-01T06:48:23.000Z</time></trkpt><trkpt lat="51.682617" lon="39.266445"><ele>112</ele><time>1970-01-01T06:48:32.000Z</time></trkpt><trkpt lat="51.682616" lon="39.266403"><ele>112</ele><time>1970-01-01T06:48:33.000Z</time></trkpt><trkpt lat="51.682618" lon="39.266372"><ele>112</ele><time>1970-01-01T06:48:34.000Z</time></trkpt><trkpt lat="51.682624" lon="39.266338"><ele>111.9</ele><time>1970-01-01T06:48:38.000Z</time></trkpt></trkseg></trk></gpx>